<?xml version="1.0" encoding="UTF-8" standalone="no" ?>
<gpx xmlns="http://www.topografix.com/GPX/1/1" xmlns:xsi="http://www.w3.org/2001/XMLSchema-instance" xsi:schemaLocation="http://www.topografix.com/GPX/1/1 http://www.topografix.com/GPX/1/1/gpx.xsd" version="1.1" creator="VisuGPX - https://www.visugpx.com">
  <metadata>
    <name>La Caussette 2023</name>
  </metadata>
  <trk>
    <name><![CDATA[La Caussette 2023_1]]></name>
    <extensions>
      <line xmlns="http://www.topografix.com/GPX/gpx_style/0/2">
        <color>0000FF</color>
        <width>4</width>
      </line>
    </extensions>
    <trkseg>
      <trkpt lat="45.28934" lon="0.91563">
        <ele>173.2</ele>
        <time>2023-09-24T06:21:22Z</time>
      </trkpt>
      <trkpt lat="45.28935" lon="0.91562">
        <ele>173.2</ele>
        <time>2023-09-24T06:21:23Z</time>
      </trkpt>
      <trkpt lat="45.28944" lon="0.91552">
        <ele>173.5</ele>
        <time>2023-09-24T06:21:30Z</time>
      </trkpt>
      <trkpt lat="45.28945" lon="0.91551">
        <ele>173.5</ele>
        <time>2023-09-24T06:21:31Z</time>
      </trkpt>
      <trkpt lat="45.28948" lon="0.91548">
        <ele>173.7</ele>
        <time>2023-09-24T06:21:34Z</time>
      </trkpt>
      <trkpt lat="45.28955" lon="0.91541">
        <ele>174.3</ele>
        <time>2023-09-24T06:21:40Z</time>
      </trkpt>
      <trkpt lat="45.2896" lon="0.91537">
        <ele>174.7</ele>
        <time>2023-09-24T06:21:45Z</time>
      </trkpt>
      <trkpt lat="45.2896" lon="0.91536">
        <ele>174.7</ele>
        <time>2023-09-24T06:21:46Z</time>
      </trkpt>
      <trkpt lat="45.28962" lon="0.91535">
        <ele>174.9</ele>
        <time>2023-09-24T06:21:49Z</time>
      </trkpt>
      <trkpt lat="45.28963" lon="0.91533">
        <ele>175</ele>
        <time>2023-09-24T06:21:51Z</time>
      </trkpt>
      <trkpt lat="45.28967" lon="0.91531">
        <ele>175.4</ele>
        <time>2023-09-24T06:21:57Z</time>
      </trkpt>
      <trkpt lat="45.2897" lon="0.91529">
        <ele>175.7</ele>
        <time>2023-09-24T06:22:01Z</time>
      </trkpt>
      <trkpt lat="45.28973" lon="0.91528">
        <ele>176</ele>
        <time>2023-09-24T06:22:03Z</time>
      </trkpt>
      <trkpt lat="45.28974" lon="0.91522">
        <ele>176.2</ele>
        <time>2023-09-24T06:22:06Z</time>
      </trkpt>
      <trkpt lat="45.28975" lon="0.91519">
        <ele>176.3</ele>
        <time>2023-09-24T06:22:07Z</time>
      </trkpt>
      <trkpt lat="45.28976" lon="0.91517">
        <ele>176.4</ele>
        <time>2023-09-24T06:22:08Z</time>
      </trkpt>
      <trkpt lat="45.28977" lon="0.91515">
        <ele>176.5</ele>
        <time>2023-09-24T06:22:09Z</time>
      </trkpt>
      <trkpt lat="45.28979" lon="0.91513">
        <ele>176.7</ele>
        <time>2023-09-24T06:22:10Z</time>
      </trkpt>
      <trkpt lat="45.28981" lon="0.91513">
        <ele>176.8</ele>
        <time>2023-09-24T06:22:11Z</time>
      </trkpt>
      <trkpt lat="45.28986" lon="0.91508">
        <ele>177.2</ele>
        <time>2023-09-24T06:22:14Z</time>
      </trkpt>
      <trkpt lat="45.28988" lon="0.91506">
        <ele>177.4</ele>
        <time>2023-09-24T06:22:15Z</time>
      </trkpt>
      <trkpt lat="45.28993" lon="0.91498">
        <ele>177.9</ele>
        <time>2023-09-24T06:22:19Z</time>
      </trkpt>
      <trkpt lat="45.28996" lon="0.91495">
        <ele>178.2</ele>
        <time>2023-09-24T06:22:21Z</time>
      </trkpt>
      <trkpt lat="45.29005" lon="0.91481">
        <ele>179.2</ele>
        <time>2023-09-24T06:22:27Z</time>
      </trkpt>
      <trkpt lat="45.29012" lon="0.91473">
        <ele>179.8</ele>
        <time>2023-09-24T06:22:32Z</time>
      </trkpt>
      <trkpt lat="45.29021" lon="0.91463">
        <ele>180.5</ele>
        <time>2023-09-24T06:22:38Z</time>
      </trkpt>
      <trkpt lat="45.29032" lon="0.9145">
        <ele>181.4</ele>
        <time>2023-09-24T06:22:44Z</time>
      </trkpt>
      <trkpt lat="45.29039" lon="0.91442">
        <ele>182</ele>
        <time>2023-09-24T06:22:48Z</time>
      </trkpt>
      <trkpt lat="45.2905" lon="0.9143">
        <ele>182.8</ele>
        <time>2023-09-24T06:22:53Z</time>
      </trkpt>
      <trkpt lat="45.29064" lon="0.91416">
        <ele>183.8</ele>
        <time>2023-09-24T06:22:59Z</time>
      </trkpt>
      <trkpt lat="45.29071" lon="0.91411">
        <ele>184.2</ele>
        <time>2023-09-24T06:23:02Z</time>
      </trkpt>
      <trkpt lat="45.29074" lon="0.91411">
        <ele>184.4</ele>
        <time>2023-09-24T06:23:03Z</time>
      </trkpt>
      <trkpt lat="45.29084" lon="0.91402">
        <ele>185</ele>
        <time>2023-09-24T06:23:07Z</time>
      </trkpt>
      <trkpt lat="45.29096" lon="0.91389">
        <ele>185.8</ele>
        <time>2023-09-24T06:23:12Z</time>
      </trkpt>
      <trkpt lat="45.29101" lon="0.91384">
        <ele>186</ele>
        <time>2023-09-24T06:23:14Z</time>
      </trkpt>
      <trkpt lat="45.29112" lon="0.91375">
        <ele>186.7</ele>
        <time>2023-09-24T06:23:19Z</time>
      </trkpt>
      <trkpt lat="45.29124" lon="0.91361">
        <ele>187.3</ele>
        <time>2023-09-24T06:23:24Z</time>
      </trkpt>
      <trkpt lat="45.29126" lon="0.91356">
        <ele>187.4</ele>
        <time>2023-09-24T06:23:25Z</time>
      </trkpt>
      <trkpt lat="45.29126" lon="0.91348">
        <ele>187.6</ele>
        <time>2023-09-24T06:23:27Z</time>
      </trkpt>
      <trkpt lat="45.29129" lon="0.91341">
        <ele>187.8</ele>
        <time>2023-09-24T06:23:29Z</time>
      </trkpt>
      <trkpt lat="45.29134" lon="0.9134">
        <ele>188</ele>
        <time>2023-09-24T06:23:30Z</time>
      </trkpt>
      <trkpt lat="45.29149" lon="0.91329">
        <ele>188.2</ele>
        <time>2023-09-24T06:23:34Z</time>
      </trkpt>
      <trkpt lat="45.29155" lon="0.91327">
        <ele>187.9</ele>
        <time>2023-09-24T06:23:36Z</time>
      </trkpt>
      <trkpt lat="45.29172" lon="0.91326">
        <ele>186.8</ele>
        <time>2023-09-24T06:23:41Z</time>
      </trkpt>
      <trkpt lat="45.29189" lon="0.91328">
        <ele>184.9</ele>
        <time>2023-09-24T06:23:46Z</time>
      </trkpt>
      <trkpt lat="45.29201" lon="0.9133">
        <ele>183.4</ele>
        <time>2023-09-24T06:23:48Z</time>
      </trkpt>
      <trkpt lat="45.29213" lon="0.91331">
        <ele>181.5</ele>
        <time>2023-09-24T06:23:50Z</time>
      </trkpt>
      <trkpt lat="45.29249" lon="0.91335">
        <ele>175</ele>
        <time>2023-09-24T06:23:54Z</time>
      </trkpt>
      <trkpt lat="45.29292" lon="0.91339">
        <ele>172.7</ele>
        <time>2023-09-24T06:23:58Z</time>
      </trkpt>
      <trkpt lat="45.29301" lon="0.91338">
        <ele>173.5</ele>
        <time>2023-09-24T06:23:59Z</time>
      </trkpt>
      <trkpt lat="45.29309" lon="0.91338">
        <ele>174.3</ele>
        <time>2023-09-24T06:24:00Z</time>
      </trkpt>
      <trkpt lat="45.2932" lon="0.91339">
        <ele>175.6</ele>
        <time>2023-09-24T06:24:02Z</time>
      </trkpt>
      <trkpt lat="45.29334" lon="0.9134">
        <ele>176.9</ele>
        <time>2023-09-24T06:24:06Z</time>
      </trkpt>
      <trkpt lat="45.29346" lon="0.91344">
        <ele>177.8</ele>
        <time>2023-09-24T06:24:11Z</time>
      </trkpt>
      <trkpt lat="45.29348" lon="0.91348">
        <ele>178.1</ele>
        <time>2023-09-24T06:24:13Z</time>
      </trkpt>
      <trkpt lat="45.29344" lon="0.91352">
        <ele>176.6</ele>
        <time>2023-09-24T06:24:15Z</time>
      </trkpt>
      <trkpt lat="45.29334" lon="0.9136">
        <ele>175.2</ele>
        <time>2023-09-24T06:24:18Z</time>
      </trkpt>
      <trkpt lat="45.29328" lon="0.91362">
        <ele>174.6</ele>
        <time>2023-09-24T06:24:19Z</time>
      </trkpt>
      <trkpt lat="45.29303" lon="0.91373">
        <ele>171.2</ele>
        <time>2023-09-24T06:24:23Z</time>
      </trkpt>
      <trkpt lat="45.29261" lon="0.9139">
        <ele>169.9</ele>
        <time>2023-09-24T06:24:29Z</time>
      </trkpt>
      <trkpt lat="45.29246" lon="0.91395">
        <ele>171.4</ele>
        <time>2023-09-24T06:24:33Z</time>
      </trkpt>
      <trkpt lat="45.29238" lon="0.91399">
        <ele>172.4</ele>
        <time>2023-09-24T06:24:36Z</time>
      </trkpt>
      <trkpt lat="45.29232" lon="0.91401">
        <ele>173.2</ele>
        <time>2023-09-24T06:24:38Z</time>
      </trkpt>
      <trkpt lat="45.29218" lon="0.91407">
        <ele>175.1</ele>
        <time>2023-09-24T06:24:44Z</time>
      </trkpt>
      <trkpt lat="45.29203" lon="0.91413">
        <ele>177.2</ele>
        <time>2023-09-24T06:24:50Z</time>
      </trkpt>
      <trkpt lat="45.29185" lon="0.91422">
        <ele>179.4</ele>
        <time>2023-09-24T06:24:58Z</time>
      </trkpt>
      <trkpt lat="45.29166" lon="0.91426">
        <ele>181.1</ele>
        <time>2023-09-24T06:25:05Z</time>
      </trkpt>
      <trkpt lat="45.29149" lon="0.91431">
        <ele>182.3</ele>
        <time>2023-09-24T06:25:11Z</time>
      </trkpt>
      <trkpt lat="45.29134" lon="0.91439">
        <ele>182.8</ele>
        <time>2023-09-24T06:25:16Z</time>
      </trkpt>
      <trkpt lat="45.29131" lon="0.91441">
        <ele>182.8</ele>
        <time>2023-09-24T06:25:17Z</time>
      </trkpt>
      <trkpt lat="45.29124" lon="0.91442">
        <ele>182.9</ele>
        <time>2023-09-24T06:25:19Z</time>
      </trkpt>
      <trkpt lat="45.29097" lon="0.91452">
        <ele>182.4</ele>
        <time>2023-09-24T06:25:26Z</time>
      </trkpt>
      <trkpt lat="45.29067" lon="0.91471">
        <ele>181.2</ele>
        <time>2023-09-24T06:25:33Z</time>
      </trkpt>
      <trkpt lat="45.29052" lon="0.91478">
        <ele>180.4</ele>
        <time>2023-09-24T06:25:36Z</time>
      </trkpt>
      <trkpt lat="45.29041" lon="0.91481">
        <ele>180.1</ele>
        <time>2023-09-24T06:25:38Z</time>
      </trkpt>
      <trkpt lat="45.29031" lon="0.91481">
        <ele>179.8</ele>
        <time>2023-09-24T06:25:40Z</time>
      </trkpt>
      <trkpt lat="45.29024" lon="0.91486">
        <ele>179.7</ele>
        <time>2023-09-24T06:25:42Z</time>
      </trkpt>
      <trkpt lat="45.29022" lon="0.91489">
        <ele>179.6</ele>
        <time>2023-09-24T06:25:44Z</time>
      </trkpt>
      <trkpt lat="45.29022" lon="0.91491">
        <ele>179.4</ele>
        <time>2023-09-24T06:25:45Z</time>
      </trkpt>
      <trkpt lat="45.29022" lon="0.91494">
        <ele>179.4</ele>
        <time>2023-09-24T06:25:46Z</time>
      </trkpt>
      <trkpt lat="45.29026" lon="0.91501">
        <ele>179.1</ele>
        <time>2023-09-24T06:25:49Z</time>
      </trkpt>
      <trkpt lat="45.29026" lon="0.91505">
        <ele>179</ele>
        <time>2023-09-24T06:25:51Z</time>
      </trkpt>
      <trkpt lat="45.29027" lon="0.91509">
        <ele>178.9</ele>
        <time>2023-09-24T06:25:54Z</time>
      </trkpt>
      <trkpt lat="45.29028" lon="0.91513">
        <ele>178.8</ele>
        <time>2023-09-24T06:25:55Z</time>
      </trkpt>
      <trkpt lat="45.29029" lon="0.91529">
        <ele>178.4</ele>
        <time>2023-09-24T06:25:58Z</time>
      </trkpt>
      <trkpt lat="45.29027" lon="0.91532">
        <ele>178.2</ele>
        <time>2023-09-24T06:25:59Z</time>
      </trkpt>
      <trkpt lat="45.29021" lon="0.91543">
        <ele>177.7</ele>
        <time>2023-09-24T06:26:02Z</time>
      </trkpt>
      <trkpt lat="45.29019" lon="0.91552">
        <ele>177.2</ele>
        <time>2023-09-24T06:26:04Z</time>
      </trkpt>
      <trkpt lat="45.29019" lon="0.91555">
        <ele>177.1</ele>
        <time>2023-09-24T06:26:05Z</time>
      </trkpt>
      <trkpt lat="45.29015" lon="0.91557">
        <ele>176.8</ele>
        <time>2023-09-24T06:26:08Z</time>
      </trkpt>
      <trkpt lat="45.29016" lon="0.91559">
        <ele>176.6</ele>
        <time>2023-09-24T06:26:09Z</time>
      </trkpt>
      <trkpt lat="45.29014" lon="0.91567">
        <ele>176.2</ele>
        <time>2023-09-24T06:26:15Z</time>
      </trkpt>
      <trkpt lat="45.29017" lon="0.91574">
        <ele>175.7</ele>
        <time>2023-09-24T06:26:17Z</time>
      </trkpt>
      <trkpt lat="45.29021" lon="0.91594">
        <ele>174.8</ele>
        <time>2023-09-24T06:26:21Z</time>
      </trkpt>
      <trkpt lat="45.29023" lon="0.91599">
        <ele>174.7</ele>
        <time>2023-09-24T06:26:22Z</time>
      </trkpt>
      <trkpt lat="45.29024" lon="0.91608">
        <ele>174.3</ele>
        <time>2023-09-24T06:26:24Z</time>
      </trkpt>
      <trkpt lat="45.29025" lon="0.91614">
        <ele>174.1</ele>
        <time>2023-09-24T06:26:25Z</time>
      </trkpt>
      <trkpt lat="45.29029" lon="0.91624">
        <ele>173.7</ele>
        <time>2023-09-24T06:26:27Z</time>
      </trkpt>
      <trkpt lat="45.29031" lon="0.91635">
        <ele>173.1</ele>
        <time>2023-09-24T06:26:30Z</time>
      </trkpt>
      <trkpt lat="45.29031" lon="0.91638">
        <ele>173</ele>
        <time>2023-09-24T06:26:31Z</time>
      </trkpt>
      <trkpt lat="45.29028" lon="0.91644">
        <ele>172.5</ele>
        <time>2023-09-24T06:26:33Z</time>
      </trkpt>
      <trkpt lat="45.29028" lon="0.91647">
        <ele>172.3</ele>
        <time>2023-09-24T06:26:34Z</time>
      </trkpt>
      <trkpt lat="45.29031" lon="0.91655">
        <ele>171.7</ele>
        <time>2023-09-24T06:26:36Z</time>
      </trkpt>
      <trkpt lat="45.29032" lon="0.91658">
        <ele>171.5</ele>
        <time>2023-09-24T06:26:37Z</time>
      </trkpt>
      <trkpt lat="45.2903" lon="0.9167">
        <ele>170.3</ele>
        <time>2023-09-24T06:26:40Z</time>
      </trkpt>
      <trkpt lat="45.29028" lon="0.91675">
        <ele>169.7</ele>
        <time>2023-09-24T06:26:41Z</time>
      </trkpt>
      <trkpt lat="45.29028" lon="0.91689">
        <ele>168</ele>
        <time>2023-09-24T06:26:43Z</time>
      </trkpt>
      <trkpt lat="45.29026" lon="0.91707">
        <ele>166.2</ele>
        <time>2023-09-24T06:26:45Z</time>
      </trkpt>
      <trkpt lat="45.29023" lon="0.91715">
        <ele>165.5</ele>
        <time>2023-09-24T06:26:46Z</time>
      </trkpt>
      <trkpt lat="45.29019" lon="0.91728">
        <ele>164.6</ele>
        <time>2023-09-24T06:26:48Z</time>
      </trkpt>
      <trkpt lat="45.29019" lon="0.91735">
        <ele>164.3</ele>
        <time>2023-09-24T06:26:49Z</time>
      </trkpt>
      <trkpt lat="45.2902" lon="0.91743">
        <ele>163.9</ele>
        <time>2023-09-24T06:26:50Z</time>
      </trkpt>
      <trkpt lat="45.29028" lon="0.91756">
        <ele>162.3</ele>
        <time>2023-09-24T06:26:52Z</time>
      </trkpt>
      <trkpt lat="45.29059" lon="0.91795">
        <ele>159</ele>
        <time>2023-09-24T06:26:58Z</time>
      </trkpt>
      <trkpt lat="45.29083" lon="0.9182">
        <ele>156.7</ele>
        <time>2023-09-24T06:27:02Z</time>
      </trkpt>
      <trkpt lat="45.29094" lon="0.91834">
        <ele>155.7</ele>
        <time>2023-09-24T06:27:04Z</time>
      </trkpt>
      <trkpt lat="45.29127" lon="0.9187">
        <ele>154.5</ele>
        <time>2023-09-24T06:27:10Z</time>
      </trkpt>
      <trkpt lat="45.29145" lon="0.91894">
        <ele>154.2</ele>
        <time>2023-09-24T06:27:14Z</time>
      </trkpt>
      <trkpt lat="45.29156" lon="0.91913">
        <ele>153.9</ele>
        <time>2023-09-24T06:27:17Z</time>
      </trkpt>
      <trkpt lat="45.29159" lon="0.91921">
        <ele>153.7</ele>
        <time>2023-09-24T06:27:18Z</time>
      </trkpt>
      <trkpt lat="45.29165" lon="0.91937">
        <ele>153.6</ele>
        <time>2023-09-24T06:27:20Z</time>
      </trkpt>
      <trkpt lat="45.29169" lon="0.91954">
        <ele>153.8</ele>
        <time>2023-09-24T06:27:22Z</time>
      </trkpt>
      <trkpt lat="45.29173" lon="0.91973">
        <ele>154.8</ele>
        <time>2023-09-24T06:27:25Z</time>
      </trkpt>
      <trkpt lat="45.2918" lon="0.91991">
        <ele>156.9</ele>
        <time>2023-09-24T06:27:30Z</time>
      </trkpt>
      <trkpt lat="45.29192" lon="0.91996">
        <ele>159</ele>
        <time>2023-09-24T06:27:35Z</time>
      </trkpt>
      <trkpt lat="45.2921" lon="0.91996">
        <ele>161.3</ele>
        <time>2023-09-24T06:27:42Z</time>
      </trkpt>
      <trkpt lat="45.2923" lon="0.91993">
        <ele>163.2</ele>
        <time>2023-09-24T06:27:50Z</time>
      </trkpt>
      <trkpt lat="45.29245" lon="0.91989">
        <ele>164.3</ele>
        <time>2023-09-24T06:27:56Z</time>
      </trkpt>
      <trkpt lat="45.29257" lon="0.9198">
        <ele>164.9</ele>
        <time>2023-09-24T06:28:01Z</time>
      </trkpt>
      <trkpt lat="45.29265" lon="0.9198">
        <ele>165.5</ele>
        <time>2023-09-24T06:28:04Z</time>
      </trkpt>
      <trkpt lat="45.29273" lon="0.91977">
        <ele>165.8</ele>
        <time>2023-09-24T06:28:07Z</time>
      </trkpt>
      <trkpt lat="45.29292" lon="0.91966">
        <ele>166.3</ele>
        <time>2023-09-24T06:28:14Z</time>
      </trkpt>
      <trkpt lat="45.29313" lon="0.91954">
        <ele>166.8</ele>
        <time>2023-09-24T06:28:21Z</time>
      </trkpt>
      <trkpt lat="45.29328" lon="0.9195">
        <ele>167.5</ele>
        <time>2023-09-24T06:28:26Z</time>
      </trkpt>
      <trkpt lat="45.29331" lon="0.91949">
        <ele>167.7</ele>
        <time>2023-09-24T06:28:27Z</time>
      </trkpt>
      <trkpt lat="45.29355" lon="0.9195">
        <ele>169.3</ele>
        <time>2023-09-24T06:28:36Z</time>
      </trkpt>
      <trkpt lat="45.29374" lon="0.91954">
        <ele>170.6</ele>
        <time>2023-09-24T06:28:44Z</time>
      </trkpt>
      <trkpt lat="45.29392" lon="0.91959">
        <ele>171.8</ele>
        <time>2023-09-24T06:28:51Z</time>
      </trkpt>
      <trkpt lat="45.29404" lon="0.91964">
        <ele>172.4</ele>
        <time>2023-09-24T06:28:56Z</time>
      </trkpt>
      <trkpt lat="45.29409" lon="0.91966">
        <ele>172.7</ele>
        <time>2023-09-24T06:28:58Z</time>
      </trkpt>
      <trkpt lat="45.29412" lon="0.91967">
        <ele>172.8</ele>
        <time>2023-09-24T06:28:59Z</time>
      </trkpt>
      <trkpt lat="45.29414" lon="0.91967">
        <ele>172.9</ele>
        <time>2023-09-24T06:29:00Z</time>
      </trkpt>
      <trkpt lat="45.29429" lon="0.91973">
        <ele>173.5</ele>
        <time>2023-09-24T06:29:06Z</time>
      </trkpt>
      <trkpt lat="45.29446" lon="0.91972">
        <ele>173.9</ele>
        <time>2023-09-24T06:29:12Z</time>
      </trkpt>
      <trkpt lat="45.29464" lon="0.91979">
        <ele>174.2</ele>
        <time>2023-09-24T06:29:18Z</time>
      </trkpt>
      <trkpt lat="45.29481" lon="0.91994">
        <ele>175.4</ele>
        <time>2023-09-24T06:29:25Z</time>
      </trkpt>
      <trkpt lat="45.29481" lon="0.91997">
        <ele>175.6</ele>
        <time>2023-09-24T06:29:26Z</time>
      </trkpt>
      <trkpt lat="45.29478" lon="0.92007">
        <ele>176.1</ele>
        <time>2023-09-24T06:29:29Z</time>
      </trkpt>
      <trkpt lat="45.29477" lon="0.92011">
        <ele>176.3</ele>
        <time>2023-09-24T06:29:30Z</time>
      </trkpt>
      <trkpt lat="45.29477" lon="0.92021">
        <ele>176.8</ele>
        <time>2023-09-24T06:29:33Z</time>
      </trkpt>
      <trkpt lat="45.29479" lon="0.92024">
        <ele>176.9</ele>
        <time>2023-09-24T06:29:34Z</time>
      </trkpt>
      <trkpt lat="45.2948" lon="0.92026">
        <ele>177.1</ele>
        <time>2023-09-24T06:29:35Z</time>
      </trkpt>
      <trkpt lat="45.29482" lon="0.92032">
        <ele>177.3</ele>
        <time>2023-09-24T06:29:37Z</time>
      </trkpt>
      <trkpt lat="45.29482" lon="0.92035">
        <ele>177.4</ele>
        <time>2023-09-24T06:29:38Z</time>
      </trkpt>
      <trkpt lat="45.29478" lon="0.9205">
        <ele>178</ele>
        <time>2023-09-24T06:29:42Z</time>
      </trkpt>
      <trkpt lat="45.29472" lon="0.92073">
        <ele>178.6</ele>
        <time>2023-09-24T06:29:48Z</time>
      </trkpt>
      <trkpt lat="45.29471" lon="0.9208">
        <ele>178.7</ele>
        <time>2023-09-24T06:29:50Z</time>
      </trkpt>
      <trkpt lat="45.29467" lon="0.92091">
        <ele>178.9</ele>
        <time>2023-09-24T06:29:53Z</time>
      </trkpt>
      <trkpt lat="45.29466" lon="0.92095">
        <ele>179</ele>
        <time>2023-09-24T06:29:54Z</time>
      </trkpt>
      <trkpt lat="45.29461" lon="0.92111">
        <ele>179.3</ele>
        <time>2023-09-24T06:29:58Z</time>
      </trkpt>
      <trkpt lat="45.29457" lon="0.92118">
        <ele>179.4</ele>
        <time>2023-09-24T06:30:00Z</time>
      </trkpt>
      <trkpt lat="45.29454" lon="0.92125">
        <ele>179.4</ele>
        <time>2023-09-24T06:30:02Z</time>
      </trkpt>
      <trkpt lat="45.29452" lon="0.92136">
        <ele>179.5</ele>
        <time>2023-09-24T06:30:05Z</time>
      </trkpt>
      <trkpt lat="45.29453" lon="0.92141">
        <ele>179.5</ele>
        <time>2023-09-24T06:30:06Z</time>
      </trkpt>
      <trkpt lat="45.29455" lon="0.92145">
        <ele>179.4</ele>
        <time>2023-09-24T06:30:07Z</time>
      </trkpt>
      <trkpt lat="45.29461" lon="0.92157">
        <ele>179.3</ele>
        <time>2023-09-24T06:30:10Z</time>
      </trkpt>
      <trkpt lat="45.29464" lon="0.92159">
        <ele>179.2</ele>
        <time>2023-09-24T06:30:11Z</time>
      </trkpt>
      <trkpt lat="45.29471" lon="0.92163">
        <ele>179.1</ele>
        <time>2023-09-24T06:30:15Z</time>
      </trkpt>
      <trkpt lat="45.29477" lon="0.92168">
        <ele>179</ele>
        <time>2023-09-24T06:30:19Z</time>
      </trkpt>
      <trkpt lat="45.29479" lon="0.9217">
        <ele>178.9</ele>
        <time>2023-09-24T06:30:20Z</time>
      </trkpt>
      <trkpt lat="45.29482" lon="0.92167">
        <ele>178.8</ele>
        <time>2023-09-24T06:30:22Z</time>
      </trkpt>
      <trkpt lat="45.29483" lon="0.92165">
        <ele>178.7</ele>
        <time>2023-09-24T06:30:23Z</time>
      </trkpt>
      <trkpt lat="45.29491" lon="0.92159">
        <ele>178.4</ele>
        <time>2023-09-24T06:30:26Z</time>
      </trkpt>
      <trkpt lat="45.29493" lon="0.92156">
        <ele>178.3</ele>
        <time>2023-09-24T06:30:27Z</time>
      </trkpt>
      <trkpt lat="45.29496" lon="0.92148">
        <ele>178.1</ele>
        <time>2023-09-24T06:30:29Z</time>
      </trkpt>
      <trkpt lat="45.29499" lon="0.92147">
        <ele>178</ele>
        <time>2023-09-24T06:30:30Z</time>
      </trkpt>
      <trkpt lat="45.29515" lon="0.92141">
        <ele>177.6</ele>
        <time>2023-09-24T06:30:35Z</time>
      </trkpt>
      <trkpt lat="45.29527" lon="0.92135">
        <ele>177.4</ele>
        <time>2023-09-24T06:30:39Z</time>
      </trkpt>
      <trkpt lat="45.29539" lon="0.92128">
        <ele>177.2</ele>
        <time>2023-09-24T06:30:43Z</time>
      </trkpt>
      <trkpt lat="45.29551" lon="0.92129">
        <ele>177.1</ele>
        <time>2023-09-24T06:30:46Z</time>
      </trkpt>
      <trkpt lat="45.29557" lon="0.92124">
        <ele>177</ele>
        <time>2023-09-24T06:30:48Z</time>
      </trkpt>
      <trkpt lat="45.2956" lon="0.92123">
        <ele>177</ele>
        <time>2023-09-24T06:30:49Z</time>
      </trkpt>
      <trkpt lat="45.29563" lon="0.92122">
        <ele>176.9</ele>
        <time>2023-09-24T06:30:50Z</time>
      </trkpt>
      <trkpt lat="45.29571" lon="0.92117">
        <ele>176.8</ele>
        <time>2023-09-24T06:30:54Z</time>
      </trkpt>
      <trkpt lat="45.2958" lon="0.92108">
        <ele>176.8</ele>
        <time>2023-09-24T06:30:59Z</time>
      </trkpt>
      <trkpt lat="45.29583" lon="0.92102">
        <ele>176.9</ele>
        <time>2023-09-24T06:31:01Z</time>
      </trkpt>
      <trkpt lat="45.29585" lon="0.92096">
        <ele>177</ele>
        <time>2023-09-24T06:31:03Z</time>
      </trkpt>
      <trkpt lat="45.29589" lon="0.92089">
        <ele>177.1</ele>
        <time>2023-09-24T06:31:06Z</time>
      </trkpt>
      <trkpt lat="45.29591" lon="0.92086">
        <ele>177.2</ele>
        <time>2023-09-24T06:31:07Z</time>
      </trkpt>
      <trkpt lat="45.29596" lon="0.92069">
        <ele>177.5</ele>
        <time>2023-09-24T06:31:12Z</time>
      </trkpt>
      <trkpt lat="45.296" lon="0.92067">
        <ele>177.6</ele>
        <time>2023-09-24T06:31:14Z</time>
      </trkpt>
      <trkpt lat="45.29604" lon="0.92068">
        <ele>177.8</ele>
        <time>2023-09-24T06:31:15Z</time>
      </trkpt>
      <trkpt lat="45.29618" lon="0.92069">
        <ele>177.9</ele>
        <time>2023-09-24T06:31:19Z</time>
      </trkpt>
      <trkpt lat="45.29623" lon="0.92068">
        <ele>177.9</ele>
        <time>2023-09-24T06:31:20Z</time>
      </trkpt>
      <trkpt lat="45.29631" lon="0.92071">
        <ele>178</ele>
        <time>2023-09-24T06:31:22Z</time>
      </trkpt>
      <trkpt lat="45.29647" lon="0.92078">
        <ele>178</ele>
        <time>2023-09-24T06:31:26Z</time>
      </trkpt>
      <trkpt lat="45.29663" lon="0.92089">
        <ele>178</ele>
        <time>2023-09-24T06:31:30Z</time>
      </trkpt>
      <trkpt lat="45.29671" lon="0.92095">
        <ele>177.9</ele>
        <time>2023-09-24T06:31:32Z</time>
      </trkpt>
      <trkpt lat="45.29678" lon="0.92102">
        <ele>177.8</ele>
        <time>2023-09-24T06:31:34Z</time>
      </trkpt>
      <trkpt lat="45.29686" lon="0.92105">
        <ele>177.7</ele>
        <time>2023-09-24T06:31:36Z</time>
      </trkpt>
      <trkpt lat="45.29689" lon="0.92101">
        <ele>177.7</ele>
        <time>2023-09-24T06:31:37Z</time>
      </trkpt>
      <trkpt lat="45.29694" lon="0.92088">
        <ele>177.8</ele>
        <time>2023-09-24T06:31:40Z</time>
      </trkpt>
      <trkpt lat="45.29697" lon="0.9208">
        <ele>177.9</ele>
        <time>2023-09-24T06:31:42Z</time>
      </trkpt>
      <trkpt lat="45.29707" lon="0.9205">
        <ele>178.8</ele>
        <time>2023-09-24T06:31:48Z</time>
      </trkpt>
      <trkpt lat="45.29711" lon="0.92027">
        <ele>179.6</ele>
        <time>2023-09-24T06:31:53Z</time>
      </trkpt>
      <trkpt lat="45.29713" lon="0.92003">
        <ele>180.5</ele>
        <time>2023-09-24T06:31:58Z</time>
      </trkpt>
      <trkpt lat="45.29716" lon="0.9197">
        <ele>181.9</ele>
        <time>2023-09-24T06:32:05Z</time>
      </trkpt>
      <trkpt lat="45.29719" lon="0.9194">
        <ele>183.6</ele>
        <time>2023-09-24T06:32:12Z</time>
      </trkpt>
      <trkpt lat="45.29723" lon="0.91921">
        <ele>184.7</ele>
        <time>2023-09-24T06:32:17Z</time>
      </trkpt>
      <trkpt lat="45.29724" lon="0.91913">
        <ele>185.2</ele>
        <time>2023-09-24T06:32:19Z</time>
      </trkpt>
      <trkpt lat="45.29725" lon="0.91907">
        <ele>185.5</ele>
        <time>2023-09-24T06:32:21Z</time>
      </trkpt>
      <trkpt lat="45.29729" lon="0.9189">
        <ele>186.6</ele>
        <time>2023-09-24T06:32:26Z</time>
      </trkpt>
      <trkpt lat="45.29729" lon="0.91885">
        <ele>186.9</ele>
        <time>2023-09-24T06:32:27Z</time>
      </trkpt>
      <trkpt lat="45.29731" lon="0.91872">
        <ele>187.8</ele>
        <time>2023-09-24T06:32:31Z</time>
      </trkpt>
      <trkpt lat="45.29732" lon="0.91869">
        <ele>188</ele>
        <time>2023-09-24T06:32:32Z</time>
      </trkpt>
      <trkpt lat="45.29736" lon="0.91859">
        <ele>188.7</ele>
        <time>2023-09-24T06:32:35Z</time>
      </trkpt>
      <trkpt lat="45.29742" lon="0.91843">
        <ele>189.7</ele>
        <time>2023-09-24T06:32:40Z</time>
      </trkpt>
      <trkpt lat="45.29744" lon="0.9184">
        <ele>189.8</ele>
        <time>2023-09-24T06:32:41Z</time>
      </trkpt>
      <trkpt lat="45.2975" lon="0.91825">
        <ele>190.5</ele>
        <time>2023-09-24T06:32:46Z</time>
      </trkpt>
      <trkpt lat="45.29761" lon="0.91808">
        <ele>191.2</ele>
        <time>2023-09-24T06:32:52Z</time>
      </trkpt>
      <trkpt lat="45.29763" lon="0.91806">
        <ele>191.3</ele>
        <time>2023-09-24T06:32:53Z</time>
      </trkpt>
      <trkpt lat="45.29774" lon="0.91791">
        <ele>191.8</ele>
        <time>2023-09-24T06:32:58Z</time>
      </trkpt>
      <trkpt lat="45.29778" lon="0.91787">
        <ele>192</ele>
        <time>2023-09-24T06:33:00Z</time>
      </trkpt>
      <trkpt lat="45.29783" lon="0.91778">
        <ele>192.4</ele>
        <time>2023-09-24T06:33:03Z</time>
      </trkpt>
      <trkpt lat="45.29785" lon="0.91776">
        <ele>192.5</ele>
        <time>2023-09-24T06:33:04Z</time>
      </trkpt>
      <trkpt lat="45.29789" lon="0.91768">
        <ele>192.8</ele>
        <time>2023-09-24T06:33:07Z</time>
      </trkpt>
      <trkpt lat="45.2979" lon="0.91765">
        <ele>192.8</ele>
        <time>2023-09-24T06:33:08Z</time>
      </trkpt>
      <trkpt lat="45.29788" lon="0.9176">
        <ele>193</ele>
        <time>2023-09-24T06:33:10Z</time>
      </trkpt>
      <trkpt lat="45.29788" lon="0.91753">
        <ele>193.1</ele>
        <time>2023-09-24T06:33:13Z</time>
      </trkpt>
      <trkpt lat="45.29787" lon="0.9175">
        <ele>193.2</ele>
        <time>2023-09-24T06:33:14Z</time>
      </trkpt>
      <trkpt lat="45.29784" lon="0.91745">
        <ele>193.4</ele>
        <time>2023-09-24T06:33:16Z</time>
      </trkpt>
      <trkpt lat="45.29779" lon="0.91736">
        <ele>193.6</ele>
        <time>2023-09-24T06:33:19Z</time>
      </trkpt>
      <trkpt lat="45.29778" lon="0.91733">
        <ele>193.7</ele>
        <time>2023-09-24T06:33:20Z</time>
      </trkpt>
      <trkpt lat="45.29779" lon="0.91728">
        <ele>193.8</ele>
        <time>2023-09-24T06:33:22Z</time>
      </trkpt>
      <trkpt lat="45.29782" lon="0.91723">
        <ele>193.9</ele>
        <time>2023-09-24T06:33:24Z</time>
      </trkpt>
      <trkpt lat="45.29787" lon="0.9172">
        <ele>194</ele>
        <time>2023-09-24T06:33:27Z</time>
      </trkpt>
      <trkpt lat="45.29792" lon="0.91709">
        <ele>194.1</ele>
        <time>2023-09-24T06:33:31Z</time>
      </trkpt>
      <trkpt lat="45.29794" lon="0.91704">
        <ele>194.2</ele>
        <time>2023-09-24T06:33:33Z</time>
      </trkpt>
      <trkpt lat="45.29798" lon="0.91699">
        <ele>194.3</ele>
        <time>2023-09-24T06:33:35Z</time>
      </trkpt>
      <trkpt lat="45.29806" lon="0.9168">
        <ele>194.7</ele>
        <time>2023-09-24T06:33:40Z</time>
      </trkpt>
      <trkpt lat="45.29817" lon="0.91656">
        <ele>195.3</ele>
        <time>2023-09-24T06:33:46Z</time>
      </trkpt>
      <trkpt lat="45.29818" lon="0.91649">
        <ele>195.4</ele>
        <time>2023-09-24T06:33:48Z</time>
      </trkpt>
      <trkpt lat="45.2982" lon="0.91644">
        <ele>195.5</ele>
        <time>2023-09-24T06:33:50Z</time>
      </trkpt>
      <trkpt lat="45.29824" lon="0.91644">
        <ele>195.6</ele>
        <time>2023-09-24T06:33:51Z</time>
      </trkpt>
      <trkpt lat="45.29833" lon="0.91643">
        <ele>195.6</ele>
        <time>2023-09-24T06:33:53Z</time>
      </trkpt>
      <trkpt lat="45.29836" lon="0.91644">
        <ele>195.6</ele>
        <time>2023-09-24T06:33:54Z</time>
      </trkpt>
      <trkpt lat="45.29849" lon="0.91644">
        <ele>195.3</ele>
        <time>2023-09-24T06:33:57Z</time>
      </trkpt>
      <trkpt lat="45.29853" lon="0.91646">
        <ele>195.2</ele>
        <time>2023-09-24T06:33:58Z</time>
      </trkpt>
      <trkpt lat="45.29857" lon="0.91647">
        <ele>195.1</ele>
        <time>2023-09-24T06:33:59Z</time>
      </trkpt>
      <trkpt lat="45.29866" lon="0.9165">
        <ele>194.9</ele>
        <time>2023-09-24T06:34:01Z</time>
      </trkpt>
      <trkpt lat="45.29881" lon="0.9165">
        <ele>194.5</ele>
        <time>2023-09-24T06:34:04Z</time>
      </trkpt>
      <trkpt lat="45.29884" lon="0.91647">
        <ele>194.5</ele>
        <time>2023-09-24T06:34:05Z</time>
      </trkpt>
      <trkpt lat="45.29887" lon="0.91644">
        <ele>194.5</ele>
        <time>2023-09-24T06:34:06Z</time>
      </trkpt>
      <trkpt lat="45.29892" lon="0.91635">
        <ele>194.5</ele>
        <time>2023-09-24T06:34:08Z</time>
      </trkpt>
      <trkpt lat="45.29902" lon="0.91622">
        <ele>194.4</ele>
        <time>2023-09-24T06:34:11Z</time>
      </trkpt>
      <trkpt lat="45.29904" lon="0.91617">
        <ele>194.5</ele>
        <time>2023-09-24T06:34:12Z</time>
      </trkpt>
      <trkpt lat="45.29908" lon="0.91595">
        <ele>194.9</ele>
        <time>2023-09-24T06:34:16Z</time>
      </trkpt>
      <trkpt lat="45.29906" lon="0.9159">
        <ele>194.9</ele>
        <time>2023-09-24T06:34:17Z</time>
      </trkpt>
      <trkpt lat="45.29903" lon="0.91587">
        <ele>194.9</ele>
        <time>2023-09-24T06:34:18Z</time>
      </trkpt>
      <trkpt lat="45.29895" lon="0.91585">
        <ele>194.9</ele>
        <time>2023-09-24T06:34:20Z</time>
      </trkpt>
      <trkpt lat="45.29887" lon="0.91583">
        <ele>194.9</ele>
        <time>2023-09-24T06:34:22Z</time>
      </trkpt>
      <trkpt lat="45.2988" lon="0.91581">
        <ele>194.8</ele>
        <time>2023-09-24T06:34:24Z</time>
      </trkpt>
      <trkpt lat="45.29872" lon="0.91578">
        <ele>194.8</ele>
        <time>2023-09-24T06:34:26Z</time>
      </trkpt>
      <trkpt lat="45.29855" lon="0.91566">
        <ele>194.5</ele>
        <time>2023-09-24T06:34:31Z</time>
      </trkpt>
      <trkpt lat="45.29853" lon="0.91562">
        <ele>194.4</ele>
        <time>2023-09-24T06:34:32Z</time>
      </trkpt>
      <trkpt lat="45.29852" lon="0.91548">
        <ele>194.2</ele>
        <time>2023-09-24T06:34:34Z</time>
      </trkpt>
      <trkpt lat="45.29856" lon="0.91535">
        <ele>194</ele>
        <time>2023-09-24T06:34:36Z</time>
      </trkpt>
      <trkpt lat="45.29863" lon="0.91523">
        <ele>193.8</ele>
        <time>2023-09-24T06:34:38Z</time>
      </trkpt>
      <trkpt lat="45.29873" lon="0.91508">
        <ele>193.6</ele>
        <time>2023-09-24T06:34:41Z</time>
      </trkpt>
      <trkpt lat="45.29882" lon="0.9149">
        <ele>193.3</ele>
        <time>2023-09-24T06:34:44Z</time>
      </trkpt>
      <trkpt lat="45.29902" lon="0.91454">
        <ele>192.5</ele>
        <time>2023-09-24T06:34:50Z</time>
      </trkpt>
      <trkpt lat="45.29902" lon="0.91444">
        <ele>192.3</ele>
        <time>2023-09-24T06:34:52Z</time>
      </trkpt>
      <trkpt lat="45.29893" lon="0.91432">
        <ele>191.8</ele>
        <time>2023-09-24T06:34:55Z</time>
      </trkpt>
      <trkpt lat="45.29875" lon="0.91419">
        <ele>191.3</ele>
        <time>2023-09-24T06:35:00Z</time>
      </trkpt>
      <trkpt lat="45.2987" lon="0.91416">
        <ele>191.2</ele>
        <time>2023-09-24T06:35:01Z</time>
      </trkpt>
      <trkpt lat="45.2985" lon="0.91413">
        <ele>190.9</ele>
        <time>2023-09-24T06:35:05Z</time>
      </trkpt>
      <trkpt lat="45.29808" lon="0.91405">
        <ele>189.9</ele>
        <time>2023-09-24T06:35:13Z</time>
      </trkpt>
      <trkpt lat="45.29785" lon="0.914">
        <ele>189.1</ele>
        <time>2023-09-24T06:35:17Z</time>
      </trkpt>
      <trkpt lat="45.29773" lon="0.91399">
        <ele>188.7</ele>
        <time>2023-09-24T06:35:19Z</time>
      </trkpt>
      <trkpt lat="45.29755" lon="0.91398">
        <ele>188.1</ele>
        <time>2023-09-24T06:35:22Z</time>
      </trkpt>
      <trkpt lat="45.2973" lon="0.914">
        <ele>187.4</ele>
        <time>2023-09-24T06:35:26Z</time>
      </trkpt>
      <trkpt lat="45.29692" lon="0.91399">
        <ele>185.4</ele>
        <time>2023-09-24T06:35:32Z</time>
      </trkpt>
      <trkpt lat="45.29685" lon="0.91398">
        <ele>184.9</ele>
        <time>2023-09-24T06:35:33Z</time>
      </trkpt>
      <trkpt lat="45.29672" lon="0.91394">
        <ele>183.7</ele>
        <time>2023-09-24T06:35:35Z</time>
      </trkpt>
      <trkpt lat="45.29666" lon="0.91391">
        <ele>183.1</ele>
        <time>2023-09-24T06:35:36Z</time>
      </trkpt>
      <trkpt lat="45.29659" lon="0.91388">
        <ele>182.4</ele>
        <time>2023-09-24T06:35:37Z</time>
      </trkpt>
      <trkpt lat="45.29639" lon="0.91387">
        <ele>180.3</ele>
        <time>2023-09-24T06:35:40Z</time>
      </trkpt>
      <trkpt lat="45.29631" lon="0.91386">
        <ele>179.6</ele>
        <time>2023-09-24T06:35:41Z</time>
      </trkpt>
      <trkpt lat="45.29609" lon="0.91386">
        <ele>178</ele>
        <time>2023-09-24T06:35:44Z</time>
      </trkpt>
      <trkpt lat="45.29594" lon="0.91383">
        <ele>177.5</ele>
        <time>2023-09-24T06:35:46Z</time>
      </trkpt>
      <trkpt lat="45.29581" lon="0.91385">
        <ele>177.3</ele>
        <time>2023-09-24T06:35:48Z</time>
      </trkpt>
      <trkpt lat="45.29545" lon="0.91386">
        <ele>177.5</ele>
        <time>2023-09-24T06:35:53Z</time>
      </trkpt>
      <trkpt lat="45.29535" lon="0.91387">
        <ele>178.1</ele>
        <time>2023-09-24T06:35:55Z</time>
      </trkpt>
      <trkpt lat="45.2952" lon="0.91387">
        <ele>179.1</ele>
        <time>2023-09-24T06:35:58Z</time>
      </trkpt>
      <trkpt lat="45.29496" lon="0.91386">
        <ele>180.7</ele>
        <time>2023-09-24T06:36:03Z</time>
      </trkpt>
      <trkpt lat="45.29486" lon="0.91385">
        <ele>181.3</ele>
        <time>2023-09-24T06:36:05Z</time>
      </trkpt>
      <trkpt lat="45.29461" lon="0.91378">
        <ele>182</ele>
        <time>2023-09-24T06:36:10Z</time>
      </trkpt>
      <trkpt lat="45.29456" lon="0.91376">
        <ele>182</ele>
        <time>2023-09-24T06:36:11Z</time>
      </trkpt>
      <trkpt lat="45.29446" lon="0.91374">
        <ele>181.9</ele>
        <time>2023-09-24T06:36:13Z</time>
      </trkpt>
      <trkpt lat="45.2943" lon="0.91371">
        <ele>181.6</ele>
        <time>2023-09-24T06:36:16Z</time>
      </trkpt>
      <trkpt lat="45.29406" lon="0.91367">
        <ele>180.8</ele>
        <time>2023-09-24T06:36:20Z</time>
      </trkpt>
      <trkpt lat="45.29386" lon="0.91363">
        <ele>179.9</ele>
        <time>2023-09-24T06:36:23Z</time>
      </trkpt>
      <trkpt lat="45.29382" lon="0.91361">
        <ele>179.7</ele>
        <time>2023-09-24T06:36:24Z</time>
      </trkpt>
      <trkpt lat="45.29375" lon="0.91354">
        <ele>179.3</ele>
        <time>2023-09-24T06:36:26Z</time>
      </trkpt>
      <trkpt lat="45.29373" lon="0.91344">
        <ele>179.7</ele>
        <time>2023-09-24T06:36:29Z</time>
      </trkpt>
      <trkpt lat="45.29374" lon="0.9133">
        <ele>180.2</ele>
        <time>2023-09-24T06:36:32Z</time>
      </trkpt>
      <trkpt lat="45.29381" lon="0.91309">
        <ele>180.9</ele>
        <time>2023-09-24T06:36:37Z</time>
      </trkpt>
      <trkpt lat="45.29391" lon="0.91292">
        <ele>181.8</ele>
        <time>2023-09-24T06:36:42Z</time>
      </trkpt>
      <trkpt lat="45.29404" lon="0.9128">
        <ele>182.4</ele>
        <time>2023-09-24T06:36:47Z</time>
      </trkpt>
      <trkpt lat="45.29415" lon="0.91268">
        <ele>182.9</ele>
        <time>2023-09-24T06:36:52Z</time>
      </trkpt>
      <trkpt lat="45.29426" lon="0.91254">
        <ele>183.5</ele>
        <time>2023-09-24T06:36:58Z</time>
      </trkpt>
      <trkpt lat="45.29434" lon="0.91241">
        <ele>184.2</ele>
        <time>2023-09-24T06:37:03Z</time>
      </trkpt>
      <trkpt lat="45.29443" lon="0.91226">
        <ele>185</ele>
        <time>2023-09-24T06:37:09Z</time>
      </trkpt>
      <trkpt lat="45.29445" lon="0.91224">
        <ele>185.2</ele>
        <time>2023-09-24T06:37:10Z</time>
      </trkpt>
      <trkpt lat="45.29448" lon="0.9122">
        <ele>185.4</ele>
        <time>2023-09-24T06:37:12Z</time>
      </trkpt>
      <trkpt lat="45.2945" lon="0.91217">
        <ele>185.5</ele>
        <time>2023-09-24T06:37:13Z</time>
      </trkpt>
      <trkpt lat="45.29452" lon="0.91215">
        <ele>185.7</ele>
        <time>2023-09-24T06:37:14Z</time>
      </trkpt>
      <trkpt lat="45.29456" lon="0.91211">
        <ele>185.9</ele>
        <time>2023-09-24T06:37:16Z</time>
      </trkpt>
      <trkpt lat="45.29457" lon="0.91209">
        <ele>186.1</ele>
        <time>2023-09-24T06:37:17Z</time>
      </trkpt>
      <trkpt lat="45.29459" lon="0.91207">
        <ele>186.2</ele>
        <time>2023-09-24T06:37:18Z</time>
      </trkpt>
      <trkpt lat="45.29461" lon="0.91205">
        <ele>186.3</ele>
        <time>2023-09-24T06:37:19Z</time>
      </trkpt>
      <trkpt lat="45.29462" lon="0.91202">
        <ele>186.4</ele>
        <time>2023-09-24T06:37:20Z</time>
      </trkpt>
      <trkpt lat="45.29464" lon="0.912">
        <ele>186.5</ele>
        <time>2023-09-24T06:37:21Z</time>
      </trkpt>
      <trkpt lat="45.29465" lon="0.91197">
        <ele>186.6</ele>
        <time>2023-09-24T06:37:22Z</time>
      </trkpt>
      <trkpt lat="45.29467" lon="0.91195">
        <ele>186.7</ele>
        <time>2023-09-24T06:37:23Z</time>
      </trkpt>
      <trkpt lat="45.29468" lon="0.91192">
        <ele>186.9</ele>
        <time>2023-09-24T06:37:24Z</time>
      </trkpt>
      <trkpt lat="45.29472" lon="0.9119">
        <ele>187</ele>
        <time>2023-09-24T06:37:26Z</time>
      </trkpt>
      <trkpt lat="45.29473" lon="0.9119">
        <ele>187.1</ele>
        <time>2023-09-24T06:37:27Z</time>
      </trkpt>
      <trkpt lat="45.29475" lon="0.91182">
        <ele>187.5</ele>
        <time>2023-09-24T06:37:29Z</time>
      </trkpt>
      <trkpt lat="45.29477" lon="0.91176">
        <ele>187.8</ele>
        <time>2023-09-24T06:37:31Z</time>
      </trkpt>
      <trkpt lat="45.29487" lon="0.91159">
        <ele>188.8</ele>
        <time>2023-09-24T06:37:38Z</time>
      </trkpt>
      <trkpt lat="45.29498" lon="0.91146">
        <ele>189.7</ele>
        <time>2023-09-24T06:37:44Z</time>
      </trkpt>
      <trkpt lat="45.2951" lon="0.9113">
        <ele>190.9</ele>
        <time>2023-09-24T06:37:51Z</time>
      </trkpt>
      <trkpt lat="45.29519" lon="0.9112">
        <ele>191.6</ele>
        <time>2023-09-24T06:37:56Z</time>
      </trkpt>
      <trkpt lat="45.29525" lon="0.91111">
        <ele>192.2</ele>
        <time>2023-09-24T06:38:00Z</time>
      </trkpt>
      <trkpt lat="45.29529" lon="0.91108">
        <ele>192.5</ele>
        <time>2023-09-24T06:38:02Z</time>
      </trkpt>
      <trkpt lat="45.29532" lon="0.91104">
        <ele>192.8</ele>
        <time>2023-09-24T06:38:04Z</time>
      </trkpt>
      <trkpt lat="45.29535" lon="0.911">
        <ele>193.1</ele>
        <time>2023-09-24T06:38:06Z</time>
      </trkpt>
      <trkpt lat="45.29537" lon="0.91096">
        <ele>193.3</ele>
        <time>2023-09-24T06:38:08Z</time>
      </trkpt>
      <trkpt lat="45.29544" lon="0.91084">
        <ele>194.1</ele>
        <time>2023-09-24T06:38:13Z</time>
      </trkpt>
      <trkpt lat="45.29544" lon="0.9108">
        <ele>194.3</ele>
        <time>2023-09-24T06:38:14Z</time>
      </trkpt>
      <trkpt lat="45.29547" lon="0.91077">
        <ele>194.5</ele>
        <time>2023-09-24T06:38:15Z</time>
      </trkpt>
      <trkpt lat="45.29552" lon="0.9107">
        <ele>195.1</ele>
        <time>2023-09-24T06:38:18Z</time>
      </trkpt>
      <trkpt lat="45.29558" lon="0.9106">
        <ele>195.7</ele>
        <time>2023-09-24T06:38:23Z</time>
      </trkpt>
      <trkpt lat="45.29561" lon="0.91056">
        <ele>195.9</ele>
        <time>2023-09-24T06:38:25Z</time>
      </trkpt>
      <trkpt lat="45.29563" lon="0.91049">
        <ele>196.3</ele>
        <time>2023-09-24T06:38:28Z</time>
      </trkpt>
      <trkpt lat="45.29565" lon="0.91046">
        <ele>196.4</ele>
        <time>2023-09-24T06:38:29Z</time>
      </trkpt>
      <trkpt lat="45.29572" lon="0.91036">
        <ele>196.9</ele>
        <time>2023-09-24T06:38:33Z</time>
      </trkpt>
      <trkpt lat="45.29575" lon="0.9103">
        <ele>197.2</ele>
        <time>2023-09-24T06:38:35Z</time>
      </trkpt>
      <trkpt lat="45.29578" lon="0.91019">
        <ele>197.5</ele>
        <time>2023-09-24T06:38:38Z</time>
      </trkpt>
      <trkpt lat="45.29582" lon="0.90999">
        <ele>198.3</ele>
        <time>2023-09-24T06:38:44Z</time>
      </trkpt>
      <trkpt lat="45.29589" lon="0.90975">
        <ele>199.3</ele>
        <time>2023-09-24T06:38:51Z</time>
      </trkpt>
      <trkpt lat="45.29591" lon="0.90957">
        <ele>199.9</ele>
        <time>2023-09-24T06:38:56Z</time>
      </trkpt>
      <trkpt lat="45.29595" lon="0.90936">
        <ele>200.8</ele>
        <time>2023-09-24T06:39:02Z</time>
      </trkpt>
      <trkpt lat="45.29599" lon="0.9092">
        <ele>201.4</ele>
        <time>2023-09-24T06:39:07Z</time>
      </trkpt>
      <trkpt lat="45.296" lon="0.90918">
        <ele>201.5</ele>
        <time>2023-09-24T06:39:08Z</time>
      </trkpt>
      <trkpt lat="45.29603" lon="0.90911">
        <ele>201.8</ele>
        <time>2023-09-24T06:39:11Z</time>
      </trkpt>
      <trkpt lat="45.29603" lon="0.90908">
        <ele>201.9</ele>
        <time>2023-09-24T06:39:12Z</time>
      </trkpt>
      <trkpt lat="45.29602" lon="0.90894">
        <ele>202</ele>
        <time>2023-09-24T06:39:16Z</time>
      </trkpt>
      <trkpt lat="45.296" lon="0.90889">
        <ele>201.9</ele>
        <time>2023-09-24T06:39:17Z</time>
      </trkpt>
      <trkpt lat="45.2959" lon="0.9088">
        <ele>201.6</ele>
        <time>2023-09-24T06:39:21Z</time>
      </trkpt>
      <trkpt lat="45.2956" lon="0.90869">
        <ele>200.4</ele>
        <time>2023-09-24T06:39:27Z</time>
      </trkpt>
      <trkpt lat="45.2952" lon="0.90856">
        <ele>198</ele>
        <time>2023-09-24T06:39:33Z</time>
      </trkpt>
      <trkpt lat="45.29498" lon="0.90848">
        <ele>196</ele>
        <time>2023-09-24T06:39:37Z</time>
      </trkpt>
      <trkpt lat="45.29495" lon="0.90845">
        <ele>195.9</ele>
        <time>2023-09-24T06:39:38Z</time>
      </trkpt>
      <trkpt lat="45.29493" lon="0.90839">
        <ele>195.6</ele>
        <time>2023-09-24T06:39:40Z</time>
      </trkpt>
      <trkpt lat="45.29495" lon="0.90829">
        <ele>195.2</ele>
        <time>2023-09-24T06:39:42Z</time>
      </trkpt>
      <trkpt lat="45.29491" lon="0.90818">
        <ele>194.7</ele>
        <time>2023-09-24T06:39:44Z</time>
      </trkpt>
      <trkpt lat="45.29477" lon="0.90804">
        <ele>193.5</ele>
        <time>2023-09-24T06:39:47Z</time>
      </trkpt>
      <trkpt lat="45.29473" lon="0.90798">
        <ele>193.1</ele>
        <time>2023-09-24T06:39:48Z</time>
      </trkpt>
      <trkpt lat="45.29455" lon="0.90765">
        <ele>191.4</ele>
        <time>2023-09-24T06:39:52Z</time>
      </trkpt>
      <trkpt lat="45.29453" lon="0.90754">
        <ele>190.9</ele>
        <time>2023-09-24T06:39:53Z</time>
      </trkpt>
      <trkpt lat="45.29454" lon="0.90744">
        <ele>190.5</ele>
        <time>2023-09-24T06:39:54Z</time>
      </trkpt>
      <trkpt lat="45.29456" lon="0.90723">
        <ele>189.6</ele>
        <time>2023-09-24T06:39:56Z</time>
      </trkpt>
      <trkpt lat="45.29458" lon="0.90704">
        <ele>189</ele>
        <time>2023-09-24T06:39:58Z</time>
      </trkpt>
      <trkpt lat="45.2946" lon="0.90677">
        <ele>188.1</ele>
        <time>2023-09-24T06:40:01Z</time>
      </trkpt>
      <trkpt lat="45.29465" lon="0.90629">
        <ele>185.8</ele>
        <time>2023-09-24T06:40:06Z</time>
      </trkpt>
      <trkpt lat="45.29469" lon="0.90584">
        <ele>184</ele>
        <time>2023-09-24T06:40:10Z</time>
      </trkpt>
      <trkpt lat="45.29474" lon="0.9054">
        <ele>182.7</ele>
        <time>2023-09-24T06:40:14Z</time>
      </trkpt>
      <trkpt lat="45.29476" lon="0.90518">
        <ele>182.1</ele>
        <time>2023-09-24T06:40:16Z</time>
      </trkpt>
      <trkpt lat="45.29481" lon="0.90478">
        <ele>181.5</ele>
        <time>2023-09-24T06:40:20Z</time>
      </trkpt>
      <trkpt lat="45.29482" lon="0.90468">
        <ele>181.3</ele>
        <time>2023-09-24T06:40:21Z</time>
      </trkpt>
      <trkpt lat="45.29489" lon="0.90422">
        <ele>180</ele>
        <time>2023-09-24T06:40:26Z</time>
      </trkpt>
      <trkpt lat="45.2949" lon="0.90413">
        <ele>179.6</ele>
        <time>2023-09-24T06:40:27Z</time>
      </trkpt>
      <trkpt lat="45.29491" lon="0.90396">
        <ele>178.9</ele>
        <time>2023-09-24T06:40:29Z</time>
      </trkpt>
      <trkpt lat="45.29492" lon="0.90378">
        <ele>178.1</ele>
        <time>2023-09-24T06:40:31Z</time>
      </trkpt>
      <trkpt lat="45.29492" lon="0.90369">
        <ele>177.8</ele>
        <time>2023-09-24T06:40:32Z</time>
      </trkpt>
      <trkpt lat="45.29492" lon="0.9034">
        <ele>176.7</ele>
        <time>2023-09-24T06:40:35Z</time>
      </trkpt>
      <trkpt lat="45.29492" lon="0.9032">
        <ele>176</ele>
        <time>2023-09-24T06:40:37Z</time>
      </trkpt>
      <trkpt lat="45.29491" lon="0.90288">
        <ele>175.1</ele>
        <time>2023-09-24T06:40:40Z</time>
      </trkpt>
      <trkpt lat="45.29487" lon="0.90239">
        <ele>174.4</ele>
        <time>2023-09-24T06:40:45Z</time>
      </trkpt>
      <trkpt lat="45.29485" lon="0.90212">
        <ele>174</ele>
        <time>2023-09-24T06:40:48Z</time>
      </trkpt>
      <trkpt lat="45.29484" lon="0.90198">
        <ele>173.7</ele>
        <time>2023-09-24T06:40:50Z</time>
      </trkpt>
      <trkpt lat="45.2948" lon="0.90161">
        <ele>172.2</ele>
        <time>2023-09-24T06:40:55Z</time>
      </trkpt>
      <trkpt lat="45.29476" lon="0.90136">
        <ele>170.7</ele>
        <time>2023-09-24T06:40:58Z</time>
      </trkpt>
      <trkpt lat="45.29477" lon="0.9012">
        <ele>169.7</ele>
        <time>2023-09-24T06:41:00Z</time>
      </trkpt>
      <trkpt lat="45.29476" lon="0.90096">
        <ele>168.6</ele>
        <time>2023-09-24T06:41:04Z</time>
      </trkpt>
      <trkpt lat="45.29474" lon="0.90084">
        <ele>168.2</ele>
        <time>2023-09-24T06:41:07Z</time>
      </trkpt>
      <trkpt lat="45.29473" lon="0.90072">
        <ele>167.8</ele>
        <time>2023-09-24T06:41:11Z</time>
      </trkpt>
      <trkpt lat="45.2947" lon="0.90061">
        <ele>167.6</ele>
        <time>2023-09-24T06:41:14Z</time>
      </trkpt>
      <trkpt lat="45.29471" lon="0.90056">
        <ele>167.5</ele>
        <time>2023-09-24T06:41:15Z</time>
      </trkpt>
      <trkpt lat="45.29472" lon="0.90053">
        <ele>167.3</ele>
        <time>2023-09-24T06:41:16Z</time>
      </trkpt>
      <trkpt lat="45.2948" lon="0.90036">
        <ele>166.4</ele>
        <time>2023-09-24T06:41:21Z</time>
      </trkpt>
      <trkpt lat="45.29482" lon="0.90032">
        <ele>166.1</ele>
        <time>2023-09-24T06:41:22Z</time>
      </trkpt>
      <trkpt lat="45.29486" lon="0.90021">
        <ele>165.6</ele>
        <time>2023-09-24T06:41:25Z</time>
      </trkpt>
      <trkpt lat="45.29492" lon="0.90002">
        <ele>164.4</ele>
        <time>2023-09-24T06:41:30Z</time>
      </trkpt>
      <trkpt lat="45.29493" lon="0.89996">
        <ele>163.7</ele>
        <time>2023-09-24T06:41:32Z</time>
      </trkpt>
      <trkpt lat="45.29495" lon="0.89993">
        <ele>163.4</ele>
        <time>2023-09-24T06:41:33Z</time>
      </trkpt>
      <trkpt lat="45.29496" lon="0.8999">
        <ele>163.4</ele>
        <time>2023-09-24T06:41:34Z</time>
      </trkpt>
      <trkpt lat="45.29497" lon="0.89984">
        <ele>162.9</ele>
        <time>2023-09-24T06:41:36Z</time>
      </trkpt>
      <trkpt lat="45.295" lon="0.89979">
        <ele>162.7</ele>
        <time>2023-09-24T06:41:38Z</time>
      </trkpt>
      <trkpt lat="45.29507" lon="0.89977">
        <ele>163</ele>
        <time>2023-09-24T06:41:41Z</time>
      </trkpt>
      <trkpt lat="45.29509" lon="0.89974">
        <ele>162.8</ele>
        <time>2023-09-24T06:41:43Z</time>
      </trkpt>
      <trkpt lat="45.29511" lon="0.8997">
        <ele>162.5</ele>
        <time>2023-09-24T06:41:45Z</time>
      </trkpt>
      <trkpt lat="45.29511" lon="0.89962">
        <ele>161.7</ele>
        <time>2023-09-24T06:41:48Z</time>
      </trkpt>
      <trkpt lat="45.29513" lon="0.89958">
        <ele>161.4</ele>
        <time>2023-09-24T06:41:50Z</time>
      </trkpt>
      <trkpt lat="45.29514" lon="0.89956">
        <ele>161.4</ele>
        <time>2023-09-24T06:41:51Z</time>
      </trkpt>
      <trkpt lat="45.29514" lon="0.89954">
        <ele>161</ele>
        <time>2023-09-24T06:41:52Z</time>
      </trkpt>
      <trkpt lat="45.29516" lon="0.89946">
        <ele>160.6</ele>
        <time>2023-09-24T06:41:54Z</time>
      </trkpt>
      <trkpt lat="45.29518" lon="0.89943">
        <ele>160.1</ele>
        <time>2023-09-24T06:41:55Z</time>
      </trkpt>
      <trkpt lat="45.29518" lon="0.89943">
        <ele>160.1</ele>
        <time>2023-09-24T06:41:56Z</time>
      </trkpt>
      <trkpt lat="45.29521" lon="0.89932">
        <ele>158.8</ele>
        <time>2023-09-24T06:42:12Z</time>
      </trkpt>
      <trkpt lat="45.29522" lon="0.89931">
        <ele>158.8</ele>
        <time>2023-09-24T06:42:13Z</time>
      </trkpt>
      <trkpt lat="45.29525" lon="0.8993">
        <ele>158.9</ele>
        <time>2023-09-24T06:42:14Z</time>
      </trkpt>
      <trkpt lat="45.29527" lon="0.89928">
        <ele>158.5</ele>
        <time>2023-09-24T06:42:15Z</time>
      </trkpt>
      <trkpt lat="45.2953" lon="0.89923">
        <ele>158.2</ele>
        <time>2023-09-24T06:42:18Z</time>
      </trkpt>
      <trkpt lat="45.29534" lon="0.89912">
        <ele>156.9</ele>
        <time>2023-09-24T06:42:23Z</time>
      </trkpt>
      <trkpt lat="45.29534" lon="0.8991">
        <ele>156.9</ele>
        <time>2023-09-24T06:42:24Z</time>
      </trkpt>
      <trkpt lat="45.29542" lon="0.89899">
        <ele>156.1</ele>
        <time>2023-09-24T06:42:54Z</time>
      </trkpt>
      <trkpt lat="45.29543" lon="0.89898">
        <ele>156.1</ele>
        <time>2023-09-24T06:42:55Z</time>
      </trkpt>
      <trkpt lat="45.29543" lon="0.89893">
        <ele>155.7</ele>
        <time>2023-09-24T06:42:56Z</time>
      </trkpt>
      <trkpt lat="45.29543" lon="0.89891">
        <ele>155.7</ele>
        <time>2023-09-24T06:42:57Z</time>
      </trkpt>
      <trkpt lat="45.29546" lon="0.89883">
        <ele>154.8</ele>
        <time>2023-09-24T06:43:04Z</time>
      </trkpt>
      <trkpt lat="45.29547" lon="0.89878">
        <ele>154.3</ele>
        <time>2023-09-24T06:43:06Z</time>
      </trkpt>
      <trkpt lat="45.2955" lon="0.8987">
        <ele>153.1</ele>
        <time>2023-09-24T06:43:08Z</time>
      </trkpt>
      <trkpt lat="45.29552" lon="0.89864">
        <ele>151.8</ele>
        <time>2023-09-24T06:43:12Z</time>
      </trkpt>
      <trkpt lat="45.29553" lon="0.89859">
        <ele>151.1</ele>
        <time>2023-09-24T06:43:13Z</time>
      </trkpt>
      <trkpt lat="45.29556" lon="0.89844">
        <ele>149</ele>
        <time>2023-09-24T06:43:15Z</time>
      </trkpt>
      <trkpt lat="45.29557" lon="0.89836">
        <ele>147.7</ele>
        <time>2023-09-24T06:43:16Z</time>
      </trkpt>
      <trkpt lat="45.29559" lon="0.89817">
        <ele>144.8</ele>
        <time>2023-09-24T06:43:20Z</time>
      </trkpt>
      <trkpt lat="45.29559" lon="0.89811">
        <ele>144.3</ele>
        <time>2023-09-24T06:43:23Z</time>
      </trkpt>
      <trkpt lat="45.29555" lon="0.89797">
        <ele>143.1</ele>
        <time>2023-09-24T06:43:26Z</time>
      </trkpt>
      <trkpt lat="45.29553" lon="0.89791">
        <ele>142.2</ele>
        <time>2023-09-24T06:43:27Z</time>
      </trkpt>
      <trkpt lat="45.29551" lon="0.89785">
        <ele>141.7</ele>
        <time>2023-09-24T06:43:28Z</time>
      </trkpt>
      <trkpt lat="45.29549" lon="0.89779">
        <ele>141.1</ele>
        <time>2023-09-24T06:43:29Z</time>
      </trkpt>
      <trkpt lat="45.29548" lon="0.89769">
        <ele>139.9</ele>
        <time>2023-09-24T06:43:32Z</time>
      </trkpt>
      <trkpt lat="45.29549" lon="0.89767">
        <ele>139.9</ele>
        <time>2023-09-24T06:43:33Z</time>
      </trkpt>
      <trkpt lat="45.29554" lon="0.89763">
        <ele>139.6</ele>
        <time>2023-09-24T06:43:36Z</time>
      </trkpt>
      <trkpt lat="45.29559" lon="0.89761">
        <ele>139.4</ele>
        <time>2023-09-24T06:43:41Z</time>
      </trkpt>
      <trkpt lat="45.29564" lon="0.89762">
        <ele>139.3</ele>
        <time>2023-09-24T06:43:44Z</time>
      </trkpt>
      <trkpt lat="45.29574" lon="0.89761">
        <ele>139.4</ele>
        <time>2023-09-24T06:43:48Z</time>
      </trkpt>
      <trkpt lat="45.29582" lon="0.89763">
        <ele>139.7</ele>
        <time>2023-09-24T06:43:50Z</time>
      </trkpt>
      <trkpt lat="45.29593" lon="0.89766">
        <ele>140.2</ele>
        <time>2023-09-24T06:43:52Z</time>
      </trkpt>
      <trkpt lat="45.29598" lon="0.89768">
        <ele>140.5</ele>
        <time>2023-09-24T06:43:53Z</time>
      </trkpt>
      <trkpt lat="45.2961" lon="0.8977">
        <ele>141</ele>
        <time>2023-09-24T06:43:56Z</time>
      </trkpt>
      <trkpt lat="45.29614" lon="0.8977">
        <ele>141.1</ele>
        <time>2023-09-24T06:43:57Z</time>
      </trkpt>
      <trkpt lat="45.29636" lon="0.89776">
        <ele>142.6</ele>
        <time>2023-09-24T06:44:02Z</time>
      </trkpt>
      <trkpt lat="45.29647" lon="0.8978">
        <ele>143.3</ele>
        <time>2023-09-24T06:44:04Z</time>
      </trkpt>
      <trkpt lat="45.29664" lon="0.89784">
        <ele>144.1</ele>
        <time>2023-09-24T06:44:07Z</time>
      </trkpt>
      <trkpt lat="45.29688" lon="0.89784">
        <ele>144.3</ele>
        <time>2023-09-24T06:44:11Z</time>
      </trkpt>
      <trkpt lat="45.29724" lon="0.89782">
        <ele>144.6</ele>
        <time>2023-09-24T06:44:17Z</time>
      </trkpt>
      <trkpt lat="45.29735" lon="0.8978">
        <ele>144.9</ele>
        <time>2023-09-24T06:44:19Z</time>
      </trkpt>
      <trkpt lat="45.29751" lon="0.89775">
        <ele>145.3</ele>
        <time>2023-09-24T06:44:22Z</time>
      </trkpt>
      <trkpt lat="45.29755" lon="0.89773">
        <ele>145.5</ele>
        <time>2023-09-24T06:44:23Z</time>
      </trkpt>
      <trkpt lat="45.29773" lon="0.89771">
        <ele>145.9</ele>
        <time>2023-09-24T06:44:28Z</time>
      </trkpt>
      <trkpt lat="45.29791" lon="0.8977">
        <ele>146.6</ele>
        <time>2023-09-24T06:44:33Z</time>
      </trkpt>
      <trkpt lat="45.29805" lon="0.89766">
        <ele>146.8</ele>
        <time>2023-09-24T06:44:37Z</time>
      </trkpt>
      <trkpt lat="45.29818" lon="0.89759">
        <ele>148.1</ele>
        <time>2023-09-24T06:44:41Z</time>
      </trkpt>
      <trkpt lat="45.29829" lon="0.8975">
        <ele>149.3</ele>
        <time>2023-09-24T06:44:45Z</time>
      </trkpt>
      <trkpt lat="45.29833" lon="0.8975">
        <ele>149.1</ele>
        <time>2023-09-24T06:44:46Z</time>
      </trkpt>
      <trkpt lat="45.29838" lon="0.89752">
        <ele>148.8</ele>
        <time>2023-09-24T06:44:48Z</time>
      </trkpt>
      <trkpt lat="45.29853" lon="0.89763">
        <ele>145.9</ele>
        <time>2023-09-24T06:44:53Z</time>
      </trkpt>
      <trkpt lat="45.29864" lon="0.8977">
        <ele>144.9</ele>
        <time>2023-09-24T06:44:56Z</time>
      </trkpt>
      <trkpt lat="45.29868" lon="0.89772">
        <ele>144.5</ele>
        <time>2023-09-24T06:44:57Z</time>
      </trkpt>
      <trkpt lat="45.29871" lon="0.89774">
        <ele>144.1</ele>
        <time>2023-09-24T06:44:58Z</time>
      </trkpt>
      <trkpt lat="45.29877" lon="0.89778">
        <ele>143.6</ele>
        <time>2023-09-24T06:45:00Z</time>
      </trkpt>
      <trkpt lat="45.29879" lon="0.8978">
        <ele>143.5</ele>
        <time>2023-09-24T06:45:01Z</time>
      </trkpt>
      <trkpt lat="45.29888" lon="0.89787">
        <ele>143</ele>
        <time>2023-09-24T06:45:03Z</time>
      </trkpt>
      <trkpt lat="45.29896" lon="0.89792">
        <ele>142.4</ele>
        <time>2023-09-24T06:45:05Z</time>
      </trkpt>
      <trkpt lat="45.29904" lon="0.898">
        <ele>142.2</ele>
        <time>2023-09-24T06:45:07Z</time>
      </trkpt>
      <trkpt lat="45.29913" lon="0.89807">
        <ele>142.4</ele>
        <time>2023-09-24T06:45:09Z</time>
      </trkpt>
      <trkpt lat="45.29923" lon="0.89809">
        <ele>142.8</ele>
        <time>2023-09-24T06:45:11Z</time>
      </trkpt>
      <trkpt lat="45.29932" lon="0.89809">
        <ele>143.2</ele>
        <time>2023-09-24T06:45:13Z</time>
      </trkpt>
      <trkpt lat="45.29941" lon="0.89805">
        <ele>143.5</ele>
        <time>2023-09-24T06:45:15Z</time>
      </trkpt>
      <trkpt lat="45.29955" lon="0.89798">
        <ele>143.8</ele>
        <time>2023-09-24T06:45:18Z</time>
      </trkpt>
      <trkpt lat="45.29969" lon="0.89794">
        <ele>144.3</ele>
        <time>2023-09-24T06:45:21Z</time>
      </trkpt>
      <trkpt lat="45.29981" lon="0.89793">
        <ele>144.9</ele>
        <time>2023-09-24T06:45:23Z</time>
      </trkpt>
      <trkpt lat="45.30011" lon="0.89795">
        <ele>146.4</ele>
        <time>2023-09-24T06:45:29Z</time>
      </trkpt>
      <trkpt lat="45.30019" lon="0.89792">
        <ele>146.8</ele>
        <time>2023-09-24T06:45:31Z</time>
      </trkpt>
      <trkpt lat="45.30028" lon="0.89785">
        <ele>147.1</ele>
        <time>2023-09-24T06:45:33Z</time>
      </trkpt>
      <trkpt lat="45.30045" lon="0.89775">
        <ele>148.1</ele>
        <time>2023-09-24T06:45:37Z</time>
      </trkpt>
      <trkpt lat="45.30068" lon="0.89775">
        <ele>148.8</ele>
        <time>2023-09-24T06:45:42Z</time>
      </trkpt>
      <trkpt lat="45.30082" lon="0.89776">
        <ele>148.9</ele>
        <time>2023-09-24T06:45:45Z</time>
      </trkpt>
      <trkpt lat="45.30092" lon="0.89778">
        <ele>149.2</ele>
        <time>2023-09-24T06:45:47Z</time>
      </trkpt>
      <trkpt lat="45.30115" lon="0.89782">
        <ele>149.3</ele>
        <time>2023-09-24T06:45:52Z</time>
      </trkpt>
      <trkpt lat="45.30134" lon="0.89784">
        <ele>149.2</ele>
        <time>2023-09-24T06:45:57Z</time>
      </trkpt>
      <trkpt lat="45.30154" lon="0.89791">
        <ele>148.9</ele>
        <time>2023-09-24T06:46:02Z</time>
      </trkpt>
      <trkpt lat="45.30173" lon="0.89799">
        <ele>148.2</ele>
        <time>2023-09-24T06:46:06Z</time>
      </trkpt>
      <trkpt lat="45.30179" lon="0.89799">
        <ele>148</ele>
        <time>2023-09-24T06:46:07Z</time>
      </trkpt>
      <trkpt lat="45.30193" lon="0.898">
        <ele>147.7</ele>
        <time>2023-09-24T06:46:10Z</time>
      </trkpt>
      <trkpt lat="45.30204" lon="0.89799">
        <ele>147.4</ele>
        <time>2023-09-24T06:46:12Z</time>
      </trkpt>
      <trkpt lat="45.30216" lon="0.89798">
        <ele>147</ele>
        <time>2023-09-24T06:46:14Z</time>
      </trkpt>
      <trkpt lat="45.30231" lon="0.89799">
        <ele>146.8</ele>
        <time>2023-09-24T06:46:17Z</time>
      </trkpt>
      <trkpt lat="45.30236" lon="0.898">
        <ele>146.7</ele>
        <time>2023-09-24T06:46:18Z</time>
      </trkpt>
      <trkpt lat="45.30241" lon="0.89801">
        <ele>146.5</ele>
        <time>2023-09-24T06:46:19Z</time>
      </trkpt>
      <trkpt lat="45.30248" lon="0.89807">
        <ele>146.2</ele>
        <time>2023-09-24T06:46:21Z</time>
      </trkpt>
      <trkpt lat="45.30257" lon="0.89819">
        <ele>146.1</ele>
        <time>2023-09-24T06:46:25Z</time>
      </trkpt>
      <trkpt lat="45.30265" lon="0.89816">
        <ele>146.3</ele>
        <time>2023-09-24T06:46:27Z</time>
      </trkpt>
      <trkpt lat="45.30268" lon="0.89812">
        <ele>146.5</ele>
        <time>2023-09-24T06:46:28Z</time>
      </trkpt>
      <trkpt lat="45.30277" lon="0.89802">
        <ele>146.3</ele>
        <time>2023-09-24T06:46:32Z</time>
      </trkpt>
      <trkpt lat="45.30287" lon="0.89805">
        <ele>145.7</ele>
        <time>2023-09-24T06:46:36Z</time>
      </trkpt>
      <trkpt lat="45.30301" lon="0.89814">
        <ele>145.1</ele>
        <time>2023-09-24T06:46:40Z</time>
      </trkpt>
      <trkpt lat="45.30326" lon="0.89828">
        <ele>144.4</ele>
        <time>2023-09-24T06:46:46Z</time>
      </trkpt>
      <trkpt lat="45.30338" lon="0.89835">
        <ele>144.2</ele>
        <time>2023-09-24T06:46:50Z</time>
      </trkpt>
      <trkpt lat="45.30354" lon="0.89841">
        <ele>144.1</ele>
        <time>2023-09-24T06:46:54Z</time>
      </trkpt>
      <trkpt lat="45.30364" lon="0.89842">
        <ele>144</ele>
        <time>2023-09-24T06:46:58Z</time>
      </trkpt>
      <trkpt lat="45.30381" lon="0.89839">
        <ele>143.8</ele>
        <time>2023-09-24T06:47:02Z</time>
      </trkpt>
      <trkpt lat="45.30386" lon="0.89838">
        <ele>143.7</ele>
        <time>2023-09-24T06:47:03Z</time>
      </trkpt>
      <trkpt lat="45.30405" lon="0.89829">
        <ele>143.7</ele>
        <time>2023-09-24T06:47:08Z</time>
      </trkpt>
      <trkpt lat="45.30419" lon="0.89813">
        <ele>143.8</ele>
        <time>2023-09-24T06:47:13Z</time>
      </trkpt>
      <trkpt lat="45.30431" lon="0.898">
        <ele>143.8</ele>
        <time>2023-09-24T06:47:18Z</time>
      </trkpt>
      <trkpt lat="45.30435" lon="0.89797">
        <ele>143.9</ele>
        <time>2023-09-24T06:47:20Z</time>
      </trkpt>
      <trkpt lat="45.30439" lon="0.89797">
        <ele>143.9</ele>
        <time>2023-09-24T06:47:22Z</time>
      </trkpt>
      <trkpt lat="45.30444" lon="0.89796">
        <ele>143.9</ele>
        <time>2023-09-24T06:47:24Z</time>
      </trkpt>
      <trkpt lat="45.30449" lon="0.89798">
        <ele>143.8</ele>
        <time>2023-09-24T06:47:26Z</time>
      </trkpt>
      <trkpt lat="45.30458" lon="0.89804">
        <ele>143.5</ele>
        <time>2023-09-24T06:47:31Z</time>
      </trkpt>
      <trkpt lat="45.30472" lon="0.89818">
        <ele>142.7</ele>
        <time>2023-09-24T06:47:36Z</time>
      </trkpt>
      <trkpt lat="45.30482" lon="0.89838">
        <ele>142</ele>
        <time>2023-09-24T06:47:40Z</time>
      </trkpt>
      <trkpt lat="45.30491" lon="0.89863">
        <ele>141.6</ele>
        <time>2023-09-24T06:47:45Z</time>
      </trkpt>
      <trkpt lat="45.30496" lon="0.89879">
        <ele>141.3</ele>
        <time>2023-09-24T06:47:48Z</time>
      </trkpt>
      <trkpt lat="45.305" lon="0.89886">
        <ele>141.2</ele>
        <time>2023-09-24T06:47:50Z</time>
      </trkpt>
      <trkpt lat="45.30512" lon="0.89907">
        <ele>140.8</ele>
        <time>2023-09-24T06:47:55Z</time>
      </trkpt>
      <trkpt lat="45.30526" lon="0.89925">
        <ele>140.5</ele>
        <time>2023-09-24T06:48:00Z</time>
      </trkpt>
      <trkpt lat="45.30539" lon="0.89944">
        <ele>140.3</ele>
        <time>2023-09-24T06:48:05Z</time>
      </trkpt>
      <trkpt lat="45.3055" lon="0.89961">
        <ele>140.1</ele>
        <time>2023-09-24T06:48:09Z</time>
      </trkpt>
      <trkpt lat="45.30556" lon="0.8997">
        <ele>139.9</ele>
        <time>2023-09-24T06:48:11Z</time>
      </trkpt>
      <trkpt lat="45.30562" lon="0.89977">
        <ele>139.8</ele>
        <time>2023-09-24T06:48:13Z</time>
      </trkpt>
      <trkpt lat="45.30576" lon="0.89992">
        <ele>139.5</ele>
        <time>2023-09-24T06:48:17Z</time>
      </trkpt>
      <trkpt lat="45.30592" lon="0.90011">
        <ele>139.1</ele>
        <time>2023-09-24T06:48:22Z</time>
      </trkpt>
      <trkpt lat="45.30608" lon="0.90028">
        <ele>138.8</ele>
        <time>2023-09-24T06:48:27Z</time>
      </trkpt>
      <trkpt lat="45.30628" lon="0.90039">
        <ele>138.4</ele>
        <time>2023-09-24T06:48:32Z</time>
      </trkpt>
      <trkpt lat="45.30649" lon="0.90049">
        <ele>138.4</ele>
        <time>2023-09-24T06:48:37Z</time>
      </trkpt>
      <trkpt lat="45.30664" lon="0.90054">
        <ele>139</ele>
        <time>2023-09-24T06:48:41Z</time>
      </trkpt>
      <trkpt lat="45.30672" lon="0.90063">
        <ele>139.8</ele>
        <time>2023-09-24T06:48:45Z</time>
      </trkpt>
      <trkpt lat="45.30677" lon="0.90069">
        <ele>140.7</ele>
        <time>2023-09-24T06:48:48Z</time>
      </trkpt>
      <trkpt lat="45.30681" lon="0.90073">
        <ele>141.3</ele>
        <time>2023-09-24T06:48:50Z</time>
      </trkpt>
      <trkpt lat="45.30683" lon="0.90075">
        <ele>141.5</ele>
        <time>2023-09-24T06:48:51Z</time>
      </trkpt>
      <trkpt lat="45.30688" lon="0.90079">
        <ele>142.1</ele>
        <time>2023-09-24T06:48:54Z</time>
      </trkpt>
      <trkpt lat="45.30695" lon="0.90086">
        <ele>142.8</ele>
        <time>2023-09-24T06:48:58Z</time>
      </trkpt>
      <trkpt lat="45.30698" lon="0.9009">
        <ele>143.2</ele>
        <time>2023-09-24T06:49:00Z</time>
      </trkpt>
      <trkpt lat="45.30707" lon="0.90101">
        <ele>144</ele>
        <time>2023-09-24T06:49:05Z</time>
      </trkpt>
      <trkpt lat="45.30711" lon="0.90101">
        <ele>144.3</ele>
        <time>2023-09-24T06:49:07Z</time>
      </trkpt>
      <trkpt lat="45.30716" lon="0.90102">
        <ele>144.8</ele>
        <time>2023-09-24T06:49:10Z</time>
      </trkpt>
      <trkpt lat="45.30724" lon="0.90105">
        <ele>145.6</ele>
        <time>2023-09-24T06:49:14Z</time>
      </trkpt>
      <trkpt lat="45.30726" lon="0.90106">
        <ele>145.8</ele>
        <time>2023-09-24T06:49:15Z</time>
      </trkpt>
      <trkpt lat="45.30727" lon="0.90107">
        <ele>146.1</ele>
        <time>2023-09-24T06:49:16Z</time>
      </trkpt>
      <trkpt lat="45.30735" lon="0.90114">
        <ele>147</ele>
        <time>2023-09-24T06:49:21Z</time>
      </trkpt>
      <trkpt lat="45.30741" lon="0.90124">
        <ele>147.9</ele>
        <time>2023-09-24T06:49:26Z</time>
      </trkpt>
      <trkpt lat="45.30743" lon="0.90126">
        <ele>148.2</ele>
        <time>2023-09-24T06:49:28Z</time>
      </trkpt>
      <trkpt lat="45.30744" lon="0.90127">
        <ele>148.4</ele>
        <time>2023-09-24T06:49:29Z</time>
      </trkpt>
      <trkpt lat="45.30743" lon="0.90134">
        <ele>149.3</ele>
        <time>2023-09-24T06:49:32Z</time>
      </trkpt>
      <trkpt lat="45.30735" lon="0.90148">
        <ele>149.9</ele>
        <time>2023-09-24T06:49:38Z</time>
      </trkpt>
      <trkpt lat="45.30731" lon="0.90161">
        <ele>150.3</ele>
        <time>2023-09-24T06:49:43Z</time>
      </trkpt>
      <trkpt lat="45.30727" lon="0.90177">
        <ele>150.9</ele>
        <time>2023-09-24T06:49:48Z</time>
      </trkpt>
      <trkpt lat="45.30722" lon="0.9019">
        <ele>151.4</ele>
        <time>2023-09-24T06:49:53Z</time>
      </trkpt>
      <trkpt lat="45.30721" lon="0.90193">
        <ele>151.5</ele>
        <time>2023-09-24T06:49:54Z</time>
      </trkpt>
      <trkpt lat="45.30719" lon="0.90201">
        <ele>151.8</ele>
        <time>2023-09-24T06:49:57Z</time>
      </trkpt>
      <trkpt lat="45.30714" lon="0.90216">
        <ele>152.3</ele>
        <time>2023-09-24T06:50:03Z</time>
      </trkpt>
      <trkpt lat="45.30706" lon="0.90236">
        <ele>152.9</ele>
        <time>2023-09-24T06:50:10Z</time>
      </trkpt>
      <trkpt lat="45.30702" lon="0.90245">
        <ele>153.2</ele>
        <time>2023-09-24T06:50:14Z</time>
      </trkpt>
      <trkpt lat="45.307" lon="0.90249">
        <ele>153.3</ele>
        <time>2023-09-24T06:50:16Z</time>
      </trkpt>
      <trkpt lat="45.30692" lon="0.90262">
        <ele>153.8</ele>
        <time>2023-09-24T06:50:21Z</time>
      </trkpt>
      <trkpt lat="45.30677" lon="0.90273">
        <ele>154.5</ele>
        <time>2023-09-24T06:50:28Z</time>
      </trkpt>
      <trkpt lat="45.30667" lon="0.90277">
        <ele>155</ele>
        <time>2023-09-24T06:50:33Z</time>
      </trkpt>
      <trkpt lat="45.30656" lon="0.90279">
        <ele>155.6</ele>
        <time>2023-09-24T06:50:38Z</time>
      </trkpt>
      <trkpt lat="45.30642" lon="0.90286">
        <ele>156.7</ele>
        <time>2023-09-24T06:50:45Z</time>
      </trkpt>
      <trkpt lat="45.3063" lon="0.90294">
        <ele>157.6</ele>
        <time>2023-09-24T06:50:51Z</time>
      </trkpt>
      <trkpt lat="45.30623" lon="0.90299">
        <ele>158.1</ele>
        <time>2023-09-24T06:50:55Z</time>
      </trkpt>
      <trkpt lat="45.30619" lon="0.903">
        <ele>158.4</ele>
        <time>2023-09-24T06:50:57Z</time>
      </trkpt>
      <trkpt lat="45.30607" lon="0.90303">
        <ele>159.3</ele>
        <time>2023-09-24T06:51:03Z</time>
      </trkpt>
      <trkpt lat="45.30594" lon="0.90304">
        <ele>160.7</ele>
        <time>2023-09-24T06:51:10Z</time>
      </trkpt>
      <trkpt lat="45.30587" lon="0.90301">
        <ele>161.4</ele>
        <time>2023-09-24T06:51:14Z</time>
      </trkpt>
      <trkpt lat="45.30584" lon="0.90301">
        <ele>161.9</ele>
        <time>2023-09-24T06:51:16Z</time>
      </trkpt>
      <trkpt lat="45.30579" lon="0.90299">
        <ele>162.5</ele>
        <time>2023-09-24T06:51:19Z</time>
      </trkpt>
      <trkpt lat="45.30576" lon="0.90296">
        <ele>163</ele>
        <time>2023-09-24T06:51:21Z</time>
      </trkpt>
      <trkpt lat="45.30573" lon="0.90292">
        <ele>163.5</ele>
        <time>2023-09-24T06:51:23Z</time>
      </trkpt>
      <trkpt lat="45.30566" lon="0.90285">
        <ele>164.6</ele>
        <time>2023-09-24T06:51:28Z</time>
      </trkpt>
      <trkpt lat="45.30565" lon="0.90284">
        <ele>164.8</ele>
        <time>2023-09-24T06:51:29Z</time>
      </trkpt>
      <trkpt lat="45.30556" lon="0.90279">
        <ele>166.1</ele>
        <time>2023-09-24T06:51:34Z</time>
      </trkpt>
      <trkpt lat="45.3055" lon="0.90265">
        <ele>167.4</ele>
        <time>2023-09-24T06:51:40Z</time>
      </trkpt>
      <trkpt lat="45.30544" lon="0.9025">
        <ele>168.7</ele>
        <time>2023-09-24T06:51:46Z</time>
      </trkpt>
      <trkpt lat="45.30536" lon="0.90243">
        <ele>169.6</ele>
        <time>2023-09-24T06:51:51Z</time>
      </trkpt>
      <trkpt lat="45.30534" lon="0.90242">
        <ele>169.9</ele>
        <time>2023-09-24T06:51:53Z</time>
      </trkpt>
      <trkpt lat="45.30531" lon="0.90242">
        <ele>170.2</ele>
        <time>2023-09-24T06:51:55Z</time>
      </trkpt>
      <trkpt lat="45.30528" lon="0.90243">
        <ele>170.6</ele>
        <time>2023-09-24T06:51:57Z</time>
      </trkpt>
      <trkpt lat="45.30519" lon="0.90243">
        <ele>171.7</ele>
        <time>2023-09-24T06:52:03Z</time>
      </trkpt>
      <trkpt lat="45.3051" lon="0.90242">
        <ele>173</ele>
        <time>2023-09-24T06:52:09Z</time>
      </trkpt>
      <trkpt lat="45.30505" lon="0.90243">
        <ele>173.8</ele>
        <time>2023-09-24T06:52:13Z</time>
      </trkpt>
      <trkpt lat="45.30502" lon="0.90243">
        <ele>174.2</ele>
        <time>2023-09-24T06:52:15Z</time>
      </trkpt>
      <trkpt lat="45.30493" lon="0.90244">
        <ele>175.3</ele>
        <time>2023-09-24T06:52:21Z</time>
      </trkpt>
      <trkpt lat="45.30492" lon="0.90244">
        <ele>175.5</ele>
        <time>2023-09-24T06:52:22Z</time>
      </trkpt>
      <trkpt lat="45.30489" lon="0.90243">
        <ele>175.9</ele>
        <time>2023-09-24T06:52:24Z</time>
      </trkpt>
      <trkpt lat="45.30486" lon="0.90243">
        <ele>176.3</ele>
        <time>2023-09-24T06:52:26Z</time>
      </trkpt>
      <trkpt lat="45.30482" lon="0.90239">
        <ele>177</ele>
        <time>2023-09-24T06:52:30Z</time>
      </trkpt>
      <trkpt lat="45.3048" lon="0.90238">
        <ele>177.2</ele>
        <time>2023-09-24T06:52:31Z</time>
      </trkpt>
      <trkpt lat="45.30472" lon="0.90226">
        <ele>178.5</ele>
        <time>2023-09-24T06:52:37Z</time>
      </trkpt>
      <trkpt lat="45.30464" lon="0.90212">
        <ele>179.7</ele>
        <time>2023-09-24T06:52:44Z</time>
      </trkpt>
      <trkpt lat="45.30456" lon="0.902">
        <ele>180.5</ele>
        <time>2023-09-24T06:52:49Z</time>
      </trkpt>
      <trkpt lat="45.30454" lon="0.90197">
        <ele>180.7</ele>
        <time>2023-09-24T06:52:50Z</time>
      </trkpt>
      <trkpt lat="45.30448" lon="0.90192">
        <ele>181.1</ele>
        <time>2023-09-24T06:52:53Z</time>
      </trkpt>
      <trkpt lat="45.30444" lon="0.90194">
        <ele>181.3</ele>
        <time>2023-09-24T06:52:55Z</time>
      </trkpt>
      <trkpt lat="45.30443" lon="0.90196">
        <ele>181.4</ele>
        <time>2023-09-24T06:52:56Z</time>
      </trkpt>
      <trkpt lat="45.30439" lon="0.90206">
        <ele>181.9</ele>
        <time>2023-09-24T06:53:01Z</time>
      </trkpt>
      <trkpt lat="45.30436" lon="0.90212">
        <ele>182.2</ele>
        <time>2023-09-24T06:53:04Z</time>
      </trkpt>
      <trkpt lat="45.30434" lon="0.90217">
        <ele>182.4</ele>
        <time>2023-09-24T06:53:06Z</time>
      </trkpt>
      <trkpt lat="45.30431" lon="0.90231">
        <ele>183.1</ele>
        <time>2023-09-24T06:53:10Z</time>
      </trkpt>
      <trkpt lat="45.3043" lon="0.90234">
        <ele>183.2</ele>
        <time>2023-09-24T06:53:11Z</time>
      </trkpt>
      <trkpt lat="45.30428" lon="0.90247">
        <ele>183.7</ele>
        <time>2023-09-24T06:53:15Z</time>
      </trkpt>
      <trkpt lat="45.30424" lon="0.90261">
        <ele>184.2</ele>
        <time>2023-09-24T06:53:19Z</time>
      </trkpt>
      <trkpt lat="45.30419" lon="0.90278">
        <ele>184.9</ele>
        <time>2023-09-24T06:53:24Z</time>
      </trkpt>
      <trkpt lat="45.30413" lon="0.90302">
        <ele>185.9</ele>
        <time>2023-09-24T06:53:30Z</time>
      </trkpt>
      <trkpt lat="45.30412" lon="0.90305">
        <ele>186</ele>
        <time>2023-09-24T06:53:31Z</time>
      </trkpt>
      <trkpt lat="45.30407" lon="0.90319">
        <ele>186.6</ele>
        <time>2023-09-24T06:53:35Z</time>
      </trkpt>
      <trkpt lat="45.30403" lon="0.9033">
        <ele>187</ele>
        <time>2023-09-24T06:53:38Z</time>
      </trkpt>
      <trkpt lat="45.30403" lon="0.90335">
        <ele>187.2</ele>
        <time>2023-09-24T06:53:39Z</time>
      </trkpt>
      <trkpt lat="45.30403" lon="0.90341">
        <ele>187.3</ele>
        <time>2023-09-24T06:53:40Z</time>
      </trkpt>
      <trkpt lat="45.30403" lon="0.90348">
        <ele>187.6</ele>
        <time>2023-09-24T06:53:42Z</time>
      </trkpt>
      <trkpt lat="45.30403" lon="0.90352">
        <ele>187.7</ele>
        <time>2023-09-24T06:53:43Z</time>
      </trkpt>
      <trkpt lat="45.30397" lon="0.90374">
        <ele>188.6</ele>
        <time>2023-09-24T06:53:49Z</time>
      </trkpt>
      <trkpt lat="45.30394" lon="0.90389">
        <ele>189.4</ele>
        <time>2023-09-24T06:53:53Z</time>
      </trkpt>
      <trkpt lat="45.30391" lon="0.90399">
        <ele>189.8</ele>
        <time>2023-09-24T06:53:56Z</time>
      </trkpt>
      <trkpt lat="45.3039" lon="0.90406">
        <ele>190.1</ele>
        <time>2023-09-24T06:53:58Z</time>
      </trkpt>
      <trkpt lat="45.30389" lon="0.90425">
        <ele>190.9</ele>
        <time>2023-09-24T06:54:03Z</time>
      </trkpt>
      <trkpt lat="45.30381" lon="0.90435">
        <ele>191.6</ele>
        <time>2023-09-24T06:54:08Z</time>
      </trkpt>
      <trkpt lat="45.30372" lon="0.90454">
        <ele>192.5</ele>
        <time>2023-09-24T06:54:15Z</time>
      </trkpt>
      <trkpt lat="45.30362" lon="0.90464">
        <ele>193.3</ele>
        <time>2023-09-24T06:54:20Z</time>
      </trkpt>
      <trkpt lat="45.3036" lon="0.90466">
        <ele>193.4</ele>
        <time>2023-09-24T06:54:21Z</time>
      </trkpt>
      <trkpt lat="45.30355" lon="0.90475">
        <ele>193.8</ele>
        <time>2023-09-24T06:54:24Z</time>
      </trkpt>
      <trkpt lat="45.30349" lon="0.90488">
        <ele>194.4</ele>
        <time>2023-09-24T06:54:28Z</time>
      </trkpt>
      <trkpt lat="45.30342" lon="0.90506">
        <ele>195</ele>
        <time>2023-09-24T06:54:33Z</time>
      </trkpt>
      <trkpt lat="45.30332" lon="0.90521">
        <ele>195.4</ele>
        <time>2023-09-24T06:54:38Z</time>
      </trkpt>
      <trkpt lat="45.30326" lon="0.90534">
        <ele>195.8</ele>
        <time>2023-09-24T06:54:42Z</time>
      </trkpt>
      <trkpt lat="45.30317" lon="0.9055">
        <ele>196.2</ele>
        <time>2023-09-24T06:54:47Z</time>
      </trkpt>
      <trkpt lat="45.30309" lon="0.90566">
        <ele>196.6</ele>
        <time>2023-09-24T06:54:51Z</time>
      </trkpt>
      <trkpt lat="45.30299" lon="0.90584">
        <ele>197</ele>
        <time>2023-09-24T06:54:56Z</time>
      </trkpt>
      <trkpt lat="45.30293" lon="0.90601">
        <ele>197.2</ele>
        <time>2023-09-24T06:55:00Z</time>
      </trkpt>
      <trkpt lat="45.30287" lon="0.90619">
        <ele>197.5</ele>
        <time>2023-09-24T06:55:04Z</time>
      </trkpt>
      <trkpt lat="45.30284" lon="0.9062">
        <ele>197.5</ele>
        <time>2023-09-24T06:55:05Z</time>
      </trkpt>
      <trkpt lat="45.30277" lon="0.90626">
        <ele>197.5</ele>
        <time>2023-09-24T06:55:07Z</time>
      </trkpt>
      <trkpt lat="45.30259" lon="0.90636">
        <ele>197.4</ele>
        <time>2023-09-24T06:55:12Z</time>
      </trkpt>
      <trkpt lat="45.30256" lon="0.90639">
        <ele>197.4</ele>
        <time>2023-09-24T06:55:13Z</time>
      </trkpt>
      <trkpt lat="45.30249" lon="0.90645">
        <ele>197.3</ele>
        <time>2023-09-24T06:55:15Z</time>
      </trkpt>
      <trkpt lat="45.30247" lon="0.9065">
        <ele>197.3</ele>
        <time>2023-09-24T06:55:16Z</time>
      </trkpt>
      <trkpt lat="45.30238" lon="0.9067">
        <ele>197.1</ele>
        <time>2023-09-24T06:55:21Z</time>
      </trkpt>
      <trkpt lat="45.3023" lon="0.90682">
        <ele>197</ele>
        <time>2023-09-24T06:55:24Z</time>
      </trkpt>
      <trkpt lat="45.30225" lon="0.90685">
        <ele>196.9</ele>
        <time>2023-09-24T06:55:25Z</time>
      </trkpt>
      <trkpt lat="45.30211" lon="0.90694">
        <ele>196.3</ele>
        <time>2023-09-24T06:55:28Z</time>
      </trkpt>
      <trkpt lat="45.302" lon="0.907">
        <ele>195.9</ele>
        <time>2023-09-24T06:55:30Z</time>
      </trkpt>
      <trkpt lat="45.30195" lon="0.90703">
        <ele>195.8</ele>
        <time>2023-09-24T06:55:31Z</time>
      </trkpt>
      <trkpt lat="45.30184" lon="0.90708">
        <ele>195.6</ele>
        <time>2023-09-24T06:55:33Z</time>
      </trkpt>
      <trkpt lat="45.30177" lon="0.90716">
        <ele>195.5</ele>
        <time>2023-09-24T06:55:35Z</time>
      </trkpt>
      <trkpt lat="45.30176" lon="0.90732">
        <ele>195.4</ele>
        <time>2023-09-24T06:55:38Z</time>
      </trkpt>
      <trkpt lat="45.30176" lon="0.90739">
        <ele>195.4</ele>
        <time>2023-09-24T06:55:39Z</time>
      </trkpt>
      <trkpt lat="45.30173" lon="0.90763">
        <ele>195.4</ele>
        <time>2023-09-24T06:55:43Z</time>
      </trkpt>
      <trkpt lat="45.30173" lon="0.9079">
        <ele>195.6</ele>
        <time>2023-09-24T06:55:48Z</time>
      </trkpt>
      <trkpt lat="45.30171" lon="0.90813">
        <ele>196.1</ele>
        <time>2023-09-24T06:55:52Z</time>
      </trkpt>
      <trkpt lat="45.30171" lon="0.90819">
        <ele>196.3</ele>
        <time>2023-09-24T06:55:53Z</time>
      </trkpt>
      <trkpt lat="45.3017" lon="0.90852">
        <ele>197.3</ele>
        <time>2023-09-24T06:55:59Z</time>
      </trkpt>
      <trkpt lat="45.30163" lon="0.9087">
        <ele>197.9</ele>
        <time>2023-09-24T06:56:03Z</time>
      </trkpt>
      <trkpt lat="45.30157" lon="0.90892">
        <ele>198.6</ele>
        <time>2023-09-24T06:56:08Z</time>
      </trkpt>
      <trkpt lat="45.30152" lon="0.90925">
        <ele>199.5</ele>
        <time>2023-09-24T06:56:15Z</time>
      </trkpt>
      <trkpt lat="45.30147" lon="0.90939">
        <ele>200.1</ele>
        <time>2023-09-24T06:56:19Z</time>
      </trkpt>
      <trkpt lat="45.30142" lon="0.90952">
        <ele>200.8</ele>
        <time>2023-09-24T06:56:23Z</time>
      </trkpt>
      <trkpt lat="45.30133" lon="0.90975">
        <ele>201.9</ele>
        <time>2023-09-24T06:56:29Z</time>
      </trkpt>
      <trkpt lat="45.30126" lon="0.90988">
        <ele>202.6</ele>
        <time>2023-09-24T06:56:33Z</time>
      </trkpt>
      <trkpt lat="45.30122" lon="0.90997">
        <ele>203.1</ele>
        <time>2023-09-24T06:56:35Z</time>
      </trkpt>
      <trkpt lat="45.30118" lon="0.91005">
        <ele>203.6</ele>
        <time>2023-09-24T06:56:37Z</time>
      </trkpt>
      <trkpt lat="45.30113" lon="0.91021">
        <ele>204.3</ele>
        <time>2023-09-24T06:56:41Z</time>
      </trkpt>
      <trkpt lat="45.30112" lon="0.91047">
        <ele>204.7</ele>
        <time>2023-09-24T06:56:46Z</time>
      </trkpt>
      <trkpt lat="45.30114" lon="0.91072">
        <ele>204.9</ele>
        <time>2023-09-24T06:56:51Z</time>
      </trkpt>
      <trkpt lat="45.30117" lon="0.91094">
        <ele>205</ele>
        <time>2023-09-24T06:56:55Z</time>
      </trkpt>
      <trkpt lat="45.30117" lon="0.91098">
        <ele>205</ele>
        <time>2023-09-24T06:56:56Z</time>
      </trkpt>
      <trkpt lat="45.30117" lon="0.91111">
        <ele>205</ele>
        <time>2023-09-24T06:56:59Z</time>
      </trkpt>
      <trkpt lat="45.30113" lon="0.9114">
        <ele>205.1</ele>
        <time>2023-09-24T06:57:04Z</time>
      </trkpt>
      <trkpt lat="45.30112" lon="0.91145">
        <ele>205.1</ele>
        <time>2023-09-24T06:57:05Z</time>
      </trkpt>
      <trkpt lat="45.30109" lon="0.91163">
        <ele>205.1</ele>
        <time>2023-09-24T06:57:08Z</time>
      </trkpt>
      <trkpt lat="45.3011" lon="0.91171">
        <ele>205</ele>
        <time>2023-09-24T06:57:09Z</time>
      </trkpt>
      <trkpt lat="45.30113" lon="0.91183">
        <ele>205</ele>
        <time>2023-09-24T06:57:11Z</time>
      </trkpt>
      <trkpt lat="45.3012" lon="0.91204">
        <ele>205</ele>
        <time>2023-09-24T06:57:14Z</time>
      </trkpt>
      <trkpt lat="45.30124" lon="0.91216">
        <ele>205</ele>
        <time>2023-09-24T06:57:16Z</time>
      </trkpt>
      <trkpt lat="45.30128" lon="0.91226">
        <ele>205</ele>
        <time>2023-09-24T06:57:18Z</time>
      </trkpt>
      <trkpt lat="45.30135" lon="0.91248">
        <ele>204.9</ele>
        <time>2023-09-24T06:57:22Z</time>
      </trkpt>
      <trkpt lat="45.30137" lon="0.91262">
        <ele>204.8</ele>
        <time>2023-09-24T06:57:24Z</time>
      </trkpt>
      <trkpt lat="45.30138" lon="0.91284">
        <ele>204.6</ele>
        <time>2023-09-24T06:57:27Z</time>
      </trkpt>
      <trkpt lat="45.30144" lon="0.91323">
        <ele>204.2</ele>
        <time>2023-09-24T06:57:32Z</time>
      </trkpt>
      <trkpt lat="45.30149" lon="0.9136">
        <ele>203.8</ele>
        <time>2023-09-24T06:57:37Z</time>
      </trkpt>
      <trkpt lat="45.30149" lon="0.91366">
        <ele>203.8</ele>
        <time>2023-09-24T06:57:38Z</time>
      </trkpt>
      <trkpt lat="45.30148" lon="0.91372">
        <ele>203.7</ele>
        <time>2023-09-24T06:57:39Z</time>
      </trkpt>
      <trkpt lat="45.30144" lon="0.91387">
        <ele>203.6</ele>
        <time>2023-09-24T06:57:42Z</time>
      </trkpt>
      <trkpt lat="45.30142" lon="0.91403">
        <ele>203.6</ele>
        <time>2023-09-24T06:57:45Z</time>
      </trkpt>
      <trkpt lat="45.30139" lon="0.91415">
        <ele>203.5</ele>
        <time>2023-09-24T06:57:47Z</time>
      </trkpt>
      <trkpt lat="45.30138" lon="0.9142">
        <ele>203.5</ele>
        <time>2023-09-24T06:57:48Z</time>
      </trkpt>
      <trkpt lat="45.30135" lon="0.9144">
        <ele>203.4</ele>
        <time>2023-09-24T06:57:51Z</time>
      </trkpt>
      <trkpt lat="45.30133" lon="0.91446">
        <ele>203.4</ele>
        <time>2023-09-24T06:57:52Z</time>
      </trkpt>
      <trkpt lat="45.30133" lon="0.91454">
        <ele>203.4</ele>
        <time>2023-09-24T06:57:53Z</time>
      </trkpt>
      <trkpt lat="45.30132" lon="0.91468">
        <ele>203.4</ele>
        <time>2023-09-24T06:57:55Z</time>
      </trkpt>
      <trkpt lat="45.30131" lon="0.91481">
        <ele>203.4</ele>
        <time>2023-09-24T06:57:57Z</time>
      </trkpt>
      <trkpt lat="45.30129" lon="0.91506">
        <ele>203.4</ele>
        <time>2023-09-24T06:58:01Z</time>
      </trkpt>
      <trkpt lat="45.3013" lon="0.91512">
        <ele>203.5</ele>
        <time>2023-09-24T06:58:02Z</time>
      </trkpt>
      <trkpt lat="45.30133" lon="0.91521">
        <ele>203.6</ele>
        <time>2023-09-24T06:58:04Z</time>
      </trkpt>
      <trkpt lat="45.30136" lon="0.91523">
        <ele>204.2</ele>
        <time>2023-09-24T06:58:05Z</time>
      </trkpt>
      <trkpt lat="45.3015" lon="0.91534">
        <ele>204.9</ele>
        <time>2023-09-24T06:58:10Z</time>
      </trkpt>
      <trkpt lat="45.30164" lon="0.91545">
        <ele>205.6</ele>
        <time>2023-09-24T06:58:15Z</time>
      </trkpt>
      <trkpt lat="45.30171" lon="0.91551">
        <ele>205.9</ele>
        <time>2023-09-24T06:58:17Z</time>
      </trkpt>
      <trkpt lat="45.30172" lon="0.91555">
        <ele>206</ele>
        <time>2023-09-24T06:58:18Z</time>
      </trkpt>
      <trkpt lat="45.30172" lon="0.91565">
        <ele>206.4</ele>
        <time>2023-09-24T06:58:20Z</time>
      </trkpt>
      <trkpt lat="45.30169" lon="0.91571">
        <ele>206.5</ele>
        <time>2023-09-24T06:58:22Z</time>
      </trkpt>
      <trkpt lat="45.30167" lon="0.91592">
        <ele>206.8</ele>
        <time>2023-09-24T06:58:26Z</time>
      </trkpt>
      <trkpt lat="45.30167" lon="0.91615">
        <ele>207.1</ele>
        <time>2023-09-24T06:58:31Z</time>
      </trkpt>
      <trkpt lat="45.30171" lon="0.91645">
        <ele>207.4</ele>
        <time>2023-09-24T06:58:37Z</time>
      </trkpt>
      <trkpt lat="45.30172" lon="0.9165">
        <ele>207.4</ele>
        <time>2023-09-24T06:58:38Z</time>
      </trkpt>
      <trkpt lat="45.30176" lon="0.91663">
        <ele>207.5</ele>
        <time>2023-09-24T06:58:41Z</time>
      </trkpt>
      <trkpt lat="45.30183" lon="0.91682">
        <ele>207.5</ele>
        <time>2023-09-24T06:58:45Z</time>
      </trkpt>
      <trkpt lat="45.30186" lon="0.91688">
        <ele>207.7</ele>
        <time>2023-09-24T06:58:47Z</time>
      </trkpt>
      <trkpt lat="45.30189" lon="0.9169">
        <ele>207.7</ele>
        <time>2023-09-24T06:58:49Z</time>
      </trkpt>
      <trkpt lat="45.30196" lon="0.91689">
        <ele>207.9</ele>
        <time>2023-09-24T06:58:52Z</time>
      </trkpt>
      <trkpt lat="45.30198" lon="0.91695">
        <ele>208</ele>
        <time>2023-09-24T06:58:57Z</time>
      </trkpt>
      <trkpt lat="45.30205" lon="0.91694">
        <ele>208.2</ele>
        <time>2023-09-24T06:59:00Z</time>
      </trkpt>
      <trkpt lat="45.30208" lon="0.91693">
        <ele>208.3</ele>
        <time>2023-09-24T06:59:01Z</time>
      </trkpt>
      <trkpt lat="45.30218" lon="0.91688">
        <ele>208.4</ele>
        <time>2023-09-24T06:59:04Z</time>
      </trkpt>
      <trkpt lat="45.30225" lon="0.91685">
        <ele>208.5</ele>
        <time>2023-09-24T06:59:06Z</time>
      </trkpt>
      <trkpt lat="45.30228" lon="0.91686">
        <ele>208.5</ele>
        <time>2023-09-24T06:59:07Z</time>
      </trkpt>
      <trkpt lat="45.30229" lon="0.91688">
        <ele>208.5</ele>
        <time>2023-09-24T06:59:08Z</time>
      </trkpt>
      <trkpt lat="45.3023" lon="0.9169">
        <ele>208.5</ele>
        <time>2023-09-24T06:59:09Z</time>
      </trkpt>
      <trkpt lat="45.30233" lon="0.91698">
        <ele>208.4</ele>
        <time>2023-09-24T06:59:12Z</time>
      </trkpt>
      <trkpt lat="45.30234" lon="0.91703">
        <ele>208.4</ele>
        <time>2023-09-24T06:59:14Z</time>
      </trkpt>
      <trkpt lat="45.30233" lon="0.91706">
        <ele>208.3</ele>
        <time>2023-09-24T06:59:15Z</time>
      </trkpt>
      <trkpt lat="45.30241" lon="0.91713">
        <ele>208.3</ele>
        <time>2023-09-24T06:59:18Z</time>
      </trkpt>
      <trkpt lat="45.30246" lon="0.91718">
        <ele>208.3</ele>
        <time>2023-09-24T06:59:20Z</time>
      </trkpt>
      <trkpt lat="45.30252" lon="0.91722">
        <ele>208.3</ele>
        <time>2023-09-24T06:59:22Z</time>
      </trkpt>
      <trkpt lat="45.30262" lon="0.91733">
        <ele>208.1</ele>
        <time>2023-09-24T06:59:26Z</time>
      </trkpt>
      <trkpt lat="45.30266" lon="0.91737">
        <ele>208</ele>
        <time>2023-09-24T06:59:28Z</time>
      </trkpt>
      <trkpt lat="45.30269" lon="0.91738">
        <ele>207.8</ele>
        <time>2023-09-24T06:59:30Z</time>
      </trkpt>
      <trkpt lat="45.30271" lon="0.91739">
        <ele>207.7</ele>
        <time>2023-09-24T06:59:31Z</time>
      </trkpt>
      <trkpt lat="45.3028" lon="0.9174">
        <ele>207.2</ele>
        <time>2023-09-24T06:59:34Z</time>
      </trkpt>
      <trkpt lat="45.30284" lon="0.91739">
        <ele>207</ele>
        <time>2023-09-24T06:59:35Z</time>
      </trkpt>
      <trkpt lat="45.30295" lon="0.91736">
        <ele>206.4</ele>
        <time>2023-09-24T06:59:38Z</time>
      </trkpt>
      <trkpt lat="45.30301" lon="0.91737">
        <ele>206.1</ele>
        <time>2023-09-24T06:59:40Z</time>
      </trkpt>
      <trkpt lat="45.30305" lon="0.91735">
        <ele>205.9</ele>
        <time>2023-09-24T06:59:41Z</time>
      </trkpt>
      <trkpt lat="45.30311" lon="0.91731">
        <ele>205.5</ele>
        <time>2023-09-24T06:59:43Z</time>
      </trkpt>
      <trkpt lat="45.30314" lon="0.91732">
        <ele>205.2</ele>
        <time>2023-09-24T06:59:44Z</time>
      </trkpt>
      <trkpt lat="45.3032" lon="0.91732">
        <ele>204.7</ele>
        <time>2023-09-24T06:59:48Z</time>
      </trkpt>
      <trkpt lat="45.30331" lon="0.91739">
        <ele>203.7</ele>
        <time>2023-09-24T06:59:52Z</time>
      </trkpt>
      <trkpt lat="45.30341" lon="0.91752">
        <ele>202.6</ele>
        <time>2023-09-24T06:59:56Z</time>
      </trkpt>
      <trkpt lat="45.30344" lon="0.91754">
        <ele>202.3</ele>
        <time>2023-09-24T06:59:57Z</time>
      </trkpt>
      <trkpt lat="45.30348" lon="0.91753">
        <ele>202</ele>
        <time>2023-09-24T06:59:58Z</time>
      </trkpt>
      <trkpt lat="45.30359" lon="0.91749">
        <ele>200.9</ele>
        <time>2023-09-24T07:00:01Z</time>
      </trkpt>
      <trkpt lat="45.30374" lon="0.91745">
        <ele>199.6</ele>
        <time>2023-09-24T07:00:04Z</time>
      </trkpt>
      <trkpt lat="45.30382" lon="0.91749">
        <ele>199</ele>
        <time>2023-09-24T07:00:06Z</time>
      </trkpt>
      <trkpt lat="45.30388" lon="0.91748">
        <ele>198.6</ele>
        <time>2023-09-24T07:00:07Z</time>
      </trkpt>
      <trkpt lat="45.30394" lon="0.91745">
        <ele>198.2</ele>
        <time>2023-09-24T07:00:08Z</time>
      </trkpt>
      <trkpt lat="45.30407" lon="0.91737">
        <ele>197.5</ele>
        <time>2023-09-24T07:00:10Z</time>
      </trkpt>
      <trkpt lat="45.30413" lon="0.91731">
        <ele>197.3</ele>
        <time>2023-09-24T07:00:11Z</time>
      </trkpt>
      <trkpt lat="45.30428" lon="0.91716">
        <ele>196.8</ele>
        <time>2023-09-24T07:00:13Z</time>
      </trkpt>
      <trkpt lat="45.30433" lon="0.91705">
        <ele>196.6</ele>
        <time>2023-09-24T07:00:15Z</time>
      </trkpt>
      <trkpt lat="45.30435" lon="0.91702">
        <ele>196.5</ele>
        <time>2023-09-24T07:00:16Z</time>
      </trkpt>
      <trkpt lat="45.30439" lon="0.917">
        <ele>196.4</ele>
        <time>2023-09-24T07:00:18Z</time>
      </trkpt>
      <trkpt lat="45.30441" lon="0.917">
        <ele>196.3</ele>
        <time>2023-09-24T07:00:19Z</time>
      </trkpt>
      <trkpt lat="45.30446" lon="0.91697">
        <ele>196.2</ele>
        <time>2023-09-24T07:00:22Z</time>
      </trkpt>
      <trkpt lat="45.30458" lon="0.91701">
        <ele>196.3</ele>
        <time>2023-09-24T07:00:27Z</time>
      </trkpt>
      <trkpt lat="45.30472" lon="0.91709">
        <ele>197.2</ele>
        <time>2023-09-24T07:00:31Z</time>
      </trkpt>
      <trkpt lat="45.30483" lon="0.91714">
        <ele>198.2</ele>
        <time>2023-09-24T07:00:35Z</time>
      </trkpt>
      <trkpt lat="45.30488" lon="0.91715">
        <ele>198.7</ele>
        <time>2023-09-24T07:00:37Z</time>
      </trkpt>
      <trkpt lat="45.30493" lon="0.91718">
        <ele>199.1</ele>
        <time>2023-09-24T07:00:39Z</time>
      </trkpt>
      <trkpt lat="45.30506" lon="0.91725">
        <ele>200.2</ele>
        <time>2023-09-24T07:00:44Z</time>
      </trkpt>
      <trkpt lat="45.30507" lon="0.91727">
        <ele>200.3</ele>
        <time>2023-09-24T07:00:45Z</time>
      </trkpt>
      <trkpt lat="45.30511" lon="0.91733">
        <ele>200.7</ele>
        <time>2023-09-24T07:00:48Z</time>
      </trkpt>
      <trkpt lat="45.30517" lon="0.91737">
        <ele>201.2</ele>
        <time>2023-09-24T07:00:50Z</time>
      </trkpt>
      <trkpt lat="45.30525" lon="0.91743">
        <ele>201.8</ele>
        <time>2023-09-24T07:00:53Z</time>
      </trkpt>
      <trkpt lat="45.30534" lon="0.91748">
        <ele>202.5</ele>
        <time>2023-09-24T07:00:57Z</time>
      </trkpt>
      <trkpt lat="45.30547" lon="0.91756">
        <ele>203.5</ele>
        <time>2023-09-24T07:01:02Z</time>
      </trkpt>
      <trkpt lat="45.30556" lon="0.91762">
        <ele>204.1</ele>
        <time>2023-09-24T07:01:06Z</time>
      </trkpt>
      <trkpt lat="45.3056" lon="0.91764">
        <ele>204.3</ele>
        <time>2023-09-24T07:01:07Z</time>
      </trkpt>
      <trkpt lat="45.30567" lon="0.91765">
        <ele>204.7</ele>
        <time>2023-09-24T07:01:10Z</time>
      </trkpt>
      <trkpt lat="45.3057" lon="0.91766">
        <ele>204.8</ele>
        <time>2023-09-24T07:01:11Z</time>
      </trkpt>
      <trkpt lat="45.30576" lon="0.91768">
        <ele>205.2</ele>
        <time>2023-09-24T07:01:13Z</time>
      </trkpt>
      <trkpt lat="45.30583" lon="0.91771">
        <ele>205.6</ele>
        <time>2023-09-24T07:01:16Z</time>
      </trkpt>
      <trkpt lat="45.30604" lon="0.91766">
        <ele>206.4</ele>
        <time>2023-09-24T07:01:21Z</time>
      </trkpt>
      <trkpt lat="45.30619" lon="0.91762">
        <ele>206.4</ele>
        <time>2023-09-24T07:01:26Z</time>
      </trkpt>
      <trkpt lat="45.30625" lon="0.91762">
        <ele>206.3</ele>
        <time>2023-09-24T07:01:27Z</time>
      </trkpt>
      <trkpt lat="45.30631" lon="0.91766">
        <ele>206.1</ele>
        <time>2023-09-24T07:01:29Z</time>
      </trkpt>
      <trkpt lat="45.30633" lon="0.91768">
        <ele>206</ele>
        <time>2023-09-24T07:01:30Z</time>
      </trkpt>
      <trkpt lat="45.30648" lon="0.91769">
        <ele>205.4</ele>
        <time>2023-09-24T07:01:32Z</time>
      </trkpt>
      <trkpt lat="45.30654" lon="0.9177">
        <ele>205.1</ele>
        <time>2023-09-24T07:01:33Z</time>
      </trkpt>
      <trkpt lat="45.30672" lon="0.91771">
        <ele>204.2</ele>
        <time>2023-09-24T07:01:36Z</time>
      </trkpt>
      <trkpt lat="45.30683" lon="0.91771">
        <ele>203.6</ele>
        <time>2023-09-24T07:01:38Z</time>
      </trkpt>
      <trkpt lat="45.30688" lon="0.91772">
        <ele>203.5</ele>
        <time>2023-09-24T07:01:39Z</time>
      </trkpt>
      <trkpt lat="45.30693" lon="0.91774">
        <ele>203.3</ele>
        <time>2023-09-24T07:01:40Z</time>
      </trkpt>
      <trkpt lat="45.30709" lon="0.91785">
        <ele>202.9</ele>
        <time>2023-09-24T07:01:43Z</time>
      </trkpt>
      <trkpt lat="45.3072" lon="0.91793">
        <ele>202.4</ele>
        <time>2023-09-24T07:01:45Z</time>
      </trkpt>
      <trkpt lat="45.30731" lon="0.91798">
        <ele>201.9</ele>
        <time>2023-09-24T07:01:47Z</time>
      </trkpt>
      <trkpt lat="45.30744" lon="0.91803">
        <ele>201.4</ele>
        <time>2023-09-24T07:01:50Z</time>
      </trkpt>
      <trkpt lat="45.30759" lon="0.91806">
        <ele>201.1</ele>
        <time>2023-09-24T07:01:53Z</time>
      </trkpt>
      <trkpt lat="45.30764" lon="0.91806">
        <ele>201.1</ele>
        <time>2023-09-24T07:01:54Z</time>
      </trkpt>
      <trkpt lat="45.30786" lon="0.91814">
        <ele>200.9</ele>
        <time>2023-09-24T07:01:59Z</time>
      </trkpt>
      <trkpt lat="45.30808" lon="0.91821">
        <ele>201.1</ele>
        <time>2023-09-24T07:02:04Z</time>
      </trkpt>
      <trkpt lat="45.30826" lon="0.91827">
        <ele>201.6</ele>
        <time>2023-09-24T07:02:08Z</time>
      </trkpt>
      <trkpt lat="45.30829" lon="0.91829">
        <ele>201.8</ele>
        <time>2023-09-24T07:02:09Z</time>
      </trkpt>
      <trkpt lat="45.30835" lon="0.91831">
        <ele>202</ele>
        <time>2023-09-24T07:02:11Z</time>
      </trkpt>
      <trkpt lat="45.30839" lon="0.91832">
        <ele>202.1</ele>
        <time>2023-09-24T07:02:12Z</time>
      </trkpt>
      <trkpt lat="45.30846" lon="0.91833">
        <ele>202.3</ele>
        <time>2023-09-24T07:02:14Z</time>
      </trkpt>
      <trkpt lat="45.30851" lon="0.91834">
        <ele>202.4</ele>
        <time>2023-09-24T07:02:15Z</time>
      </trkpt>
      <trkpt lat="45.30855" lon="0.91838">
        <ele>202.5</ele>
        <time>2023-09-24T07:02:17Z</time>
      </trkpt>
      <trkpt lat="45.30858" lon="0.91841">
        <ele>202.6</ele>
        <time>2023-09-24T07:02:19Z</time>
      </trkpt>
      <trkpt lat="45.3086" lon="0.91842">
        <ele>202.7</ele>
        <time>2023-09-24T07:02:20Z</time>
      </trkpt>
      <trkpt lat="45.30894" lon="0.9186">
        <ele>204</ele>
        <time>2023-09-24T07:02:53Z</time>
      </trkpt>
      <trkpt lat="45.30896" lon="0.91862">
        <ele>204.1</ele>
        <time>2023-09-24T07:02:54Z</time>
      </trkpt>
      <trkpt lat="45.30898" lon="0.91862">
        <ele>204.2</ele>
        <time>2023-09-24T07:02:55Z</time>
      </trkpt>
      <trkpt lat="45.3091" lon="0.91865">
        <ele>204.9</ele>
        <time>2023-09-24T07:03:00Z</time>
      </trkpt>
      <trkpt lat="45.30923" lon="0.9186">
        <ele>205.7</ele>
        <time>2023-09-24T07:03:05Z</time>
      </trkpt>
      <trkpt lat="45.30936" lon="0.91852">
        <ele>206.6</ele>
        <time>2023-09-24T07:03:10Z</time>
      </trkpt>
      <trkpt lat="45.30945" lon="0.91843">
        <ele>207.5</ele>
        <time>2023-09-24T07:03:14Z</time>
      </trkpt>
      <trkpt lat="45.30953" lon="0.91839">
        <ele>208.2</ele>
        <time>2023-09-24T07:03:18Z</time>
      </trkpt>
      <trkpt lat="45.30955" lon="0.91839">
        <ele>208.4</ele>
        <time>2023-09-24T07:03:20Z</time>
      </trkpt>
      <trkpt lat="45.30964" lon="0.91834">
        <ele>209.2</ele>
        <time>2023-09-24T07:03:30Z</time>
      </trkpt>
      <trkpt lat="45.30967" lon="0.91832">
        <ele>209.4</ele>
        <time>2023-09-24T07:03:31Z</time>
      </trkpt>
      <trkpt lat="45.30976" lon="0.91836">
        <ele>209.8</ele>
        <time>2023-09-24T07:03:35Z</time>
      </trkpt>
      <trkpt lat="45.30988" lon="0.91842">
        <ele>209.9</ele>
        <time>2023-09-24T07:03:40Z</time>
      </trkpt>
      <trkpt lat="45.30991" lon="0.91844">
        <ele>209.9</ele>
        <time>2023-09-24T07:03:41Z</time>
      </trkpt>
      <trkpt lat="45.30993" lon="0.9185">
        <ele>209.8</ele>
        <time>2023-09-24T07:03:43Z</time>
      </trkpt>
      <trkpt lat="45.30996" lon="0.91853">
        <ele>209.8</ele>
        <time>2023-09-24T07:03:44Z</time>
      </trkpt>
      <trkpt lat="45.30998" lon="0.91855">
        <ele>209.7</ele>
        <time>2023-09-24T07:03:45Z</time>
      </trkpt>
      <trkpt lat="45.31007" lon="0.9186">
        <ele>209.6</ele>
        <time>2023-09-24T07:03:48Z</time>
      </trkpt>
      <trkpt lat="45.3102" lon="0.91864">
        <ele>209.8</ele>
        <time>2023-09-24T07:03:52Z</time>
      </trkpt>
      <trkpt lat="45.31033" lon="0.91863">
        <ele>210.2</ele>
        <time>2023-09-24T07:03:57Z</time>
      </trkpt>
      <trkpt lat="45.31035" lon="0.91863">
        <ele>210.2</ele>
        <time>2023-09-24T07:03:58Z</time>
      </trkpt>
      <trkpt lat="45.31037" lon="0.91863">
        <ele>210.2</ele>
        <time>2023-09-24T07:04:00Z</time>
      </trkpt>
      <trkpt lat="45.3107" lon="0.91871">
        <ele>211</ele>
        <time>2023-09-24T07:04:25Z</time>
      </trkpt>
      <trkpt lat="45.31071" lon="0.91873">
        <ele>211.1</ele>
        <time>2023-09-24T07:04:26Z</time>
      </trkpt>
      <trkpt lat="45.31075" lon="0.91874">
        <ele>211.2</ele>
        <time>2023-09-24T07:04:28Z</time>
      </trkpt>
      <trkpt lat="45.31076" lon="0.91875">
        <ele>211.3</ele>
        <time>2023-09-24T07:04:29Z</time>
      </trkpt>
      <trkpt lat="45.31082" lon="0.91877">
        <ele>211.5</ele>
        <time>2023-09-24T07:04:32Z</time>
      </trkpt>
      <trkpt lat="45.31084" lon="0.9188">
        <ele>211.6</ele>
        <time>2023-09-24T07:04:33Z</time>
      </trkpt>
      <trkpt lat="45.31088" lon="0.91884">
        <ele>211.8</ele>
        <time>2023-09-24T07:04:35Z</time>
      </trkpt>
      <trkpt lat="45.31093" lon="0.91887">
        <ele>212</ele>
        <time>2023-09-24T07:04:37Z</time>
      </trkpt>
      <trkpt lat="45.31095" lon="0.9189">
        <ele>212.2</ele>
        <time>2023-09-24T07:04:38Z</time>
      </trkpt>
      <trkpt lat="45.31099" lon="0.91898">
        <ele>212.6</ele>
        <time>2023-09-24T07:04:41Z</time>
      </trkpt>
      <trkpt lat="45.31107" lon="0.91912">
        <ele>213.3</ele>
        <time>2023-09-24T07:04:46Z</time>
      </trkpt>
      <trkpt lat="45.31116" lon="0.9192">
        <ele>213.9</ele>
        <time>2023-09-24T07:04:51Z</time>
      </trkpt>
      <trkpt lat="45.31118" lon="0.91921">
        <ele>214</ele>
        <time>2023-09-24T07:04:52Z</time>
      </trkpt>
      <trkpt lat="45.31121" lon="0.91923">
        <ele>214.2</ele>
        <time>2023-09-24T07:04:54Z</time>
      </trkpt>
      <trkpt lat="45.31127" lon="0.91926">
        <ele>214.5</ele>
        <time>2023-09-24T07:04:56Z</time>
      </trkpt>
      <trkpt lat="45.31135" lon="0.91932">
        <ele>214.9</ele>
        <time>2023-09-24T07:05:00Z</time>
      </trkpt>
      <trkpt lat="45.31139" lon="0.91937">
        <ele>215.1</ele>
        <time>2023-09-24T07:05:04Z</time>
      </trkpt>
      <trkpt lat="45.31141" lon="0.91941">
        <ele>215.1</ele>
        <time>2023-09-24T07:05:05Z</time>
      </trkpt>
      <trkpt lat="45.31142" lon="0.91943">
        <ele>215.1</ele>
        <time>2023-09-24T07:05:06Z</time>
      </trkpt>
      <trkpt lat="45.31143" lon="0.91951">
        <ele>215.1</ele>
        <time>2023-09-24T07:05:10Z</time>
      </trkpt>
      <trkpt lat="45.31143" lon="0.91957">
        <ele>215</ele>
        <time>2023-09-24T07:05:12Z</time>
      </trkpt>
      <trkpt lat="45.31143" lon="0.91961">
        <ele>214.9</ele>
        <time>2023-09-24T07:05:13Z</time>
      </trkpt>
      <trkpt lat="45.31144" lon="0.91969">
        <ele>215</ele>
        <time>2023-09-24T07:05:15Z</time>
      </trkpt>
      <trkpt lat="45.31148" lon="0.91974">
        <ele>215.1</ele>
        <time>2023-09-24T07:05:17Z</time>
      </trkpt>
      <trkpt lat="45.31154" lon="0.91977">
        <ele>215.3</ele>
        <time>2023-09-24T07:05:20Z</time>
      </trkpt>
      <trkpt lat="45.31156" lon="0.91978">
        <ele>215.4</ele>
        <time>2023-09-24T07:05:21Z</time>
      </trkpt>
      <trkpt lat="45.31161" lon="0.91988">
        <ele>215.8</ele>
        <time>2023-09-24T07:05:24Z</time>
      </trkpt>
      <trkpt lat="45.31163" lon="0.91994">
        <ele>216.1</ele>
        <time>2023-09-24T07:05:26Z</time>
      </trkpt>
      <trkpt lat="45.31167" lon="0.92001">
        <ele>216.5</ele>
        <time>2023-09-24T07:05:28Z</time>
      </trkpt>
      <trkpt lat="45.31168" lon="0.92003">
        <ele>216.6</ele>
        <time>2023-09-24T07:05:30Z</time>
      </trkpt>
      <trkpt lat="45.31171" lon="0.92007">
        <ele>216.7</ele>
        <time>2023-09-24T07:05:32Z</time>
      </trkpt>
      <trkpt lat="45.31178" lon="0.92013">
        <ele>216.8</ele>
        <time>2023-09-24T07:05:36Z</time>
      </trkpt>
      <trkpt lat="45.31179" lon="0.92019">
        <ele>216.8</ele>
        <time>2023-09-24T07:05:39Z</time>
      </trkpt>
      <trkpt lat="45.31179" lon="0.92021">
        <ele>216.8</ele>
        <time>2023-09-24T07:05:40Z</time>
      </trkpt>
      <trkpt lat="45.31177" lon="0.92026">
        <ele>216.7</ele>
        <time>2023-09-24T07:05:43Z</time>
      </trkpt>
      <trkpt lat="45.31175" lon="0.92029">
        <ele>216.6</ele>
        <time>2023-09-24T07:05:45Z</time>
      </trkpt>
      <trkpt lat="45.31168" lon="0.92043">
        <ele>216.1</ele>
        <time>2023-09-24T07:05:51Z</time>
      </trkpt>
      <trkpt lat="45.31166" lon="0.92048">
        <ele>215.9</ele>
        <time>2023-09-24T07:05:53Z</time>
      </trkpt>
      <trkpt lat="45.31166" lon="0.92056">
        <ele>215.7</ele>
        <time>2023-09-24T07:05:55Z</time>
      </trkpt>
      <trkpt lat="45.3117" lon="0.92063">
        <ele>215.5</ele>
        <time>2023-09-24T07:05:57Z</time>
      </trkpt>
      <trkpt lat="45.3117" lon="0.92066">
        <ele>215.5</ele>
        <time>2023-09-24T07:05:58Z</time>
      </trkpt>
      <trkpt lat="45.3117" lon="0.92077">
        <ele>215.3</ele>
        <time>2023-09-24T07:06:02Z</time>
      </trkpt>
      <trkpt lat="45.31171" lon="0.92082">
        <ele>215.2</ele>
        <time>2023-09-24T07:06:04Z</time>
      </trkpt>
      <trkpt lat="45.31173" lon="0.92086">
        <ele>215.1</ele>
        <time>2023-09-24T07:06:06Z</time>
      </trkpt>
      <trkpt lat="45.31175" lon="0.92094">
        <ele>215</ele>
        <time>2023-09-24T07:06:08Z</time>
      </trkpt>
      <trkpt lat="45.31178" lon="0.92099">
        <ele>214.9</ele>
        <time>2023-09-24T07:06:10Z</time>
      </trkpt>
      <trkpt lat="45.31179" lon="0.92106">
        <ele>214.8</ele>
        <time>2023-09-24T07:06:12Z</time>
      </trkpt>
      <trkpt lat="45.31179" lon="0.9213">
        <ele>214.7</ele>
        <time>2023-09-24T07:06:17Z</time>
      </trkpt>
      <trkpt lat="45.31181" lon="0.92146">
        <ele>214.7</ele>
        <time>2023-09-24T07:06:20Z</time>
      </trkpt>
      <trkpt lat="45.31182" lon="0.92158">
        <ele>214.6</ele>
        <time>2023-09-24T07:06:22Z</time>
      </trkpt>
      <trkpt lat="45.31182" lon="0.92164">
        <ele>214.6</ele>
        <time>2023-09-24T07:06:23Z</time>
      </trkpt>
      <trkpt lat="45.3118" lon="0.92184">
        <ele>214.4</ele>
        <time>2023-09-24T07:06:27Z</time>
      </trkpt>
      <trkpt lat="45.3118" lon="0.92204">
        <ele>214.2</ele>
        <time>2023-09-24T07:06:31Z</time>
      </trkpt>
      <trkpt lat="45.31174" lon="0.92215">
        <ele>213.8</ele>
        <time>2023-09-24T07:06:34Z</time>
      </trkpt>
      <trkpt lat="45.3117" lon="0.92223">
        <ele>213.6</ele>
        <time>2023-09-24T07:06:36Z</time>
      </trkpt>
      <trkpt lat="45.31169" lon="0.9223">
        <ele>213.4</ele>
        <time>2023-09-24T07:06:38Z</time>
      </trkpt>
      <trkpt lat="45.31169" lon="0.92234">
        <ele>213.3</ele>
        <time>2023-09-24T07:06:39Z</time>
      </trkpt>
      <trkpt lat="45.31164" lon="0.92241">
        <ele>212.9</ele>
        <time>2023-09-24T07:06:41Z</time>
      </trkpt>
      <trkpt lat="45.31152" lon="0.92251">
        <ele>212.1</ele>
        <time>2023-09-24T07:06:44Z</time>
      </trkpt>
      <trkpt lat="45.31148" lon="0.92254">
        <ele>211.8</ele>
        <time>2023-09-24T07:06:45Z</time>
      </trkpt>
      <trkpt lat="45.31137" lon="0.92263">
        <ele>210.9</ele>
        <time>2023-09-24T07:06:48Z</time>
      </trkpt>
      <trkpt lat="45.31133" lon="0.92268">
        <ele>210.5</ele>
        <time>2023-09-24T07:06:49Z</time>
      </trkpt>
      <trkpt lat="45.31128" lon="0.92272">
        <ele>210.1</ele>
        <time>2023-09-24T07:06:50Z</time>
      </trkpt>
      <trkpt lat="45.31123" lon="0.92282">
        <ele>209.4</ele>
        <time>2023-09-24T07:06:52Z</time>
      </trkpt>
      <trkpt lat="45.31119" lon="0.92294">
        <ele>208.8</ele>
        <time>2023-09-24T07:06:54Z</time>
      </trkpt>
      <trkpt lat="45.31116" lon="0.92299">
        <ele>208.5</ele>
        <time>2023-09-24T07:06:55Z</time>
      </trkpt>
      <trkpt lat="45.31112" lon="0.92307">
        <ele>208</ele>
        <time>2023-09-24T07:06:57Z</time>
      </trkpt>
      <trkpt lat="45.3111" lon="0.92315">
        <ele>207.5</ele>
        <time>2023-09-24T07:06:59Z</time>
      </trkpt>
      <trkpt lat="45.31107" lon="0.92322">
        <ele>207</ele>
        <time>2023-09-24T07:07:01Z</time>
      </trkpt>
      <trkpt lat="45.31098" lon="0.92335">
        <ele>206.2</ele>
        <time>2023-09-24T07:07:04Z</time>
      </trkpt>
      <trkpt lat="45.31087" lon="0.92349">
        <ele>205.9</ele>
        <time>2023-09-24T07:07:07Z</time>
      </trkpt>
      <trkpt lat="45.31086" lon="0.92359">
        <ele>206</ele>
        <time>2023-09-24T07:07:09Z</time>
      </trkpt>
      <trkpt lat="45.31087" lon="0.92362">
        <ele>206</ele>
        <time>2023-09-24T07:07:10Z</time>
      </trkpt>
      <trkpt lat="45.31091" lon="0.9237">
        <ele>206.2</ele>
        <time>2023-09-24T07:07:13Z</time>
      </trkpt>
      <trkpt lat="45.31091" lon="0.92374">
        <ele>206.3</ele>
        <time>2023-09-24T07:07:14Z</time>
      </trkpt>
      <trkpt lat="45.31088" lon="0.92394">
        <ele>207.1</ele>
        <time>2023-09-24T07:07:19Z</time>
      </trkpt>
      <trkpt lat="45.31087" lon="0.92406">
        <ele>207.7</ele>
        <time>2023-09-24T07:07:23Z</time>
      </trkpt>
      <trkpt lat="45.31088" lon="0.92408">
        <ele>207.8</ele>
        <time>2023-09-24T07:07:24Z</time>
      </trkpt>
      <trkpt lat="45.31096" lon="0.9242">
        <ele>208.6</ele>
        <time>2023-09-24T07:07:28Z</time>
      </trkpt>
      <trkpt lat="45.31098" lon="0.92427">
        <ele>209</ele>
        <time>2023-09-24T07:07:31Z</time>
      </trkpt>
      <trkpt lat="45.31101" lon="0.92431">
        <ele>209.3</ele>
        <time>2023-09-24T07:07:33Z</time>
      </trkpt>
      <trkpt lat="45.31108" lon="0.92434">
        <ele>209.9</ele>
        <time>2023-09-24T07:07:36Z</time>
      </trkpt>
      <trkpt lat="45.3111" lon="0.92435">
        <ele>210.1</ele>
        <time>2023-09-24T07:07:37Z</time>
      </trkpt>
      <trkpt lat="45.31112" lon="0.92436">
        <ele>210.3</ele>
        <time>2023-09-24T07:07:38Z</time>
      </trkpt>
      <trkpt lat="45.31121" lon="0.92441">
        <ele>211.3</ele>
        <time>2023-09-24T07:07:43Z</time>
      </trkpt>
      <trkpt lat="45.31131" lon="0.9245">
        <ele>212.7</ele>
        <time>2023-09-24T07:07:48Z</time>
      </trkpt>
      <trkpt lat="45.31139" lon="0.92457">
        <ele>213.8</ele>
        <time>2023-09-24T07:07:52Z</time>
      </trkpt>
      <trkpt lat="45.3114" lon="0.92459">
        <ele>214.5</ele>
        <time>2023-09-24T07:07:53Z</time>
      </trkpt>
      <trkpt lat="45.31141" lon="0.92462">
        <ele>214.5</ele>
        <time>2023-09-24T07:07:54Z</time>
      </trkpt>
      <trkpt lat="45.31139" lon="0.92469">
        <ele>214.4</ele>
        <time>2023-09-24T07:07:56Z</time>
      </trkpt>
      <trkpt lat="45.31134" lon="0.92491">
        <ele>214.1</ele>
        <time>2023-09-24T07:08:02Z</time>
      </trkpt>
      <trkpt lat="45.31129" lon="0.92515">
        <ele>213.7</ele>
        <time>2023-09-24T07:08:08Z</time>
      </trkpt>
      <trkpt lat="45.31129" lon="0.9252">
        <ele>213.6</ele>
        <time>2023-09-24T07:08:09Z</time>
      </trkpt>
      <trkpt lat="45.31134" lon="0.92535">
        <ele>213.4</ele>
        <time>2023-09-24T07:08:13Z</time>
      </trkpt>
      <trkpt lat="45.31139" lon="0.92551">
        <ele>213.2</ele>
        <time>2023-09-24T07:08:18Z</time>
      </trkpt>
      <trkpt lat="45.31143" lon="0.92569">
        <ele>213.1</ele>
        <time>2023-09-24T07:08:23Z</time>
      </trkpt>
      <trkpt lat="45.31143" lon="0.92572">
        <ele>213.1</ele>
        <time>2023-09-24T07:08:24Z</time>
      </trkpt>
      <trkpt lat="45.31139" lon="0.92579">
        <ele>213.1</ele>
        <time>2023-09-24T07:08:26Z</time>
      </trkpt>
      <trkpt lat="45.31136" lon="0.92582">
        <ele>213.1</ele>
        <time>2023-09-24T07:08:27Z</time>
      </trkpt>
      <trkpt lat="45.31128" lon="0.92586">
        <ele>212.3</ele>
        <time>2023-09-24T07:08:29Z</time>
      </trkpt>
      <trkpt lat="45.31124" lon="0.92588">
        <ele>211.9</ele>
        <time>2023-09-24T07:08:30Z</time>
      </trkpt>
      <trkpt lat="45.31116" lon="0.92596">
        <ele>211.1</ele>
        <time>2023-09-24T07:08:32Z</time>
      </trkpt>
      <trkpt lat="45.31113" lon="0.92604">
        <ele>210.6</ele>
        <time>2023-09-24T07:08:33Z</time>
      </trkpt>
      <trkpt lat="45.3111" lon="0.92611">
        <ele>210.1</ele>
        <time>2023-09-24T07:08:34Z</time>
      </trkpt>
      <trkpt lat="45.311" lon="0.92621">
        <ele>208.9</ele>
        <time>2023-09-24T07:08:36Z</time>
      </trkpt>
      <trkpt lat="45.31089" lon="0.9263">
        <ele>207.7</ele>
        <time>2023-09-24T07:08:38Z</time>
      </trkpt>
      <trkpt lat="45.31085" lon="0.92636">
        <ele>207.2</ele>
        <time>2023-09-24T07:08:39Z</time>
      </trkpt>
      <trkpt lat="45.31083" lon="0.92642">
        <ele>206.7</ele>
        <time>2023-09-24T07:08:40Z</time>
      </trkpt>
      <trkpt lat="45.31082" lon="0.92657">
        <ele>205.9</ele>
        <time>2023-09-24T07:08:42Z</time>
      </trkpt>
      <trkpt lat="45.31081" lon="0.92673">
        <ele>205.4</ele>
        <time>2023-09-24T07:08:44Z</time>
      </trkpt>
      <trkpt lat="45.31082" lon="0.92687">
        <ele>205</ele>
        <time>2023-09-24T07:08:46Z</time>
      </trkpt>
      <trkpt lat="45.31079" lon="0.92718">
        <ele>204.4</ele>
        <time>2023-09-24T07:08:50Z</time>
      </trkpt>
      <trkpt lat="45.31074" lon="0.92732">
        <ele>204.2</ele>
        <time>2023-09-24T07:08:52Z</time>
      </trkpt>
      <trkpt lat="45.31073" lon="0.92739">
        <ele>204.2</ele>
        <time>2023-09-24T07:08:53Z</time>
      </trkpt>
      <trkpt lat="45.31065" lon="0.92768">
        <ele>204.1</ele>
        <time>2023-09-24T07:08:57Z</time>
      </trkpt>
      <trkpt lat="45.31063" lon="0.92774">
        <ele>204.1</ele>
        <time>2023-09-24T07:08:58Z</time>
      </trkpt>
      <trkpt lat="45.31062" lon="0.9278">
        <ele>204.1</ele>
        <time>2023-09-24T07:08:59Z</time>
      </trkpt>
      <trkpt lat="45.31062" lon="0.92793">
        <ele>204</ele>
        <time>2023-09-24T07:09:01Z</time>
      </trkpt>
      <trkpt lat="45.31067" lon="0.92816">
        <ele>203.8</ele>
        <time>2023-09-24T07:09:04Z</time>
      </trkpt>
      <trkpt lat="45.31069" lon="0.92823">
        <ele>203.7</ele>
        <time>2023-09-24T07:09:05Z</time>
      </trkpt>
      <trkpt lat="45.31071" lon="0.92831">
        <ele>203.7</ele>
        <time>2023-09-24T07:09:06Z</time>
      </trkpt>
      <trkpt lat="45.31068" lon="0.92844">
        <ele>203.6</ele>
        <time>2023-09-24T07:09:08Z</time>
      </trkpt>
      <trkpt lat="45.31067" lon="0.92849">
        <ele>203.6</ele>
        <time>2023-09-24T07:09:09Z</time>
      </trkpt>
      <trkpt lat="45.31068" lon="0.92862">
        <ele>203.5</ele>
        <time>2023-09-24T07:09:11Z</time>
      </trkpt>
      <trkpt lat="45.31072" lon="0.92888">
        <ele>203.1</ele>
        <time>2023-09-24T07:09:15Z</time>
      </trkpt>
      <trkpt lat="45.31064" lon="0.92893">
        <ele>202.9</ele>
        <time>2023-09-24T07:09:18Z</time>
      </trkpt>
      <trkpt lat="45.31057" lon="0.92892">
        <ele>202.5</ele>
        <time>2023-09-24T07:09:20Z</time>
      </trkpt>
      <trkpt lat="45.31052" lon="0.92891">
        <ele>202.2</ele>
        <time>2023-09-24T07:09:21Z</time>
      </trkpt>
      <trkpt lat="45.31038" lon="0.9289">
        <ele>201.2</ele>
        <time>2023-09-24T07:09:24Z</time>
      </trkpt>
      <trkpt lat="45.31035" lon="0.9289">
        <ele>200.9</ele>
        <time>2023-09-24T07:09:25Z</time>
      </trkpt>
      <trkpt lat="45.31028" lon="0.9289">
        <ele>200.2</ele>
        <time>2023-09-24T07:09:27Z</time>
      </trkpt>
      <trkpt lat="45.31023" lon="0.92888">
        <ele>199.7</ele>
        <time>2023-09-24T07:09:28Z</time>
      </trkpt>
      <trkpt lat="45.31021" lon="0.92889">
        <ele>199.4</ele>
        <time>2023-09-24T07:09:30Z</time>
      </trkpt>
      <trkpt lat="45.3102" lon="0.92887">
        <ele>199.2</ele>
        <time>2023-09-24T07:09:31Z</time>
      </trkpt>
      <trkpt lat="45.31021" lon="0.92881">
        <ele>198.7</ele>
        <time>2023-09-24T07:09:34Z</time>
      </trkpt>
      <trkpt lat="45.31025" lon="0.92863">
        <ele>199</ele>
        <time>2023-09-24T07:09:39Z</time>
      </trkpt>
      <trkpt lat="45.31031" lon="0.92843">
        <ele>199.5</ele>
        <time>2023-09-24T07:09:44Z</time>
      </trkpt>
      <trkpt lat="45.31033" lon="0.92835">
        <ele>200</ele>
        <time>2023-09-24T07:09:46Z</time>
      </trkpt>
      <trkpt lat="45.31034" lon="0.92811">
        <ele>201.3</ele>
        <time>2023-09-24T07:09:51Z</time>
      </trkpt>
      <trkpt lat="45.31037" lon="0.92794">
        <ele>202.1</ele>
        <time>2023-09-24T07:09:55Z</time>
      </trkpt>
      <trkpt lat="45.31045" lon="0.92773">
        <ele>202.6</ele>
        <time>2023-09-24T07:10:00Z</time>
      </trkpt>
      <trkpt lat="45.31052" lon="0.92743">
        <ele>202.9</ele>
        <time>2023-09-24T07:10:06Z</time>
      </trkpt>
      <trkpt lat="45.31054" lon="0.92737">
        <ele>203</ele>
        <time>2023-09-24T07:10:07Z</time>
      </trkpt>
      <trkpt lat="45.31061" lon="0.92722">
        <ele>203</ele>
        <time>2023-09-24T07:10:10Z</time>
      </trkpt>
      <trkpt lat="45.31062" lon="0.92715">
        <ele>203.1</ele>
        <time>2023-09-24T07:10:11Z</time>
      </trkpt>
      <trkpt lat="45.31063" lon="0.92709">
        <ele>203.2</ele>
        <time>2023-09-24T07:10:12Z</time>
      </trkpt>
      <trkpt lat="45.31063" lon="0.92697">
        <ele>203.6</ele>
        <time>2023-09-24T07:10:14Z</time>
      </trkpt>
      <trkpt lat="45.31062" lon="0.92691">
        <ele>203.7</ele>
        <time>2023-09-24T07:10:15Z</time>
      </trkpt>
      <trkpt lat="45.31062" lon="0.92685">
        <ele>203.9</ele>
        <time>2023-09-24T07:10:16Z</time>
      </trkpt>
      <trkpt lat="45.31063" lon="0.92671">
        <ele>204</ele>
        <time>2023-09-24T07:10:18Z</time>
      </trkpt>
      <trkpt lat="45.31063" lon="0.92663">
        <ele>204.1</ele>
        <time>2023-09-24T07:10:19Z</time>
      </trkpt>
      <trkpt lat="45.31063" lon="0.92656">
        <ele>204.1</ele>
        <time>2023-09-24T07:10:20Z</time>
      </trkpt>
      <trkpt lat="45.31062" lon="0.92642">
        <ele>204.2</ele>
        <time>2023-09-24T07:10:22Z</time>
      </trkpt>
      <trkpt lat="45.3106" lon="0.92636">
        <ele>204.2</ele>
        <time>2023-09-24T07:10:23Z</time>
      </trkpt>
      <trkpt lat="45.31056" lon="0.92621">
        <ele>204.3</ele>
        <time>2023-09-24T07:10:25Z</time>
      </trkpt>
      <trkpt lat="45.31053" lon="0.92607">
        <ele>204.3</ele>
        <time>2023-09-24T07:10:27Z</time>
      </trkpt>
      <trkpt lat="45.3105" lon="0.92593">
        <ele>204.5</ele>
        <time>2023-09-24T07:10:28Z</time>
      </trkpt>
      <trkpt lat="45.3105" lon="0.92585">
        <ele>204.6</ele>
        <time>2023-09-24T07:10:30Z</time>
      </trkpt>
      <trkpt lat="45.3105" lon="0.92579">
        <ele>204.8</ele>
        <time>2023-09-24T07:10:31Z</time>
      </trkpt>
      <trkpt lat="45.31053" lon="0.92563">
        <ele>205.1</ele>
        <time>2023-09-24T07:10:35Z</time>
      </trkpt>
      <trkpt lat="45.31055" lon="0.92542">
        <ele>205.8</ele>
        <time>2023-09-24T07:10:39Z</time>
      </trkpt>
      <trkpt lat="45.31054" lon="0.92529">
        <ele>206.1</ele>
        <time>2023-09-24T07:10:41Z</time>
      </trkpt>
      <trkpt lat="45.31056" lon="0.92517">
        <ele>206.3</ele>
        <time>2023-09-24T07:10:43Z</time>
      </trkpt>
      <trkpt lat="45.31057" lon="0.92512">
        <ele>206.4</ele>
        <time>2023-09-24T07:10:44Z</time>
      </trkpt>
      <trkpt lat="45.31057" lon="0.92492">
        <ele>206.3</ele>
        <time>2023-09-24T07:10:47Z</time>
      </trkpt>
      <trkpt lat="45.31057" lon="0.92486">
        <ele>206.2</ele>
        <time>2023-09-24T07:10:48Z</time>
      </trkpt>
      <trkpt lat="45.31055" lon="0.92472">
        <ele>205.9</ele>
        <time>2023-09-24T07:10:50Z</time>
      </trkpt>
      <trkpt lat="45.31053" lon="0.92466">
        <ele>205.7</ele>
        <time>2023-09-24T07:10:51Z</time>
      </trkpt>
      <trkpt lat="45.31051" lon="0.92459">
        <ele>205.5</ele>
        <time>2023-09-24T07:10:52Z</time>
      </trkpt>
      <trkpt lat="45.3105" lon="0.92446">
        <ele>205.3</ele>
        <time>2023-09-24T07:10:54Z</time>
      </trkpt>
      <trkpt lat="45.3105" lon="0.92433">
        <ele>205.2</ele>
        <time>2023-09-24T07:10:56Z</time>
      </trkpt>
      <trkpt lat="45.31049" lon="0.92428">
        <ele>205</ele>
        <time>2023-09-24T07:10:57Z</time>
      </trkpt>
      <trkpt lat="45.31046" lon="0.92422">
        <ele>204.8</ele>
        <time>2023-09-24T07:10:58Z</time>
      </trkpt>
      <trkpt lat="45.3104" lon="0.92413">
        <ele>204.2</ele>
        <time>2023-09-24T07:11:00Z</time>
      </trkpt>
      <trkpt lat="45.31036" lon="0.92401">
        <ele>203.7</ele>
        <time>2023-09-24T07:11:02Z</time>
      </trkpt>
      <trkpt lat="45.31035" lon="0.92387">
        <ele>203.1</ele>
        <time>2023-09-24T07:11:04Z</time>
      </trkpt>
      <trkpt lat="45.31036" lon="0.9238">
        <ele>202.6</ele>
        <time>2023-09-24T07:11:05Z</time>
      </trkpt>
      <trkpt lat="45.31042" lon="0.92366">
        <ele>201.2</ele>
        <time>2023-09-24T07:11:07Z</time>
      </trkpt>
      <trkpt lat="45.31046" lon="0.92358">
        <ele>200.7</ele>
        <time>2023-09-24T07:11:08Z</time>
      </trkpt>
      <trkpt lat="45.31051" lon="0.92344">
        <ele>200.4</ele>
        <time>2023-09-24T07:11:10Z</time>
      </trkpt>
      <trkpt lat="45.31065" lon="0.92323">
        <ele>201.3</ele>
        <time>2023-09-24T07:11:14Z</time>
      </trkpt>
      <trkpt lat="45.31078" lon="0.92313">
        <ele>203.1</ele>
        <time>2023-09-24T07:11:18Z</time>
      </trkpt>
      <trkpt lat="45.31089" lon="0.92301">
        <ele>204.9</ele>
        <time>2023-09-24T07:11:23Z</time>
      </trkpt>
      <trkpt lat="45.31095" lon="0.92282">
        <ele>206.2</ele>
        <time>2023-09-24T07:11:27Z</time>
      </trkpt>
      <trkpt lat="45.31103" lon="0.92265">
        <ele>206.9</ele>
        <time>2023-09-24T07:11:31Z</time>
      </trkpt>
      <trkpt lat="45.31105" lon="0.92241">
        <ele>207.2</ele>
        <time>2023-09-24T07:11:36Z</time>
      </trkpt>
      <trkpt lat="45.31103" lon="0.92229">
        <ele>206.8</ele>
        <time>2023-09-24T07:11:38Z</time>
      </trkpt>
      <trkpt lat="45.311" lon="0.92223">
        <ele>206.4</ele>
        <time>2023-09-24T07:11:39Z</time>
      </trkpt>
      <trkpt lat="45.31096" lon="0.92218">
        <ele>205.8</ele>
        <time>2023-09-24T07:11:40Z</time>
      </trkpt>
      <trkpt lat="45.31082" lon="0.92204">
        <ele>204.3</ele>
        <time>2023-09-24T07:11:43Z</time>
      </trkpt>
      <trkpt lat="45.31079" lon="0.92195">
        <ele>204.4</ele>
        <time>2023-09-24T07:11:45Z</time>
      </trkpt>
      <trkpt lat="45.31079" lon="0.9219">
        <ele>204.5</ele>
        <time>2023-09-24T07:11:46Z</time>
      </trkpt>
      <trkpt lat="45.31081" lon="0.92158">
        <ele>205.9</ele>
        <time>2023-09-24T07:11:52Z</time>
      </trkpt>
      <trkpt lat="45.31077" lon="0.92149">
        <ele>206.5</ele>
        <time>2023-09-24T07:11:54Z</time>
      </trkpt>
      <trkpt lat="45.31074" lon="0.92146">
        <ele>206.9</ele>
        <time>2023-09-24T07:11:55Z</time>
      </trkpt>
      <trkpt lat="45.3107" lon="0.92145">
        <ele>206.5</ele>
        <time>2023-09-24T07:11:56Z</time>
      </trkpt>
      <trkpt lat="45.31055" lon="0.92145">
        <ele>205</ele>
        <time>2023-09-24T07:11:59Z</time>
      </trkpt>
      <trkpt lat="45.31036" lon="0.92145">
        <ele>203.7</ele>
        <time>2023-09-24T07:12:02Z</time>
      </trkpt>
      <trkpt lat="45.3103" lon="0.92143">
        <ele>203.4</ele>
        <time>2023-09-24T07:12:03Z</time>
      </trkpt>
      <trkpt lat="45.31024" lon="0.92141">
        <ele>203.1</ele>
        <time>2023-09-24T07:12:04Z</time>
      </trkpt>
      <trkpt lat="45.31013" lon="0.92142">
        <ele>202.5</ele>
        <time>2023-09-24T07:12:06Z</time>
      </trkpt>
      <trkpt lat="45.31002" lon="0.92149">
        <ele>201.7</ele>
        <time>2023-09-24T07:12:08Z</time>
      </trkpt>
      <trkpt lat="45.30997" lon="0.9216">
        <ele>200.6</ele>
        <time>2023-09-24T07:12:09Z</time>
      </trkpt>
      <trkpt lat="45.30995" lon="0.92165">
        <ele>200.1</ele>
        <time>2023-09-24T07:12:11Z</time>
      </trkpt>
      <trkpt lat="45.30983" lon="0.92184">
        <ele>198.6</ele>
        <time>2023-09-24T07:12:13Z</time>
      </trkpt>
      <trkpt lat="45.30977" lon="0.92192">
        <ele>198.2</ele>
        <time>2023-09-24T07:12:15Z</time>
      </trkpt>
      <trkpt lat="45.30976" lon="0.92197">
        <ele>198</ele>
        <time>2023-09-24T07:12:16Z</time>
      </trkpt>
      <trkpt lat="45.30979" lon="0.92214">
        <ele>197.6</ele>
        <time>2023-09-24T07:12:19Z</time>
      </trkpt>
      <trkpt lat="45.30978" lon="0.92226">
        <ele>197.2</ele>
        <time>2023-09-24T07:12:21Z</time>
      </trkpt>
      <trkpt lat="45.30975" lon="0.92229">
        <ele>197.1</ele>
        <time>2023-09-24T07:12:22Z</time>
      </trkpt>
      <trkpt lat="45.30963" lon="0.92239">
        <ele>196.1</ele>
        <time>2023-09-24T07:12:25Z</time>
      </trkpt>
      <trkpt lat="45.30958" lon="0.92241">
        <ele>195.6</ele>
        <time>2023-09-24T07:12:26Z</time>
      </trkpt>
      <trkpt lat="45.30949" lon="0.92239">
        <ele>194.7</ele>
        <time>2023-09-24T07:12:28Z</time>
      </trkpt>
      <trkpt lat="45.30944" lon="0.92237">
        <ele>194.3</ele>
        <time>2023-09-24T07:12:29Z</time>
      </trkpt>
      <trkpt lat="45.30939" lon="0.92238">
        <ele>194</ele>
        <time>2023-09-24T07:12:30Z</time>
      </trkpt>
      <trkpt lat="45.30927" lon="0.9224">
        <ele>193.5</ele>
        <time>2023-09-24T07:12:32Z</time>
      </trkpt>
      <trkpt lat="45.30922" lon="0.92241">
        <ele>193.3</ele>
        <time>2023-09-24T07:12:33Z</time>
      </trkpt>
      <trkpt lat="45.30911" lon="0.92248">
        <ele>192.8</ele>
        <time>2023-09-24T07:12:35Z</time>
      </trkpt>
      <trkpt lat="45.30898" lon="0.92256">
        <ele>192.1</ele>
        <time>2023-09-24T07:12:37Z</time>
      </trkpt>
      <trkpt lat="45.30891" lon="0.92258">
        <ele>191.9</ele>
        <time>2023-09-24T07:12:38Z</time>
      </trkpt>
      <trkpt lat="45.30878" lon="0.92264">
        <ele>191.4</ele>
        <time>2023-09-24T07:12:40Z</time>
      </trkpt>
      <trkpt lat="45.30859" lon="0.92273">
        <ele>191</ele>
        <time>2023-09-24T07:12:43Z</time>
      </trkpt>
      <trkpt lat="45.30845" lon="0.92275">
        <ele>190.7</ele>
        <time>2023-09-24T07:12:45Z</time>
      </trkpt>
      <trkpt lat="45.30838" lon="0.92278">
        <ele>190.3</ele>
        <time>2023-09-24T07:12:46Z</time>
      </trkpt>
      <trkpt lat="45.30831" lon="0.92281">
        <ele>190</ele>
        <time>2023-09-24T07:12:47Z</time>
      </trkpt>
      <trkpt lat="45.30825" lon="0.92285">
        <ele>189.7</ele>
        <time>2023-09-24T07:12:48Z</time>
      </trkpt>
      <trkpt lat="45.30818" lon="0.92287">
        <ele>189.4</ele>
        <time>2023-09-24T07:12:49Z</time>
      </trkpt>
      <trkpt lat="45.30811" lon="0.92288">
        <ele>189.1</ele>
        <time>2023-09-24T07:12:50Z</time>
      </trkpt>
      <trkpt lat="45.30799" lon="0.9229">
        <ele>188.6</ele>
        <time>2023-09-24T07:12:52Z</time>
      </trkpt>
      <trkpt lat="45.30795" lon="0.92293">
        <ele>188.4</ele>
        <time>2023-09-24T07:12:53Z</time>
      </trkpt>
      <trkpt lat="45.30793" lon="0.92297">
        <ele>188.4</ele>
        <time>2023-09-24T07:12:54Z</time>
      </trkpt>
      <trkpt lat="45.30794" lon="0.92303">
        <ele>188.4</ele>
        <time>2023-09-24T07:12:56Z</time>
      </trkpt>
      <trkpt lat="45.30794" lon="0.92318">
        <ele>188.4</ele>
        <time>2023-09-24T07:13:00Z</time>
      </trkpt>
      <trkpt lat="45.30791" lon="0.92336">
        <ele>188.5</ele>
        <time>2023-09-24T07:13:04Z</time>
      </trkpt>
      <trkpt lat="45.30787" lon="0.92364">
        <ele>189</ele>
        <time>2023-09-24T07:13:10Z</time>
      </trkpt>
      <trkpt lat="45.30785" lon="0.92387">
        <ele>189.4</ele>
        <time>2023-09-24T07:13:15Z</time>
      </trkpt>
      <trkpt lat="45.30783" lon="0.92406">
        <ele>189.9</ele>
        <time>2023-09-24T07:13:19Z</time>
      </trkpt>
      <trkpt lat="45.30778" lon="0.92434">
        <ele>190.1</ele>
        <time>2023-09-24T07:13:24Z</time>
      </trkpt>
      <trkpt lat="45.30777" lon="0.92452">
        <ele>190.5</ele>
        <time>2023-09-24T07:13:28Z</time>
      </trkpt>
      <trkpt lat="45.30772" lon="0.92473">
        <ele>190.3</ele>
        <time>2023-09-24T07:13:32Z</time>
      </trkpt>
      <trkpt lat="45.30771" lon="0.92479">
        <ele>190.4</ele>
        <time>2023-09-24T07:13:33Z</time>
      </trkpt>
      <trkpt lat="45.30766" lon="0.92491">
        <ele>189.8</ele>
        <time>2023-09-24T07:13:35Z</time>
      </trkpt>
      <trkpt lat="45.30763" lon="0.92506">
        <ele>189.3</ele>
        <time>2023-09-24T07:13:37Z</time>
      </trkpt>
      <trkpt lat="45.30757" lon="0.92538">
        <ele>188.4</ele>
        <time>2023-09-24T07:13:41Z</time>
      </trkpt>
      <trkpt lat="45.30756" lon="0.92547">
        <ele>188.2</ele>
        <time>2023-09-24T07:13:42Z</time>
      </trkpt>
      <trkpt lat="45.30756" lon="0.92563">
        <ele>187.5</ele>
        <time>2023-09-24T07:13:44Z</time>
      </trkpt>
      <trkpt lat="45.30758" lon="0.92576">
        <ele>186.9</ele>
        <time>2023-09-24T07:13:46Z</time>
      </trkpt>
      <trkpt lat="45.30759" lon="0.92589">
        <ele>186.7</ele>
        <time>2023-09-24T07:13:48Z</time>
      </trkpt>
      <trkpt lat="45.30756" lon="0.926">
        <ele>186</ele>
        <time>2023-09-24T07:13:50Z</time>
      </trkpt>
      <trkpt lat="45.30746" lon="0.92619">
        <ele>184.2</ele>
        <time>2023-09-24T07:13:54Z</time>
      </trkpt>
      <trkpt lat="45.30738" lon="0.92629">
        <ele>183.4</ele>
        <time>2023-09-24T07:13:57Z</time>
      </trkpt>
      <trkpt lat="45.30737" lon="0.92636">
        <ele>183.1</ele>
        <time>2023-09-24T07:13:58Z</time>
      </trkpt>
      <trkpt lat="45.30734" lon="0.92653">
        <ele>182.7</ele>
        <time>2023-09-24T07:14:01Z</time>
      </trkpt>
      <trkpt lat="45.30732" lon="0.92659">
        <ele>182.6</ele>
        <time>2023-09-24T07:14:02Z</time>
      </trkpt>
      <trkpt lat="45.30729" lon="0.92665">
        <ele>182.2</ele>
        <time>2023-09-24T07:14:03Z</time>
      </trkpt>
      <trkpt lat="45.30723" lon="0.92679">
        <ele>181.3</ele>
        <time>2023-09-24T07:14:05Z</time>
      </trkpt>
      <trkpt lat="45.30722" lon="0.92687">
        <ele>180.9</ele>
        <time>2023-09-24T07:14:06Z</time>
      </trkpt>
      <trkpt lat="45.30719" lon="0.92703">
        <ele>180.3</ele>
        <time>2023-09-24T07:14:08Z</time>
      </trkpt>
      <trkpt lat="45.30709" lon="0.92735">
        <ele>179.7</ele>
        <time>2023-09-24T07:14:12Z</time>
      </trkpt>
      <trkpt lat="45.30709" lon="0.92741">
        <ele>179.8</ele>
        <time>2023-09-24T07:14:13Z</time>
      </trkpt>
      <trkpt lat="45.30708" lon="0.92746">
        <ele>179.8</ele>
        <time>2023-09-24T07:14:14Z</time>
      </trkpt>
      <trkpt lat="45.30709" lon="0.92756">
        <ele>180</ele>
        <time>2023-09-24T07:14:16Z</time>
      </trkpt>
      <trkpt lat="45.30709" lon="0.92766">
        <ele>180.2</ele>
        <time>2023-09-24T07:14:18Z</time>
      </trkpt>
      <trkpt lat="45.30714" lon="0.92771">
        <ele>180.4</ele>
        <time>2023-09-24T07:14:20Z</time>
      </trkpt>
      <trkpt lat="45.30721" lon="0.92786">
        <ele>180.5</ele>
        <time>2023-09-24T07:14:24Z</time>
      </trkpt>
      <trkpt lat="45.30723" lon="0.92789">
        <ele>180.5</ele>
        <time>2023-09-24T07:14:25Z</time>
      </trkpt>
      <trkpt lat="45.30729" lon="0.9281">
        <ele>180.9</ele>
        <time>2023-09-24T07:14:30Z</time>
      </trkpt>
      <trkpt lat="45.30739" lon="0.92825">
        <ele>181.2</ele>
        <time>2023-09-24T07:14:34Z</time>
      </trkpt>
      <trkpt lat="45.30752" lon="0.92841">
        <ele>180.8</ele>
        <time>2023-09-24T07:14:38Z</time>
      </trkpt>
      <trkpt lat="45.30757" lon="0.92846">
        <ele>180.7</ele>
        <time>2023-09-24T07:14:39Z</time>
      </trkpt>
      <trkpt lat="45.30766" lon="0.92856">
        <ele>180.6</ele>
        <time>2023-09-24T07:14:41Z</time>
      </trkpt>
      <trkpt lat="45.30773" lon="0.9286">
        <ele>180.7</ele>
        <time>2023-09-24T07:14:42Z</time>
      </trkpt>
      <trkpt lat="45.308" lon="0.92881">
        <ele>180.5</ele>
        <time>2023-09-24T07:14:47Z</time>
      </trkpt>
      <trkpt lat="45.30809" lon="0.92887">
        <ele>180.6</ele>
        <time>2023-09-24T07:14:49Z</time>
      </trkpt>
      <trkpt lat="45.30813" lon="0.92892">
        <ele>180.7</ele>
        <time>2023-09-24T07:14:50Z</time>
      </trkpt>
      <trkpt lat="45.30828" lon="0.92915">
        <ele>181.5</ele>
        <time>2023-09-24T07:14:55Z</time>
      </trkpt>
      <trkpt lat="45.30836" lon="0.92934">
        <ele>182.4</ele>
        <time>2023-09-24T07:14:59Z</time>
      </trkpt>
      <trkpt lat="45.30847" lon="0.92949">
        <ele>183.3</ele>
        <time>2023-09-24T07:15:03Z</time>
      </trkpt>
      <trkpt lat="45.30861" lon="0.92968">
        <ele>184.5</ele>
        <time>2023-09-24T07:15:08Z</time>
      </trkpt>
      <trkpt lat="45.30864" lon="0.92971">
        <ele>184.7</ele>
        <time>2023-09-24T07:15:09Z</time>
      </trkpt>
      <trkpt lat="45.30866" lon="0.92974">
        <ele>184.9</ele>
        <time>2023-09-24T07:15:10Z</time>
      </trkpt>
      <trkpt lat="45.30872" lon="0.92979">
        <ele>185.6</ele>
        <time>2023-09-24T07:15:12Z</time>
      </trkpt>
      <trkpt lat="45.30884" lon="0.92989">
        <ele>186.8</ele>
        <time>2023-09-24T07:15:16Z</time>
      </trkpt>
      <trkpt lat="45.30893" lon="0.93001">
        <ele>187.9</ele>
        <time>2023-09-24T07:15:20Z</time>
      </trkpt>
      <trkpt lat="45.30902" lon="0.93013">
        <ele>188.8</ele>
        <time>2023-09-24T07:15:24Z</time>
      </trkpt>
      <trkpt lat="45.30906" lon="0.93019">
        <ele>189.3</ele>
        <time>2023-09-24T07:15:26Z</time>
      </trkpt>
      <trkpt lat="45.30911" lon="0.93023">
        <ele>189.7</ele>
        <time>2023-09-24T07:15:28Z</time>
      </trkpt>
      <trkpt lat="45.30915" lon="0.93029">
        <ele>190.1</ele>
        <time>2023-09-24T07:15:30Z</time>
      </trkpt>
      <trkpt lat="45.3092" lon="0.93036">
        <ele>190.7</ele>
        <time>2023-09-24T07:15:33Z</time>
      </trkpt>
      <trkpt lat="45.30922" lon="0.93038">
        <ele>190.8</ele>
        <time>2023-09-24T07:15:34Z</time>
      </trkpt>
      <trkpt lat="45.30927" lon="0.93047">
        <ele>191.4</ele>
        <time>2023-09-24T07:15:37Z</time>
      </trkpt>
      <trkpt lat="45.3093" lon="0.93052">
        <ele>191.8</ele>
        <time>2023-09-24T07:15:39Z</time>
      </trkpt>
      <trkpt lat="45.30939" lon="0.93064">
        <ele>192.6</ele>
        <time>2023-09-24T07:15:44Z</time>
      </trkpt>
      <trkpt lat="45.30947" lon="0.93074">
        <ele>193.2</ele>
        <time>2023-09-24T07:15:48Z</time>
      </trkpt>
      <trkpt lat="45.30949" lon="0.93076">
        <ele>193.3</ele>
        <time>2023-09-24T07:15:49Z</time>
      </trkpt>
      <trkpt lat="45.30952" lon="0.93079">
        <ele>193.4</ele>
        <time>2023-09-24T07:15:50Z</time>
      </trkpt>
      <trkpt lat="45.30958" lon="0.9309">
        <ele>193.8</ele>
        <time>2023-09-24T07:15:54Z</time>
      </trkpt>
      <trkpt lat="45.30959" lon="0.93094">
        <ele>193.9</ele>
        <time>2023-09-24T07:15:55Z</time>
      </trkpt>
      <trkpt lat="45.3096" lon="0.93097">
        <ele>194</ele>
        <time>2023-09-24T07:15:56Z</time>
      </trkpt>
      <trkpt lat="45.30963" lon="0.93099">
        <ele>194.2</ele>
        <time>2023-09-24T07:15:57Z</time>
      </trkpt>
      <trkpt lat="45.30966" lon="0.93101">
        <ele>194.3</ele>
        <time>2023-09-24T07:15:58Z</time>
      </trkpt>
      <trkpt lat="45.30968" lon="0.93103">
        <ele>194.4</ele>
        <time>2023-09-24T07:15:59Z</time>
      </trkpt>
      <trkpt lat="45.30971" lon="0.93104">
        <ele>194.5</ele>
        <time>2023-09-24T07:16:00Z</time>
      </trkpt>
      <trkpt lat="45.30973" lon="0.93105">
        <ele>194.6</ele>
        <time>2023-09-24T07:16:01Z</time>
      </trkpt>
      <trkpt lat="45.30976" lon="0.93112">
        <ele>193.1</ele>
      </trkpt>
      <trkpt lat="45.30977" lon="0.93124">
        <ele>192.7</ele>
      </trkpt>
      <trkpt lat="45.30978" lon="0.93134">
        <ele>192.4</ele>
      </trkpt>
      <trkpt lat="45.30975" lon="0.93144">
        <ele>192.1</ele>
      </trkpt>
      <trkpt lat="45.30969" lon="0.93144">
        <ele>191.9</ele>
      </trkpt>
      <trkpt lat="45.30961" lon="0.93144">
        <ele>191.6</ele>
      </trkpt>
      <trkpt lat="45.30954" lon="0.93141">
        <ele>191.3</ele>
      </trkpt>
      <trkpt lat="45.30948" lon="0.93135">
        <ele>191</ele>
      </trkpt>
      <trkpt lat="45.30943" lon="0.93128">
        <ele>190.5</ele>
      </trkpt>
      <trkpt lat="45.30938" lon="0.93125">
        <ele>189.9</ele>
      </trkpt>
      <trkpt lat="45.30931" lon="0.93122">
        <ele>189.1</ele>
      </trkpt>
      <trkpt lat="45.30924" lon="0.93115">
        <ele>188</ele>
      </trkpt>
      <trkpt lat="45.30917" lon="0.93113">
        <ele>187.1</ele>
      </trkpt>
      <trkpt lat="45.30909" lon="0.93111">
        <ele>186.7</ele>
      </trkpt>
      <trkpt lat="45.30899" lon="0.93106">
        <ele>186.3</ele>
      </trkpt>
      <trkpt lat="45.30891" lon="0.93101">
        <ele>185.8</ele>
      </trkpt>
      <trkpt lat="45.30885" lon="0.93096">
        <ele>185.6</ele>
      </trkpt>
      <trkpt lat="45.30877" lon="0.93087">
        <ele>185.5</ele>
      </trkpt>
      <trkpt lat="45.30872" lon="0.93076">
        <ele>185.2</ele>
      </trkpt>
      <trkpt lat="45.3086" lon="0.93066">
        <ele>184.7</ele>
      </trkpt>
      <trkpt lat="45.30854" lon="0.93062">
        <ele>184.4</ele>
      </trkpt>
      <trkpt lat="45.30847" lon="0.93052">
        <ele>183.7</ele>
      </trkpt>
      <trkpt lat="45.30839" lon="0.93045">
        <ele>183.2</ele>
      </trkpt>
      <trkpt lat="45.3083" lon="0.93041">
        <ele>182.9</ele>
      </trkpt>
      <trkpt lat="45.30822" lon="0.9304">
        <ele>182.9</ele>
      </trkpt>
      <trkpt lat="45.30821" lon="0.93046">
        <ele>183.3</ele>
      </trkpt>
      <trkpt lat="45.30821" lon="0.93057">
        <ele>184.2</ele>
      </trkpt>
      <trkpt lat="45.30822" lon="0.93063">
        <ele>184.6</ele>
      </trkpt>
      <trkpt lat="45.30825" lon="0.93083">
        <ele>186.3</ele>
      </trkpt>
      <trkpt lat="45.30827" lon="0.93089">
        <ele>186.6</ele>
      </trkpt>
      <trkpt lat="45.30832" lon="0.93092">
        <ele>186.6</ele>
      </trkpt>
      <trkpt lat="45.30837" lon="0.93094">
        <ele>186.7</ele>
      </trkpt>
      <trkpt lat="45.30842" lon="0.93098">
        <ele>186.9</ele>
      </trkpt>
      <trkpt lat="45.30848" lon="0.93105">
        <ele>187.2</ele>
      </trkpt>
      <trkpt lat="45.30848" lon="0.93112">
        <ele>187.5</ele>
      </trkpt>
      <trkpt lat="45.30845" lon="0.93121">
        <ele>188.3</ele>
      </trkpt>
      <trkpt lat="45.30841" lon="0.93127">
        <ele>188.8</ele>
      </trkpt>
      <trkpt lat="45.30835" lon="0.93138">
        <ele>189.9</ele>
      </trkpt>
      <trkpt lat="45.30827" lon="0.93141">
        <ele>190.3</ele>
      </trkpt>
      <trkpt lat="45.30815" lon="0.93143">
        <ele>190.8</ele>
      </trkpt>
      <trkpt lat="45.30807" lon="0.9314">
        <ele>191</ele>
      </trkpt>
      <trkpt lat="45.308" lon="0.93135">
        <ele>191</ele>
      </trkpt>
      <trkpt lat="45.30792" lon="0.93132">
        <ele>191</ele>
      </trkpt>
      <trkpt lat="45.30786" lon="0.93125">
        <ele>190.7</ele>
      </trkpt>
      <trkpt lat="45.30779" lon="0.93119">
        <ele>190.5</ele>
      </trkpt>
      <trkpt lat="45.30772" lon="0.93109">
        <ele>190.1</ele>
      </trkpt>
      <trkpt lat="45.30765" lon="0.93108">
        <ele>190.2</ele>
      </trkpt>
      <trkpt lat="45.3076" lon="0.93115">
        <ele>190.8</ele>
      </trkpt>
      <trkpt lat="45.30752" lon="0.93118">
        <ele>191.2</ele>
      </trkpt>
      <trkpt lat="45.30746" lon="0.93121">
        <ele>191.3</ele>
      </trkpt>
      <trkpt lat="45.30739" lon="0.93121">
        <ele>191.4</ele>
      </trkpt>
      <trkpt lat="45.3073" lon="0.93122">
        <ele>191.4</ele>
      </trkpt>
      <trkpt lat="45.30724" lon="0.93127">
        <ele>191.6</ele>
      </trkpt>
      <trkpt lat="45.30713" lon="0.93134">
        <ele>191.8</ele>
      </trkpt>
      <trkpt lat="45.30706" lon="0.93138">
        <ele>192</ele>
      </trkpt>
      <trkpt lat="45.30699" lon="0.93148">
        <ele>192.4</ele>
      </trkpt>
      <trkpt lat="45.30692" lon="0.93152">
        <ele>192.3</ele>
      </trkpt>
      <trkpt lat="45.30686" lon="0.93155">
        <ele>192.1</ele>
      </trkpt>
      <trkpt lat="45.3068" lon="0.9316">
        <ele>192.1</ele>
      </trkpt>
      <trkpt lat="45.30676" lon="0.93164">
        <ele>192.1</ele>
      </trkpt>
      <trkpt lat="45.30671" lon="0.9317">
        <ele>192.2</ele>
      </trkpt>
      <trkpt lat="45.30666" lon="0.93174">
        <ele>192.2</ele>
      </trkpt>
      <trkpt lat="45.30657" lon="0.93182">
        <ele>192.2</ele>
      </trkpt>
      <trkpt lat="45.30652" lon="0.93184">
        <ele>192.1</ele>
      </trkpt>
      <trkpt lat="45.30645" lon="0.93189">
        <ele>192</ele>
      </trkpt>
      <trkpt lat="45.3064" lon="0.93195">
        <ele>192</ele>
      </trkpt>
      <trkpt lat="45.30632" lon="0.93203">
        <ele>192.1</ele>
      </trkpt>
      <trkpt lat="45.30623" lon="0.93214">
        <ele>192.2</ele>
      </trkpt>
      <trkpt lat="45.3062" lon="0.93223">
        <ele>192.7</ele>
      </trkpt>
      <trkpt lat="45.30617" lon="0.9323">
        <ele>192.9</ele>
      </trkpt>
      <trkpt lat="45.3061" lon="0.93239">
        <ele>193.2</ele>
      </trkpt>
      <trkpt lat="45.30607" lon="0.93245">
        <ele>193.7</ele>
      </trkpt>
      <trkpt lat="45.30602" lon="0.93253">
        <ele>194.1</ele>
      </trkpt>
      <trkpt lat="45.30597" lon="0.93259">
        <ele>194.3</ele>
      </trkpt>
      <trkpt lat="45.3059" lon="0.93262">
        <ele>194.4</ele>
      </trkpt>
      <trkpt lat="45.30584" lon="0.93264">
        <ele>194.5</ele>
      </trkpt>
      <trkpt lat="45.30571" lon="0.93263">
        <ele>194.5</ele>
      </trkpt>
      <trkpt lat="45.30562" lon="0.93266">
        <ele>194.6</ele>
      </trkpt>
      <trkpt lat="45.30553" lon="0.93273">
        <ele>194.7</ele>
      </trkpt>
      <trkpt lat="45.30544" lon="0.93276">
        <ele>194.5</ele>
      </trkpt>
      <trkpt lat="45.30534" lon="0.93282">
        <ele>194.2</ele>
      </trkpt>
      <trkpt lat="45.30524" lon="0.93287">
        <ele>193.7</ele>
      </trkpt>
      <trkpt lat="45.30515" lon="0.93293">
        <ele>193.1</ele>
      </trkpt>
      <trkpt lat="45.30507" lon="0.93298">
        <ele>192.5</ele>
      </trkpt>
      <trkpt lat="45.30504" lon="0.93301">
        <ele>192.3</ele>
      </trkpt>
      <trkpt lat="45.30498" lon="0.93307">
        <ele>191.8</ele>
      </trkpt>
      <trkpt lat="45.30495" lon="0.93312">
        <ele>191.5</ele>
      </trkpt>
      <trkpt lat="45.30489" lon="0.93322">
        <ele>191.1</ele>
      </trkpt>
      <trkpt lat="45.30487" lon="0.93332">
        <ele>191</ele>
      </trkpt>
      <trkpt lat="45.30485" lon="0.93339">
        <ele>190.9</ele>
      </trkpt>
      <trkpt lat="45.3048" lon="0.93343">
        <ele>190.6</ele>
      </trkpt>
      <trkpt lat="45.30471" lon="0.93351">
        <ele>189.8</ele>
      </trkpt>
      <trkpt lat="45.30464" lon="0.93358">
        <ele>188.6</ele>
      </trkpt>
      <trkpt lat="45.30461" lon="0.93367">
        <ele>187.6</ele>
      </trkpt>
      <trkpt lat="45.3046" lon="0.93374">
        <ele>187.2</ele>
      </trkpt>
      <trkpt lat="45.30464" lon="0.9338">
        <ele>187.5</ele>
      </trkpt>
      <trkpt lat="45.30467" lon="0.93387">
        <ele>187.5</ele>
      </trkpt>
      <trkpt lat="45.3047" lon="0.93396">
        <ele>187.5</ele>
      </trkpt>
      <trkpt lat="45.30472" lon="0.93399">
        <ele>187.6</ele>
      </trkpt>
      <trkpt lat="45.30475" lon="0.93409">
        <ele>187.4</ele>
      </trkpt>
      <trkpt lat="45.30471" lon="0.93411">
        <ele>187.1</ele>
      </trkpt>
      <trkpt lat="45.30465" lon="0.9341">
        <ele>188.3</ele>
        <time>2023-09-24T07:19:36Z</time>
      </trkpt>
      <trkpt lat="45.30461" lon="0.93408">
        <ele>187.8</ele>
        <time>2023-09-24T07:19:37Z</time>
      </trkpt>
      <trkpt lat="45.30449" lon="0.934">
        <ele>186.5</ele>
        <time>2023-09-24T07:19:40Z</time>
      </trkpt>
      <trkpt lat="45.30445" lon="0.93398">
        <ele>186</ele>
        <time>2023-09-24T07:19:41Z</time>
      </trkpt>
      <trkpt lat="45.30436" lon="0.93393">
        <ele>184.8</ele>
        <time>2023-09-24T07:19:43Z</time>
      </trkpt>
      <trkpt lat="45.30428" lon="0.93387">
        <ele>183.5</ele>
        <time>2023-09-24T07:19:44Z</time>
      </trkpt>
      <trkpt lat="45.30419" lon="0.93377">
        <ele>181.8</ele>
        <time>2023-09-24T07:19:46Z</time>
      </trkpt>
      <trkpt lat="45.30415" lon="0.93373">
        <ele>181</ele>
        <time>2023-09-24T07:19:47Z</time>
      </trkpt>
      <trkpt lat="45.30406" lon="0.93365">
        <ele>179.4</ele>
        <time>2023-09-24T07:19:49Z</time>
      </trkpt>
      <trkpt lat="45.30396" lon="0.93356">
        <ele>177</ele>
        <time>2023-09-24T07:19:51Z</time>
      </trkpt>
      <trkpt lat="45.30391" lon="0.93352">
        <ele>175.8</ele>
        <time>2023-09-24T07:19:52Z</time>
      </trkpt>
      <trkpt lat="45.30383" lon="0.93345">
        <ele>173.3</ele>
        <time>2023-09-24T07:19:55Z</time>
      </trkpt>
      <trkpt lat="45.30376" lon="0.93336">
        <ele>170.9</ele>
        <time>2023-09-24T07:19:58Z</time>
      </trkpt>
      <trkpt lat="45.30375" lon="0.93332">
        <ele>170.1</ele>
        <time>2023-09-24T07:19:59Z</time>
      </trkpt>
      <trkpt lat="45.30374" lon="0.93328">
        <ele>169.3</ele>
        <time>2023-09-24T07:20:00Z</time>
      </trkpt>
      <trkpt lat="45.3037" lon="0.93325">
        <ele>168.1</ele>
        <time>2023-09-24T07:20:02Z</time>
      </trkpt>
      <trkpt lat="45.30364" lon="0.93326">
        <ele>166.5</ele>
        <time>2023-09-24T07:20:04Z</time>
      </trkpt>
      <trkpt lat="45.30357" lon="0.93324">
        <ele>164.7</ele>
        <time>2023-09-24T07:20:06Z</time>
      </trkpt>
      <trkpt lat="45.30353" lon="0.93324">
        <ele>163.6</ele>
        <time>2023-09-24T07:20:08Z</time>
      </trkpt>
      <trkpt lat="45.30352" lon="0.93322">
        <ele>163.2</ele>
        <time>2023-09-24T07:20:09Z</time>
      </trkpt>
      <trkpt lat="45.30351" lon="0.93319">
        <ele>162.7</ele>
        <time>2023-09-24T07:20:10Z</time>
      </trkpt>
      <trkpt lat="45.3035" lon="0.93309">
        <ele>161.2</ele>
        <time>2023-09-24T07:20:12Z</time>
      </trkpt>
      <trkpt lat="45.30352" lon="0.933">
        <ele>160.2</ele>
        <time>2023-09-24T07:20:14Z</time>
      </trkpt>
      <trkpt lat="45.30351" lon="0.93293">
        <ele>159.5</ele>
        <time>2023-09-24T07:20:16Z</time>
      </trkpt>
      <trkpt lat="45.3035" lon="0.93282">
        <ele>158.5</ele>
        <time>2023-09-24T07:20:18Z</time>
      </trkpt>
      <trkpt lat="45.30348" lon="0.93276">
        <ele>157.9</ele>
        <time>2023-09-24T07:20:19Z</time>
      </trkpt>
      <trkpt lat="45.30345" lon="0.93254">
        <ele>156</ele>
        <time>2023-09-24T07:20:22Z</time>
      </trkpt>
      <trkpt lat="45.30344" lon="0.93248">
        <ele>155.5</ele>
        <time>2023-09-24T07:20:23Z</time>
      </trkpt>
      <trkpt lat="45.30344" lon="0.93241">
        <ele>155.1</ele>
        <time>2023-09-24T07:20:24Z</time>
      </trkpt>
      <trkpt lat="45.30341" lon="0.93221">
        <ele>154.3</ele>
        <time>2023-09-24T07:20:28Z</time>
      </trkpt>
      <trkpt lat="45.30344" lon="0.93198">
        <ele>154</ele>
        <time>2023-09-24T07:20:32Z</time>
      </trkpt>
      <trkpt lat="45.30348" lon="0.93167">
        <ele>154.6</ele>
        <time>2023-09-24T07:20:37Z</time>
      </trkpt>
      <trkpt lat="45.30348" lon="0.93158">
        <ele>155</ele>
        <time>2023-09-24T07:20:39Z</time>
      </trkpt>
      <trkpt lat="45.30347" lon="0.93155">
        <ele>155.1</ele>
        <time>2023-09-24T07:20:40Z</time>
      </trkpt>
      <trkpt lat="45.30345" lon="0.93153">
        <ele>155.2</ele>
        <time>2023-09-24T07:20:41Z</time>
      </trkpt>
      <trkpt lat="45.30339" lon="0.9315">
        <ele>155.8</ele>
        <time>2023-09-24T07:20:44Z</time>
      </trkpt>
      <trkpt lat="45.30337" lon="0.93149">
        <ele>156</ele>
        <time>2023-09-24T07:20:45Z</time>
      </trkpt>
      <trkpt lat="45.30334" lon="0.93147">
        <ele>156.4</ele>
        <time>2023-09-24T07:20:48Z</time>
      </trkpt>
      <trkpt lat="45.30242" lon="0.93128">
        <ele>169.1</ele>
        <time>2023-09-24T07:21:42Z</time>
      </trkpt>
      <trkpt lat="45.3024" lon="0.93128">
        <ele>169.3</ele>
        <time>2023-09-24T07:21:43Z</time>
      </trkpt>
      <trkpt lat="45.30236" lon="0.93128">
        <ele>169.9</ele>
        <time>2023-09-24T07:21:45Z</time>
      </trkpt>
      <trkpt lat="45.30231" lon="0.93129">
        <ele>170.4</ele>
        <time>2023-09-24T07:21:48Z</time>
      </trkpt>
      <trkpt lat="45.30228" lon="0.93131">
        <ele>170.7</ele>
        <time>2023-09-24T07:21:50Z</time>
      </trkpt>
      <trkpt lat="45.30226" lon="0.93132">
        <ele>170.9</ele>
        <time>2023-09-24T07:21:51Z</time>
      </trkpt>
      <trkpt lat="45.30224" lon="0.93133">
        <ele>171.1</ele>
        <time>2023-09-24T07:21:52Z</time>
      </trkpt>
      <trkpt lat="45.30219" lon="0.93136">
        <ele>171.5</ele>
        <time>2023-09-24T07:21:54Z</time>
      </trkpt>
      <trkpt lat="45.30215" lon="0.93138">
        <ele>171.7</ele>
        <time>2023-09-24T07:21:56Z</time>
      </trkpt>
      <trkpt lat="45.302" lon="0.93146">
        <ele>172</ele>
        <time>2023-09-24T07:22:02Z</time>
      </trkpt>
      <trkpt lat="45.30188" lon="0.93149">
        <ele>172</ele>
        <time>2023-09-24T07:22:06Z</time>
      </trkpt>
      <trkpt lat="45.30185" lon="0.9315">
        <ele>172</ele>
        <time>2023-09-24T07:22:07Z</time>
      </trkpt>
      <trkpt lat="45.30176" lon="0.9315">
        <ele>172</ele>
        <time>2023-09-24T07:22:10Z</time>
      </trkpt>
      <trkpt lat="45.30173" lon="0.9315">
        <ele>172</ele>
        <time>2023-09-24T07:22:11Z</time>
      </trkpt>
      <trkpt lat="45.30162" lon="0.93151">
        <ele>172</ele>
        <time>2023-09-24T07:22:14Z</time>
      </trkpt>
      <trkpt lat="45.30152" lon="0.9315">
        <ele>172.2</ele>
        <time>2023-09-24T07:22:17Z</time>
      </trkpt>
      <trkpt lat="45.30136" lon="0.93148">
        <ele>172.7</ele>
        <time>2023-09-24T07:22:23Z</time>
      </trkpt>
      <trkpt lat="45.30123" lon="0.93145">
        <ele>173.3</ele>
        <time>2023-09-24T07:22:27Z</time>
      </trkpt>
      <trkpt lat="45.3011" lon="0.93131">
        <ele>174.4</ele>
        <time>2023-09-24T07:22:32Z</time>
      </trkpt>
      <trkpt lat="45.301" lon="0.9312">
        <ele>175.3</ele>
        <time>2023-09-24T07:22:36Z</time>
      </trkpt>
      <trkpt lat="45.30088" lon="0.93107">
        <ele>176.1</ele>
        <time>2023-09-24T07:22:41Z</time>
      </trkpt>
      <trkpt lat="45.30077" lon="0.93094">
        <ele>177.1</ele>
        <time>2023-09-24T07:22:46Z</time>
      </trkpt>
      <trkpt lat="45.30066" lon="0.9307">
        <ele>178.4</ele>
        <time>2023-09-24T07:22:52Z</time>
      </trkpt>
      <trkpt lat="45.30057" lon="0.93049">
        <ele>179.1</ele>
        <time>2023-09-24T07:22:57Z</time>
      </trkpt>
      <trkpt lat="45.30045" lon="0.93037">
        <ele>179.4</ele>
        <time>2023-09-24T07:23:01Z</time>
      </trkpt>
      <trkpt lat="45.30026" lon="0.93022">
        <ele>179.4</ele>
        <time>2023-09-24T07:23:07Z</time>
      </trkpt>
      <trkpt lat="45.30002" lon="0.9301">
        <ele>179.1</ele>
        <time>2023-09-24T07:23:13Z</time>
      </trkpt>
      <trkpt lat="45.29987" lon="0.93009">
        <ele>178.4</ele>
        <time>2023-09-24T07:23:16Z</time>
      </trkpt>
      <trkpt lat="45.29976" lon="0.93007">
        <ele>178</ele>
        <time>2023-09-24T07:23:18Z</time>
      </trkpt>
      <trkpt lat="45.29965" lon="0.93004">
        <ele>177.5</ele>
        <time>2023-09-24T07:23:20Z</time>
      </trkpt>
      <trkpt lat="45.29955" lon="0.93001">
        <ele>176.9</ele>
        <time>2023-09-24T07:23:22Z</time>
      </trkpt>
      <trkpt lat="45.29943" lon="0.92996">
        <ele>176.2</ele>
        <time>2023-09-24T07:23:24Z</time>
      </trkpt>
      <trkpt lat="45.29932" lon="0.9299">
        <ele>175.5</ele>
        <time>2023-09-24T07:23:26Z</time>
      </trkpt>
      <trkpt lat="45.29914" lon="0.92982">
        <ele>174.4</ele>
        <time>2023-09-24T07:23:30Z</time>
      </trkpt>
      <trkpt lat="45.29913" lon="0.92981">
        <ele>174.3</ele>
        <time>2023-09-24T07:23:31Z</time>
      </trkpt>
      <trkpt lat="45.29911" lon="0.92978">
        <ele>174.1</ele>
        <time>2023-09-24T07:23:33Z</time>
      </trkpt>
      <trkpt lat="45.2991" lon="0.92976">
        <ele>174.1</ele>
        <time>2023-09-24T07:23:34Z</time>
      </trkpt>
      <trkpt lat="45.2991" lon="0.92971">
        <ele>173.8</ele>
        <time>2023-09-24T07:23:36Z</time>
      </trkpt>
      <trkpt lat="45.2991" lon="0.92967">
        <ele>173.6</ele>
        <time>2023-09-24T07:23:37Z</time>
      </trkpt>
      <trkpt lat="45.29908" lon="0.92963">
        <ele>173.4</ele>
        <time>2023-09-24T07:23:38Z</time>
      </trkpt>
      <trkpt lat="45.29905" lon="0.9296">
        <ele>173.3</ele>
        <time>2023-09-24T07:23:39Z</time>
      </trkpt>
      <trkpt lat="45.29904" lon="0.92955">
        <ele>173.2</ele>
        <time>2023-09-24T07:23:40Z</time>
      </trkpt>
      <trkpt lat="45.29904" lon="0.92949">
        <ele>173</ele>
        <time>2023-09-24T07:23:41Z</time>
      </trkpt>
      <trkpt lat="45.29903" lon="0.92942">
        <ele>172.8</ele>
        <time>2023-09-24T07:23:42Z</time>
      </trkpt>
      <trkpt lat="45.29903" lon="0.92928">
        <ele>172.3</ele>
        <time>2023-09-24T07:23:44Z</time>
      </trkpt>
      <trkpt lat="45.29903" lon="0.92921">
        <ele>172.1</ele>
        <time>2023-09-24T07:23:45Z</time>
      </trkpt>
      <trkpt lat="45.29902" lon="0.92888">
        <ele>171.1</ele>
        <time>2023-09-24T07:23:50Z</time>
      </trkpt>
      <trkpt lat="45.29899" lon="0.92876">
        <ele>170.9</ele>
        <time>2023-09-24T07:23:52Z</time>
      </trkpt>
      <trkpt lat="45.29899" lon="0.92869">
        <ele>170.7</ele>
        <time>2023-09-24T07:23:53Z</time>
      </trkpt>
      <trkpt lat="45.29898" lon="0.92862">
        <ele>170.6</ele>
        <time>2023-09-24T07:23:54Z</time>
      </trkpt>
      <trkpt lat="45.29898" lon="0.92835">
        <ele>170.4</ele>
        <time>2023-09-24T07:23:58Z</time>
      </trkpt>
      <trkpt lat="45.29898" lon="0.92812">
        <ele>170.5</ele>
        <time>2023-09-24T07:24:02Z</time>
      </trkpt>
      <trkpt lat="45.2989" lon="0.92806">
        <ele>170.6</ele>
        <time>2023-09-24T07:24:04Z</time>
      </trkpt>
      <trkpt lat="45.29887" lon="0.92802">
        <ele>170.6</ele>
        <time>2023-09-24T07:24:05Z</time>
      </trkpt>
      <trkpt lat="45.29887" lon="0.92777">
        <ele>170.8</ele>
        <time>2023-09-24T07:24:09Z</time>
      </trkpt>
      <trkpt lat="45.29888" lon="0.92765">
        <ele>170.9</ele>
        <time>2023-09-24T07:24:11Z</time>
      </trkpt>
      <trkpt lat="45.29889" lon="0.92747">
        <ele>171</ele>
        <time>2023-09-24T07:24:14Z</time>
      </trkpt>
      <trkpt lat="45.2989" lon="0.92726">
        <ele>171.2</ele>
        <time>2023-09-24T07:24:18Z</time>
      </trkpt>
      <trkpt lat="45.29894" lon="0.92706">
        <ele>171.6</ele>
        <time>2023-09-24T07:24:22Z</time>
      </trkpt>
      <trkpt lat="45.29898" lon="0.92692">
        <ele>172</ele>
        <time>2023-09-24T07:24:25Z</time>
      </trkpt>
      <trkpt lat="45.29904" lon="0.92682">
        <ele>172.3</ele>
        <time>2023-09-24T07:24:27Z</time>
      </trkpt>
      <trkpt lat="45.29908" lon="0.92676">
        <ele>172.6</ele>
        <time>2023-09-24T07:24:28Z</time>
      </trkpt>
      <trkpt lat="45.29914" lon="0.92665">
        <ele>173.1</ele>
        <time>2023-09-24T07:24:31Z</time>
      </trkpt>
      <trkpt lat="45.2992" lon="0.92648">
        <ele>173.8</ele>
        <time>2023-09-24T07:24:35Z</time>
      </trkpt>
      <trkpt lat="45.29925" lon="0.92636">
        <ele>174.3</ele>
        <time>2023-09-24T07:24:38Z</time>
      </trkpt>
      <trkpt lat="45.29926" lon="0.92631">
        <ele>174.5</ele>
        <time>2023-09-24T07:24:39Z</time>
      </trkpt>
      <trkpt lat="45.29926" lon="0.92616">
        <ele>175</ele>
        <time>2023-09-24T07:24:42Z</time>
      </trkpt>
      <trkpt lat="45.29924" lon="0.92605">
        <ele>175.4</ele>
        <time>2023-09-24T07:24:44Z</time>
      </trkpt>
      <trkpt lat="45.29924" lon="0.92598">
        <ele>175.7</ele>
        <time>2023-09-24T07:24:46Z</time>
      </trkpt>
      <trkpt lat="45.29924" lon="0.92595">
        <ele>175.8</ele>
        <time>2023-09-24T07:24:47Z</time>
      </trkpt>
      <trkpt lat="45.29928" lon="0.92588">
        <ele>176.1</ele>
        <time>2023-09-24T07:24:49Z</time>
      </trkpt>
      <trkpt lat="45.29942" lon="0.92573">
        <ele>177</ele>
        <time>2023-09-24T07:24:53Z</time>
      </trkpt>
      <trkpt lat="45.29952" lon="0.92559">
        <ele>177.5</ele>
        <time>2023-09-24T07:24:57Z</time>
      </trkpt>
      <trkpt lat="45.29962" lon="0.92549">
        <ele>177.9</ele>
        <time>2023-09-24T07:25:00Z</time>
      </trkpt>
      <trkpt lat="45.29966" lon="0.92542">
        <ele>178.1</ele>
        <time>2023-09-24T07:25:03Z</time>
      </trkpt>
      <trkpt lat="45.29973" lon="0.92535">
        <ele>178.4</ele>
        <time>2023-09-24T07:25:06Z</time>
      </trkpt>
      <trkpt lat="45.29975" lon="0.92533">
        <ele>178.6</ele>
        <time>2023-09-24T07:25:07Z</time>
      </trkpt>
      <trkpt lat="45.29981" lon="0.92527">
        <ele>178.9</ele>
        <time>2023-09-24T07:25:10Z</time>
      </trkpt>
      <trkpt lat="45.29992" lon="0.92518">
        <ele>179.3</ele>
        <time>2023-09-24T07:25:14Z</time>
      </trkpt>
      <trkpt lat="45.29999" lon="0.9251">
        <ele>179.6</ele>
        <time>2023-09-24T07:25:18Z</time>
      </trkpt>
      <trkpt lat="45.30003" lon="0.92504">
        <ele>179.8</ele>
        <time>2023-09-24T07:25:22Z</time>
      </trkpt>
      <trkpt lat="45.30008" lon="0.92498">
        <ele>180.1</ele>
        <time>2023-09-24T07:25:24Z</time>
      </trkpt>
      <trkpt lat="45.30011" lon="0.92491">
        <ele>180.4</ele>
        <time>2023-09-24T07:25:26Z</time>
      </trkpt>
      <trkpt lat="45.30011" lon="0.92486">
        <ele>180.6</ele>
        <time>2023-09-24T07:25:28Z</time>
      </trkpt>
      <trkpt lat="45.30011" lon="0.92482">
        <ele>180.8</ele>
        <time>2023-09-24T07:25:29Z</time>
      </trkpt>
      <trkpt lat="45.30016" lon="0.92471">
        <ele>181.1</ele>
        <time>2023-09-24T07:25:32Z</time>
      </trkpt>
      <trkpt lat="45.30016" lon="0.92463">
        <ele>181.5</ele>
        <time>2023-09-24T07:25:34Z</time>
      </trkpt>
      <trkpt lat="45.30024" lon="0.92446">
        <ele>182</ele>
        <time>2023-09-24T07:25:37Z</time>
      </trkpt>
      <trkpt lat="45.30025" lon="0.92438">
        <ele>182.4</ele>
        <time>2023-09-24T07:25:39Z</time>
      </trkpt>
      <trkpt lat="45.3003" lon="0.92421">
        <ele>183</ele>
        <time>2023-09-24T07:25:44Z</time>
      </trkpt>
      <trkpt lat="45.30033" lon="0.92415">
        <ele>183.3</ele>
        <time>2023-09-24T07:25:46Z</time>
      </trkpt>
      <trkpt lat="45.30036" lon="0.92409">
        <ele>183.7</ele>
        <time>2023-09-24T07:25:48Z</time>
      </trkpt>
      <trkpt lat="45.30037" lon="0.924">
        <ele>184</ele>
        <time>2023-09-24T07:25:51Z</time>
      </trkpt>
      <trkpt lat="45.30045" lon="0.92386">
        <ele>184.6</ele>
        <time>2023-09-24T07:25:55Z</time>
      </trkpt>
      <trkpt lat="45.3005" lon="0.92372">
        <ele>185.2</ele>
        <time>2023-09-24T07:25:59Z</time>
      </trkpt>
      <trkpt lat="45.30051" lon="0.92368">
        <ele>185.5</ele>
        <time>2023-09-24T07:26:00Z</time>
      </trkpt>
      <trkpt lat="45.30057" lon="0.92353">
        <ele>186.2</ele>
        <time>2023-09-24T07:26:04Z</time>
      </trkpt>
      <trkpt lat="45.30058" lon="0.9235">
        <ele>186.3</ele>
        <time>2023-09-24T07:26:05Z</time>
      </trkpt>
      <trkpt lat="45.30063" lon="0.9234">
        <ele>186.8</ele>
        <time>2023-09-24T07:26:08Z</time>
      </trkpt>
      <trkpt lat="45.30069" lon="0.92323">
        <ele>187.5</ele>
        <time>2023-09-24T07:26:13Z</time>
      </trkpt>
      <trkpt lat="45.30072" lon="0.92313">
        <ele>187.8</ele>
        <time>2023-09-24T07:26:16Z</time>
      </trkpt>
      <trkpt lat="45.30074" lon="0.92309">
        <ele>188.1</ele>
        <time>2023-09-24T07:26:17Z</time>
      </trkpt>
      <trkpt lat="45.30078" lon="0.92295">
        <ele>188.7</ele>
        <time>2023-09-24T07:26:21Z</time>
      </trkpt>
      <trkpt lat="45.30081" lon="0.92284">
        <ele>189.3</ele>
        <time>2023-09-24T07:26:24Z</time>
      </trkpt>
      <trkpt lat="45.30083" lon="0.9228">
        <ele>189.7</ele>
        <time>2023-09-24T07:26:25Z</time>
      </trkpt>
      <trkpt lat="45.30087" lon="0.92263">
        <ele>190.4</ele>
        <time>2023-09-24T07:26:30Z</time>
      </trkpt>
      <trkpt lat="45.30093" lon="0.92253">
        <ele>190.9</ele>
        <time>2023-09-24T07:26:34Z</time>
      </trkpt>
      <trkpt lat="45.30094" lon="0.9225">
        <ele>191.2</ele>
        <time>2023-09-24T07:26:35Z</time>
      </trkpt>
      <trkpt lat="45.30102" lon="0.92237">
        <ele>192.1</ele>
        <time>2023-09-24T07:26:40Z</time>
      </trkpt>
      <trkpt lat="45.30106" lon="0.92225">
        <ele>192.8</ele>
        <time>2023-09-24T07:26:43Z</time>
      </trkpt>
      <trkpt lat="45.30105" lon="0.92221">
        <ele>192.9</ele>
        <time>2023-09-24T07:26:44Z</time>
      </trkpt>
      <trkpt lat="45.301" lon="0.92208">
        <ele>193.3</ele>
        <time>2023-09-24T07:26:48Z</time>
      </trkpt>
      <trkpt lat="45.30097" lon="0.922">
        <ele>193.6</ele>
        <time>2023-09-24T07:26:51Z</time>
      </trkpt>
      <trkpt lat="45.30095" lon="0.92199">
        <ele>193.9</ele>
        <time>2023-09-24T07:26:52Z</time>
      </trkpt>
      <trkpt lat="45.3008" lon="0.922">
        <ele>193.3</ele>
        <time>2023-09-24T07:26:58Z</time>
      </trkpt>
      <trkpt lat="45.30069" lon="0.92189">
        <ele>193.3</ele>
        <time>2023-09-24T07:27:03Z</time>
      </trkpt>
      <trkpt lat="45.30064" lon="0.92175">
        <ele>193.5</ele>
        <time>2023-09-24T07:27:07Z</time>
      </trkpt>
      <trkpt lat="45.3006" lon="0.92168">
        <ele>193.4</ele>
        <time>2023-09-24T07:27:09Z</time>
      </trkpt>
      <trkpt lat="45.30057" lon="0.92165">
        <ele>193.4</ele>
        <time>2023-09-24T07:27:10Z</time>
      </trkpt>
      <trkpt lat="45.30042" lon="0.92146">
        <ele>193</ele>
        <time>2023-09-24T07:27:15Z</time>
      </trkpt>
      <trkpt lat="45.30034" lon="0.92135">
        <ele>192.9</ele>
        <time>2023-09-24T07:27:18Z</time>
      </trkpt>
      <trkpt lat="45.30032" lon="0.92134">
        <ele>192.9</ele>
        <time>2023-09-24T07:27:19Z</time>
      </trkpt>
      <trkpt lat="45.30022" lon="0.92139">
        <ele>192.9</ele>
        <time>2023-09-24T07:27:23Z</time>
      </trkpt>
      <trkpt lat="45.30012" lon="0.92153">
        <ele>192.8</ele>
        <time>2023-09-24T07:27:28Z</time>
      </trkpt>
      <trkpt lat="45.30001" lon="0.92166">
        <ele>192.6</ele>
        <time>2023-09-24T07:27:32Z</time>
      </trkpt>
      <trkpt lat="45.29994" lon="0.92174">
        <ele>192.6</ele>
        <time>2023-09-24T07:27:35Z</time>
      </trkpt>
      <trkpt lat="45.2999" lon="0.92176">
        <ele>192.5</ele>
        <time>2023-09-24T07:27:36Z</time>
      </trkpt>
      <trkpt lat="45.29987" lon="0.9218">
        <ele>192.5</ele>
        <time>2023-09-24T07:27:37Z</time>
      </trkpt>
      <trkpt lat="45.29982" lon="0.92189">
        <ele>192.3</ele>
        <time>2023-09-24T07:27:39Z</time>
      </trkpt>
      <trkpt lat="45.29976" lon="0.92202">
        <ele>192.1</ele>
        <time>2023-09-24T07:27:42Z</time>
      </trkpt>
      <trkpt lat="45.29973" lon="0.9221">
        <ele>192</ele>
        <time>2023-09-24T07:27:44Z</time>
      </trkpt>
      <trkpt lat="45.29962" lon="0.92216">
        <ele>191.9</ele>
        <time>2023-09-24T07:27:47Z</time>
      </trkpt>
      <trkpt lat="45.2996" lon="0.92218">
        <ele>192</ele>
        <time>2023-09-24T07:27:48Z</time>
      </trkpt>
      <trkpt lat="45.29955" lon="0.92223">
        <ele>191.9</ele>
        <time>2023-09-24T07:27:50Z</time>
      </trkpt>
      <trkpt lat="45.2994" lon="0.92226">
        <ele>191.6</ele>
        <time>2023-09-24T07:27:54Z</time>
      </trkpt>
      <trkpt lat="45.29929" lon="0.92237">
        <ele>191.3</ele>
        <time>2023-09-24T07:27:57Z</time>
      </trkpt>
      <trkpt lat="45.29925" lon="0.92241">
        <ele>191.3</ele>
        <time>2023-09-24T07:27:58Z</time>
      </trkpt>
      <trkpt lat="45.29919" lon="0.92245">
        <ele>191.2</ele>
        <time>2023-09-24T07:28:00Z</time>
      </trkpt>
      <trkpt lat="45.29917" lon="0.92244">
        <ele>191.2</ele>
        <time>2023-09-24T07:28:01Z</time>
      </trkpt>
      <trkpt lat="45.29908" lon="0.92236">
        <ele>191.1</ele>
        <time>2023-09-24T07:28:05Z</time>
      </trkpt>
      <trkpt lat="45.29899" lon="0.92221">
        <ele>190.6</ele>
        <time>2023-09-24T07:28:09Z</time>
      </trkpt>
      <trkpt lat="45.29892" lon="0.92205">
        <ele>190.1</ele>
        <time>2023-09-24T07:28:12Z</time>
      </trkpt>
      <trkpt lat="45.29887" lon="0.92195">
        <ele>189.8</ele>
        <time>2023-09-24T07:28:14Z</time>
      </trkpt>
      <trkpt lat="45.29882" lon="0.92186">
        <ele>189.7</ele>
        <time>2023-09-24T07:28:16Z</time>
      </trkpt>
      <trkpt lat="45.29879" lon="0.92183">
        <ele>189.7</ele>
        <time>2023-09-24T07:28:17Z</time>
      </trkpt>
      <trkpt lat="45.29873" lon="0.92178">
        <ele>189.6</ele>
        <time>2023-09-24T07:28:19Z</time>
      </trkpt>
      <trkpt lat="45.29867" lon="0.92172">
        <ele>189.3</ele>
        <time>2023-09-24T07:28:21Z</time>
      </trkpt>
      <trkpt lat="45.29862" lon="0.92164">
        <ele>189</ele>
        <time>2023-09-24T07:28:23Z</time>
      </trkpt>
      <trkpt lat="45.29858" lon="0.92161">
        <ele>188.8</ele>
        <time>2023-09-24T07:28:24Z</time>
      </trkpt>
      <trkpt lat="45.29848" lon="0.92157">
        <ele>188.4</ele>
        <time>2023-09-24T07:28:27Z</time>
      </trkpt>
      <trkpt lat="45.29847" lon="0.9216">
        <ele>188.3</ele>
        <time>2023-09-24T07:28:28Z</time>
      </trkpt>
      <trkpt lat="45.2984" lon="0.92177">
        <ele>187.8</ele>
        <time>2023-09-24T07:28:32Z</time>
      </trkpt>
      <trkpt lat="45.29837" lon="0.92187">
        <ele>187.7</ele>
        <time>2023-09-24T07:28:35Z</time>
      </trkpt>
      <trkpt lat="45.29836" lon="0.92189">
        <ele>187.7</ele>
        <time>2023-09-24T07:28:36Z</time>
      </trkpt>
      <trkpt lat="45.29835" lon="0.92196">
        <ele>187.7</ele>
        <time>2023-09-24T07:28:39Z</time>
      </trkpt>
      <trkpt lat="45.29836" lon="0.92199">
        <ele>187.7</ele>
        <time>2023-09-24T07:28:40Z</time>
      </trkpt>
      <trkpt lat="45.29843" lon="0.92218">
        <ele>187.7</ele>
        <time>2023-09-24T07:28:45Z</time>
      </trkpt>
      <trkpt lat="45.29853" lon="0.92224">
        <ele>187.9</ele>
        <time>2023-09-24T07:28:48Z</time>
      </trkpt>
      <trkpt lat="45.29856" lon="0.92227">
        <ele>188</ele>
        <time>2023-09-24T07:28:49Z</time>
      </trkpt>
      <trkpt lat="45.29857" lon="0.92233">
        <ele>188.1</ele>
        <time>2023-09-24T07:28:51Z</time>
      </trkpt>
      <trkpt lat="45.29857" lon="0.92239">
        <ele>188</ele>
        <time>2023-09-24T07:28:53Z</time>
      </trkpt>
      <trkpt lat="45.29855" lon="0.92246">
        <ele>188</ele>
        <time>2023-09-24T07:28:55Z</time>
      </trkpt>
      <trkpt lat="45.29852" lon="0.92252">
        <ele>187.9</ele>
        <time>2023-09-24T07:28:57Z</time>
      </trkpt>
      <trkpt lat="45.29849" lon="0.92258">
        <ele>187.9</ele>
        <time>2023-09-24T07:28:59Z</time>
      </trkpt>
      <trkpt lat="45.29839" lon="0.92266">
        <ele>187.7</ele>
        <time>2023-09-24T07:29:02Z</time>
      </trkpt>
      <trkpt lat="45.29835" lon="0.92267">
        <ele>187.6</ele>
        <time>2023-09-24T07:29:03Z</time>
      </trkpt>
      <trkpt lat="45.29826" lon="0.9227">
        <ele>187.6</ele>
        <time>2023-09-24T07:29:05Z</time>
      </trkpt>
      <trkpt lat="45.29824" lon="0.92272">
        <ele>187.6</ele>
        <time>2023-09-24T07:29:06Z</time>
      </trkpt>
      <trkpt lat="45.29822" lon="0.92271">
        <ele>187.5</ele>
        <time>2023-09-24T07:29:07Z</time>
      </trkpt>
      <trkpt lat="45.29814" lon="0.92266">
        <ele>187.1</ele>
        <time>2023-09-24T07:29:10Z</time>
      </trkpt>
      <trkpt lat="45.29808" lon="0.92264">
        <ele>186.9</ele>
        <time>2023-09-24T07:29:12Z</time>
      </trkpt>
      <trkpt lat="45.29806" lon="0.92265">
        <ele>186.8</ele>
        <time>2023-09-24T07:29:13Z</time>
      </trkpt>
      <trkpt lat="45.29805" lon="0.92267">
        <ele>186.7</ele>
        <time>2023-09-24T07:29:14Z</time>
      </trkpt>
      <trkpt lat="45.29804" lon="0.92273">
        <ele>186.7</ele>
        <time>2023-09-24T07:29:16Z</time>
      </trkpt>
      <trkpt lat="45.29804" lon="0.9228">
        <ele>186.8</ele>
        <time>2023-09-24T07:29:18Z</time>
      </trkpt>
      <trkpt lat="45.29802" lon="0.92282">
        <ele>186.8</ele>
        <time>2023-09-24T07:29:19Z</time>
      </trkpt>
      <trkpt lat="45.29798" lon="0.92281">
        <ele>186.7</ele>
        <time>2023-09-24T07:29:21Z</time>
      </trkpt>
      <trkpt lat="45.29794" lon="0.9228">
        <ele>186.7</ele>
        <time>2023-09-24T07:29:22Z</time>
      </trkpt>
      <trkpt lat="45.2979" lon="0.92281">
        <ele>186.6</ele>
        <time>2023-09-24T07:29:23Z</time>
      </trkpt>
      <trkpt lat="45.29786" lon="0.92289">
        <ele>186.5</ele>
        <time>2023-09-24T07:29:25Z</time>
      </trkpt>
      <trkpt lat="45.29787" lon="0.92308">
        <ele>186.5</ele>
        <time>2023-09-24T07:29:29Z</time>
      </trkpt>
      <trkpt lat="45.29786" lon="0.92322">
        <ele>186.4</ele>
        <time>2023-09-24T07:29:32Z</time>
      </trkpt>
      <trkpt lat="45.29786" lon="0.92328">
        <ele>186.4</ele>
        <time>2023-09-24T07:29:33Z</time>
      </trkpt>
      <trkpt lat="45.29787" lon="0.92344">
        <ele>186.2</ele>
        <time>2023-09-24T07:29:36Z</time>
      </trkpt>
      <trkpt lat="45.29787" lon="0.92355">
        <ele>186.1</ele>
        <time>2023-09-24T07:29:38Z</time>
      </trkpt>
      <trkpt lat="45.29784" lon="0.92363">
        <ele>186</ele>
        <time>2023-09-24T07:29:40Z</time>
      </trkpt>
      <trkpt lat="45.29781" lon="0.92366">
        <ele>186</ele>
        <time>2023-09-24T07:29:41Z</time>
      </trkpt>
      <trkpt lat="45.29778" lon="0.92365">
        <ele>185.9</ele>
        <time>2023-09-24T07:29:43Z</time>
      </trkpt>
      <trkpt lat="45.2977" lon="0.92363">
        <ele>185.9</ele>
        <time>2023-09-24T07:29:46Z</time>
      </trkpt>
      <trkpt lat="45.29759" lon="0.9236">
        <ele>185.6</ele>
        <time>2023-09-24T07:29:50Z</time>
      </trkpt>
      <trkpt lat="45.29749" lon="0.92367">
        <ele>185.2</ele>
        <time>2023-09-24T07:29:53Z</time>
      </trkpt>
      <trkpt lat="45.29747" lon="0.92372">
        <ele>185.1</ele>
        <time>2023-09-24T07:29:54Z</time>
      </trkpt>
      <trkpt lat="45.29742" lon="0.92388">
        <ele>184.9</ele>
        <time>2023-09-24T07:29:58Z</time>
      </trkpt>
      <trkpt lat="45.29732" lon="0.92397">
        <ele>184.6</ele>
        <time>2023-09-24T07:30:02Z</time>
      </trkpt>
      <trkpt lat="45.29727" lon="0.92404">
        <ele>184.4</ele>
        <time>2023-09-24T07:30:05Z</time>
      </trkpt>
      <trkpt lat="45.29725" lon="0.92407">
        <ele>184.4</ele>
        <time>2023-09-24T07:30:06Z</time>
      </trkpt>
      <trkpt lat="45.29725" lon="0.92409">
        <ele>184.3</ele>
        <time>2023-09-24T07:30:07Z</time>
      </trkpt>
      <trkpt lat="45.29726" lon="0.92414">
        <ele>184.2</ele>
        <time>2023-09-24T07:30:10Z</time>
      </trkpt>
      <trkpt lat="45.29736" lon="0.92423">
        <ele>184.1</ele>
        <time>2023-09-24T07:30:14Z</time>
      </trkpt>
      <trkpt lat="45.2975" lon="0.92436">
        <ele>184.1</ele>
        <time>2023-09-24T07:30:18Z</time>
      </trkpt>
      <trkpt lat="45.2976" lon="0.92444">
        <ele>184.2</ele>
        <time>2023-09-24T07:30:21Z</time>
      </trkpt>
      <trkpt lat="45.29764" lon="0.92447">
        <ele>184.2</ele>
        <time>2023-09-24T07:30:22Z</time>
      </trkpt>
      <trkpt lat="45.29769" lon="0.92452">
        <ele>184.3</ele>
        <time>2023-09-24T07:30:24Z</time>
      </trkpt>
      <trkpt lat="45.2977" lon="0.92455">
        <ele>184.3</ele>
        <time>2023-09-24T07:30:25Z</time>
      </trkpt>
      <trkpt lat="45.29771" lon="0.92457">
        <ele>184.3</ele>
        <time>2023-09-24T07:30:26Z</time>
      </trkpt>
      <trkpt lat="45.29772" lon="0.92458">
        <ele>184.3</ele>
        <time>2023-09-24T07:30:28Z</time>
      </trkpt>
      <trkpt lat="45.29771" lon="0.92459">
        <ele>184.3</ele>
        <time>2023-09-24T07:30:29Z</time>
      </trkpt>
      <trkpt lat="45.29766" lon="0.92464">
        <ele>184.2</ele>
        <time>2023-09-24T07:30:31Z</time>
      </trkpt>
      <trkpt lat="45.29759" lon="0.92484">
        <ele>183.8</ele>
        <time>2023-09-24T07:30:35Z</time>
      </trkpt>
      <trkpt lat="45.29764" lon="0.92495">
        <ele>183.5</ele>
        <time>2023-09-24T07:30:38Z</time>
      </trkpt>
      <trkpt lat="45.29767" lon="0.92507">
        <ele>183.1</ele>
        <time>2023-09-24T07:30:40Z</time>
      </trkpt>
      <trkpt lat="45.29769" lon="0.92513">
        <ele>182.9</ele>
        <time>2023-09-24T07:30:41Z</time>
      </trkpt>
      <trkpt lat="45.29774" lon="0.92523">
        <ele>182.7</ele>
        <time>2023-09-24T07:30:43Z</time>
      </trkpt>
      <trkpt lat="45.2978" lon="0.92533">
        <ele>182.4</ele>
        <time>2023-09-24T07:30:45Z</time>
      </trkpt>
      <trkpt lat="45.29785" lon="0.92546">
        <ele>182.2</ele>
        <time>2023-09-24T07:30:47Z</time>
      </trkpt>
      <trkpt lat="45.29789" lon="0.9256">
        <ele>181.9</ele>
        <time>2023-09-24T07:30:49Z</time>
      </trkpt>
      <trkpt lat="45.29788" lon="0.92576">
        <ele>181.6</ele>
        <time>2023-09-24T07:30:51Z</time>
      </trkpt>
      <trkpt lat="45.29791" lon="0.92599">
        <ele>181.4</ele>
        <time>2023-09-24T07:30:55Z</time>
      </trkpt>
      <trkpt lat="45.29791" lon="0.92604">
        <ele>181.3</ele>
        <time>2023-09-24T07:30:56Z</time>
      </trkpt>
      <trkpt lat="45.29787" lon="0.92611">
        <ele>181.2</ele>
        <time>2023-09-24T07:30:58Z</time>
      </trkpt>
      <trkpt lat="45.29786" lon="0.92613">
        <ele>181.2</ele>
        <time>2023-09-24T07:30:59Z</time>
      </trkpt>
      <trkpt lat="45.29786" lon="0.92619">
        <ele>181</ele>
        <time>2023-09-24T07:31:01Z</time>
      </trkpt>
      <trkpt lat="45.29787" lon="0.92629">
        <ele>180.8</ele>
        <time>2023-09-24T07:31:03Z</time>
      </trkpt>
      <trkpt lat="45.2979" lon="0.92633">
        <ele>180.7</ele>
        <time>2023-09-24T07:31:04Z</time>
      </trkpt>
      <trkpt lat="45.29791" lon="0.92637">
        <ele>180.6</ele>
        <time>2023-09-24T07:31:05Z</time>
      </trkpt>
      <trkpt lat="45.2979" lon="0.92646">
        <ele>180.3</ele>
        <time>2023-09-24T07:31:07Z</time>
      </trkpt>
      <trkpt lat="45.29789" lon="0.92653">
        <ele>177.3</ele>
      </trkpt>
      <trkpt lat="45.29787" lon="0.9266">
        <ele>177.2</ele>
      </trkpt>
      <trkpt lat="45.29785" lon="0.92667">
        <ele>177</ele>
      </trkpt>
      <trkpt lat="45.29782" lon="0.92668">
        <ele>176.9</ele>
      </trkpt>
      <trkpt lat="45.29781" lon="0.92669">
        <ele>176.9</ele>
      </trkpt>
      <trkpt lat="45.29776" lon="0.92664">
        <ele>177.1</ele>
      </trkpt>
      <trkpt lat="45.29774" lon="0.9266">
        <ele>177.2</ele>
      </trkpt>
      <trkpt lat="45.29771" lon="0.92656">
        <ele>177.3</ele>
      </trkpt>
      <trkpt lat="45.29767" lon="0.9265">
        <ele>177.4</ele>
      </trkpt>
      <trkpt lat="45.29764" lon="0.92647">
        <ele>177.3</ele>
      </trkpt>
      <trkpt lat="45.2976" lon="0.92649">
        <ele>177.2</ele>
      </trkpt>
      <trkpt lat="45.29758" lon="0.92653">
        <ele>177.1</ele>
      </trkpt>
      <trkpt lat="45.29758" lon="0.92657">
        <ele>177.1</ele>
      </trkpt>
      <trkpt lat="45.29758" lon="0.92663">
        <ele>177</ele>
      </trkpt>
      <trkpt lat="45.29759" lon="0.92667">
        <ele>177</ele>
      </trkpt>
      <trkpt lat="45.29759" lon="0.92671">
        <ele>176.8</ele>
      </trkpt>
      <trkpt lat="45.2976" lon="0.92676">
        <ele>176.5</ele>
      </trkpt>
      <trkpt lat="45.29761" lon="0.92679">
        <ele>176.4</ele>
      </trkpt>
      <trkpt lat="45.29763" lon="0.92682">
        <ele>176.2</ele>
      </trkpt>
      <trkpt lat="45.29766" lon="0.92682">
        <ele>176.1</ele>
      </trkpt>
      <trkpt lat="45.29769" lon="0.92684">
        <ele>176</ele>
      </trkpt>
      <trkpt lat="45.29771" lon="0.92685">
        <ele>175.8</ele>
      </trkpt>
      <trkpt lat="45.29775" lon="0.92691">
        <ele>175.3</ele>
      </trkpt>
      <trkpt lat="45.29775" lon="0.92697">
        <ele>175.1</ele>
      </trkpt>
      <trkpt lat="45.29775" lon="0.92699">
        <ele>175.1</ele>
      </trkpt>
      <trkpt lat="45.29771" lon="0.92703">
        <ele>175.1</ele>
      </trkpt>
      <trkpt lat="45.29767" lon="0.92703">
        <ele>175.1</ele>
      </trkpt>
      <trkpt lat="45.29764" lon="0.92702">
        <ele>175.2</ele>
      </trkpt>
      <trkpt lat="45.29761" lon="0.92701">
        <ele>175.3</ele>
      </trkpt>
      <trkpt lat="45.29757" lon="0.92698">
        <ele>175.5</ele>
      </trkpt>
      <trkpt lat="45.29753" lon="0.92701">
        <ele>175.5</ele>
      </trkpt>
      <trkpt lat="45.29751" lon="0.92703">
        <ele>175.4</ele>
      </trkpt>
      <trkpt lat="45.29745" lon="0.92703">
        <ele>175.3</ele>
      </trkpt>
      <trkpt lat="45.29742" lon="0.92702">
        <ele>175.3</ele>
      </trkpt>
      <trkpt lat="45.29738" lon="0.92698">
        <ele>175.4</ele>
      </trkpt>
      <trkpt lat="45.29735" lon="0.92693">
        <ele>175.5</ele>
      </trkpt>
      <trkpt lat="45.29732" lon="0.92687">
        <ele>175.6</ele>
      </trkpt>
      <trkpt lat="45.29728" lon="0.92683">
        <ele>175.6</ele>
      </trkpt>
      <trkpt lat="45.29724" lon="0.92682">
        <ele>175.5</ele>
      </trkpt>
      <trkpt lat="45.29717" lon="0.92683">
        <ele>175.1</ele>
      </trkpt>
      <trkpt lat="45.29714" lon="0.92689">
        <ele>174.9</ele>
      </trkpt>
      <trkpt lat="45.29713" lon="0.92694">
        <ele>174.7</ele>
      </trkpt>
      <trkpt lat="45.29714" lon="0.92699">
        <ele>174.5</ele>
      </trkpt>
      <trkpt lat="45.29715" lon="0.92707">
        <ele>174.3</ele>
      </trkpt>
      <trkpt lat="45.29715" lon="0.92712">
        <ele>174.1</ele>
      </trkpt>
      <trkpt lat="45.29715" lon="0.9272">
        <ele>173.8</ele>
      </trkpt>
      <trkpt lat="45.29713" lon="0.92727">
        <ele>173.5</ele>
      </trkpt>
      <trkpt lat="45.29709" lon="0.92734">
        <ele>173.1</ele>
      </trkpt>
      <trkpt lat="45.29704" lon="0.92739">
        <ele>172.7</ele>
      </trkpt>
      <trkpt lat="45.29698" lon="0.92743">
        <ele>172.4</ele>
      </trkpt>
      <trkpt lat="45.29694" lon="0.92745">
        <ele>172.1</ele>
      </trkpt>
      <trkpt lat="45.29688" lon="0.92749">
        <ele>171.8</ele>
      </trkpt>
      <trkpt lat="45.29684" lon="0.92753">
        <ele>171.5</ele>
      </trkpt>
      <trkpt lat="45.29679" lon="0.92755">
        <ele>171.3</ele>
      </trkpt>
      <trkpt lat="45.29675" lon="0.92754">
        <ele>171.1</ele>
      </trkpt>
      <trkpt lat="45.29668" lon="0.92756">
        <ele>170.8</ele>
      </trkpt>
      <trkpt lat="45.29662" lon="0.92756">
        <ele>170.6</ele>
      </trkpt>
      <trkpt lat="45.29656" lon="0.92756">
        <ele>170.4</ele>
      </trkpt>
      <trkpt lat="45.29648" lon="0.92757">
        <ele>170.1</ele>
      </trkpt>
      <trkpt lat="45.29643" lon="0.92757">
        <ele>169.9</ele>
      </trkpt>
      <trkpt lat="45.29639" lon="0.92757">
        <ele>169.7</ele>
      </trkpt>
      <trkpt lat="45.29635" lon="0.92759">
        <ele>169.6</ele>
      </trkpt>
      <trkpt lat="45.29631" lon="0.92761">
        <ele>169.3</ele>
      </trkpt>
      <trkpt lat="45.29629" lon="0.92766">
        <ele>169</ele>
      </trkpt>
      <trkpt lat="45.29628" lon="0.92772">
        <ele>168.8</ele>
      </trkpt>
      <trkpt lat="45.29629" lon="0.92782">
        <ele>168.6</ele>
      </trkpt>
      <trkpt lat="45.2963" lon="0.92791">
        <ele>168.4</ele>
      </trkpt>
      <trkpt lat="45.29632" lon="0.92798">
        <ele>168.2</ele>
      </trkpt>
      <trkpt lat="45.29634" lon="0.92803">
        <ele>168.1</ele>
      </trkpt>
      <trkpt lat="45.29638" lon="0.92811">
        <ele>168</ele>
      </trkpt>
      <trkpt lat="45.29643" lon="0.92822">
        <ele>168.1</ele>
      </trkpt>
      <trkpt lat="45.29645" lon="0.92825">
        <ele>168.1</ele>
      </trkpt>
      <trkpt lat="45.29654" lon="0.92837">
        <ele>167.9</ele>
      </trkpt>
      <trkpt lat="45.29659" lon="0.92841">
        <ele>167.9</ele>
      </trkpt>
      <trkpt lat="45.29664" lon="0.92846">
        <ele>168</ele>
      </trkpt>
      <trkpt lat="45.29668" lon="0.9285">
        <ele>168</ele>
      </trkpt>
      <trkpt lat="45.29671" lon="0.92854">
        <ele>168</ele>
      </trkpt>
      <trkpt lat="45.29678" lon="0.92859">
        <ele>168</ele>
      </trkpt>
      <trkpt lat="45.29682" lon="0.92869">
        <ele>167.4</ele>
      </trkpt>
      <trkpt lat="45.29685" lon="0.92877">
        <ele>166.9</ele>
      </trkpt>
      <trkpt lat="45.29689" lon="0.92887">
        <ele>166.1</ele>
      </trkpt>
      <trkpt lat="45.29691" lon="0.92895">
        <ele>165.6</ele>
      </trkpt>
      <trkpt lat="45.29693" lon="0.92902">
        <ele>165.1</ele>
      </trkpt>
      <trkpt lat="45.29699" lon="0.92916">
        <ele>164.2</ele>
      </trkpt>
      <trkpt lat="45.29703" lon="0.92927">
        <ele>163.5</ele>
      </trkpt>
      <trkpt lat="45.29707" lon="0.92936">
        <ele>162.7</ele>
      </trkpt>
      <trkpt lat="45.29711" lon="0.92947">
        <ele>161.8</ele>
      </trkpt>
      <trkpt lat="45.29714" lon="0.92954">
        <ele>161.3</ele>
      </trkpt>
      <trkpt lat="45.29717" lon="0.92965">
        <ele>160.5</ele>
      </trkpt>
      <trkpt lat="45.29722" lon="0.92978">
        <ele>159.6</ele>
      </trkpt>
      <trkpt lat="45.29723" lon="0.92987">
        <ele>159</ele>
      </trkpt>
      <trkpt lat="45.29728" lon="0.92998">
        <ele>158.3</ele>
      </trkpt>
      <trkpt lat="45.29734" lon="0.93004">
        <ele>158.3</ele>
      </trkpt>
      <trkpt lat="45.29737" lon="0.9301">
        <ele>158.4</ele>
      </trkpt>
      <trkpt lat="45.29744" lon="0.93026">
        <ele>158.6</ele>
      </trkpt>
      <trkpt lat="45.29749" lon="0.93039">
        <ele>159.3</ele>
      </trkpt>
      <trkpt lat="45.29754" lon="0.93051">
        <ele>160.2</ele>
      </trkpt>
      <trkpt lat="45.29758" lon="0.93058">
        <ele>160.6</ele>
      </trkpt>
      <trkpt lat="45.29762" lon="0.93066">
        <ele>160.8</ele>
      </trkpt>
      <trkpt lat="45.29764" lon="0.93074">
        <ele>161</ele>
      </trkpt>
      <trkpt lat="45.29767" lon="0.93086">
        <ele>161.1</ele>
      </trkpt>
      <trkpt lat="45.29768" lon="0.93095">
        <ele>160.9</ele>
      </trkpt>
      <trkpt lat="45.29768" lon="0.93104">
        <ele>160.5</ele>
      </trkpt>
      <trkpt lat="45.29767" lon="0.9311">
        <ele>160.3</ele>
      </trkpt>
      <trkpt lat="45.29767" lon="0.93115">
        <ele>163.2</ele>
        <time>2023-09-24T07:32:05Z</time>
      </trkpt>
      <trkpt lat="45.29747" lon="0.93165">
        <ele>161.6</ele>
        <time>2023-09-24T07:32:10Z</time>
      </trkpt>
      <trkpt lat="45.29722" lon="0.9322">
        <ele>162.3</ele>
        <time>2023-09-24T07:32:16Z</time>
      </trkpt>
      <trkpt lat="45.29718" lon="0.93228">
        <ele>162.5</ele>
        <time>2023-09-24T07:32:17Z</time>
      </trkpt>
      <trkpt lat="45.29709" lon="0.93252">
        <ele>163.1</ele>
        <time>2023-09-24T07:32:20Z</time>
      </trkpt>
      <trkpt lat="45.29707" lon="0.93259">
        <ele>163.2</ele>
        <time>2023-09-24T07:32:21Z</time>
      </trkpt>
      <trkpt lat="45.297" lon="0.93276">
        <ele>163.5</ele>
        <time>2023-09-24T07:32:24Z</time>
      </trkpt>
      <trkpt lat="45.29696" lon="0.93286">
        <ele>163.6</ele>
        <time>2023-09-24T07:32:26Z</time>
      </trkpt>
      <trkpt lat="45.29691" lon="0.93298">
        <ele>163.7</ele>
        <time>2023-09-24T07:32:28Z</time>
      </trkpt>
      <trkpt lat="45.29685" lon="0.93315">
        <ele>163.9</ele>
        <time>2023-09-24T07:32:31Z</time>
      </trkpt>
      <trkpt lat="45.29682" lon="0.93322">
        <ele>164</ele>
        <time>2023-09-24T07:32:32Z</time>
      </trkpt>
      <trkpt lat="45.29673" lon="0.93347">
        <ele>164.1</ele>
        <time>2023-09-24T07:32:36Z</time>
      </trkpt>
      <trkpt lat="45.29668" lon="0.93369">
        <ele>164.3</ele>
        <time>2023-09-24T07:32:40Z</time>
      </trkpt>
      <trkpt lat="45.29665" lon="0.93382">
        <ele>164.4</ele>
        <time>2023-09-24T07:32:42Z</time>
      </trkpt>
      <trkpt lat="45.2966" lon="0.93394">
        <ele>164.6</ele>
        <time>2023-09-24T07:32:44Z</time>
      </trkpt>
      <trkpt lat="45.29653" lon="0.93418">
        <ele>164.9</ele>
        <time>2023-09-24T07:32:48Z</time>
      </trkpt>
      <trkpt lat="45.29647" lon="0.93437">
        <ele>165.1</ele>
        <time>2023-09-24T07:32:51Z</time>
      </trkpt>
      <trkpt lat="45.29643" lon="0.93449">
        <ele>165.3</ele>
        <time>2023-09-24T07:32:53Z</time>
      </trkpt>
      <trkpt lat="45.29638" lon="0.93462">
        <ele>165.5</ele>
        <time>2023-09-24T07:32:55Z</time>
      </trkpt>
      <trkpt lat="45.29632" lon="0.93477">
        <ele>165.9</ele>
        <time>2023-09-24T07:32:58Z</time>
      </trkpt>
      <trkpt lat="45.29625" lon="0.93496">
        <ele>166.3</ele>
        <time>2023-09-24T07:33:02Z</time>
      </trkpt>
      <trkpt lat="45.29624" lon="0.935">
        <ele>166.3</ele>
        <time>2023-09-24T07:33:03Z</time>
      </trkpt>
      <trkpt lat="45.29618" lon="0.93517">
        <ele>166.2</ele>
        <time>2023-09-24T07:33:07Z</time>
      </trkpt>
      <trkpt lat="45.2961" lon="0.93533">
        <ele>165.8</ele>
        <time>2023-09-24T07:33:10Z</time>
      </trkpt>
      <trkpt lat="45.29605" lon="0.93545">
        <ele>165.6</ele>
        <time>2023-09-24T07:33:12Z</time>
      </trkpt>
      <trkpt lat="45.29599" lon="0.93557">
        <ele>165.5</ele>
        <time>2023-09-24T07:33:14Z</time>
      </trkpt>
      <trkpt lat="45.2959" lon="0.93576">
        <ele>165.5</ele>
        <time>2023-09-24T07:33:18Z</time>
      </trkpt>
      <trkpt lat="45.29586" lon="0.93585">
        <ele>165.2</ele>
        <time>2023-09-24T07:33:21Z</time>
      </trkpt>
      <trkpt lat="45.29584" lon="0.93588">
        <ele>165</ele>
        <time>2023-09-24T07:33:23Z</time>
      </trkpt>
      <trkpt lat="45.29583" lon="0.93592">
        <ele>164.8</ele>
        <time>2023-09-24T07:33:24Z</time>
      </trkpt>
      <trkpt lat="45.2958" lon="0.93597">
        <ele>164.6</ele>
        <time>2023-09-24T07:33:25Z</time>
      </trkpt>
      <trkpt lat="45.29574" lon="0.93607">
        <ele>163.9</ele>
        <time>2023-09-24T07:33:27Z</time>
      </trkpt>
      <trkpt lat="45.29569" lon="0.93618">
        <ele>163.2</ele>
        <time>2023-09-24T07:33:29Z</time>
      </trkpt>
      <trkpt lat="45.29558" lon="0.93646">
        <ele>161.9</ele>
        <time>2023-09-24T07:33:34Z</time>
      </trkpt>
      <trkpt lat="45.29537" lon="0.9368">
        <ele>160.4</ele>
        <time>2023-09-24T07:33:40Z</time>
      </trkpt>
      <trkpt lat="45.29516" lon="0.93712">
        <ele>158.7</ele>
        <time>2023-09-24T07:33:45Z</time>
      </trkpt>
      <trkpt lat="45.29509" lon="0.93729">
        <ele>158.3</ele>
        <time>2023-09-24T07:33:47Z</time>
      </trkpt>
      <trkpt lat="45.29504" lon="0.93746">
        <ele>158</ele>
        <time>2023-09-24T07:33:49Z</time>
      </trkpt>
      <trkpt lat="45.29499" lon="0.93762">
        <ele>157.9</ele>
        <time>2023-09-24T07:33:51Z</time>
      </trkpt>
      <trkpt lat="45.29496" lon="0.93778">
        <ele>158</ele>
        <time>2023-09-24T07:33:53Z</time>
      </trkpt>
      <trkpt lat="45.2949" lon="0.93796">
        <ele>158.2</ele>
        <time>2023-09-24T07:33:56Z</time>
      </trkpt>
      <trkpt lat="45.2948" lon="0.93797">
        <ele>157.9</ele>
        <time>2023-09-24T07:33:59Z</time>
      </trkpt>
      <trkpt lat="45.29478" lon="0.93795">
        <ele>157.9</ele>
        <time>2023-09-24T07:34:00Z</time>
      </trkpt>
      <trkpt lat="45.29478" lon="0.93793">
        <ele>157.9</ele>
        <time>2023-09-24T07:34:01Z</time>
      </trkpt>
      <trkpt lat="45.29476" lon="0.93791">
        <ele>157.9</ele>
        <time>2023-09-24T07:34:02Z</time>
      </trkpt>
      <trkpt lat="45.29471" lon="0.9379">
        <ele>157.9</ele>
        <time>2023-09-24T07:34:03Z</time>
      </trkpt>
      <trkpt lat="45.29453" lon="0.93784">
        <ele>158</ele>
        <time>2023-09-24T07:34:07Z</time>
      </trkpt>
      <trkpt lat="45.2944" lon="0.93781">
        <ele>158</ele>
        <time>2023-09-24T07:34:10Z</time>
      </trkpt>
      <trkpt lat="45.29432" lon="0.93778">
        <ele>158</ele>
        <time>2023-09-24T07:34:12Z</time>
      </trkpt>
      <trkpt lat="45.29416" lon="0.93769">
        <ele>157.9</ele>
        <time>2023-09-24T07:34:17Z</time>
      </trkpt>
      <trkpt lat="45.29401" lon="0.93768">
        <ele>158</ele>
        <time>2023-09-24T07:34:21Z</time>
      </trkpt>
      <trkpt lat="45.29395" lon="0.93769">
        <ele>158.1</ele>
        <time>2023-09-24T07:34:22Z</time>
      </trkpt>
      <trkpt lat="45.29381" lon="0.93767">
        <ele>158.2</ele>
        <time>2023-09-24T07:34:25Z</time>
      </trkpt>
      <trkpt lat="45.29369" lon="0.93756">
        <ele>158.4</ele>
        <time>2023-09-24T07:34:29Z</time>
      </trkpt>
      <trkpt lat="45.29363" lon="0.93742">
        <ele>158.8</ele>
        <time>2023-09-24T07:34:33Z</time>
      </trkpt>
      <trkpt lat="45.2937" lon="0.9372">
        <ele>159.4</ele>
        <time>2023-09-24T07:34:38Z</time>
      </trkpt>
      <trkpt lat="45.29372" lon="0.9371">
        <ele>159.8</ele>
        <time>2023-09-24T07:34:41Z</time>
      </trkpt>
      <trkpt lat="45.29375" lon="0.93706">
        <ele>160.1</ele>
        <time>2023-09-24T07:34:42Z</time>
      </trkpt>
      <trkpt lat="45.29382" lon="0.93692">
        <ele>160.8</ele>
        <time>2023-09-24T07:34:46Z</time>
      </trkpt>
      <trkpt lat="45.2939" lon="0.93676">
        <ele>161.7</ele>
        <time>2023-09-24T07:34:51Z</time>
      </trkpt>
      <trkpt lat="45.29396" lon="0.93665">
        <ele>162.2</ele>
        <time>2023-09-24T07:34:55Z</time>
      </trkpt>
      <trkpt lat="45.29397" lon="0.93663">
        <ele>162.3</ele>
        <time>2023-09-24T07:34:56Z</time>
      </trkpt>
      <trkpt lat="45.29399" lon="0.93657">
        <ele>162.5</ele>
        <time>2023-09-24T07:34:58Z</time>
      </trkpt>
      <trkpt lat="45.29401" lon="0.93649">
        <ele>162.8</ele>
        <time>2023-09-24T07:35:00Z</time>
      </trkpt>
      <trkpt lat="45.294" lon="0.93642">
        <ele>162.9</ele>
        <time>2023-09-24T07:35:02Z</time>
      </trkpt>
      <trkpt lat="45.29397" lon="0.93636">
        <ele>163.1</ele>
        <time>2023-09-24T07:35:04Z</time>
      </trkpt>
      <trkpt lat="45.29394" lon="0.93631">
        <ele>163.2</ele>
        <time>2023-09-24T07:35:06Z</time>
      </trkpt>
      <trkpt lat="45.29381" lon="0.93614">
        <ele>163.4</ele>
        <time>2023-09-24T07:35:12Z</time>
      </trkpt>
      <trkpt lat="45.29364" lon="0.93588">
        <ele>163</ele>
        <time>2023-09-24T07:35:19Z</time>
      </trkpt>
      <trkpt lat="45.29352" lon="0.93563">
        <ele>162.1</ele>
        <time>2023-09-24T07:35:24Z</time>
      </trkpt>
      <trkpt lat="45.29341" lon="0.93535">
        <ele>161.4</ele>
        <time>2023-09-24T07:35:29Z</time>
      </trkpt>
      <trkpt lat="45.29327" lon="0.93506">
        <ele>160.4</ele>
        <time>2023-09-24T07:35:34Z</time>
      </trkpt>
      <trkpt lat="45.29324" lon="0.935">
        <ele>160.1</ele>
        <time>2023-09-24T07:35:35Z</time>
      </trkpt>
      <trkpt lat="45.29315" lon="0.93477">
        <ele>159.4</ele>
        <time>2023-09-24T07:35:39Z</time>
      </trkpt>
      <trkpt lat="45.29312" lon="0.93472">
        <ele>159.2</ele>
        <time>2023-09-24T07:35:40Z</time>
      </trkpt>
      <trkpt lat="45.29304" lon="0.93459">
        <ele>159</ele>
        <time>2023-09-24T07:35:42Z</time>
      </trkpt>
      <trkpt lat="45.29295" lon="0.93444">
        <ele>158.8</ele>
        <time>2023-09-24T07:35:44Z</time>
      </trkpt>
      <trkpt lat="45.29286" lon="0.9343">
        <ele>158.7</ele>
        <time>2023-09-24T07:35:46Z</time>
      </trkpt>
      <trkpt lat="45.29278" lon="0.93416">
        <ele>158.2</ele>
        <time>2023-09-24T07:35:49Z</time>
      </trkpt>
      <trkpt lat="45.29285" lon="0.93402">
        <ele>157</ele>
        <time>2023-09-24T07:35:52Z</time>
      </trkpt>
      <trkpt lat="45.29288" lon="0.93397">
        <ele>156.5</ele>
        <time>2023-09-24T07:35:53Z</time>
      </trkpt>
      <trkpt lat="45.29292" lon="0.93385">
        <ele>155.7</ele>
        <time>2023-09-24T07:35:55Z</time>
      </trkpt>
      <trkpt lat="45.29294" lon="0.93375">
        <ele>155.2</ele>
        <time>2023-09-24T07:35:57Z</time>
      </trkpt>
      <trkpt lat="45.29295" lon="0.93356">
        <ele>150.1</ele>
      </trkpt>
      <trkpt lat="45.29294" lon="0.93343">
        <ele>149.9</ele>
      </trkpt>
      <trkpt lat="45.29294" lon="0.93328">
        <ele>149.6</ele>
      </trkpt>
      <trkpt lat="45.29296" lon="0.93317">
        <ele>149.5</ele>
      </trkpt>
      <trkpt lat="45.29297" lon="0.93306">
        <ele>149.4</ele>
      </trkpt>
      <trkpt lat="45.29297" lon="0.93295">
        <ele>148.8</ele>
      </trkpt>
      <trkpt lat="45.29296" lon="0.93285">
        <ele>148.3</ele>
      </trkpt>
      <trkpt lat="45.29293" lon="0.93275">
        <ele>147.4</ele>
      </trkpt>
      <trkpt lat="45.2929" lon="0.93267">
        <ele>146.6</ele>
      </trkpt>
      <trkpt lat="45.29284" lon="0.93251">
        <ele>145.3</ele>
      </trkpt>
      <trkpt lat="45.29284" lon="0.93238">
        <ele>143.4</ele>
      </trkpt>
      <trkpt lat="45.29284" lon="0.93223">
        <ele>141.3</ele>
      </trkpt>
      <trkpt lat="45.2928" lon="0.93206">
        <ele>141.1</ele>
      </trkpt>
      <trkpt lat="45.29274" lon="0.93199">
        <ele>140.9</ele>
      </trkpt>
      <trkpt lat="45.29269" lon="0.93198">
        <ele>143.9</ele>
        <time>2023-09-24T07:38:14Z</time>
      </trkpt>
      <trkpt lat="45.2924" lon="0.93187">
        <ele>144.3</ele>
        <time>2023-09-24T07:38:19Z</time>
      </trkpt>
      <trkpt lat="45.29235" lon="0.93186">
        <ele>144.6</ele>
        <time>2023-09-24T07:38:20Z</time>
      </trkpt>
      <trkpt lat="45.29217" lon="0.93178">
        <ele>145.1</ele>
        <time>2023-09-24T07:38:24Z</time>
      </trkpt>
      <trkpt lat="45.29213" lon="0.93175">
        <ele>145.3</ele>
        <time>2023-09-24T07:38:25Z</time>
      </trkpt>
      <trkpt lat="45.29194" lon="0.93165">
        <ele>145.3</ele>
        <time>2023-09-24T07:38:29Z</time>
      </trkpt>
      <trkpt lat="45.29189" lon="0.93162">
        <ele>145.2</ele>
        <time>2023-09-24T07:38:30Z</time>
      </trkpt>
      <trkpt lat="45.2918" lon="0.93156">
        <ele>144.9</ele>
        <time>2023-09-24T07:38:32Z</time>
      </trkpt>
      <trkpt lat="45.29171" lon="0.93148">
        <ele>144.6</ele>
        <time>2023-09-24T07:38:34Z</time>
      </trkpt>
      <trkpt lat="45.2916" lon="0.93139">
        <ele>144.1</ele>
        <time>2023-09-24T07:38:36Z</time>
      </trkpt>
      <trkpt lat="45.2915" lon="0.93128">
        <ele>143.8</ele>
        <time>2023-09-24T07:38:38Z</time>
      </trkpt>
      <trkpt lat="45.29141" lon="0.93115">
        <ele>143.5</ele>
        <time>2023-09-24T07:38:40Z</time>
      </trkpt>
      <trkpt lat="45.29123" lon="0.9309">
        <ele>142.9</ele>
        <time>2023-09-24T07:38:44Z</time>
      </trkpt>
      <trkpt lat="45.29104" lon="0.93066">
        <ele>142.4</ele>
        <time>2023-09-24T07:38:48Z</time>
      </trkpt>
      <trkpt lat="45.291" lon="0.9306">
        <ele>142.3</ele>
        <time>2023-09-24T07:38:49Z</time>
      </trkpt>
      <trkpt lat="45.29095" lon="0.93054">
        <ele>142.2</ele>
        <time>2023-09-24T07:38:50Z</time>
      </trkpt>
      <trkpt lat="45.29086" lon="0.93043">
        <ele>141.9</ele>
        <time>2023-09-24T07:38:52Z</time>
      </trkpt>
      <trkpt lat="45.29081" lon="0.93038">
        <ele>141.8</ele>
        <time>2023-09-24T07:38:53Z</time>
      </trkpt>
      <trkpt lat="45.29073" lon="0.93028">
        <ele>141.6</ele>
        <time>2023-09-24T07:38:55Z</time>
      </trkpt>
      <trkpt lat="45.29066" lon="0.93018">
        <ele>141.4</ele>
        <time>2023-09-24T07:38:57Z</time>
      </trkpt>
      <trkpt lat="45.29056" lon="0.93009">
        <ele>141</ele>
        <time>2023-09-24T07:38:59Z</time>
      </trkpt>
      <trkpt lat="45.29051" lon="0.93005">
        <ele>140.7</ele>
        <time>2023-09-24T07:39:00Z</time>
      </trkpt>
      <trkpt lat="45.29027" lon="0.92984">
        <ele>138.9</ele>
        <time>2023-09-24T07:39:04Z</time>
      </trkpt>
      <trkpt lat="45.29021" lon="0.92978">
        <ele>138.6</ele>
        <time>2023-09-24T07:39:05Z</time>
      </trkpt>
      <trkpt lat="45.29014" lon="0.92972">
        <ele>138.5</ele>
        <time>2023-09-24T07:39:06Z</time>
      </trkpt>
      <trkpt lat="45.28991" lon="0.92958">
        <ele>138</ele>
        <time>2023-09-24T07:39:09Z</time>
      </trkpt>
      <trkpt lat="45.28984" lon="0.92952">
        <ele>138</ele>
        <time>2023-09-24T07:39:10Z</time>
      </trkpt>
      <trkpt lat="45.28965" lon="0.92936">
        <ele>137.8</ele>
        <time>2023-09-24T07:39:13Z</time>
      </trkpt>
      <trkpt lat="45.2894" lon="0.92911">
        <ele>137</ele>
        <time>2023-09-24T07:39:17Z</time>
      </trkpt>
      <trkpt lat="45.28934" lon="0.92902">
        <ele>136.7</ele>
        <time>2023-09-24T07:39:18Z</time>
      </trkpt>
      <trkpt lat="45.28924" lon="0.92884">
        <ele>136.3</ele>
        <time>2023-09-24T07:39:20Z</time>
      </trkpt>
      <trkpt lat="45.28912" lon="0.92867">
        <ele>136.1</ele>
        <time>2023-09-24T07:39:22Z</time>
      </trkpt>
      <trkpt lat="45.28882" lon="0.92823">
        <ele>135.9</ele>
        <time>2023-09-24T07:39:28Z</time>
      </trkpt>
      <trkpt lat="45.28855" lon="0.92788">
        <ele>136</ele>
        <time>2023-09-24T07:39:34Z</time>
      </trkpt>
      <trkpt lat="45.28824" lon="0.92756">
        <ele>136.3</ele>
        <time>2023-09-24T07:39:40Z</time>
      </trkpt>
      <trkpt lat="45.28806" lon="0.92744">
        <ele>136.5</ele>
        <time>2023-09-24T07:39:43Z</time>
      </trkpt>
      <trkpt lat="45.28801" lon="0.92742">
        <ele>136.5</ele>
        <time>2023-09-24T07:39:44Z</time>
      </trkpt>
      <trkpt lat="45.28773" lon="0.92732">
        <ele>135.8</ele>
        <time>2023-09-24T07:39:49Z</time>
      </trkpt>
      <trkpt lat="45.28744" lon="0.92725">
        <ele>134.9</ele>
        <time>2023-09-24T07:39:53Z</time>
      </trkpt>
      <trkpt lat="45.28732" lon="0.92719">
        <ele>134.9</ele>
        <time>2023-09-24T07:39:55Z</time>
      </trkpt>
      <trkpt lat="45.28729" lon="0.92716">
        <ele>134.9</ele>
        <time>2023-09-24T07:39:56Z</time>
      </trkpt>
      <trkpt lat="45.28725" lon="0.92707">
        <ele>135.1</ele>
        <time>2023-09-24T07:39:59Z</time>
      </trkpt>
      <trkpt lat="45.28724" lon="0.92707">
        <ele>135.5</ele>
        <time>2023-09-24T07:40:00Z</time>
      </trkpt>
      <trkpt lat="45.28724" lon="0.92703">
        <ele>135.7</ele>
        <time>2023-09-24T07:55:39Z</time>
      </trkpt>
      <trkpt lat="45.28725" lon="0.92701">
        <ele>135.8</ele>
        <time>2023-09-24T07:55:40Z</time>
      </trkpt>
      <trkpt lat="45.28726" lon="0.927">
        <ele>135.9</ele>
        <time>2023-09-24T07:55:41Z</time>
      </trkpt>
      <trkpt lat="45.2873" lon="0.92695">
        <ele>136.2</ele>
        <time>2023-09-24T07:55:44Z</time>
      </trkpt>
      <trkpt lat="45.28731" lon="0.92693">
        <ele>136.3</ele>
        <time>2023-09-24T07:55:45Z</time>
      </trkpt>
      <trkpt lat="45.28734" lon="0.92689">
        <ele>136.6</ele>
        <time>2023-09-24T07:55:47Z</time>
      </trkpt>
      <trkpt lat="45.28737" lon="0.92686">
        <ele>136.9</ele>
        <time>2023-09-24T07:55:49Z</time>
      </trkpt>
      <trkpt lat="45.28747" lon="0.92672">
        <ele>138.1</ele>
        <time>2023-09-24T07:55:56Z</time>
      </trkpt>
      <trkpt lat="45.2875" lon="0.92668">
        <ele>138.4</ele>
        <time>2023-09-24T07:55:58Z</time>
      </trkpt>
      <trkpt lat="45.28753" lon="0.92664">
        <ele>138.7</ele>
        <time>2023-09-24T07:56:00Z</time>
      </trkpt>
      <trkpt lat="45.28757" lon="0.92659">
        <ele>139.2</ele>
        <time>2023-09-24T07:56:03Z</time>
      </trkpt>
      <trkpt lat="45.2876" lon="0.92655">
        <ele>139.5</ele>
        <time>2023-09-24T07:56:05Z</time>
      </trkpt>
      <trkpt lat="45.28769" lon="0.92642">
        <ele>140.6</ele>
        <time>2023-09-24T07:56:11Z</time>
      </trkpt>
      <trkpt lat="45.28773" lon="0.92627">
        <ele>141.4</ele>
        <time>2023-09-24T07:56:17Z</time>
      </trkpt>
      <trkpt lat="45.28773" lon="0.92625">
        <ele>141.5</ele>
        <time>2023-09-24T07:56:18Z</time>
      </trkpt>
      <trkpt lat="45.28776" lon="0.92618">
        <ele>141.9</ele>
        <time>2023-09-24T07:56:21Z</time>
      </trkpt>
      <trkpt lat="45.28778" lon="0.92616">
        <ele>142.1</ele>
        <time>2023-09-24T07:56:22Z</time>
      </trkpt>
      <trkpt lat="45.28784" lon="0.92608">
        <ele>142.7</ele>
        <time>2023-09-24T07:56:26Z</time>
      </trkpt>
      <trkpt lat="45.28787" lon="0.92603">
        <ele>143.1</ele>
        <time>2023-09-24T07:56:29Z</time>
      </trkpt>
      <trkpt lat="45.28789" lon="0.926">
        <ele>143.3</ele>
        <time>2023-09-24T07:56:31Z</time>
      </trkpt>
      <trkpt lat="45.28795" lon="0.92596">
        <ele>144</ele>
        <time>2023-09-24T07:56:35Z</time>
      </trkpt>
      <trkpt lat="45.28799" lon="0.92593">
        <ele>144.5</ele>
        <time>2023-09-24T07:56:38Z</time>
      </trkpt>
      <trkpt lat="45.28803" lon="0.9259">
        <ele>144.9</ele>
        <time>2023-09-24T07:56:40Z</time>
      </trkpt>
      <trkpt lat="45.28815" lon="0.92588">
        <ele>146.1</ele>
        <time>2023-09-24T07:56:45Z</time>
      </trkpt>
      <trkpt lat="45.28825" lon="0.92586">
        <ele>147</ele>
        <time>2023-09-24T07:56:49Z</time>
      </trkpt>
      <trkpt lat="45.28834" lon="0.92587">
        <ele>147.8</ele>
        <time>2023-09-24T07:56:52Z</time>
      </trkpt>
      <trkpt lat="45.28839" lon="0.92588">
        <ele>148.2</ele>
        <time>2023-09-24T07:56:55Z</time>
      </trkpt>
      <trkpt lat="45.28841" lon="0.92588">
        <ele>148.4</ele>
        <time>2023-09-24T07:56:57Z</time>
      </trkpt>
      <trkpt lat="45.28858" lon="0.92588">
        <ele>149.6</ele>
        <time>2023-09-24T07:57:02Z</time>
      </trkpt>
      <trkpt lat="45.28864" lon="0.92587">
        <ele>149.8</ele>
        <time>2023-09-24T07:57:04Z</time>
      </trkpt>
      <trkpt lat="45.28881" lon="0.92584">
        <ele>150.4</ele>
        <time>2023-09-24T07:57:10Z</time>
      </trkpt>
      <trkpt lat="45.28893" lon="0.9258">
        <ele>150.9</ele>
        <time>2023-09-24T07:57:15Z</time>
      </trkpt>
      <trkpt lat="45.28906" lon="0.92575">
        <ele>151.4</ele>
        <time>2023-09-24T07:57:21Z</time>
      </trkpt>
      <trkpt lat="45.28918" lon="0.9257">
        <ele>151.9</ele>
        <time>2023-09-24T07:57:27Z</time>
      </trkpt>
      <trkpt lat="45.28925" lon="0.92569">
        <ele>152.1</ele>
        <time>2023-09-24T07:57:30Z</time>
      </trkpt>
      <trkpt lat="45.28932" lon="0.92566">
        <ele>152.3</ele>
        <time>2023-09-24T07:57:33Z</time>
      </trkpt>
      <trkpt lat="45.2894" lon="0.92563">
        <ele>152.5</ele>
        <time>2023-09-24T07:57:37Z</time>
      </trkpt>
      <trkpt lat="45.28949" lon="0.92564">
        <ele>152.8</ele>
        <time>2023-09-24T07:57:41Z</time>
      </trkpt>
      <trkpt lat="45.2895" lon="0.92566">
        <ele>153</ele>
        <time>2023-09-24T07:57:42Z</time>
      </trkpt>
      <trkpt lat="45.2895" lon="0.92568">
        <ele>153.1</ele>
        <time>2023-09-24T07:57:43Z</time>
      </trkpt>
      <trkpt lat="45.28951" lon="0.92575">
        <ele>153.3</ele>
        <time>2023-09-24T07:57:46Z</time>
      </trkpt>
      <trkpt lat="45.28946" lon="0.92584">
        <ele>153.6</ele>
        <time>2023-09-24T07:57:50Z</time>
      </trkpt>
      <trkpt lat="45.28943" lon="0.92589">
        <ele>153.7</ele>
        <time>2023-09-24T07:57:52Z</time>
      </trkpt>
      <trkpt lat="45.28942" lon="0.92591">
        <ele>153.7</ele>
        <time>2023-09-24T07:57:53Z</time>
      </trkpt>
      <trkpt lat="45.28937" lon="0.926">
        <ele>153.9</ele>
        <time>2023-09-24T07:57:56Z</time>
      </trkpt>
      <trkpt lat="45.28936" lon="0.92604">
        <ele>154</ele>
        <time>2023-09-24T07:57:57Z</time>
      </trkpt>
      <trkpt lat="45.2893" lon="0.92611">
        <ele>154.1</ele>
        <time>2023-09-24T07:58:00Z</time>
      </trkpt>
      <trkpt lat="45.28933" lon="0.9262">
        <ele>154.2</ele>
        <time>2023-09-24T07:58:04Z</time>
      </trkpt>
      <trkpt lat="45.28941" lon="0.92628">
        <ele>154.4</ele>
        <time>2023-09-24T07:58:08Z</time>
      </trkpt>
      <trkpt lat="45.28942" lon="0.9263">
        <ele>154.5</ele>
        <time>2023-09-24T07:58:09Z</time>
      </trkpt>
      <trkpt lat="45.28953" lon="0.9264">
        <ele>154.8</ele>
        <time>2023-09-24T07:58:14Z</time>
      </trkpt>
      <trkpt lat="45.28957" lon="0.92646">
        <ele>155</ele>
        <time>2023-09-24T07:58:17Z</time>
      </trkpt>
      <trkpt lat="45.28959" lon="0.92648">
        <ele>155.1</ele>
        <time>2023-09-24T07:58:18Z</time>
      </trkpt>
      <trkpt lat="45.28965" lon="0.92655">
        <ele>155.4</ele>
        <time>2023-09-24T07:58:21Z</time>
      </trkpt>
      <trkpt lat="45.28973" lon="0.92665">
        <ele>155.8</ele>
        <time>2023-09-24T07:58:26Z</time>
      </trkpt>
      <trkpt lat="45.2898" lon="0.92672">
        <ele>156.1</ele>
        <time>2023-09-24T07:58:30Z</time>
      </trkpt>
      <trkpt lat="45.28989" lon="0.92679">
        <ele>156.5</ele>
        <time>2023-09-24T07:58:34Z</time>
      </trkpt>
      <trkpt lat="45.28992" lon="0.92681">
        <ele>156.6</ele>
        <time>2023-09-24T07:58:35Z</time>
      </trkpt>
      <trkpt lat="45.28998" lon="0.92688">
        <ele>157</ele>
        <time>2023-09-24T07:58:39Z</time>
      </trkpt>
      <trkpt lat="45.29005" lon="0.92693">
        <ele>157.2</ele>
        <time>2023-09-24T07:58:43Z</time>
      </trkpt>
      <trkpt lat="45.2901" lon="0.92698">
        <ele>157.4</ele>
        <time>2023-09-24T07:58:46Z</time>
      </trkpt>
      <trkpt lat="45.29014" lon="0.92702">
        <ele>157.6</ele>
        <time>2023-09-24T07:58:48Z</time>
      </trkpt>
      <trkpt lat="45.2902" lon="0.92709">
        <ele>157.9</ele>
        <time>2023-09-24T07:58:52Z</time>
      </trkpt>
      <trkpt lat="45.29023" lon="0.9271">
        <ele>158</ele>
        <time>2023-09-24T07:58:53Z</time>
      </trkpt>
      <trkpt lat="45.29027" lon="0.92717">
        <ele>158.1</ele>
        <time>2023-09-24T07:58:56Z</time>
      </trkpt>
      <trkpt lat="45.2903" lon="0.92722">
        <ele>158.2</ele>
        <time>2023-09-24T07:58:58Z</time>
      </trkpt>
      <trkpt lat="45.29045" lon="0.92737">
        <ele>158.6</ele>
        <time>2023-09-24T07:59:04Z</time>
      </trkpt>
      <trkpt lat="45.29053" lon="0.92746">
        <ele>158.8</ele>
        <time>2023-09-24T07:59:08Z</time>
      </trkpt>
      <trkpt lat="45.29056" lon="0.92749">
        <ele>158.9</ele>
        <time>2023-09-24T07:59:09Z</time>
      </trkpt>
      <trkpt lat="45.29062" lon="0.92762">
        <ele>159.1</ele>
        <time>2023-09-24T07:59:13Z</time>
      </trkpt>
      <trkpt lat="45.29066" lon="0.92769">
        <ele>159.2</ele>
        <time>2023-09-24T07:59:15Z</time>
      </trkpt>
      <trkpt lat="45.2907" lon="0.92775">
        <ele>159.3</ele>
        <time>2023-09-24T07:59:17Z</time>
      </trkpt>
      <trkpt lat="45.29079" lon="0.92785">
        <ele>159.5</ele>
        <time>2023-09-24T07:59:21Z</time>
      </trkpt>
      <trkpt lat="45.29086" lon="0.92792">
        <ele>159.6</ele>
        <time>2023-09-24T07:59:25Z</time>
      </trkpt>
      <trkpt lat="45.29091" lon="0.928">
        <ele>159.6</ele>
        <time>2023-09-24T07:59:28Z</time>
      </trkpt>
      <trkpt lat="45.29092" lon="0.92804">
        <ele>159.6</ele>
        <time>2023-09-24T07:59:29Z</time>
      </trkpt>
      <trkpt lat="45.29096" lon="0.92816">
        <ele>159.4</ele>
        <time>2023-09-24T07:59:32Z</time>
      </trkpt>
      <trkpt lat="45.29096" lon="0.92821">
        <ele>159.2</ele>
        <time>2023-09-24T07:59:33Z</time>
      </trkpt>
      <trkpt lat="45.29096" lon="0.92826">
        <ele>159.1</ele>
        <time>2023-09-24T07:59:34Z</time>
      </trkpt>
      <trkpt lat="45.29098" lon="0.92829">
        <ele>159</ele>
        <time>2023-09-24T07:59:35Z</time>
      </trkpt>
      <trkpt lat="45.29104" lon="0.92839">
        <ele>158.7</ele>
        <time>2023-09-24T07:59:38Z</time>
      </trkpt>
      <trkpt lat="45.29109" lon="0.92847">
        <ele>158.3</ele>
        <time>2023-09-24T07:59:40Z</time>
      </trkpt>
      <trkpt lat="45.29109" lon="0.92852">
        <ele>158.2</ele>
        <time>2023-09-24T07:59:41Z</time>
      </trkpt>
      <trkpt lat="45.29111" lon="0.92858">
        <ele>157.9</ele>
        <time>2023-09-24T07:59:42Z</time>
      </trkpt>
      <trkpt lat="45.29117" lon="0.92869">
        <ele>157.4</ele>
        <time>2023-09-24T07:59:44Z</time>
      </trkpt>
      <trkpt lat="45.29118" lon="0.92876">
        <ele>157.2</ele>
        <time>2023-09-24T07:59:45Z</time>
      </trkpt>
      <trkpt lat="45.29118" lon="0.92881">
        <ele>157</ele>
        <time>2023-09-24T07:59:46Z</time>
      </trkpt>
      <trkpt lat="45.29118" lon="0.92887">
        <ele>156.7</ele>
        <time>2023-09-24T07:59:47Z</time>
      </trkpt>
      <trkpt lat="45.29121" lon="0.92901">
        <ele>156</ele>
        <time>2023-09-24T07:59:49Z</time>
      </trkpt>
      <trkpt lat="45.29126" lon="0.92908">
        <ele>155.4</ele>
        <time>2023-09-24T07:59:50Z</time>
      </trkpt>
      <trkpt lat="45.2913" lon="0.92916">
        <ele>154.9</ele>
        <time>2023-09-24T07:59:51Z</time>
      </trkpt>
      <trkpt lat="45.29131" lon="0.92926">
        <ele>154.3</ele>
        <time>2023-09-24T07:59:52Z</time>
      </trkpt>
      <trkpt lat="45.29132" lon="0.92944">
        <ele>153.5</ele>
        <time>2023-09-24T07:59:54Z</time>
      </trkpt>
      <trkpt lat="45.29132" lon="0.92949">
        <ele>153.3</ele>
        <time>2023-09-24T07:59:55Z</time>
      </trkpt>
      <trkpt lat="45.29137" lon="0.92958">
        <ele>152.9</ele>
        <time>2023-09-24T07:59:57Z</time>
      </trkpt>
      <trkpt lat="45.29152" lon="0.92977">
        <ele>152.5</ele>
        <time>2023-09-24T08:00:02Z</time>
      </trkpt>
      <trkpt lat="45.29156" lon="0.92978">
        <ele>152.5</ele>
        <time>2023-09-24T08:00:03Z</time>
      </trkpt>
      <trkpt lat="45.29177" lon="0.92983">
        <ele>152.5</ele>
        <time>2023-09-24T08:00:08Z</time>
      </trkpt>
      <trkpt lat="45.29184" lon="0.92991">
        <ele>152.4</ele>
        <time>2023-09-24T08:00:10Z</time>
      </trkpt>
      <trkpt lat="45.29186" lon="0.92997">
        <ele>152.3</ele>
        <time>2023-09-24T08:00:11Z</time>
      </trkpt>
      <trkpt lat="45.29188" lon="0.93003">
        <ele>152.1</ele>
        <time>2023-09-24T08:00:12Z</time>
      </trkpt>
      <trkpt lat="45.29192" lon="0.93016">
        <ele>151.7</ele>
        <time>2023-09-24T08:00:14Z</time>
      </trkpt>
      <trkpt lat="45.29198" lon="0.93025">
        <ele>151.4</ele>
        <time>2023-09-24T08:00:16Z</time>
      </trkpt>
      <trkpt lat="45.29206" lon="0.93034">
        <ele>151.2</ele>
        <time>2023-09-24T08:00:18Z</time>
      </trkpt>
      <trkpt lat="45.29209" lon="0.93039">
        <ele>151.1</ele>
        <time>2023-09-24T08:00:19Z</time>
      </trkpt>
      <trkpt lat="45.29215" lon="0.93049">
        <ele>150.8</ele>
        <time>2023-09-24T08:00:21Z</time>
      </trkpt>
      <trkpt lat="45.29218" lon="0.93052">
        <ele>150.7</ele>
        <time>2023-09-24T08:00:22Z</time>
      </trkpt>
      <trkpt lat="45.29222" lon="0.93054">
        <ele>150.4</ele>
        <time>2023-09-24T08:00:23Z</time>
      </trkpt>
      <trkpt lat="45.29231" lon="0.93054">
        <ele>150</ele>
        <time>2023-09-24T08:00:25Z</time>
      </trkpt>
      <trkpt lat="45.29243" lon="0.93064">
        <ele>149.2</ele>
        <time>2023-09-24T08:00:28Z</time>
      </trkpt>
      <trkpt lat="45.29247" lon="0.93063">
        <ele>149.1</ele>
        <time>2023-09-24T08:00:31Z</time>
      </trkpt>
      <trkpt lat="45.29252" lon="0.9305">
        <ele>148.9</ele>
        <time>2023-09-24T08:00:35Z</time>
      </trkpt>
      <trkpt lat="45.29252" lon="0.93033">
        <ele>148.8</ele>
        <time>2023-09-24T08:00:39Z</time>
      </trkpt>
      <trkpt lat="45.29256" lon="0.93018">
        <ele>148.9</ele>
        <time>2023-09-24T08:00:42Z</time>
      </trkpt>
      <trkpt lat="45.29257" lon="0.93012">
        <ele>148.9</ele>
        <time>2023-09-24T08:00:43Z</time>
      </trkpt>
      <trkpt lat="45.29258" lon="0.93007">
        <ele>149</ele>
        <time>2023-09-24T08:00:44Z</time>
      </trkpt>
      <trkpt lat="45.29258" lon="0.92991">
        <ele>149.3</ele>
        <time>2023-09-24T08:00:47Z</time>
      </trkpt>
      <trkpt lat="45.2926" lon="0.92966">
        <ele>149.7</ele>
        <time>2023-09-24T08:00:52Z</time>
      </trkpt>
      <trkpt lat="45.29263" lon="0.92956">
        <ele>149.8</ele>
        <time>2023-09-24T08:00:54Z</time>
      </trkpt>
      <trkpt lat="45.29265" lon="0.92951">
        <ele>149.8</ele>
        <time>2023-09-24T08:00:55Z</time>
      </trkpt>
      <trkpt lat="45.29273" lon="0.92937">
        <ele>149.9</ele>
        <time>2023-09-24T08:00:58Z</time>
      </trkpt>
      <trkpt lat="45.29275" lon="0.92932">
        <ele>150</ele>
        <time>2023-09-24T08:00:59Z</time>
      </trkpt>
      <trkpt lat="45.29278" lon="0.92919">
        <ele>150.3</ele>
        <time>2023-09-24T08:01:02Z</time>
      </trkpt>
      <trkpt lat="45.2928" lon="0.92915">
        <ele>150.4</ele>
        <time>2023-09-24T08:01:03Z</time>
      </trkpt>
      <trkpt lat="45.29287" lon="0.92903">
        <ele>150.7</ele>
        <time>2023-09-24T08:01:07Z</time>
      </trkpt>
      <trkpt lat="45.29292" lon="0.9289">
        <ele>151</ele>
        <time>2023-09-24T08:01:10Z</time>
      </trkpt>
      <trkpt lat="45.29299" lon="0.92875">
        <ele>151.3</ele>
        <time>2023-09-24T08:01:13Z</time>
      </trkpt>
      <trkpt lat="45.293" lon="0.9287">
        <ele>151.4</ele>
        <time>2023-09-24T08:01:14Z</time>
      </trkpt>
      <trkpt lat="45.29305" lon="0.9286">
        <ele>151.6</ele>
        <time>2023-09-24T08:01:16Z</time>
      </trkpt>
      <trkpt lat="45.29307" lon="0.9285">
        <ele>151.9</ele>
        <time>2023-09-24T08:01:18Z</time>
      </trkpt>
      <trkpt lat="45.29306" lon="0.92826">
        <ele>152.6</ele>
        <time>2023-09-24T08:01:22Z</time>
      </trkpt>
      <trkpt lat="45.29301" lon="0.92821">
        <ele>152.9</ele>
        <time>2023-09-24T08:01:24Z</time>
      </trkpt>
      <trkpt lat="45.29297" lon="0.92817">
        <ele>153.2</ele>
        <time>2023-09-24T08:01:26Z</time>
      </trkpt>
      <trkpt lat="45.29294" lon="0.92812">
        <ele>153.4</ele>
        <time>2023-09-24T08:01:28Z</time>
      </trkpt>
      <trkpt lat="45.29293" lon="0.9281">
        <ele>153.5</ele>
        <time>2023-09-24T08:01:29Z</time>
      </trkpt>
      <trkpt lat="45.29296" lon="0.92804">
        <ele>153.7</ele>
        <time>2023-09-24T08:01:32Z</time>
      </trkpt>
      <trkpt lat="45.29297" lon="0.92789">
        <ele>154.3</ele>
        <time>2023-09-24T08:01:36Z</time>
      </trkpt>
      <trkpt lat="45.29302" lon="0.92778">
        <ele>154.6</ele>
        <time>2023-09-24T08:01:40Z</time>
      </trkpt>
      <trkpt lat="45.29308" lon="0.92761">
        <ele>154.9</ele>
        <time>2023-09-24T08:01:45Z</time>
      </trkpt>
      <trkpt lat="45.2931" lon="0.92757">
        <ele>155.1</ele>
        <time>2023-09-24T08:01:46Z</time>
      </trkpt>
      <trkpt lat="45.29314" lon="0.92747">
        <ele>155.4</ele>
        <time>2023-09-24T08:01:49Z</time>
      </trkpt>
      <trkpt lat="45.29314" lon="0.92742">
        <ele>155.6</ele>
        <time>2023-09-24T08:01:51Z</time>
      </trkpt>
      <trkpt lat="45.29311" lon="0.92737">
        <ele>155.8</ele>
        <time>2023-09-24T08:01:53Z</time>
      </trkpt>
      <trkpt lat="45.29309" lon="0.92736">
        <ele>155.9</ele>
        <time>2023-09-24T08:01:54Z</time>
      </trkpt>
      <trkpt lat="45.29305" lon="0.92732">
        <ele>156.3</ele>
        <time>2023-09-24T08:01:57Z</time>
      </trkpt>
      <trkpt lat="45.29301" lon="0.92727">
        <ele>156.6</ele>
        <time>2023-09-24T08:02:01Z</time>
      </trkpt>
      <trkpt lat="45.29296" lon="0.92721">
        <ele>157</ele>
        <time>2023-09-24T08:02:05Z</time>
      </trkpt>
      <trkpt lat="45.29291" lon="0.92712">
        <ele>157.5</ele>
        <time>2023-09-24T08:02:09Z</time>
      </trkpt>
      <trkpt lat="45.29281" lon="0.92703">
        <ele>158.1</ele>
        <time>2023-09-24T08:02:13Z</time>
      </trkpt>
      <trkpt lat="45.29272" lon="0.92694">
        <ele>158.7</ele>
        <time>2023-09-24T08:02:18Z</time>
      </trkpt>
      <trkpt lat="45.29269" lon="0.9269">
        <ele>159</ele>
        <time>2023-09-24T08:02:20Z</time>
      </trkpt>
      <trkpt lat="45.29268" lon="0.92688">
        <ele>159.1</ele>
        <time>2023-09-24T08:02:21Z</time>
      </trkpt>
      <trkpt lat="45.29271" lon="0.92687">
        <ele>159.3</ele>
        <time>2023-09-24T08:02:23Z</time>
      </trkpt>
      <trkpt lat="45.29273" lon="0.92686">
        <ele>159.5</ele>
        <time>2023-09-24T08:02:24Z</time>
      </trkpt>
      <trkpt lat="45.29276" lon="0.92685">
        <ele>159.7</ele>
        <time>2023-09-24T08:02:25Z</time>
      </trkpt>
      <trkpt lat="45.29279" lon="0.92683">
        <ele>159.8</ele>
        <time>2023-09-24T08:02:26Z</time>
      </trkpt>
      <trkpt lat="45.29281" lon="0.92679">
        <ele>160</ele>
        <time>2023-09-24T08:02:27Z</time>
      </trkpt>
      <trkpt lat="45.29287" lon="0.92669">
        <ele>160.5</ele>
        <time>2023-09-24T08:02:30Z</time>
      </trkpt>
      <trkpt lat="45.29293" lon="0.92665">
        <ele>160.8</ele>
        <time>2023-09-24T08:02:32Z</time>
      </trkpt>
      <trkpt lat="45.29302" lon="0.92649">
        <ele>161.5</ele>
        <time>2023-09-24T08:02:37Z</time>
      </trkpt>
      <trkpt lat="45.29306" lon="0.92643">
        <ele>161.7</ele>
        <time>2023-09-24T08:02:39Z</time>
      </trkpt>
      <trkpt lat="45.29306" lon="0.92637">
        <ele>161.9</ele>
        <time>2023-09-24T08:02:41Z</time>
      </trkpt>
      <trkpt lat="45.29314" lon="0.92639">
        <ele>162.3</ele>
        <time>2023-09-24T08:02:43Z</time>
      </trkpt>
      <trkpt lat="45.29314" lon="0.92641">
        <ele>162.4</ele>
        <time>2023-09-24T08:02:44Z</time>
      </trkpt>
      <trkpt lat="45.29314" lon="0.92644">
        <ele>162.5</ele>
        <time>2023-09-24T08:02:46Z</time>
      </trkpt>
      <trkpt lat="45.29313" lon="0.92645">
        <ele>162.6</ele>
        <time>2023-09-24T08:02:47Z</time>
      </trkpt>
      <trkpt lat="45.29302" lon="0.92639">
        <ele>162.6</ele>
        <time>2023-09-24T08:02:51Z</time>
      </trkpt>
      <trkpt lat="45.29294" lon="0.92631">
        <ele>162.6</ele>
        <time>2023-09-24T08:02:54Z</time>
      </trkpt>
      <trkpt lat="45.2929" lon="0.92626">
        <ele>162.6</ele>
        <time>2023-09-24T08:02:56Z</time>
      </trkpt>
      <trkpt lat="45.29289" lon="0.92622">
        <ele>162.6</ele>
        <time>2023-09-24T08:02:57Z</time>
      </trkpt>
      <trkpt lat="45.29283" lon="0.92612">
        <ele>162.7</ele>
        <time>2023-09-24T08:03:01Z</time>
      </trkpt>
      <trkpt lat="45.29277" lon="0.92606">
        <ele>162.6</ele>
        <time>2023-09-24T08:03:04Z</time>
      </trkpt>
      <trkpt lat="45.29275" lon="0.92604">
        <ele>162.5</ele>
        <time>2023-09-24T08:03:05Z</time>
      </trkpt>
      <trkpt lat="45.29263" lon="0.92595">
        <ele>162</ele>
        <time>2023-09-24T08:03:08Z</time>
      </trkpt>
      <trkpt lat="45.2925" lon="0.92582">
        <ele>161.3</ele>
        <time>2023-09-24T08:03:12Z</time>
      </trkpt>
      <trkpt lat="45.2924" lon="0.92571">
        <ele>160.9</ele>
        <time>2023-09-24T08:03:15Z</time>
      </trkpt>
      <trkpt lat="45.29238" lon="0.92568">
        <ele>160.9</ele>
        <time>2023-09-24T08:03:16Z</time>
      </trkpt>
      <trkpt lat="45.29227" lon="0.92557">
        <ele>160.7</ele>
        <time>2023-09-24T08:03:19Z</time>
      </trkpt>
      <trkpt lat="45.29215" lon="0.92542">
        <ele>160.5</ele>
        <time>2023-09-24T08:03:23Z</time>
      </trkpt>
      <trkpt lat="45.29211" lon="0.92532">
        <ele>160.4</ele>
        <time>2023-09-24T08:03:25Z</time>
      </trkpt>
      <trkpt lat="45.29211" lon="0.92522">
        <ele>160.4</ele>
        <time>2023-09-24T08:03:27Z</time>
      </trkpt>
      <trkpt lat="45.29208" lon="0.92493">
        <ele>161.1</ele>
        <time>2023-09-24T08:03:33Z</time>
      </trkpt>
      <trkpt lat="45.29207" lon="0.92489">
        <ele>161.2</ele>
        <time>2023-09-24T08:03:34Z</time>
      </trkpt>
      <trkpt lat="45.29204" lon="0.92481">
        <ele>161.5</ele>
        <time>2023-09-24T08:03:36Z</time>
      </trkpt>
      <trkpt lat="45.29205" lon="0.92469">
        <ele>162</ele>
        <time>2023-09-24T08:03:39Z</time>
      </trkpt>
      <trkpt lat="45.29203" lon="0.92467">
        <ele>162.3</ele>
        <time>2023-09-24T08:03:40Z</time>
      </trkpt>
      <trkpt lat="45.29199" lon="0.92465">
        <ele>162.2</ele>
        <time>2023-09-24T08:03:43Z</time>
      </trkpt>
      <trkpt lat="45.29181" lon="0.92464">
        <ele>162</ele>
        <time>2023-09-24T08:03:48Z</time>
      </trkpt>
      <trkpt lat="45.29181" lon="0.92463">
        <ele>162</ele>
        <time>2023-09-24T08:03:49Z</time>
      </trkpt>
      <trkpt lat="45.29181" lon="0.92447">
        <ele>161.7</ele>
        <time>2023-09-24T08:04:03Z</time>
      </trkpt>
      <trkpt lat="45.29179" lon="0.92437">
        <ele>161.7</ele>
        <time>2023-09-24T08:04:05Z</time>
      </trkpt>
      <trkpt lat="45.29173" lon="0.92412">
        <ele>161.5</ele>
        <time>2023-09-24T08:04:10Z</time>
      </trkpt>
      <trkpt lat="45.29169" lon="0.92394">
        <ele>161.5</ele>
        <time>2023-09-24T08:04:13Z</time>
      </trkpt>
      <trkpt lat="45.29167" lon="0.92388">
        <ele>161.5</ele>
        <time>2023-09-24T08:04:14Z</time>
      </trkpt>
      <trkpt lat="45.29159" lon="0.92359">
        <ele>161.5</ele>
        <time>2023-09-24T08:04:19Z</time>
      </trkpt>
      <trkpt lat="45.29147" lon="0.92342">
        <ele>161.8</ele>
        <time>2023-09-24T08:04:23Z</time>
      </trkpt>
      <trkpt lat="45.29145" lon="0.92338">
        <ele>161.8</ele>
        <time>2023-09-24T08:04:24Z</time>
      </trkpt>
      <trkpt lat="45.29142" lon="0.92329">
        <ele>161.9</ele>
        <time>2023-09-24T08:04:26Z</time>
      </trkpt>
      <trkpt lat="45.2914" lon="0.92316">
        <ele>162</ele>
        <time>2023-09-24T08:04:29Z</time>
      </trkpt>
      <trkpt lat="45.29138" lon="0.92313">
        <ele>162.1</ele>
        <time>2023-09-24T08:04:30Z</time>
      </trkpt>
      <trkpt lat="45.29128" lon="0.92293">
        <ele>162.4</ele>
        <time>2023-09-24T08:04:35Z</time>
      </trkpt>
      <trkpt lat="45.29123" lon="0.92276">
        <ele>162.5</ele>
        <time>2023-09-24T08:04:39Z</time>
      </trkpt>
      <trkpt lat="45.2912" lon="0.92259">
        <ele>162.6</ele>
        <time>2023-09-24T08:04:42Z</time>
      </trkpt>
      <trkpt lat="45.29117" lon="0.92249">
        <ele>162.7</ele>
        <time>2023-09-24T08:04:44Z</time>
      </trkpt>
      <trkpt lat="45.2911" lon="0.92226">
        <ele>162.5</ele>
        <time>2023-09-24T08:04:48Z</time>
      </trkpt>
      <trkpt lat="45.29108" lon="0.9222">
        <ele>162.3</ele>
        <time>2023-09-24T08:04:49Z</time>
      </trkpt>
      <trkpt lat="45.29104" lon="0.92208">
        <ele>161.8</ele>
        <time>2023-09-24T08:04:51Z</time>
      </trkpt>
      <trkpt lat="45.29097" lon="0.92188">
        <ele>160.9</ele>
        <time>2023-09-24T08:04:54Z</time>
      </trkpt>
      <trkpt lat="45.29087" lon="0.92166">
        <ele>159.8</ele>
        <time>2023-09-24T08:04:57Z</time>
      </trkpt>
      <trkpt lat="45.29085" lon="0.92156">
        <ele>159.3</ele>
        <time>2023-09-24T08:04:59Z</time>
      </trkpt>
      <trkpt lat="45.29084" lon="0.92155">
        <ele>159.2</ele>
        <time>2023-09-24T08:05:00Z</time>
      </trkpt>
      <trkpt lat="45.29083" lon="0.92154">
        <ele>159.1</ele>
        <time>2023-09-24T08:05:59Z</time>
      </trkpt>
      <trkpt lat="45.29085" lon="0.92158">
        <ele>158.9</ele>
        <time>2023-09-24T08:06:01Z</time>
      </trkpt>
      <trkpt lat="45.29086" lon="0.92161">
        <ele>158.8</ele>
        <time>2023-09-24T08:06:03Z</time>
      </trkpt>
      <trkpt lat="45.29088" lon="0.92167">
        <ele>158.5</ele>
        <time>2023-09-24T08:06:06Z</time>
      </trkpt>
      <trkpt lat="45.29092" lon="0.92174">
        <ele>159.4</ele>
        <time>2023-09-24T08:06:12Z</time>
      </trkpt>
      <trkpt lat="45.29094" lon="0.92175">
        <ele>159.4</ele>
        <time>2023-09-24T08:06:15Z</time>
      </trkpt>
      <trkpt lat="45.29098" lon="0.92173">
        <ele>159.6</ele>
        <time>2023-09-24T08:06:19Z</time>
      </trkpt>
      <trkpt lat="45.291" lon="0.92172">
        <ele>159.9</ele>
        <time>2023-09-24T08:06:20Z</time>
      </trkpt>
      <trkpt lat="45.29108" lon="0.92167">
        <ele>160.8</ele>
        <time>2023-09-24T08:06:24Z</time>
      </trkpt>
      <trkpt lat="45.2911" lon="0.92164">
        <ele>160.7</ele>
        <time>2023-09-24T08:06:25Z</time>
      </trkpt>
      <trkpt lat="45.29112" lon="0.92161">
        <ele>161</ele>
        <time>2023-09-24T08:06:26Z</time>
      </trkpt>
      <trkpt lat="45.29117" lon="0.92159">
        <ele>161.5</ele>
        <time>2023-09-24T08:06:28Z</time>
      </trkpt>
      <trkpt lat="45.29118" lon="0.92158">
        <ele>161.5</ele>
        <time>2023-09-24T08:06:29Z</time>
      </trkpt>
      <trkpt lat="45.29123" lon="0.9215">
        <ele>161.6</ele>
        <time>2023-09-24T08:06:32Z</time>
      </trkpt>
      <trkpt lat="45.29127" lon="0.9215">
        <ele>162</ele>
        <time>2023-09-24T08:06:34Z</time>
      </trkpt>
      <trkpt lat="45.29129" lon="0.92148">
        <ele>162.1</ele>
        <time>2023-09-24T08:06:35Z</time>
      </trkpt>
      <trkpt lat="45.2913" lon="0.92145">
        <ele>162.1</ele>
        <time>2023-09-24T08:06:36Z</time>
      </trkpt>
      <trkpt lat="45.29132" lon="0.92138">
        <ele>161.9</ele>
        <time>2023-09-24T08:06:38Z</time>
      </trkpt>
      <trkpt lat="45.29134" lon="0.92137">
        <ele>162.4</ele>
        <time>2023-09-24T08:06:39Z</time>
      </trkpt>
      <trkpt lat="45.29138" lon="0.92134">
        <ele>162.5</ele>
        <time>2023-09-24T08:06:41Z</time>
      </trkpt>
      <trkpt lat="45.29141" lon="0.9213">
        <ele>162.7</ele>
        <time>2023-09-24T08:06:43Z</time>
      </trkpt>
      <trkpt lat="45.29141" lon="0.92127">
        <ele>162.8</ele>
        <time>2023-09-24T08:06:44Z</time>
      </trkpt>
      <trkpt lat="45.29143" lon="0.92116">
        <ele>161.8</ele>
        <time>2023-09-24T08:06:47Z</time>
      </trkpt>
      <trkpt lat="45.29145" lon="0.92113">
        <ele>161.8</ele>
        <time>2023-09-24T08:06:48Z</time>
      </trkpt>
      <trkpt lat="45.29148" lon="0.92105">
        <ele>161.5</ele>
        <time>2023-09-24T08:06:50Z</time>
      </trkpt>
      <trkpt lat="45.29154" lon="0.92094">
        <ele>161.6</ele>
        <time>2023-09-24T08:06:53Z</time>
      </trkpt>
      <trkpt lat="45.29155" lon="0.92091">
        <ele>161.3</ele>
        <time>2023-09-24T08:06:54Z</time>
      </trkpt>
      <trkpt lat="45.2916" lon="0.92079">
        <ele>161.4</ele>
        <time>2023-09-24T08:06:57Z</time>
      </trkpt>
      <trkpt lat="45.29166" lon="0.92074">
        <ele>161.4</ele>
        <time>2023-09-24T08:07:00Z</time>
      </trkpt>
      <trkpt lat="45.29167" lon="0.92074">
        <ele>161.4</ele>
        <time>2023-09-24T08:07:01Z</time>
      </trkpt>
      <trkpt lat="45.29175" lon="0.92072">
        <ele>162.4</ele>
        <time>2023-09-24T08:07:05Z</time>
      </trkpt>
      <trkpt lat="45.29177" lon="0.92073">
        <ele>162.8</ele>
        <time>2023-09-24T08:07:06Z</time>
      </trkpt>
      <trkpt lat="45.29187" lon="0.92073">
        <ele>163.6</ele>
        <time>2023-09-24T08:07:12Z</time>
      </trkpt>
      <trkpt lat="45.29194" lon="0.92063">
        <ele>163.2</ele>
        <time>2023-09-24T08:07:17Z</time>
      </trkpt>
      <trkpt lat="45.29194" lon="0.92053">
        <ele>161.9</ele>
        <time>2023-09-24T08:07:20Z</time>
      </trkpt>
      <trkpt lat="45.29194" lon="0.92052">
        <ele>161.9</ele>
        <time>2023-09-24T08:07:21Z</time>
      </trkpt>
      <trkpt lat="45.29193" lon="0.9205">
        <ele>161.9</ele>
        <time>2023-09-24T08:07:22Z</time>
      </trkpt>
      <trkpt lat="45.29188" lon="0.92048">
        <ele>161</ele>
        <time>2023-09-24T08:07:24Z</time>
      </trkpt>
      <trkpt lat="45.29186" lon="0.92047">
        <ele>161</ele>
        <time>2023-09-24T08:07:25Z</time>
      </trkpt>
      <trkpt lat="45.29183" lon="0.92041">
        <ele>160.4</ele>
        <time>2023-09-24T08:07:27Z</time>
      </trkpt>
      <trkpt lat="45.29182" lon="0.92038">
        <ele>159.9</ele>
        <time>2023-09-24T08:07:28Z</time>
      </trkpt>
      <trkpt lat="45.29182" lon="0.92029">
        <ele>159.2</ele>
        <time>2023-09-24T08:07:30Z</time>
      </trkpt>
      <trkpt lat="45.29176" lon="0.9202">
        <ele>158.3</ele>
        <time>2023-09-24T08:07:32Z</time>
      </trkpt>
      <trkpt lat="45.2917" lon="0.92011">
        <ele>157.6</ele>
        <time>2023-09-24T08:07:34Z</time>
      </trkpt>
      <trkpt lat="45.29161" lon="0.92003">
        <ele>157</ele>
        <time>2023-09-24T08:07:36Z</time>
      </trkpt>
      <trkpt lat="45.29154" lon="0.92001">
        <ele>156.7</ele>
        <time>2023-09-24T08:07:39Z</time>
      </trkpt>
      <trkpt lat="45.29152" lon="0.92002">
        <ele>156.6</ele>
        <time>2023-09-24T08:07:40Z</time>
      </trkpt>
      <trkpt lat="45.29149" lon="0.92007">
        <ele>156.8</ele>
        <time>2023-09-24T08:07:42Z</time>
      </trkpt>
      <trkpt lat="45.29146" lon="0.92008">
        <ele>156.7</ele>
        <time>2023-09-24T08:07:43Z</time>
      </trkpt>
      <trkpt lat="45.2914" lon="0.92013">
        <ele>156.7</ele>
        <time>2023-09-24T08:07:45Z</time>
      </trkpt>
      <trkpt lat="45.29138" lon="0.92016">
        <ele>156.7</ele>
        <time>2023-09-24T08:07:46Z</time>
      </trkpt>
      <trkpt lat="45.29136" lon="0.92022">
        <ele>156.7</ele>
        <time>2023-09-24T08:07:48Z</time>
      </trkpt>
      <trkpt lat="45.29127" lon="0.92036">
        <ele>156.6</ele>
        <time>2023-09-24T08:07:52Z</time>
      </trkpt>
      <trkpt lat="45.29122" lon="0.92046">
        <ele>156.6</ele>
        <time>2023-09-24T08:07:55Z</time>
      </trkpt>
      <trkpt lat="45.2912" lon="0.92048">
        <ele>156.6</ele>
        <time>2023-09-24T08:07:56Z</time>
      </trkpt>
      <trkpt lat="45.29117" lon="0.92052">
        <ele>156.5</ele>
        <time>2023-09-24T08:07:57Z</time>
      </trkpt>
      <trkpt lat="45.29114" lon="0.92065">
        <ele>156.5</ele>
        <time>2023-09-24T08:08:00Z</time>
      </trkpt>
      <trkpt lat="45.29103" lon="0.92091">
        <ele>156.3</ele>
        <time>2023-09-24T08:08:05Z</time>
      </trkpt>
      <trkpt lat="45.29096" lon="0.9211">
        <ele>156.3</ele>
        <time>2023-09-24T08:08:08Z</time>
      </trkpt>
      <trkpt lat="45.29093" lon="0.92116">
        <ele>156.2</ele>
        <time>2023-09-24T08:08:09Z</time>
      </trkpt>
      <trkpt lat="45.29089" lon="0.9213">
        <ele>156.3</ele>
        <time>2023-09-24T08:08:11Z</time>
      </trkpt>
      <trkpt lat="45.29085" lon="0.92142">
        <ele>156.6</ele>
        <time>2023-09-24T08:08:13Z</time>
      </trkpt>
      <trkpt lat="45.29081" lon="0.92154">
        <ele>156.9</ele>
        <time>2023-09-24T08:08:15Z</time>
      </trkpt>
      <trkpt lat="45.29079" lon="0.9216">
        <ele>157</ele>
        <time>2023-09-24T08:08:16Z</time>
      </trkpt>
      <trkpt lat="45.29075" lon="0.92171">
        <ele>157.3</ele>
        <time>2023-09-24T08:08:18Z</time>
      </trkpt>
      <trkpt lat="45.29069" lon="0.92192">
        <ele>157.9</ele>
        <time>2023-09-24T08:08:22Z</time>
      </trkpt>
      <trkpt lat="45.29064" lon="0.92213">
        <ele>158.4</ele>
        <time>2023-09-24T08:08:26Z</time>
      </trkpt>
      <trkpt lat="45.29054" lon="0.9224">
        <ele>158.4</ele>
        <time>2023-09-24T08:08:32Z</time>
      </trkpt>
      <trkpt lat="45.29038" lon="0.92251">
        <ele>157.5</ele>
        <time>2023-09-24T08:08:36Z</time>
      </trkpt>
      <trkpt lat="45.29027" lon="0.9226">
        <ele>156.6</ele>
        <time>2023-09-24T08:08:38Z</time>
      </trkpt>
      <trkpt lat="45.29023" lon="0.92266">
        <ele>156.2</ele>
        <time>2023-09-24T08:08:39Z</time>
      </trkpt>
      <trkpt lat="45.29019" lon="0.92273">
        <ele>155.8</ele>
        <time>2023-09-24T08:08:40Z</time>
      </trkpt>
      <trkpt lat="45.29013" lon="0.92281">
        <ele>155.3</ele>
        <time>2023-09-24T08:08:42Z</time>
      </trkpt>
      <trkpt lat="45.2901" lon="0.92283">
        <ele>155.1</ele>
        <time>2023-09-24T08:08:43Z</time>
      </trkpt>
      <trkpt lat="45.29005" lon="0.92283">
        <ele>154.8</ele>
        <time>2023-09-24T08:08:45Z</time>
      </trkpt>
      <trkpt lat="45.28998" lon="0.92282">
        <ele>154</ele>
        <time>2023-09-24T08:08:47Z</time>
      </trkpt>
      <trkpt lat="45.28994" lon="0.92279">
        <ele>153.5</ele>
        <time>2023-09-24T08:08:48Z</time>
      </trkpt>
      <trkpt lat="45.28979" lon="0.92266">
        <ele>151.8</ele>
        <time>2023-09-24T08:08:51Z</time>
      </trkpt>
      <trkpt lat="45.2897" lon="0.92268">
        <ele>150.8</ele>
        <time>2023-09-24T08:08:53Z</time>
      </trkpt>
      <trkpt lat="45.28965" lon="0.92272">
        <ele>150.2</ele>
        <time>2023-09-24T08:08:54Z</time>
      </trkpt>
      <trkpt lat="45.28956" lon="0.92282">
        <ele>149.2</ele>
        <time>2023-09-24T08:08:56Z</time>
      </trkpt>
      <trkpt lat="45.28952" lon="0.92288">
        <ele>148.8</ele>
        <time>2023-09-24T08:08:57Z</time>
      </trkpt>
      <trkpt lat="45.28949" lon="0.92294">
        <ele>148.4</ele>
        <time>2023-09-24T08:08:58Z</time>
      </trkpt>
      <trkpt lat="45.2894" lon="0.92315">
        <ele>147.3</ele>
        <time>2023-09-24T08:09:01Z</time>
      </trkpt>
      <trkpt lat="45.28934" lon="0.9233">
        <ele>146.7</ele>
        <time>2023-09-24T08:09:04Z</time>
      </trkpt>
      <trkpt lat="45.28933" lon="0.92341">
        <ele>146.3</ele>
        <time>2023-09-24T08:09:07Z</time>
      </trkpt>
      <trkpt lat="45.28932" lon="0.92346">
        <ele>146.1</ele>
        <time>2023-09-24T08:09:08Z</time>
      </trkpt>
      <trkpt lat="45.28922" lon="0.9236">
        <ele>145.5</ele>
        <time>2023-09-24T08:09:11Z</time>
      </trkpt>
      <trkpt lat="45.28919" lon="0.92366">
        <ele>145.1</ele>
        <time>2023-09-24T08:09:12Z</time>
      </trkpt>
      <trkpt lat="45.28917" lon="0.92373">
        <ele>144.8</ele>
        <time>2023-09-24T08:09:13Z</time>
      </trkpt>
      <trkpt lat="45.28909" lon="0.92397">
        <ele>143.4</ele>
        <time>2023-09-24T08:09:16Z</time>
      </trkpt>
      <trkpt lat="45.28897" lon="0.92412">
        <ele>142.4</ele>
        <time>2023-09-24T08:09:18Z</time>
      </trkpt>
      <trkpt lat="45.28891" lon="0.92419">
        <ele>142.1</ele>
        <time>2023-09-24T08:09:19Z</time>
      </trkpt>
      <trkpt lat="45.28885" lon="0.92425">
        <ele>142</ele>
        <time>2023-09-24T08:09:20Z</time>
      </trkpt>
      <trkpt lat="45.28874" lon="0.92436">
        <ele>142.2</ele>
        <time>2023-09-24T08:09:22Z</time>
      </trkpt>
      <trkpt lat="45.28867" lon="0.92446">
        <ele>142.6</ele>
        <time>2023-09-24T08:09:24Z</time>
      </trkpt>
      <trkpt lat="45.28857" lon="0.92461">
        <ele>143</ele>
        <time>2023-09-24T08:09:27Z</time>
      </trkpt>
      <trkpt lat="45.28834" lon="0.92494">
        <ele>143.7</ele>
        <time>2023-09-24T08:09:34Z</time>
      </trkpt>
      <trkpt lat="45.28817" lon="0.92519">
        <ele>143.5</ele>
        <time>2023-09-24T08:09:40Z</time>
      </trkpt>
      <trkpt lat="45.2881" lon="0.92529">
        <ele>143.3</ele>
        <time>2023-09-24T08:09:42Z</time>
      </trkpt>
      <trkpt lat="45.28802" lon="0.92547">
        <ele>143.1</ele>
        <time>2023-09-24T08:09:45Z</time>
      </trkpt>
      <trkpt lat="45.288" lon="0.92553">
        <ele>143</ele>
        <time>2023-09-24T08:09:46Z</time>
      </trkpt>
      <trkpt lat="45.28793" lon="0.92572">
        <ele>142.6</ele>
        <time>2023-09-24T08:09:49Z</time>
      </trkpt>
      <trkpt lat="45.28791" lon="0.92579">
        <ele>142.4</ele>
        <time>2023-09-24T08:09:50Z</time>
      </trkpt>
      <trkpt lat="45.28771" lon="0.92613">
        <ele>140.6</ele>
        <time>2023-09-24T08:09:56Z</time>
      </trkpt>
      <trkpt lat="45.28758" lon="0.92631">
        <ele>138.7</ele>
        <time>2023-09-24T08:09:59Z</time>
      </trkpt>
      <trkpt lat="45.28753" lon="0.92638">
        <ele>138</ele>
        <time>2023-09-24T08:10:00Z</time>
      </trkpt>
      <trkpt lat="45.28732" lon="0.9267">
        <ele>135.2</ele>
        <time>2023-09-24T08:10:04Z</time>
      </trkpt>
      <trkpt lat="45.28709" lon="0.92704">
        <ele>133.3</ele>
        <time>2023-09-24T08:10:08Z</time>
      </trkpt>
      <trkpt lat="45.28681" lon="0.92744">
        <ele>132.5</ele>
        <time>2023-09-24T08:10:13Z</time>
      </trkpt>
      <trkpt lat="45.28675" lon="0.9275">
        <ele>132.5</ele>
        <time>2023-09-24T08:10:14Z</time>
      </trkpt>
      <trkpt lat="45.2866" lon="0.92765">
        <ele>133.3</ele>
        <time>2023-09-24T08:10:18Z</time>
      </trkpt>
      <trkpt lat="45.28651" lon="0.92772">
        <ele>134.4</ele>
        <time>2023-09-24T08:10:23Z</time>
      </trkpt>
      <trkpt lat="45.28646" lon="0.92778">
        <ele>135.2</ele>
        <time>2023-09-24T08:10:27Z</time>
      </trkpt>
      <trkpt lat="45.28646" lon="0.9278">
        <ele>135.4</ele>
        <time>2023-09-24T08:10:28Z</time>
      </trkpt>
      <trkpt lat="45.28644" lon="0.92783">
        <ele>135.8</ele>
        <time>2023-09-24T08:10:30Z</time>
      </trkpt>
      <trkpt lat="45.28641" lon="0.92786">
        <ele>136.4</ele>
        <time>2023-09-24T08:10:32Z</time>
      </trkpt>
      <trkpt lat="45.28634" lon="0.92794">
        <ele>137.6</ele>
        <time>2023-09-24T08:10:38Z</time>
      </trkpt>
      <trkpt lat="45.28634" lon="0.92801">
        <ele>138.3</ele>
        <time>2023-09-24T08:10:41Z</time>
      </trkpt>
      <trkpt lat="45.28631" lon="0.92807">
        <ele>139.1</ele>
        <time>2023-09-24T08:10:44Z</time>
      </trkpt>
      <trkpt lat="45.2863" lon="0.92808">
        <ele>139.3</ele>
        <time>2023-09-24T08:10:45Z</time>
      </trkpt>
      <trkpt lat="45.28623" lon="0.92816">
        <ele>140.6</ele>
        <time>2023-09-24T08:10:50Z</time>
      </trkpt>
      <trkpt lat="45.28622" lon="0.92819">
        <ele>141</ele>
        <time>2023-09-24T08:10:52Z</time>
      </trkpt>
      <trkpt lat="45.28623" lon="0.92824">
        <ele>141.5</ele>
        <time>2023-09-24T08:10:54Z</time>
      </trkpt>
      <trkpt lat="45.28619" lon="0.9283">
        <ele>142.2</ele>
        <time>2023-09-24T08:10:57Z</time>
      </trkpt>
      <trkpt lat="45.28618" lon="0.92832">
        <ele>142.5</ele>
        <time>2023-09-24T08:10:58Z</time>
      </trkpt>
      <trkpt lat="45.2862" lon="0.92843">
        <ele>143.5</ele>
        <time>2023-09-24T08:11:03Z</time>
      </trkpt>
      <trkpt lat="45.2862" lon="0.92846">
        <ele>143.7</ele>
        <time>2023-09-24T08:11:04Z</time>
      </trkpt>
      <trkpt lat="45.28621" lon="0.92854">
        <ele>144.5</ele>
        <time>2023-09-24T08:11:08Z</time>
      </trkpt>
      <trkpt lat="45.28618" lon="0.9286">
        <ele>145.1</ele>
        <time>2023-09-24T08:11:12Z</time>
      </trkpt>
      <trkpt lat="45.28617" lon="0.92862">
        <ele>145.3</ele>
        <time>2023-09-24T08:11:13Z</time>
      </trkpt>
      <trkpt lat="45.28615" lon="0.92868">
        <ele>145.8</ele>
        <time>2023-09-24T08:11:16Z</time>
      </trkpt>
      <trkpt lat="45.28615" lon="0.92873">
        <ele>146.2</ele>
        <time>2023-09-24T08:11:18Z</time>
      </trkpt>
      <trkpt lat="45.28614" lon="0.92877">
        <ele>146.6</ele>
        <time>2023-09-24T08:11:20Z</time>
      </trkpt>
      <trkpt lat="45.28615" lon="0.9288">
        <ele>146.8</ele>
        <time>2023-09-24T08:11:21Z</time>
      </trkpt>
      <trkpt lat="45.28612" lon="0.92884">
        <ele>147.2</ele>
        <time>2023-09-24T08:11:23Z</time>
      </trkpt>
      <trkpt lat="45.28613" lon="0.92886">
        <ele>147.4</ele>
        <time>2023-09-24T08:11:24Z</time>
      </trkpt>
      <trkpt lat="45.28609" lon="0.92891">
        <ele>148</ele>
        <time>2023-09-24T08:11:27Z</time>
      </trkpt>
      <trkpt lat="45.28608" lon="0.92895">
        <ele>148.2</ele>
        <time>2023-09-24T08:11:29Z</time>
      </trkpt>
      <trkpt lat="45.28611" lon="0.92904">
        <ele>149</ele>
        <time>2023-09-24T08:11:33Z</time>
      </trkpt>
      <trkpt lat="45.28606" lon="0.92905">
        <ele>149.4</ele>
        <time>2023-09-24T08:11:34Z</time>
      </trkpt>
      <trkpt lat="45.28603" lon="0.92906">
        <ele>149.7</ele>
        <time>2023-09-24T08:11:35Z</time>
      </trkpt>
      <trkpt lat="45.28599" lon="0.92912">
        <ele>150.2</ele>
        <time>2023-09-24T08:11:38Z</time>
      </trkpt>
      <trkpt lat="45.28598" lon="0.92914">
        <ele>150.3</ele>
        <time>2023-09-24T08:11:39Z</time>
      </trkpt>
      <trkpt lat="45.28594" lon="0.92918">
        <ele>150.6</ele>
        <time>2023-09-24T08:11:41Z</time>
      </trkpt>
      <trkpt lat="45.28591" lon="0.92923">
        <ele>150.9</ele>
        <time>2023-09-24T08:11:43Z</time>
      </trkpt>
      <trkpt lat="45.28589" lon="0.92927">
        <ele>151.2</ele>
        <time>2023-09-24T08:11:45Z</time>
      </trkpt>
      <trkpt lat="45.28585" lon="0.9294">
        <ele>151.8</ele>
        <time>2023-09-24T08:11:50Z</time>
      </trkpt>
      <trkpt lat="45.28589" lon="0.92949">
        <ele>152.2</ele>
        <time>2023-09-24T08:11:53Z</time>
      </trkpt>
      <trkpt lat="45.28592" lon="0.92956">
        <ele>152.4</ele>
        <time>2023-09-24T08:11:55Z</time>
      </trkpt>
      <trkpt lat="45.28588" lon="0.92957">
        <ele>152.6</ele>
        <time>2023-09-24T08:11:56Z</time>
      </trkpt>
      <trkpt lat="45.28586" lon="0.92959">
        <ele>152.7</ele>
        <time>2023-09-24T08:11:57Z</time>
      </trkpt>
      <trkpt lat="45.28584" lon="0.92965">
        <ele>152.9</ele>
        <time>2023-09-24T08:11:59Z</time>
      </trkpt>
      <trkpt lat="45.28582" lon="0.92972">
        <ele>153.1</ele>
        <time>2023-09-24T08:12:02Z</time>
      </trkpt>
      <trkpt lat="45.28582" lon="0.92975">
        <ele>153.2</ele>
        <time>2023-09-24T08:12:03Z</time>
      </trkpt>
      <trkpt lat="45.2858" lon="0.92978">
        <ele>153.3</ele>
        <time>2023-09-24T08:12:04Z</time>
      </trkpt>
      <trkpt lat="45.28579" lon="0.92983">
        <ele>153.4</ele>
        <time>2023-09-24T08:12:06Z</time>
      </trkpt>
      <trkpt lat="45.28579" lon="0.9299">
        <ele>153.5</ele>
        <time>2023-09-24T08:12:08Z</time>
      </trkpt>
      <trkpt lat="45.2858" lon="0.92994">
        <ele>153.5</ele>
        <time>2023-09-24T08:12:09Z</time>
      </trkpt>
      <trkpt lat="45.2858" lon="0.92998">
        <ele>153.5</ele>
        <time>2023-09-24T08:12:10Z</time>
      </trkpt>
      <trkpt lat="45.2858" lon="0.93014">
        <ele>153.3</ele>
        <time>2023-09-24T08:12:14Z</time>
      </trkpt>
      <trkpt lat="45.28581" lon="0.93018">
        <ele>153.1</ele>
        <time>2023-09-24T08:12:15Z</time>
      </trkpt>
      <trkpt lat="45.28581" lon="0.93023">
        <ele>152.9</ele>
        <time>2023-09-24T08:12:16Z</time>
      </trkpt>
      <trkpt lat="45.28581" lon="0.93029">
        <ele>152.7</ele>
        <time>2023-09-24T08:12:17Z</time>
      </trkpt>
      <trkpt lat="45.28579" lon="0.93034">
        <ele>152.4</ele>
        <time>2023-09-24T08:12:18Z</time>
      </trkpt>
      <trkpt lat="45.2857" lon="0.93051">
        <ele>151.7</ele>
        <time>2023-09-24T08:12:21Z</time>
      </trkpt>
      <trkpt lat="45.28567" lon="0.93057">
        <ele>151.5</ele>
        <time>2023-09-24T08:12:22Z</time>
      </trkpt>
      <trkpt lat="45.28559" lon="0.93071">
        <ele>151.2</ele>
        <time>2023-09-24T08:12:24Z</time>
      </trkpt>
      <trkpt lat="45.28556" lon="0.93086">
        <ele>151.1</ele>
        <time>2023-09-24T08:12:26Z</time>
      </trkpt>
      <trkpt lat="45.28555" lon="0.93094">
        <ele>151.1</ele>
        <time>2023-09-24T08:12:27Z</time>
      </trkpt>
      <trkpt lat="45.28555" lon="0.93101">
        <ele>151.1</ele>
        <time>2023-09-24T08:12:28Z</time>
      </trkpt>
      <trkpt lat="45.28555" lon="0.93107">
        <ele>151.1</ele>
        <time>2023-09-24T08:12:29Z</time>
      </trkpt>
      <trkpt lat="45.28556" lon="0.93114">
        <ele>151.1</ele>
        <time>2023-09-24T08:12:30Z</time>
      </trkpt>
      <trkpt lat="45.28556" lon="0.93121">
        <ele>151.2</ele>
        <time>2023-09-24T08:12:31Z</time>
      </trkpt>
      <trkpt lat="45.28556" lon="0.93132">
        <ele>151.4</ele>
        <time>2023-09-24T08:12:33Z</time>
      </trkpt>
      <trkpt lat="45.28553" lon="0.93147">
        <ele>151.8</ele>
        <time>2023-09-24T08:12:36Z</time>
      </trkpt>
      <trkpt lat="45.28545" lon="0.93165">
        <ele>152.5</ele>
        <time>2023-09-24T08:12:41Z</time>
      </trkpt>
      <trkpt lat="45.28544" lon="0.93169">
        <ele>152.6</ele>
        <time>2023-09-24T08:12:42Z</time>
      </trkpt>
      <trkpt lat="45.28536" lon="0.93188">
        <ele>153.6</ele>
        <time>2023-09-24T08:12:47Z</time>
      </trkpt>
      <trkpt lat="45.28527" lon="0.93202">
        <ele>154.6</ele>
        <time>2023-09-24T08:12:51Z</time>
      </trkpt>
      <trkpt lat="45.28524" lon="0.93206">
        <ele>154.9</ele>
        <time>2023-09-24T08:12:52Z</time>
      </trkpt>
      <trkpt lat="45.28527" lon="0.93215">
        <ele>155.4</ele>
        <time>2023-09-24T08:12:54Z</time>
      </trkpt>
      <trkpt lat="45.28526" lon="0.93219">
        <ele>155.6</ele>
        <time>2023-09-24T08:12:55Z</time>
      </trkpt>
      <trkpt lat="45.28526" lon="0.93232">
        <ele>156.1</ele>
        <time>2023-09-24T08:12:58Z</time>
      </trkpt>
      <trkpt lat="45.28526" lon="0.93236">
        <ele>156.3</ele>
        <time>2023-09-24T08:12:59Z</time>
      </trkpt>
      <trkpt lat="45.28524" lon="0.93252">
        <ele>157</ele>
        <time>2023-09-24T08:13:03Z</time>
      </trkpt>
      <trkpt lat="45.28522" lon="0.93266">
        <ele>157.6</ele>
        <time>2023-09-24T08:13:07Z</time>
      </trkpt>
      <trkpt lat="45.28519" lon="0.93285">
        <ele>158.6</ele>
        <time>2023-09-24T08:13:12Z</time>
      </trkpt>
      <trkpt lat="45.28518" lon="0.93292">
        <ele>159</ele>
        <time>2023-09-24T08:13:14Z</time>
      </trkpt>
      <trkpt lat="45.28517" lon="0.93296">
        <ele>159.2</ele>
        <time>2023-09-24T08:13:15Z</time>
      </trkpt>
      <trkpt lat="45.28514" lon="0.93307">
        <ele>159.7</ele>
        <time>2023-09-24T08:13:18Z</time>
      </trkpt>
      <trkpt lat="45.28512" lon="0.9331">
        <ele>159.8</ele>
        <time>2023-09-24T08:13:19Z</time>
      </trkpt>
      <trkpt lat="45.28506" lon="0.93331">
        <ele>160.3</ele>
        <time>2023-09-24T08:13:24Z</time>
      </trkpt>
      <trkpt lat="45.28501" lon="0.93345">
        <ele>160.6</ele>
        <time>2023-09-24T08:13:28Z</time>
      </trkpt>
      <trkpt lat="45.28499" lon="0.93348">
        <ele>160.6</ele>
        <time>2023-09-24T08:13:29Z</time>
      </trkpt>
      <trkpt lat="45.28489" lon="0.93381">
        <ele>160.6</ele>
        <time>2023-09-24T08:13:37Z</time>
      </trkpt>
      <trkpt lat="45.28482" lon="0.93404">
        <ele>160.5</ele>
        <time>2023-09-24T08:13:42Z</time>
      </trkpt>
      <trkpt lat="45.2848" lon="0.93415">
        <ele>160.5</ele>
        <time>2023-09-24T08:13:44Z</time>
      </trkpt>
      <trkpt lat="45.28476" lon="0.93434">
        <ele>160.7</ele>
        <time>2023-09-24T08:13:49Z</time>
      </trkpt>
      <trkpt lat="45.28473" lon="0.9344">
        <ele>160.8</ele>
        <time>2023-09-24T08:13:54Z</time>
      </trkpt>
      <trkpt lat="45.28471" lon="0.93451">
        <ele>159.8</ele>
        <time>2023-09-24T08:13:58Z</time>
      </trkpt>
      <trkpt lat="45.2847" lon="0.93453">
        <ele>159.5</ele>
        <time>2023-09-24T08:13:59Z</time>
      </trkpt>
      <trkpt lat="45.28464" lon="0.93472">
        <ele>157.6</ele>
        <time>2023-09-24T08:14:04Z</time>
      </trkpt>
      <trkpt lat="45.28458" lon="0.93489">
        <ele>155.9</ele>
        <time>2023-09-24T08:14:08Z</time>
      </trkpt>
      <trkpt lat="45.28456" lon="0.93498">
        <ele>155</ele>
        <time>2023-09-24T08:14:10Z</time>
      </trkpt>
      <trkpt lat="45.28456" lon="0.93503">
        <ele>154.5</ele>
        <time>2023-09-24T08:14:11Z</time>
      </trkpt>
      <trkpt lat="45.28456" lon="0.93514">
        <ele>153.5</ele>
        <time>2023-09-24T08:14:13Z</time>
      </trkpt>
      <trkpt lat="45.28454" lon="0.93517">
        <ele>153.2</ele>
        <time>2023-09-24T08:14:14Z</time>
      </trkpt>
      <trkpt lat="45.2845" lon="0.93519">
        <ele>152.6</ele>
        <time>2023-09-24T08:14:17Z</time>
      </trkpt>
      <trkpt lat="45.28443" lon="0.93517">
        <ele>151.6</ele>
        <time>2023-09-24T08:14:20Z</time>
      </trkpt>
      <trkpt lat="45.28441" lon="0.93518">
        <ele>151.3</ele>
        <time>2023-09-24T08:14:21Z</time>
      </trkpt>
      <trkpt lat="45.28433" lon="0.93524">
        <ele>150.3</ele>
        <time>2023-09-24T08:14:24Z</time>
      </trkpt>
      <trkpt lat="45.28427" lon="0.93524">
        <ele>149.4</ele>
        <time>2023-09-24T08:14:26Z</time>
      </trkpt>
      <trkpt lat="45.28425" lon="0.93526">
        <ele>148.8</ele>
        <time>2023-09-24T08:14:27Z</time>
      </trkpt>
      <trkpt lat="45.28429" lon="0.93532">
        <ele>148.6</ele>
        <time>2023-09-24T08:14:29Z</time>
      </trkpt>
      <trkpt lat="45.28443" lon="0.93541">
        <ele>149.2</ele>
        <time>2023-09-24T08:14:33Z</time>
      </trkpt>
      <trkpt lat="45.28448" lon="0.93544">
        <ele>149.6</ele>
        <time>2023-09-24T08:14:36Z</time>
      </trkpt>
      <trkpt lat="45.28448" lon="0.93545">
        <ele>149.5</ele>
        <time>2023-09-24T08:14:37Z</time>
      </trkpt>
      <trkpt lat="45.28442" lon="0.93551">
        <ele>147.7</ele>
        <time>2023-09-24T08:14:40Z</time>
      </trkpt>
      <trkpt lat="45.28438" lon="0.93553">
        <ele>146.3</ele>
        <time>2023-09-24T08:14:41Z</time>
      </trkpt>
      <trkpt lat="45.28427" lon="0.93562">
        <ele>142.8</ele>
        <time>2023-09-24T08:14:43Z</time>
      </trkpt>
      <trkpt lat="45.28408" lon="0.93579">
        <ele>137.3</ele>
        <time>2023-09-24T08:14:46Z</time>
      </trkpt>
      <trkpt lat="45.28384" lon="0.93594">
        <ele>133</ele>
        <time>2023-09-24T08:14:50Z</time>
      </trkpt>
      <trkpt lat="45.28354" lon="0.93604">
        <ele>127.5</ele>
        <time>2023-09-24T08:14:54Z</time>
      </trkpt>
      <trkpt lat="45.2833" lon="0.93613">
        <ele>123.1</ele>
        <time>2023-09-24T08:14:58Z</time>
      </trkpt>
      <trkpt lat="45.28314" lon="0.93613">
        <ele>121.2</ele>
        <time>2023-09-24T08:15:02Z</time>
      </trkpt>
      <trkpt lat="45.2831" lon="0.93612">
        <ele>120.5</ele>
        <time>2023-09-24T08:15:04Z</time>
      </trkpt>
      <trkpt lat="45.283" lon="0.9361">
        <ele>118.9</ele>
        <time>2023-09-24T08:15:19Z</time>
      </trkpt>
      <trkpt lat="45.28296" lon="0.93611">
        <ele>118.3</ele>
        <time>2023-09-24T08:15:20Z</time>
      </trkpt>
      <trkpt lat="45.28283" lon="0.93627">
        <ele>115.3</ele>
        <time>2023-09-24T08:15:23Z</time>
      </trkpt>
      <trkpt lat="45.28276" lon="0.93648">
        <ele>113.5</ele>
        <time>2023-09-24T08:15:25Z</time>
      </trkpt>
      <trkpt lat="45.28274" lon="0.93661">
        <ele>112.8</ele>
        <time>2023-09-24T08:15:26Z</time>
      </trkpt>
      <trkpt lat="45.28266" lon="0.93706">
        <ele>111.6</ele>
        <time>2023-09-24T08:15:30Z</time>
      </trkpt>
      <trkpt lat="45.28254" lon="0.93762">
        <ele>111.6</ele>
        <time>2023-09-24T08:15:35Z</time>
      </trkpt>
      <trkpt lat="45.28245" lon="0.93801">
        <ele>112.1</ele>
        <time>2023-09-24T08:15:39Z</time>
      </trkpt>
      <trkpt lat="45.28242" lon="0.9381">
        <ele>112.3</ele>
        <time>2023-09-24T08:15:40Z</time>
      </trkpt>
      <trkpt lat="45.2824" lon="0.93819">
        <ele>112.5</ele>
        <time>2023-09-24T08:15:41Z</time>
      </trkpt>
      <trkpt lat="45.28238" lon="0.93828">
        <ele>112.8</ele>
        <time>2023-09-24T08:15:42Z</time>
      </trkpt>
      <trkpt lat="45.28237" lon="0.93846">
        <ele>113.1</ele>
        <time>2023-09-24T08:15:44Z</time>
      </trkpt>
      <trkpt lat="45.28232" lon="0.9387">
        <ele>113.4</ele>
        <time>2023-09-24T08:15:47Z</time>
      </trkpt>
      <trkpt lat="45.2823" lon="0.93879">
        <ele>113.5</ele>
        <time>2023-09-24T08:15:48Z</time>
      </trkpt>
      <trkpt lat="45.28228" lon="0.93887">
        <ele>113.6</ele>
        <time>2023-09-24T08:15:49Z</time>
      </trkpt>
      <trkpt lat="45.28225" lon="0.93905">
        <ele>113.6</ele>
        <time>2023-09-24T08:15:51Z</time>
      </trkpt>
      <trkpt lat="45.28224" lon="0.93914">
        <ele>113.6</ele>
        <time>2023-09-24T08:15:52Z</time>
      </trkpt>
      <trkpt lat="45.28212" lon="0.9397">
        <ele>113.5</ele>
        <time>2023-09-24T08:15:58Z</time>
      </trkpt>
      <trkpt lat="45.28208" lon="0.9399">
        <ele>113.3</ele>
        <time>2023-09-24T08:16:00Z</time>
      </trkpt>
      <trkpt lat="45.28195" lon="0.94048">
        <ele>113.6</ele>
        <time>2023-09-24T08:16:06Z</time>
      </trkpt>
      <trkpt lat="45.28193" lon="0.94056">
        <ele>113.7</ele>
        <time>2023-09-24T08:16:07Z</time>
      </trkpt>
      <trkpt lat="45.28177" lon="0.94125">
        <ele>115.6</ele>
        <time>2023-09-24T08:16:15Z</time>
      </trkpt>
      <trkpt lat="45.28172" lon="0.94146">
        <ele>117.9</ele>
        <time>2023-09-24T08:16:19Z</time>
      </trkpt>
      <trkpt lat="45.28168" lon="0.94151">
        <ele>118</ele>
        <time>2023-09-24T08:16:21Z</time>
      </trkpt>
      <trkpt lat="45.28166" lon="0.9415">
        <ele>118</ele>
        <time>2023-09-24T08:16:22Z</time>
      </trkpt>
      <trkpt lat="45.28154" lon="0.94142">
        <ele>118.2</ele>
        <time>2023-09-24T08:16:26Z</time>
      </trkpt>
      <trkpt lat="45.28151" lon="0.9414">
        <ele>118.3</ele>
        <time>2023-09-24T08:16:27Z</time>
      </trkpt>
      <trkpt lat="45.28141" lon="0.94133">
        <ele>118.6</ele>
        <time>2023-09-24T08:16:30Z</time>
      </trkpt>
      <trkpt lat="45.28114" lon="0.94115">
        <ele>119.1</ele>
        <time>2023-09-24T08:16:37Z</time>
      </trkpt>
      <trkpt lat="45.28106" lon="0.94111">
        <ele>119.1</ele>
        <time>2023-09-24T08:16:40Z</time>
      </trkpt>
      <trkpt lat="45.28102" lon="0.94111">
        <ele>119.2</ele>
        <time>2023-09-24T08:16:41Z</time>
      </trkpt>
      <trkpt lat="45.28095" lon="0.94118">
        <ele>119.3</ele>
        <time>2023-09-24T08:16:43Z</time>
      </trkpt>
      <trkpt lat="45.28092" lon="0.94123">
        <ele>119.4</ele>
        <time>2023-09-24T08:16:44Z</time>
      </trkpt>
      <trkpt lat="45.28081" lon="0.94145">
        <ele>119.8</ele>
        <time>2023-09-24T08:16:48Z</time>
      </trkpt>
      <trkpt lat="45.2807" lon="0.94165">
        <ele>120.4</ele>
        <time>2023-09-24T08:16:52Z</time>
      </trkpt>
      <trkpt lat="45.28066" lon="0.94177">
        <ele>120.8</ele>
        <time>2023-09-24T08:16:54Z</time>
      </trkpt>
      <trkpt lat="45.28064" lon="0.94183">
        <ele>120.9</ele>
        <time>2023-09-24T08:16:55Z</time>
      </trkpt>
      <trkpt lat="45.28063" lon="0.94189">
        <ele>121.1</ele>
        <time>2023-09-24T08:16:56Z</time>
      </trkpt>
      <trkpt lat="45.28054" lon="0.94203">
        <ele>121.5</ele>
        <time>2023-09-24T08:16:59Z</time>
      </trkpt>
      <trkpt lat="45.28052" lon="0.94208">
        <ele>121.6</ele>
        <time>2023-09-24T08:17:00Z</time>
      </trkpt>
      <trkpt lat="45.28042" lon="0.94226">
        <ele>122</ele>
        <time>2023-09-24T08:17:04Z</time>
      </trkpt>
      <trkpt lat="45.28041" lon="0.94231">
        <ele>122.1</ele>
        <time>2023-09-24T08:17:05Z</time>
      </trkpt>
      <trkpt lat="45.28039" lon="0.94241">
        <ele>122.3</ele>
        <time>2023-09-24T08:17:07Z</time>
      </trkpt>
      <trkpt lat="45.28026" lon="0.94258">
        <ele>122.8</ele>
        <time>2023-09-24T08:17:11Z</time>
      </trkpt>
      <trkpt lat="45.28011" lon="0.9429">
        <ele>123.9</ele>
        <time>2023-09-24T08:17:18Z</time>
      </trkpt>
      <trkpt lat="45.28009" lon="0.94299">
        <ele>124.3</ele>
        <time>2023-09-24T08:17:20Z</time>
      </trkpt>
      <trkpt lat="45.28011" lon="0.94309">
        <ele>124.8</ele>
        <time>2023-09-24T08:17:22Z</time>
      </trkpt>
      <trkpt lat="45.2802" lon="0.94323">
        <ele>124.9</ele>
        <time>2023-09-24T08:17:26Z</time>
      </trkpt>
      <trkpt lat="45.28029" lon="0.94331">
        <ele>125</ele>
        <time>2023-09-24T08:17:29Z</time>
      </trkpt>
      <trkpt lat="45.28044" lon="0.94346">
        <ele>125.1</ele>
        <time>2023-09-24T08:17:34Z</time>
      </trkpt>
      <trkpt lat="45.2806" lon="0.94363">
        <ele>125.1</ele>
        <time>2023-09-24T08:17:39Z</time>
      </trkpt>
      <trkpt lat="45.28081" lon="0.94393">
        <ele>125.3</ele>
        <time>2023-09-24T08:17:46Z</time>
      </trkpt>
      <trkpt lat="45.28086" lon="0.94403">
        <ele>125.4</ele>
        <time>2023-09-24T08:17:48Z</time>
      </trkpt>
      <trkpt lat="45.28093" lon="0.94417">
        <ele>125.6</ele>
        <time>2023-09-24T08:17:51Z</time>
      </trkpt>
      <trkpt lat="45.28095" lon="0.94422">
        <ele>125.8</ele>
        <time>2023-09-24T08:17:52Z</time>
      </trkpt>
      <trkpt lat="45.281" lon="0.94436">
        <ele>126.1</ele>
        <time>2023-09-24T08:17:55Z</time>
      </trkpt>
      <trkpt lat="45.28102" lon="0.9444">
        <ele>126.2</ele>
        <time>2023-09-24T08:17:56Z</time>
      </trkpt>
      <trkpt lat="45.28107" lon="0.94453">
        <ele>126.6</ele>
        <time>2023-09-24T08:17:59Z</time>
      </trkpt>
      <trkpt lat="45.28113" lon="0.94472">
        <ele>127.2</ele>
        <time>2023-09-24T08:18:03Z</time>
      </trkpt>
      <trkpt lat="45.28118" lon="0.94486">
        <ele>127.7</ele>
        <time>2023-09-24T08:18:06Z</time>
      </trkpt>
      <trkpt lat="45.28122" lon="0.94495">
        <ele>128</ele>
        <time>2023-09-24T08:18:08Z</time>
      </trkpt>
      <trkpt lat="45.28124" lon="0.945">
        <ele>128.1</ele>
        <time>2023-09-24T08:18:09Z</time>
      </trkpt>
      <trkpt lat="45.28126" lon="0.94504">
        <ele>128.3</ele>
        <time>2023-09-24T08:18:10Z</time>
      </trkpt>
      <trkpt lat="45.28133" lon="0.9452">
        <ele>128.7</ele>
        <time>2023-09-24T08:18:14Z</time>
      </trkpt>
      <trkpt lat="45.28148" lon="0.94545">
        <ele>129.2</ele>
        <time>2023-09-24T08:18:20Z</time>
      </trkpt>
      <trkpt lat="45.28158" lon="0.94562">
        <ele>129.4</ele>
        <time>2023-09-24T08:18:26Z</time>
      </trkpt>
      <trkpt lat="45.28159" lon="0.94569">
        <ele>129.6</ele>
        <time>2023-09-24T08:18:28Z</time>
      </trkpt>
      <trkpt lat="45.28158" lon="0.94571">
        <ele>129.7</ele>
        <time>2023-09-24T08:18:29Z</time>
      </trkpt>
      <trkpt lat="45.28147" lon="0.94583">
        <ele>130.2</ele>
        <time>2023-09-24T08:18:34Z</time>
      </trkpt>
      <trkpt lat="45.2814" lon="0.94592">
        <ele>130.7</ele>
        <time>2023-09-24T08:18:38Z</time>
      </trkpt>
      <trkpt lat="45.28138" lon="0.94595">
        <ele>130.8</ele>
        <time>2023-09-24T08:18:39Z</time>
      </trkpt>
      <trkpt lat="45.28129" lon="0.94606">
        <ele>131.5</ele>
        <time>2023-09-24T08:18:44Z</time>
      </trkpt>
      <trkpt lat="45.28125" lon="0.94611">
        <ele>131.8</ele>
        <time>2023-09-24T08:18:46Z</time>
      </trkpt>
      <trkpt lat="45.28122" lon="0.94613">
        <ele>132</ele>
        <time>2023-09-24T08:18:47Z</time>
      </trkpt>
      <trkpt lat="45.2811" lon="0.94625">
        <ele>132.8</ele>
        <time>2023-09-24T08:18:53Z</time>
      </trkpt>
      <trkpt lat="45.28101" lon="0.94636">
        <ele>133.4</ele>
        <time>2023-09-24T08:18:58Z</time>
      </trkpt>
      <trkpt lat="45.28096" lon="0.94639">
        <ele>133.7</ele>
        <time>2023-09-24T08:19:00Z</time>
      </trkpt>
      <trkpt lat="45.28093" lon="0.94644">
        <ele>133.9</ele>
        <time>2023-09-24T08:19:02Z</time>
      </trkpt>
      <trkpt lat="45.28092" lon="0.94647">
        <ele>134.1</ele>
        <time>2023-09-24T08:19:03Z</time>
      </trkpt>
      <trkpt lat="45.28088" lon="0.94666">
        <ele>134.8</ele>
        <time>2023-09-24T08:19:08Z</time>
      </trkpt>
      <trkpt lat="45.28087" lon="0.9467">
        <ele>135</ele>
        <time>2023-09-24T08:19:09Z</time>
      </trkpt>
      <trkpt lat="45.28087" lon="0.9468">
        <ele>135.2</ele>
        <time>2023-09-24T08:19:12Z</time>
      </trkpt>
      <trkpt lat="45.28089" lon="0.94685">
        <ele>135.4</ele>
        <time>2023-09-24T08:19:14Z</time>
      </trkpt>
      <trkpt lat="45.28089" lon="0.94693">
        <ele>135.6</ele>
        <time>2023-09-24T08:19:16Z</time>
      </trkpt>
      <trkpt lat="45.28088" lon="0.947">
        <ele>135.8</ele>
        <time>2023-09-24T08:19:18Z</time>
      </trkpt>
      <trkpt lat="45.28087" lon="0.94703">
        <ele>135.9</ele>
        <time>2023-09-24T08:19:19Z</time>
      </trkpt>
      <trkpt lat="45.28087" lon="0.94706">
        <ele>136</ele>
        <time>2023-09-24T08:19:20Z</time>
      </trkpt>
      <trkpt lat="45.2809" lon="0.9472">
        <ele>136.5</ele>
        <time>2023-09-24T08:19:23Z</time>
      </trkpt>
      <trkpt lat="45.28089" lon="0.94733">
        <ele>137.1</ele>
        <time>2023-09-24T08:19:26Z</time>
      </trkpt>
      <trkpt lat="45.28089" lon="0.94737">
        <ele>137.3</ele>
        <time>2023-09-24T08:19:27Z</time>
      </trkpt>
      <trkpt lat="45.28084" lon="0.94738">
        <ele>137.6</ele>
        <time>2023-09-24T08:19:28Z</time>
      </trkpt>
      <trkpt lat="45.28081" lon="0.94742">
        <ele>137.9</ele>
        <time>2023-09-24T08:19:30Z</time>
      </trkpt>
      <trkpt lat="45.28077" lon="0.94743">
        <ele>138.2</ele>
        <time>2023-09-24T08:19:31Z</time>
      </trkpt>
      <trkpt lat="45.28074" lon="0.94745">
        <ele>138.4</ele>
        <time>2023-09-24T08:19:32Z</time>
      </trkpt>
      <trkpt lat="45.28071" lon="0.94749">
        <ele>138.7</ele>
        <time>2023-09-24T08:19:34Z</time>
      </trkpt>
      <trkpt lat="45.28067" lon="0.9475">
        <ele>139</ele>
        <time>2023-09-24T08:19:35Z</time>
      </trkpt>
      <trkpt lat="45.28058" lon="0.94755">
        <ele>139.6</ele>
        <time>2023-09-24T08:19:38Z</time>
      </trkpt>
      <trkpt lat="45.28055" lon="0.94756">
        <ele>139.7</ele>
        <time>2023-09-24T08:19:39Z</time>
      </trkpt>
      <trkpt lat="45.28047" lon="0.94768">
        <ele>140.3</ele>
        <time>2023-09-24T08:19:44Z</time>
      </trkpt>
      <trkpt lat="45.28041" lon="0.94773">
        <ele>140.6</ele>
        <time>2023-09-24T08:19:46Z</time>
      </trkpt>
      <trkpt lat="45.28037" lon="0.94777">
        <ele>140.8</ele>
        <time>2023-09-24T08:19:48Z</time>
      </trkpt>
      <trkpt lat="45.28034" lon="0.9478">
        <ele>140.8</ele>
        <time>2023-09-24T08:19:49Z</time>
      </trkpt>
      <trkpt lat="45.28028" lon="0.94786">
        <ele>140.9</ele>
        <time>2023-09-24T08:19:51Z</time>
      </trkpt>
      <trkpt lat="45.28022" lon="0.9481">
        <ele>141.4</ele>
        <time>2023-09-24T08:19:57Z</time>
      </trkpt>
      <trkpt lat="45.28017" lon="0.94816">
        <ele>141.6</ele>
        <time>2023-09-24T08:19:59Z</time>
      </trkpt>
      <trkpt lat="45.28014" lon="0.94818">
        <ele>141.6</ele>
        <time>2023-09-24T08:20:00Z</time>
      </trkpt>
      <trkpt lat="45.27996" lon="0.94838">
        <ele>141.7</ele>
        <time>2023-09-24T08:20:07Z</time>
      </trkpt>
      <trkpt lat="45.27982" lon="0.94857">
        <ele>141.7</ele>
        <time>2023-09-24T08:20:13Z</time>
      </trkpt>
      <trkpt lat="45.27966" lon="0.94876">
        <ele>141.6</ele>
        <time>2023-09-24T08:20:19Z</time>
      </trkpt>
      <trkpt lat="45.27952" lon="0.94888">
        <ele>141.6</ele>
        <time>2023-09-24T08:20:24Z</time>
      </trkpt>
      <trkpt lat="45.27949" lon="0.94899">
        <ele>141.8</ele>
        <time>2023-09-24T08:20:27Z</time>
      </trkpt>
      <trkpt lat="45.27946" lon="0.94904">
        <ele>142</ele>
        <time>2023-09-24T08:20:29Z</time>
      </trkpt>
      <trkpt lat="45.27942" lon="0.94906">
        <ele>142.2</ele>
        <time>2023-09-24T08:20:30Z</time>
      </trkpt>
      <trkpt lat="45.27933" lon="0.94909">
        <ele>142.7</ele>
        <time>2023-09-24T08:20:33Z</time>
      </trkpt>
      <trkpt lat="45.27919" lon="0.94907">
        <ele>143.7</ele>
        <time>2023-09-24T08:20:37Z</time>
      </trkpt>
      <trkpt lat="45.27912" lon="0.94909">
        <ele>144.2</ele>
        <time>2023-09-24T08:20:40Z</time>
      </trkpt>
      <trkpt lat="45.27907" lon="0.9491">
        <ele>144.6</ele>
        <time>2023-09-24T08:20:42Z</time>
      </trkpt>
      <trkpt lat="45.27897" lon="0.94911">
        <ele>145.3</ele>
        <time>2023-09-24T08:20:46Z</time>
      </trkpt>
      <trkpt lat="45.27895" lon="0.94912">
        <ele>145.4</ele>
        <time>2023-09-24T08:20:47Z</time>
      </trkpt>
      <trkpt lat="45.27893" lon="0.94916">
        <ele>145.6</ele>
        <time>2023-09-24T08:20:49Z</time>
      </trkpt>
      <trkpt lat="45.27888" lon="0.9492">
        <ele>146.1</ele>
        <time>2023-09-24T08:20:52Z</time>
      </trkpt>
      <trkpt lat="45.27885" lon="0.94923">
        <ele>146.4</ele>
        <time>2023-09-24T08:20:54Z</time>
      </trkpt>
      <trkpt lat="45.27873" lon="0.94926">
        <ele>147.2</ele>
        <time>2023-09-24T08:20:58Z</time>
      </trkpt>
      <trkpt lat="45.27868" lon="0.94933">
        <ele>147.7</ele>
        <time>2023-09-24T08:21:02Z</time>
      </trkpt>
      <trkpt lat="45.27864" lon="0.94934">
        <ele>148</ele>
        <time>2023-09-24T08:21:03Z</time>
      </trkpt>
      <trkpt lat="45.27862" lon="0.94941">
        <ele>148.4</ele>
        <time>2023-09-24T08:21:06Z</time>
      </trkpt>
      <trkpt lat="45.27862" lon="0.94944">
        <ele>148.5</ele>
        <time>2023-09-24T08:21:07Z</time>
      </trkpt>
      <trkpt lat="45.27845" lon="0.94951">
        <ele>149.7</ele>
        <time>2023-09-24T08:21:13Z</time>
      </trkpt>
      <trkpt lat="45.27841" lon="0.94953">
        <ele>150</ele>
        <time>2023-09-24T08:21:15Z</time>
      </trkpt>
      <trkpt lat="45.27839" lon="0.94954">
        <ele>150.2</ele>
        <time>2023-09-24T08:21:16Z</time>
      </trkpt>
      <trkpt lat="45.27834" lon="0.94962">
        <ele>150.7</ele>
        <time>2023-09-24T08:21:20Z</time>
      </trkpt>
      <trkpt lat="45.27829" lon="0.94964">
        <ele>151</ele>
        <time>2023-09-24T08:21:22Z</time>
      </trkpt>
      <trkpt lat="45.2782" lon="0.94968">
        <ele>151.6</ele>
        <time>2023-09-24T08:21:26Z</time>
      </trkpt>
      <trkpt lat="45.27811" lon="0.94971">
        <ele>152.2</ele>
        <time>2023-09-24T08:21:30Z</time>
      </trkpt>
      <trkpt lat="45.27802" lon="0.94974">
        <ele>152.8</ele>
        <time>2023-09-24T08:21:34Z</time>
      </trkpt>
      <trkpt lat="45.27793" lon="0.94976">
        <ele>153.4</ele>
        <time>2023-09-24T08:21:38Z</time>
      </trkpt>
      <trkpt lat="45.27779" lon="0.94979">
        <ele>154.3</ele>
        <time>2023-09-24T08:21:44Z</time>
      </trkpt>
      <trkpt lat="45.27768" lon="0.9498">
        <ele>155.1</ele>
        <time>2023-09-24T08:21:49Z</time>
      </trkpt>
      <trkpt lat="45.27757" lon="0.94982">
        <ele>155.8</ele>
        <time>2023-09-24T08:21:54Z</time>
      </trkpt>
      <trkpt lat="45.27753" lon="0.94984">
        <ele>156.1</ele>
        <time>2023-09-24T08:21:56Z</time>
      </trkpt>
      <trkpt lat="45.27751" lon="0.94984">
        <ele>156.2</ele>
        <time>2023-09-24T08:21:57Z</time>
      </trkpt>
      <trkpt lat="45.2775" lon="0.94985">
        <ele>156.3</ele>
        <time>2023-09-24T08:21:58Z</time>
      </trkpt>
      <trkpt lat="45.27752" lon="0.94988">
        <ele>156.5</ele>
        <time>2023-09-24T08:21:59Z</time>
      </trkpt>
      <trkpt lat="45.27757" lon="0.94997">
        <ele>157</ele>
        <time>2023-09-24T08:22:02Z</time>
      </trkpt>
      <trkpt lat="45.27758" lon="0.95">
        <ele>157.2</ele>
        <time>2023-09-24T08:22:03Z</time>
      </trkpt>
      <trkpt lat="45.27745" lon="0.95">
        <ele>158.1</ele>
        <time>2023-09-24T08:22:06Z</time>
      </trkpt>
      <trkpt lat="45.27735" lon="0.95004">
        <ele>158.9</ele>
        <time>2023-09-24T08:22:10Z</time>
      </trkpt>
      <trkpt lat="45.27736" lon="0.95006">
        <ele>159.1</ele>
        <time>2023-09-24T08:22:11Z</time>
      </trkpt>
      <trkpt lat="45.27726" lon="0.95008">
        <ele>160</ele>
        <time>2023-09-24T08:22:14Z</time>
      </trkpt>
      <trkpt lat="45.27715" lon="0.95006">
        <ele>160.9</ele>
        <time>2023-09-24T08:22:17Z</time>
      </trkpt>
      <trkpt lat="45.27702" lon="0.95004">
        <ele>162.2</ele>
        <time>2023-09-24T08:22:21Z</time>
      </trkpt>
      <trkpt lat="45.27692" lon="0.95005">
        <ele>163</ele>
        <time>2023-09-24T08:22:25Z</time>
      </trkpt>
      <trkpt lat="45.27685" lon="0.95008">
        <ele>163.7</ele>
        <time>2023-09-24T08:22:29Z</time>
      </trkpt>
      <trkpt lat="45.27685" lon="0.95009">
        <ele>163.8</ele>
        <time>2023-09-24T08:22:30Z</time>
      </trkpt>
      <trkpt lat="45.2766" lon="0.95025">
        <ele>165.9</ele>
        <time>2023-09-24T08:22:43Z</time>
      </trkpt>
      <trkpt lat="45.27656" lon="0.95027">
        <ele>166.2</ele>
        <time>2023-09-24T08:22:45Z</time>
      </trkpt>
      <trkpt lat="45.27652" lon="0.95033">
        <ele>166.7</ele>
        <time>2023-09-24T08:22:48Z</time>
      </trkpt>
      <trkpt lat="45.27651" lon="0.95036">
        <ele>166.9</ele>
        <time>2023-09-24T08:22:49Z</time>
      </trkpt>
      <trkpt lat="45.27646" lon="0.95043">
        <ele>167.5</ele>
        <time>2023-09-24T08:22:53Z</time>
      </trkpt>
      <trkpt lat="45.27641" lon="0.95049">
        <ele>168.1</ele>
        <time>2023-09-24T08:22:57Z</time>
      </trkpt>
      <trkpt lat="45.27636" lon="0.95052">
        <ele>168.5</ele>
        <time>2023-09-24T08:22:59Z</time>
      </trkpt>
      <trkpt lat="45.27634" lon="0.95055">
        <ele>168.8</ele>
        <time>2023-09-24T08:23:01Z</time>
      </trkpt>
      <trkpt lat="45.27634" lon="0.95058">
        <ele>169</ele>
        <time>2023-09-24T08:23:02Z</time>
      </trkpt>
      <trkpt lat="45.2763" lon="0.95064">
        <ele>169.5</ele>
        <time>2023-09-24T08:23:05Z</time>
      </trkpt>
      <trkpt lat="45.27628" lon="0.95066">
        <ele>169.6</ele>
        <time>2023-09-24T08:23:06Z</time>
      </trkpt>
      <trkpt lat="45.27625" lon="0.95069">
        <ele>169.9</ele>
        <time>2023-09-24T08:23:08Z</time>
      </trkpt>
      <trkpt lat="45.27625" lon="0.95072">
        <ele>170</ele>
        <time>2023-09-24T08:23:09Z</time>
      </trkpt>
      <trkpt lat="45.27616" lon="0.9508">
        <ele>170.6</ele>
        <time>2023-09-24T08:23:14Z</time>
      </trkpt>
      <trkpt lat="45.27611" lon="0.95091">
        <ele>171</ele>
        <time>2023-09-24T08:23:18Z</time>
      </trkpt>
      <trkpt lat="45.27608" lon="0.95093">
        <ele>171.2</ele>
        <time>2023-09-24T08:23:19Z</time>
      </trkpt>
      <trkpt lat="45.27603" lon="0.95098">
        <ele>171.5</ele>
        <time>2023-09-24T08:23:21Z</time>
      </trkpt>
      <trkpt lat="45.27602" lon="0.95104">
        <ele>171.7</ele>
        <time>2023-09-24T08:23:23Z</time>
      </trkpt>
      <trkpt lat="45.27598" lon="0.95112">
        <ele>172.1</ele>
        <time>2023-09-24T08:23:26Z</time>
      </trkpt>
      <trkpt lat="45.27596" lon="0.95114">
        <ele>172.2</ele>
        <time>2023-09-24T08:23:27Z</time>
      </trkpt>
      <trkpt lat="45.27595" lon="0.95117">
        <ele>172.3</ele>
        <time>2023-09-24T08:23:28Z</time>
      </trkpt>
      <trkpt lat="45.27593" lon="0.95124">
        <ele>172.6</ele>
        <time>2023-09-24T08:23:31Z</time>
      </trkpt>
      <trkpt lat="45.27597" lon="0.95132">
        <ele>172.9</ele>
        <time>2023-09-24T08:23:33Z</time>
      </trkpt>
      <trkpt lat="45.27598" lon="0.95147">
        <ele>173.5</ele>
        <time>2023-09-24T08:23:37Z</time>
      </trkpt>
      <trkpt lat="45.27596" lon="0.95163">
        <ele>174.2</ele>
        <time>2023-09-24T08:23:42Z</time>
      </trkpt>
      <trkpt lat="45.27595" lon="0.95166">
        <ele>174.3</ele>
        <time>2023-09-24T08:23:43Z</time>
      </trkpt>
      <trkpt lat="45.27595" lon="0.95173">
        <ele>174.7</ele>
        <time>2023-09-24T08:23:45Z</time>
      </trkpt>
      <trkpt lat="45.27593" lon="0.95175">
        <ele>174.8</ele>
        <time>2023-09-24T08:23:46Z</time>
      </trkpt>
      <trkpt lat="45.27592" lon="0.95187">
        <ele>175.3</ele>
        <time>2023-09-24T08:23:49Z</time>
      </trkpt>
      <trkpt lat="45.27591" lon="0.95191">
        <ele>175.5</ele>
        <time>2023-09-24T08:23:50Z</time>
      </trkpt>
      <trkpt lat="45.27588" lon="0.95197">
        <ele>175.8</ele>
        <time>2023-09-24T08:23:53Z</time>
      </trkpt>
      <trkpt lat="45.27586" lon="0.95208">
        <ele>176.1</ele>
        <time>2023-09-24T08:23:57Z</time>
      </trkpt>
      <trkpt lat="45.27587" lon="0.95216">
        <ele>176.4</ele>
        <time>2023-09-24T08:23:59Z</time>
      </trkpt>
      <trkpt lat="45.27585" lon="0.95218">
        <ele>176.5</ele>
        <time>2023-09-24T08:24:00Z</time>
      </trkpt>
      <trkpt lat="45.27581" lon="0.95221">
        <ele>176.6</ele>
        <time>2023-09-24T08:24:02Z</time>
      </trkpt>
      <trkpt lat="45.27575" lon="0.95226">
        <ele>176.9</ele>
        <time>2023-09-24T08:24:05Z</time>
      </trkpt>
      <trkpt lat="45.27573" lon="0.95229">
        <ele>176.9</ele>
        <time>2023-09-24T08:24:06Z</time>
      </trkpt>
      <trkpt lat="45.27568" lon="0.95235">
        <ele>177.1</ele>
        <time>2023-09-24T08:24:09Z</time>
      </trkpt>
      <trkpt lat="45.27567" lon="0.9524">
        <ele>177.2</ele>
        <time>2023-09-24T08:24:11Z</time>
      </trkpt>
      <trkpt lat="45.27565" lon="0.9525">
        <ele>177.4</ele>
        <time>2023-09-24T08:24:14Z</time>
      </trkpt>
      <trkpt lat="45.27564" lon="0.95258">
        <ele>177.5</ele>
        <time>2023-09-24T08:24:16Z</time>
      </trkpt>
      <trkpt lat="45.27562" lon="0.95264">
        <ele>177.6</ele>
        <time>2023-09-24T08:24:18Z</time>
      </trkpt>
      <trkpt lat="45.27561" lon="0.9528">
        <ele>177.7</ele>
        <time>2023-09-24T08:24:23Z</time>
      </trkpt>
      <trkpt lat="45.27562" lon="0.95299">
        <ele>177.7</ele>
        <time>2023-09-24T08:24:28Z</time>
      </trkpt>
      <trkpt lat="45.27563" lon="0.95308">
        <ele>177.6</ele>
        <time>2023-09-24T08:24:30Z</time>
      </trkpt>
      <trkpt lat="45.27562" lon="0.95317">
        <ele>177.6</ele>
        <time>2023-09-24T08:24:32Z</time>
      </trkpt>
      <trkpt lat="45.27554" lon="0.95338">
        <ele>177.6</ele>
        <time>2023-09-24T08:24:38Z</time>
      </trkpt>
      <trkpt lat="45.27545" lon="0.95349">
        <ele>177.8</ele>
        <time>2023-09-24T08:24:42Z</time>
      </trkpt>
      <trkpt lat="45.27543" lon="0.95352">
        <ele>177.8</ele>
        <time>2023-09-24T08:24:43Z</time>
      </trkpt>
      <trkpt lat="45.27537" lon="0.95359">
        <ele>178</ele>
        <time>2023-09-24T08:24:46Z</time>
      </trkpt>
      <trkpt lat="45.27532" lon="0.95361">
        <ele>178.1</ele>
        <time>2023-09-24T08:24:48Z</time>
      </trkpt>
      <trkpt lat="45.27524" lon="0.95363">
        <ele>178.4</ele>
        <time>2023-09-24T08:24:51Z</time>
      </trkpt>
      <trkpt lat="45.27522" lon="0.95364">
        <ele>178.4</ele>
        <time>2023-09-24T08:24:52Z</time>
      </trkpt>
      <trkpt lat="45.27516" lon="0.95365">
        <ele>178.6</ele>
        <time>2023-09-24T08:24:54Z</time>
      </trkpt>
      <trkpt lat="45.27513" lon="0.95366">
        <ele>178.7</ele>
        <time>2023-09-24T08:24:55Z</time>
      </trkpt>
      <trkpt lat="45.27505" lon="0.95369">
        <ele>179.1</ele>
        <time>2023-09-24T08:24:58Z</time>
      </trkpt>
      <trkpt lat="45.27503" lon="0.95371">
        <ele>179.2</ele>
        <time>2023-09-24T08:24:59Z</time>
      </trkpt>
      <trkpt lat="45.27494" lon="0.95372">
        <ele>179.6</ele>
        <time>2023-09-24T08:25:03Z</time>
      </trkpt>
      <trkpt lat="45.27492" lon="0.9537">
        <ele>179.7</ele>
        <time>2023-09-24T08:25:04Z</time>
      </trkpt>
      <trkpt lat="45.27483" lon="0.95359">
        <ele>179.9</ele>
        <time>2023-09-24T08:25:09Z</time>
      </trkpt>
      <trkpt lat="45.27476" lon="0.95349">
        <ele>180</ele>
        <time>2023-09-24T08:25:13Z</time>
      </trkpt>
      <trkpt lat="45.27473" lon="0.95344">
        <ele>180.1</ele>
        <time>2023-09-24T08:25:15Z</time>
      </trkpt>
      <trkpt lat="45.27469" lon="0.95337">
        <ele>180.1</ele>
        <time>2023-09-24T08:25:17Z</time>
      </trkpt>
      <trkpt lat="45.27457" lon="0.95317">
        <ele>179.9</ele>
        <time>2023-09-24T08:25:22Z</time>
      </trkpt>
      <trkpt lat="45.27442" lon="0.95292">
        <ele>179.1</ele>
        <time>2023-09-24T08:25:28Z</time>
      </trkpt>
      <trkpt lat="45.27424" lon="0.95262">
        <ele>177.5</ele>
        <time>2023-09-24T08:25:33Z</time>
      </trkpt>
      <trkpt lat="45.27414" lon="0.9524">
        <ele>176.1</ele>
        <time>2023-09-24T08:25:36Z</time>
      </trkpt>
      <trkpt lat="45.27412" lon="0.95233">
        <ele>175.7</ele>
        <time>2023-09-24T08:25:37Z</time>
      </trkpt>
      <trkpt lat="45.27409" lon="0.95226">
        <ele>175.3</ele>
        <time>2023-09-24T08:25:38Z</time>
      </trkpt>
      <trkpt lat="45.27402" lon="0.95219">
        <ele>174.4</ele>
        <time>2023-09-24T08:25:40Z</time>
      </trkpt>
      <trkpt lat="45.27399" lon="0.95219">
        <ele>174.4</ele>
        <time>2023-09-24T08:25:41Z</time>
      </trkpt>
      <trkpt lat="45.27397" lon="0.95221">
        <ele>174.4</ele>
        <time>2023-09-24T08:25:42Z</time>
      </trkpt>
      <trkpt lat="45.27386" lon="0.95231">
        <ele>174.9</ele>
        <time>2023-09-24T08:25:46Z</time>
      </trkpt>
      <trkpt lat="45.2737" lon="0.95248">
        <ele>176.1</ele>
        <time>2023-09-24T08:25:53Z</time>
      </trkpt>
      <trkpt lat="45.27366" lon="0.95252">
        <ele>176.5</ele>
        <time>2023-09-24T08:25:55Z</time>
      </trkpt>
      <trkpt lat="45.27364" lon="0.95254">
        <ele>176.6</ele>
        <time>2023-09-24T08:25:56Z</time>
      </trkpt>
      <trkpt lat="45.27362" lon="0.95256">
        <ele>176.8</ele>
        <time>2023-09-24T08:25:57Z</time>
      </trkpt>
      <trkpt lat="45.2736" lon="0.95258">
        <ele>176.9</ele>
        <time>2023-09-24T08:25:58Z</time>
      </trkpt>
      <trkpt lat="45.27347" lon="0.95272">
        <ele>177.6</ele>
        <time>2023-09-24T08:26:03Z</time>
      </trkpt>
      <trkpt lat="45.27329" lon="0.95289">
        <ele>178.1</ele>
        <time>2023-09-24T08:26:09Z</time>
      </trkpt>
      <trkpt lat="45.27317" lon="0.95308">
        <ele>178.5</ele>
        <time>2023-09-24T08:26:14Z</time>
      </trkpt>
      <trkpt lat="45.27311" lon="0.95314">
        <ele>178.7</ele>
        <time>2023-09-24T08:26:16Z</time>
      </trkpt>
      <trkpt lat="45.27299" lon="0.95328">
        <ele>178.9</ele>
        <time>2023-09-24T08:26:20Z</time>
      </trkpt>
      <trkpt lat="45.27297" lon="0.95333">
        <ele>178.9</ele>
        <time>2023-09-24T08:26:21Z</time>
      </trkpt>
      <trkpt lat="45.27288" lon="0.95347">
        <ele>179</ele>
        <time>2023-09-24T08:26:24Z</time>
      </trkpt>
      <trkpt lat="45.27275" lon="0.95365">
        <ele>179</ele>
        <time>2023-09-24T08:26:28Z</time>
      </trkpt>
      <trkpt lat="45.27254" lon="0.95396">
        <ele>179.1</ele>
        <time>2023-09-24T08:26:35Z</time>
      </trkpt>
      <trkpt lat="45.2724" lon="0.95413">
        <ele>179.2</ele>
        <time>2023-09-24T08:26:39Z</time>
      </trkpt>
      <trkpt lat="45.27236" lon="0.95417">
        <ele>179.2</ele>
        <time>2023-09-24T08:26:40Z</time>
      </trkpt>
      <trkpt lat="45.27203" lon="0.95447">
        <ele>179.9</ele>
        <time>2023-09-24T08:26:48Z</time>
      </trkpt>
      <trkpt lat="45.27189" lon="0.95457">
        <ele>180.8</ele>
        <time>2023-09-24T08:26:52Z</time>
      </trkpt>
      <trkpt lat="45.27175" lon="0.95474">
        <ele>181.5</ele>
        <time>2023-09-24T08:26:58Z</time>
      </trkpt>
      <trkpt lat="45.27166" lon="0.95488">
        <ele>182.1</ele>
        <time>2023-09-24T08:27:02Z</time>
      </trkpt>
      <trkpt lat="45.27164" lon="0.95491">
        <ele>182.3</ele>
        <time>2023-09-24T08:27:03Z</time>
      </trkpt>
      <trkpt lat="45.2716" lon="0.95498">
        <ele>182.7</ele>
        <time>2023-09-24T08:27:05Z</time>
      </trkpt>
      <trkpt lat="45.27155" lon="0.95504">
        <ele>183.1</ele>
        <time>2023-09-24T08:27:07Z</time>
      </trkpt>
      <trkpt lat="45.27146" lon="0.95537">
        <ele>184.3</ele>
        <time>2023-09-24T08:27:15Z</time>
      </trkpt>
      <trkpt lat="45.27147" lon="0.95549">
        <ele>184.6</ele>
        <time>2023-09-24T08:27:18Z</time>
      </trkpt>
      <trkpt lat="45.27145" lon="0.95558">
        <ele>184.9</ele>
        <time>2023-09-24T08:27:20Z</time>
      </trkpt>
      <trkpt lat="45.27141" lon="0.9557">
        <ele>185.3</ele>
        <time>2023-09-24T08:27:23Z</time>
      </trkpt>
      <trkpt lat="45.27139" lon="0.95574">
        <ele>185.4</ele>
        <time>2023-09-24T08:27:24Z</time>
      </trkpt>
      <trkpt lat="45.27123" lon="0.95584">
        <ele>185.7</ele>
        <time>2023-09-24T08:27:28Z</time>
      </trkpt>
      <trkpt lat="45.271" lon="0.95611">
        <ele>185.4</ele>
        <time>2023-09-24T08:27:35Z</time>
      </trkpt>
      <trkpt lat="45.27096" lon="0.95616">
        <ele>185.4</ele>
        <time>2023-09-24T08:27:36Z</time>
      </trkpt>
      <trkpt lat="45.27081" lon="0.95622">
        <ele>185.1</ele>
        <time>2023-09-24T08:27:39Z</time>
      </trkpt>
      <trkpt lat="45.2707" lon="0.95621">
        <ele>185.3</ele>
        <time>2023-09-24T08:27:41Z</time>
      </trkpt>
      <trkpt lat="45.27071" lon="0.95629">
        <ele>185.5</ele>
        <time>2023-09-24T08:27:43Z</time>
      </trkpt>
      <trkpt lat="45.2708" lon="0.95649">
        <ele>186.2</ele>
        <time>2023-09-24T08:27:49Z</time>
      </trkpt>
      <trkpt lat="45.27091" lon="0.95668">
        <ele>187.4</ele>
        <time>2023-09-24T08:27:55Z</time>
      </trkpt>
      <trkpt lat="45.27095" lon="0.95674">
        <ele>187.8</ele>
        <time>2023-09-24T08:27:57Z</time>
      </trkpt>
      <trkpt lat="45.27098" lon="0.95685">
        <ele>188.5</ele>
        <time>2023-09-24T08:28:01Z</time>
      </trkpt>
      <trkpt lat="45.27102" lon="0.95692">
        <ele>189</ele>
        <time>2023-09-24T08:28:04Z</time>
      </trkpt>
      <trkpt lat="45.27104" lon="0.95695">
        <ele>189.1</ele>
        <time>2023-09-24T08:28:05Z</time>
      </trkpt>
      <trkpt lat="45.2711" lon="0.95707">
        <ele>189.9</ele>
        <time>2023-09-24T08:28:10Z</time>
      </trkpt>
      <trkpt lat="45.27116" lon="0.95724">
        <ele>190.8</ele>
        <time>2023-09-24T08:28:16Z</time>
      </trkpt>
      <trkpt lat="45.27124" lon="0.95744">
        <ele>191.9</ele>
        <time>2023-09-24T08:28:24Z</time>
      </trkpt>
      <trkpt lat="45.2713" lon="0.9576">
        <ele>192.8</ele>
        <time>2023-09-24T08:28:30Z</time>
      </trkpt>
      <trkpt lat="45.27136" lon="0.95777">
        <ele>193.7</ele>
        <time>2023-09-24T08:28:36Z</time>
      </trkpt>
      <trkpt lat="45.27141" lon="0.95788">
        <ele>194.4</ele>
        <time>2023-09-24T08:28:41Z</time>
      </trkpt>
      <trkpt lat="45.27146" lon="0.95795">
        <ele>194.9</ele>
        <time>2023-09-24T08:28:44Z</time>
      </trkpt>
      <trkpt lat="45.27151" lon="0.95802">
        <ele>195.5</ele>
        <time>2023-09-24T08:28:47Z</time>
      </trkpt>
      <trkpt lat="45.27156" lon="0.9581">
        <ele>196.1</ele>
        <time>2023-09-24T08:28:51Z</time>
      </trkpt>
      <trkpt lat="45.27161" lon="0.95821">
        <ele>196.7</ele>
        <time>2023-09-24T08:28:56Z</time>
      </trkpt>
      <trkpt lat="45.27168" lon="0.95836">
        <ele>197.5</ele>
        <time>2023-09-24T08:29:02Z</time>
      </trkpt>
      <trkpt lat="45.27169" lon="0.95838">
        <ele>197.6</ele>
        <time>2023-09-24T08:29:03Z</time>
      </trkpt>
      <trkpt lat="45.27173" lon="0.95846">
        <ele>198</ele>
        <time>2023-09-24T08:29:06Z</time>
      </trkpt>
      <trkpt lat="45.27176" lon="0.95851">
        <ele>198.3</ele>
        <time>2023-09-24T08:29:08Z</time>
      </trkpt>
      <trkpt lat="45.27179" lon="0.95859">
        <ele>198.7</ele>
        <time>2023-09-24T08:29:11Z</time>
      </trkpt>
      <trkpt lat="45.27182" lon="0.95875">
        <ele>199.3</ele>
        <time>2023-09-24T08:29:16Z</time>
      </trkpt>
      <trkpt lat="45.27183" lon="0.95878">
        <ele>199.4</ele>
        <time>2023-09-24T08:29:17Z</time>
      </trkpt>
      <trkpt lat="45.27185" lon="0.95889">
        <ele>199.8</ele>
        <time>2023-09-24T08:29:20Z</time>
      </trkpt>
      <trkpt lat="45.27189" lon="0.95909">
        <ele>200.6</ele>
        <time>2023-09-24T08:29:26Z</time>
      </trkpt>
      <trkpt lat="45.2719" lon="0.95926">
        <ele>201.2</ele>
        <time>2023-09-24T08:29:31Z</time>
      </trkpt>
      <trkpt lat="45.27189" lon="0.95942">
        <ele>201.5</ele>
        <time>2023-09-24T08:29:35Z</time>
      </trkpt>
      <trkpt lat="45.27186" lon="0.95958">
        <ele>201.6</ele>
        <time>2023-09-24T08:29:38Z</time>
      </trkpt>
      <trkpt lat="45.27185" lon="0.95965">
        <ele>201.5</ele>
        <time>2023-09-24T08:29:40Z</time>
      </trkpt>
      <trkpt lat="45.2718" lon="0.9599">
        <ele>201.2</ele>
        <time>2023-09-24T08:29:46Z</time>
      </trkpt>
      <trkpt lat="45.27175" lon="0.96013">
        <ele>200.9</ele>
        <time>2023-09-24T08:29:51Z</time>
      </trkpt>
      <trkpt lat="45.27168" lon="0.96043">
        <ele>200.3</ele>
        <time>2023-09-24T08:29:57Z</time>
      </trkpt>
      <trkpt lat="45.27164" lon="0.96066">
        <ele>200</ele>
        <time>2023-09-24T08:30:02Z</time>
      </trkpt>
      <trkpt lat="45.27157" lon="0.9609">
        <ele>199.7</ele>
        <time>2023-09-24T08:30:07Z</time>
      </trkpt>
      <trkpt lat="45.27151" lon="0.96106">
        <ele>199.7</ele>
        <time>2023-09-24T08:30:11Z</time>
      </trkpt>
      <trkpt lat="45.27145" lon="0.96125">
        <ele>199.7</ele>
        <time>2023-09-24T08:30:16Z</time>
      </trkpt>
      <trkpt lat="45.27147" lon="0.96152">
        <ele>199.9</ele>
        <time>2023-09-24T08:30:21Z</time>
      </trkpt>
      <trkpt lat="45.2715" lon="0.96178">
        <ele>200.2</ele>
        <time>2023-09-24T08:30:26Z</time>
      </trkpt>
      <trkpt lat="45.27149" lon="0.96198">
        <ele>200.5</ele>
        <time>2023-09-24T08:30:31Z</time>
      </trkpt>
      <trkpt lat="45.27153" lon="0.96221">
        <ele>200.8</ele>
        <time>2023-09-24T08:30:36Z</time>
      </trkpt>
      <trkpt lat="45.27155" lon="0.96236">
        <ele>200.9</ele>
        <time>2023-09-24T08:30:41Z</time>
      </trkpt>
      <trkpt lat="45.27152" lon="0.96249">
        <ele>200.9</ele>
        <time>2023-09-24T08:30:46Z</time>
      </trkpt>
      <trkpt lat="45.27144" lon="0.96258">
        <ele>200.7</ele>
        <time>2023-09-24T08:30:50Z</time>
      </trkpt>
      <trkpt lat="45.27147" lon="0.9628">
        <ele>200.8</ele>
        <time>2023-09-24T08:30:55Z</time>
      </trkpt>
      <trkpt lat="45.2715" lon="0.96299">
        <ele>200.9</ele>
        <time>2023-09-24T08:30:59Z</time>
      </trkpt>
      <trkpt lat="45.27152" lon="0.96326">
        <ele>200.8</ele>
        <time>2023-09-24T08:31:04Z</time>
      </trkpt>
      <trkpt lat="45.27157" lon="0.96346">
        <ele>200.7</ele>
        <time>2023-09-24T08:31:08Z</time>
      </trkpt>
      <trkpt lat="45.27166" lon="0.96376">
        <ele>200.5</ele>
        <time>2023-09-24T08:31:14Z</time>
      </trkpt>
      <trkpt lat="45.27171" lon="0.96393">
        <ele>200.3</ele>
        <time>2023-09-24T08:31:19Z</time>
      </trkpt>
      <trkpt lat="45.27175" lon="0.96411">
        <ele>200.1</ele>
        <time>2023-09-24T08:31:23Z</time>
      </trkpt>
      <trkpt lat="45.27176" lon="0.96416">
        <ele>200</ele>
        <time>2023-09-24T08:31:24Z</time>
      </trkpt>
      <trkpt lat="45.27178" lon="0.96431">
        <ele>199.8</ele>
        <time>2023-09-24T08:31:27Z</time>
      </trkpt>
      <trkpt lat="45.27181" lon="0.96445">
        <ele>199.7</ele>
        <time>2023-09-24T08:31:30Z</time>
      </trkpt>
      <trkpt lat="45.27185" lon="0.96461">
        <ele>199.7</ele>
        <time>2023-09-24T08:31:33Z</time>
      </trkpt>
      <trkpt lat="45.27191" lon="0.96479">
        <ele>199.8</ele>
        <time>2023-09-24T08:31:36Z</time>
      </trkpt>
      <trkpt lat="45.27194" lon="0.96491">
        <ele>199.7</ele>
        <time>2023-09-24T08:31:38Z</time>
      </trkpt>
      <trkpt lat="45.27203" lon="0.96524">
        <ele>199.4</ele>
        <time>2023-09-24T08:31:43Z</time>
      </trkpt>
      <trkpt lat="45.27205" lon="0.96532">
        <ele>199.3</ele>
        <time>2023-09-24T08:31:44Z</time>
      </trkpt>
      <trkpt lat="45.27209" lon="0.96546">
        <ele>199.2</ele>
        <time>2023-09-24T08:31:46Z</time>
      </trkpt>
      <trkpt lat="45.27209" lon="0.96554">
        <ele>199.2</ele>
        <time>2023-09-24T08:31:47Z</time>
      </trkpt>
      <trkpt lat="45.2721" lon="0.96561">
        <ele>199.1</ele>
        <time>2023-09-24T08:31:48Z</time>
      </trkpt>
      <trkpt lat="45.27216" lon="0.96588">
        <ele>199.3</ele>
        <time>2023-09-24T08:31:52Z</time>
      </trkpt>
      <trkpt lat="45.27218" lon="0.96612">
        <ele>199.5</ele>
        <time>2023-09-24T08:31:57Z</time>
      </trkpt>
      <trkpt lat="45.27213" lon="0.96636">
        <ele>199.6</ele>
        <time>2023-09-24T08:32:02Z</time>
      </trkpt>
      <trkpt lat="45.27208" lon="0.96664">
        <ele>199.3</ele>
        <time>2023-09-24T08:32:07Z</time>
      </trkpt>
      <trkpt lat="45.27203" lon="0.96686">
        <ele>198.7</ele>
        <time>2023-09-24T08:32:11Z</time>
      </trkpt>
      <trkpt lat="45.27195" lon="0.967">
        <ele>198</ele>
        <time>2023-09-24T08:32:15Z</time>
      </trkpt>
      <trkpt lat="45.27188" lon="0.96711">
        <ele>197.4</ele>
        <time>2023-09-24T08:32:18Z</time>
      </trkpt>
      <trkpt lat="45.2718" lon="0.9672">
        <ele>196.9</ele>
        <time>2023-09-24T08:32:21Z</time>
      </trkpt>
      <trkpt lat="45.2717" lon="0.96734">
        <ele>196.4</ele>
        <time>2023-09-24T08:32:26Z</time>
      </trkpt>
      <trkpt lat="45.27161" lon="0.96742">
        <ele>195.9</ele>
        <time>2023-09-24T08:32:30Z</time>
      </trkpt>
      <trkpt lat="45.27154" lon="0.96735">
        <ele>196.2</ele>
        <time>2023-09-24T08:32:34Z</time>
      </trkpt>
      <trkpt lat="45.27152" lon="0.96733">
        <ele>196.3</ele>
        <time>2023-09-24T08:32:35Z</time>
      </trkpt>
      <trkpt lat="45.2715" lon="0.96731">
        <ele>196.4</ele>
        <time>2023-09-24T08:32:36Z</time>
      </trkpt>
      <trkpt lat="45.27137" lon="0.96724">
        <ele>197.1</ele>
        <time>2023-09-24T08:32:43Z</time>
      </trkpt>
      <trkpt lat="45.27124" lon="0.96728">
        <ele>197.3</ele>
        <time>2023-09-24T08:32:49Z</time>
      </trkpt>
      <trkpt lat="45.27111" lon="0.96735">
        <ele>197.3</ele>
        <time>2023-09-24T08:32:55Z</time>
      </trkpt>
      <trkpt lat="45.27105" lon="0.96738">
        <ele>197.3</ele>
        <time>2023-09-24T08:32:58Z</time>
      </trkpt>
      <trkpt lat="45.27091" lon="0.96746">
        <ele>197.9</ele>
        <time>2023-09-24T08:33:05Z</time>
      </trkpt>
      <trkpt lat="45.27084" lon="0.96749">
        <ele>198.3</ele>
        <time>2023-09-24T08:33:08Z</time>
      </trkpt>
      <trkpt lat="45.27082" lon="0.9675">
        <ele>198.5</ele>
        <time>2023-09-24T08:33:09Z</time>
      </trkpt>
      <trkpt lat="45.2707" lon="0.96754">
        <ele>199.4</ele>
        <time>2023-09-24T08:33:14Z</time>
      </trkpt>
      <trkpt lat="45.27058" lon="0.96759">
        <ele>200.6</ele>
        <time>2023-09-24T08:33:20Z</time>
      </trkpt>
      <trkpt lat="45.27056" lon="0.9676">
        <ele>200.8</ele>
        <time>2023-09-24T08:33:21Z</time>
      </trkpt>
      <trkpt lat="45.27049" lon="0.96761">
        <ele>201.2</ele>
        <time>2023-09-24T08:33:24Z</time>
      </trkpt>
      <trkpt lat="45.27047" lon="0.96757">
        <ele>201.3</ele>
        <time>2023-09-24T08:33:26Z</time>
      </trkpt>
      <trkpt lat="45.27046" lon="0.96754">
        <ele>201.4</ele>
        <time>2023-09-24T08:33:27Z</time>
      </trkpt>
      <trkpt lat="45.27046" lon="0.96747">
        <ele>201.4</ele>
        <time>2023-09-24T08:33:29Z</time>
      </trkpt>
      <trkpt lat="45.27045" lon="0.96743">
        <ele>201.4</ele>
        <time>2023-09-24T08:33:30Z</time>
      </trkpt>
      <trkpt lat="45.27046" lon="0.96735">
        <ele>201.2</ele>
        <time>2023-09-24T08:33:32Z</time>
      </trkpt>
      <trkpt lat="45.2705" lon="0.96719">
        <ele>201</ele>
        <time>2023-09-24T08:33:36Z</time>
      </trkpt>
      <trkpt lat="45.27054" lon="0.96697">
        <ele>201.1</ele>
        <time>2023-09-24T08:33:40Z</time>
      </trkpt>
      <trkpt lat="45.27056" lon="0.96688">
        <ele>201.1</ele>
        <time>2023-09-24T08:33:42Z</time>
      </trkpt>
      <trkpt lat="45.27057" lon="0.9668">
        <ele>201.1</ele>
        <time>2023-09-24T08:33:44Z</time>
      </trkpt>
      <trkpt lat="45.27056" lon="0.9667">
        <ele>201</ele>
        <time>2023-09-24T08:33:47Z</time>
      </trkpt>
      <trkpt lat="45.27057" lon="0.96669">
        <ele>200.9</ele>
        <time>2023-09-24T08:33:50Z</time>
      </trkpt>
      <trkpt lat="45.27056" lon="0.96654">
        <ele>200.5</ele>
        <time>2023-09-24T08:34:32Z</time>
      </trkpt>
      <trkpt lat="45.27056" lon="0.9665">
        <ele>200.3</ele>
        <time>2023-09-24T08:34:33Z</time>
      </trkpt>
      <trkpt lat="45.27056" lon="0.96646">
        <ele>200.2</ele>
        <time>2023-09-24T08:34:34Z</time>
      </trkpt>
      <trkpt lat="45.27054" lon="0.96627">
        <ele>199.3</ele>
        <time>2023-09-24T08:34:38Z</time>
      </trkpt>
      <trkpt lat="45.27048" lon="0.96592">
        <ele>196.8</ele>
        <time>2023-09-24T08:34:43Z</time>
      </trkpt>
      <trkpt lat="45.27047" lon="0.96583">
        <ele>196.6</ele>
        <time>2023-09-24T08:34:44Z</time>
      </trkpt>
      <trkpt lat="45.27045" lon="0.96566">
        <ele>196.2</ele>
        <time>2023-09-24T08:34:46Z</time>
      </trkpt>
      <trkpt lat="45.27038" lon="0.96515">
        <ele>194.6</ele>
        <time>2023-09-24T08:34:52Z</time>
      </trkpt>
      <trkpt lat="45.27039" lon="0.96498">
        <ele>193</ele>
        <time>2023-09-24T08:34:55Z</time>
      </trkpt>
      <trkpt lat="45.2704" lon="0.96487">
        <ele>192</ele>
        <time>2023-09-24T08:34:57Z</time>
      </trkpt>
      <trkpt lat="45.27039" lon="0.96481">
        <ele>191.4</ele>
        <time>2023-09-24T08:34:58Z</time>
      </trkpt>
      <trkpt lat="45.27036" lon="0.96475">
        <ele>190.7</ele>
        <time>2023-09-24T08:34:59Z</time>
      </trkpt>
      <trkpt lat="45.27026" lon="0.96463">
        <ele>189</ele>
        <time>2023-09-24T08:35:01Z</time>
      </trkpt>
      <trkpt lat="45.26998" lon="0.96435">
        <ele>186</ele>
        <time>2023-09-24T08:35:06Z</time>
      </trkpt>
      <trkpt lat="45.2698" lon="0.96426">
        <ele>184.9</ele>
        <time>2023-09-24T08:35:09Z</time>
      </trkpt>
      <trkpt lat="45.26977" lon="0.96415">
        <ele>183.9</ele>
        <time>2023-09-24T08:35:11Z</time>
      </trkpt>
      <trkpt lat="45.26978" lon="0.96408">
        <ele>183.1</ele>
        <time>2023-09-24T08:35:12Z</time>
      </trkpt>
      <trkpt lat="45.26976" lon="0.96396">
        <ele>181.6</ele>
        <time>2023-09-24T08:35:14Z</time>
      </trkpt>
      <trkpt lat="45.26965" lon="0.96388">
        <ele>179</ele>
        <time>2023-09-24T08:35:16Z</time>
      </trkpt>
      <trkpt lat="45.26958" lon="0.96383">
        <ele>177.4</ele>
        <time>2023-09-24T08:35:17Z</time>
      </trkpt>
      <trkpt lat="45.26927" lon="0.96358">
        <ele>171.9</ele>
        <time>2023-09-24T08:35:21Z</time>
      </trkpt>
      <trkpt lat="45.26893" lon="0.96322">
        <ele>166.5</ele>
        <time>2023-09-24T08:35:25Z</time>
      </trkpt>
      <trkpt lat="45.2688" lon="0.963">
        <ele>164.2</ele>
        <time>2023-09-24T08:35:27Z</time>
      </trkpt>
      <trkpt lat="45.26875" lon="0.96288">
        <ele>163.8</ele>
        <time>2023-09-24T08:35:28Z</time>
      </trkpt>
      <trkpt lat="45.26872" lon="0.96275">
        <ele>163.5</ele>
        <time>2023-09-24T08:35:29Z</time>
      </trkpt>
      <trkpt lat="45.26872" lon="0.96261">
        <ele>163.1</ele>
        <time>2023-09-24T08:35:30Z</time>
      </trkpt>
      <trkpt lat="45.26872" lon="0.96249">
        <ele>162.9</ele>
        <time>2023-09-24T08:35:31Z</time>
      </trkpt>
      <trkpt lat="45.26877" lon="0.96229">
        <ele>162.5</ele>
        <time>2023-09-24T08:35:33Z</time>
      </trkpt>
      <trkpt lat="45.26889" lon="0.96183">
        <ele>161.9</ele>
        <time>2023-09-24T08:35:38Z</time>
      </trkpt>
      <trkpt lat="45.26896" lon="0.96144">
        <ele>161.1</ele>
        <time>2023-09-24T08:35:42Z</time>
      </trkpt>
      <trkpt lat="45.26905" lon="0.96086">
        <ele>160.1</ele>
        <time>2023-09-24T08:35:48Z</time>
      </trkpt>
      <trkpt lat="45.26909" lon="0.96047">
        <ele>159.3</ele>
        <time>2023-09-24T08:35:52Z</time>
      </trkpt>
      <trkpt lat="45.26911" lon="0.96037">
        <ele>159.1</ele>
        <time>2023-09-24T08:35:53Z</time>
      </trkpt>
      <trkpt lat="45.26915" lon="0.9602">
        <ele>158.6</ele>
        <time>2023-09-24T08:35:55Z</time>
      </trkpt>
      <trkpt lat="45.2692" lon="0.96003">
        <ele>158.3</ele>
        <time>2023-09-24T08:35:57Z</time>
      </trkpt>
      <trkpt lat="45.26927" lon="0.95975">
        <ele>157.7</ele>
        <time>2023-09-24T08:36:00Z</time>
      </trkpt>
      <trkpt lat="45.26931" lon="0.95954">
        <ele>157.5</ele>
        <time>2023-09-24T08:36:02Z</time>
      </trkpt>
      <trkpt lat="45.26933" lon="0.95946">
        <ele>157.6</ele>
        <time>2023-09-24T08:36:03Z</time>
      </trkpt>
      <trkpt lat="45.26941" lon="0.95903">
        <ele>156.9</ele>
        <time>2023-09-24T08:36:07Z</time>
      </trkpt>
      <trkpt lat="45.26943" lon="0.95881">
        <ele>156.2</ele>
        <time>2023-09-24T08:36:09Z</time>
      </trkpt>
      <trkpt lat="45.26942" lon="0.95865">
        <ele>155.9</ele>
        <time>2023-09-24T08:36:11Z</time>
      </trkpt>
      <trkpt lat="45.26941" lon="0.95844">
        <ele>155.6</ele>
        <time>2023-09-24T08:36:15Z</time>
      </trkpt>
      <trkpt lat="45.26933" lon="0.95819">
        <ele>154.6</ele>
        <time>2023-09-24T08:36:33Z</time>
      </trkpt>
      <trkpt lat="45.26931" lon="0.95816">
        <ele>153.8</ele>
        <time>2023-09-24T08:36:34Z</time>
      </trkpt>
      <trkpt lat="45.26921" lon="0.95805">
        <ele>151.4</ele>
        <time>2023-09-24T08:36:38Z</time>
      </trkpt>
      <trkpt lat="45.26911" lon="0.95789">
        <ele>149</ele>
        <time>2023-09-24T08:36:43Z</time>
      </trkpt>
      <trkpt lat="45.269" lon="0.95779">
        <ele>148.4</ele>
        <time>2023-09-24T08:36:48Z</time>
      </trkpt>
      <trkpt lat="45.26889" lon="0.9577">
        <ele>149.7</ele>
        <time>2023-09-24T08:36:54Z</time>
      </trkpt>
      <trkpt lat="45.26878" lon="0.95759">
        <ele>151</ele>
        <time>2023-09-24T08:37:01Z</time>
      </trkpt>
      <trkpt lat="45.26871" lon="0.9575">
        <ele>151.8</ele>
        <time>2023-09-24T08:37:06Z</time>
      </trkpt>
      <trkpt lat="45.26869" lon="0.95748">
        <ele>152</ele>
        <time>2023-09-24T08:37:07Z</time>
      </trkpt>
      <trkpt lat="45.26863" lon="0.95742">
        <ele>152.8</ele>
        <time>2023-09-24T08:37:11Z</time>
      </trkpt>
      <trkpt lat="45.2685" lon="0.95731">
        <ele>154.6</ele>
        <time>2023-09-24T08:37:18Z</time>
      </trkpt>
      <trkpt lat="45.2684" lon="0.95724">
        <ele>156</ele>
        <time>2023-09-24T08:37:24Z</time>
      </trkpt>
      <trkpt lat="45.26831" lon="0.95719">
        <ele>157.4</ele>
        <time>2023-09-24T08:37:30Z</time>
      </trkpt>
      <trkpt lat="45.26827" lon="0.95716">
        <ele>158</ele>
        <time>2023-09-24T08:37:32Z</time>
      </trkpt>
      <trkpt lat="45.26818" lon="0.95709">
        <ele>159.5</ele>
        <time>2023-09-24T08:37:38Z</time>
      </trkpt>
      <trkpt lat="45.2681" lon="0.95704">
        <ele>160.7</ele>
        <time>2023-09-24T08:37:43Z</time>
      </trkpt>
      <trkpt lat="45.26809" lon="0.95703">
        <ele>160.9</ele>
        <time>2023-09-24T08:37:44Z</time>
      </trkpt>
      <trkpt lat="45.26803" lon="0.95697">
        <ele>162</ele>
        <time>2023-09-24T08:37:49Z</time>
      </trkpt>
      <trkpt lat="45.26795" lon="0.95696">
        <ele>163.4</ele>
        <time>2023-09-24T08:37:55Z</time>
      </trkpt>
      <trkpt lat="45.26787" lon="0.95703">
        <ele>165.1</ele>
        <time>2023-09-24T08:38:02Z</time>
      </trkpt>
      <trkpt lat="45.26779" lon="0.95704">
        <ele>166.1</ele>
        <time>2023-09-24T08:38:08Z</time>
      </trkpt>
      <trkpt lat="45.26777" lon="0.95701">
        <ele>166.4</ele>
        <time>2023-09-24T08:38:10Z</time>
      </trkpt>
      <trkpt lat="45.26775" lon="0.95696">
        <ele>166.9</ele>
        <time>2023-09-24T08:38:13Z</time>
      </trkpt>
      <trkpt lat="45.26771" lon="0.95684">
        <ele>167.9</ele>
        <time>2023-09-24T08:38:19Z</time>
      </trkpt>
      <trkpt lat="45.26767" lon="0.95672">
        <ele>168.7</ele>
        <time>2023-09-24T08:38:24Z</time>
      </trkpt>
      <trkpt lat="45.26765" lon="0.95669">
        <ele>168.9</ele>
        <time>2023-09-24T08:38:25Z</time>
      </trkpt>
      <trkpt lat="45.26763" lon="0.95666">
        <ele>169.1</ele>
        <time>2023-09-24T08:38:26Z</time>
      </trkpt>
      <trkpt lat="45.26759" lon="0.95658">
        <ele>169.7</ele>
        <time>2023-09-24T08:38:30Z</time>
      </trkpt>
      <trkpt lat="45.26751" lon="0.9566">
        <ele>170.3</ele>
        <time>2023-09-24T08:38:35Z</time>
      </trkpt>
      <trkpt lat="45.26741" lon="0.95664">
        <ele>171</ele>
        <time>2023-09-24T08:38:40Z</time>
      </trkpt>
      <trkpt lat="45.26728" lon="0.95671">
        <ele>171.8</ele>
        <time>2023-09-24T08:38:47Z</time>
      </trkpt>
      <trkpt lat="45.26717" lon="0.95675">
        <ele>172.4</ele>
        <time>2023-09-24T08:38:52Z</time>
      </trkpt>
      <trkpt lat="45.26699" lon="0.95684">
        <ele>173.3</ele>
        <time>2023-09-24T08:39:00Z</time>
      </trkpt>
      <trkpt lat="45.26682" lon="0.95693">
        <ele>173.8</ele>
        <time>2023-09-24T08:39:08Z</time>
      </trkpt>
      <trkpt lat="45.26669" lon="0.95699">
        <ele>174.2</ele>
        <time>2023-09-24T08:39:14Z</time>
      </trkpt>
      <trkpt lat="45.26665" lon="0.95703">
        <ele>174.3</ele>
        <time>2023-09-24T08:39:16Z</time>
      </trkpt>
      <trkpt lat="45.26658" lon="0.95706">
        <ele>174.6</ele>
        <time>2023-09-24T08:39:19Z</time>
      </trkpt>
      <trkpt lat="45.26644" lon="0.95713">
        <ele>175.2</ele>
        <time>2023-09-24T08:39:25Z</time>
      </trkpt>
      <trkpt lat="45.26633" lon="0.95719">
        <ele>175.7</ele>
        <time>2023-09-24T08:39:30Z</time>
      </trkpt>
      <trkpt lat="45.26631" lon="0.95721">
        <ele>175.8</ele>
        <time>2023-09-24T08:39:31Z</time>
      </trkpt>
      <trkpt lat="45.26626" lon="0.95727">
        <ele>176.2</ele>
        <time>2023-09-24T08:39:34Z</time>
      </trkpt>
      <trkpt lat="45.26622" lon="0.95731">
        <ele>176.5</ele>
        <time>2023-09-24T08:39:36Z</time>
      </trkpt>
      <trkpt lat="45.26621" lon="0.95733">
        <ele>176.6</ele>
        <time>2023-09-24T08:39:37Z</time>
      </trkpt>
      <trkpt lat="45.2662" lon="0.95736">
        <ele>176.7</ele>
        <time>2023-09-24T08:39:38Z</time>
      </trkpt>
      <trkpt lat="45.26616" lon="0.95738">
        <ele>176.9</ele>
        <time>2023-09-24T08:39:40Z</time>
      </trkpt>
      <trkpt lat="45.26615" lon="0.95739">
        <ele>177</ele>
        <time>2023-09-24T08:39:41Z</time>
      </trkpt>
      <trkpt lat="45.26612" lon="0.9574">
        <ele>177.2</ele>
        <time>2023-09-24T08:39:42Z</time>
      </trkpt>
      <trkpt lat="45.26611" lon="0.9574">
        <ele>177.3</ele>
        <time>2023-09-24T08:39:43Z</time>
      </trkpt>
      <trkpt lat="45.26606" lon="0.95738">
        <ele>177.6</ele>
        <time>2023-09-24T08:39:45Z</time>
      </trkpt>
      <trkpt lat="45.26589" lon="0.95738">
        <ele>178.3</ele>
        <time>2023-09-24T08:39:53Z</time>
      </trkpt>
      <trkpt lat="45.2658" lon="0.95737">
        <ele>178.8</ele>
        <time>2023-09-24T08:39:58Z</time>
      </trkpt>
      <trkpt lat="45.26571" lon="0.95736">
        <ele>179.3</ele>
        <time>2023-09-24T08:40:02Z</time>
      </trkpt>
      <trkpt lat="45.26566" lon="0.95735">
        <ele>179.6</ele>
        <time>2023-09-24T08:40:04Z</time>
      </trkpt>
      <trkpt lat="45.26563" lon="0.95735">
        <ele>179.8</ele>
        <time>2023-09-24T08:40:05Z</time>
      </trkpt>
      <trkpt lat="45.26557" lon="0.95737">
        <ele>180.4</ele>
        <time>2023-09-24T08:40:08Z</time>
      </trkpt>
      <trkpt lat="45.26552" lon="0.95739">
        <ele>180.8</ele>
        <time>2023-09-24T08:40:10Z</time>
      </trkpt>
      <trkpt lat="45.2655" lon="0.95741">
        <ele>181</ele>
        <time>2023-09-24T08:40:11Z</time>
      </trkpt>
      <trkpt lat="45.26548" lon="0.95742">
        <ele>181.2</ele>
        <time>2023-09-24T08:40:12Z</time>
      </trkpt>
      <trkpt lat="45.26544" lon="0.95746">
        <ele>181.5</ele>
        <time>2023-09-24T08:40:14Z</time>
      </trkpt>
      <trkpt lat="45.26539" lon="0.9575">
        <ele>181.9</ele>
        <time>2023-09-24T08:40:16Z</time>
      </trkpt>
      <trkpt lat="45.26534" lon="0.95753">
        <ele>182.3</ele>
        <time>2023-09-24T08:40:18Z</time>
      </trkpt>
      <trkpt lat="45.2653" lon="0.95756">
        <ele>182.6</ele>
        <time>2023-09-24T08:40:20Z</time>
      </trkpt>
      <trkpt lat="45.26527" lon="0.95757">
        <ele>182.7</ele>
        <time>2023-09-24T08:40:21Z</time>
      </trkpt>
      <trkpt lat="45.26524" lon="0.95758">
        <ele>182.9</ele>
        <time>2023-09-24T08:40:22Z</time>
      </trkpt>
      <trkpt lat="45.26515" lon="0.95763">
        <ele>183.5</ele>
        <time>2023-09-24T08:40:26Z</time>
      </trkpt>
      <trkpt lat="45.26501" lon="0.95768">
        <ele>184.4</ele>
        <time>2023-09-24T08:40:32Z</time>
      </trkpt>
      <trkpt lat="45.26485" lon="0.95772">
        <ele>185.6</ele>
        <time>2023-09-24T08:40:39Z</time>
      </trkpt>
      <trkpt lat="45.26467" lon="0.95774">
        <ele>187.1</ele>
        <time>2023-09-24T08:40:46Z</time>
      </trkpt>
      <trkpt lat="45.26453" lon="0.95775">
        <ele>188.4</ele>
        <time>2023-09-24T08:40:52Z</time>
      </trkpt>
      <trkpt lat="45.26439" lon="0.95778">
        <ele>189.3</ele>
        <time>2023-09-24T08:40:57Z</time>
      </trkpt>
      <trkpt lat="45.26437" lon="0.95777">
        <ele>189.5</ele>
        <time>2023-09-24T08:40:58Z</time>
      </trkpt>
      <trkpt lat="45.26423" lon="0.95779">
        <ele>190.5</ele>
        <time>2023-09-24T08:41:04Z</time>
      </trkpt>
      <trkpt lat="45.2641" lon="0.95782">
        <ele>191.5</ele>
        <time>2023-09-24T08:41:09Z</time>
      </trkpt>
      <trkpt lat="45.26392" lon="0.95787">
        <ele>192.7</ele>
        <time>2023-09-24T08:41:16Z</time>
      </trkpt>
      <trkpt lat="45.26375" lon="0.95792">
        <ele>193.5</ele>
        <time>2023-09-24T08:41:22Z</time>
      </trkpt>
      <trkpt lat="45.26358" lon="0.95797">
        <ele>193.9</ele>
        <time>2023-09-24T08:41:28Z</time>
      </trkpt>
      <trkpt lat="45.26343" lon="0.95805">
        <ele>193.6</ele>
        <time>2023-09-24T08:41:34Z</time>
      </trkpt>
      <trkpt lat="45.26326" lon="0.9581">
        <ele>193.4</ele>
        <time>2023-09-24T08:41:39Z</time>
      </trkpt>
      <trkpt lat="45.26311" lon="0.95811">
        <ele>193.6</ele>
        <time>2023-09-24T08:41:43Z</time>
      </trkpt>
      <trkpt lat="45.26285" lon="0.95816">
        <ele>194.2</ele>
        <time>2023-09-24T08:41:50Z</time>
      </trkpt>
      <trkpt lat="45.26265" lon="0.9582">
        <ele>194.2</ele>
        <time>2023-09-24T08:41:56Z</time>
      </trkpt>
      <trkpt lat="45.26261" lon="0.95821">
        <ele>194.2</ele>
        <time>2023-09-24T08:41:57Z</time>
      </trkpt>
      <trkpt lat="45.2625" lon="0.95824">
        <ele>194.3</ele>
        <time>2023-09-24T08:42:01Z</time>
      </trkpt>
      <trkpt lat="45.26237" lon="0.95826">
        <ele>194.3</ele>
        <time>2023-09-24T08:42:05Z</time>
      </trkpt>
      <trkpt lat="45.26221" lon="0.95831">
        <ele>194.5</ele>
        <time>2023-09-24T08:42:10Z</time>
      </trkpt>
      <trkpt lat="45.26206" lon="0.95834">
        <ele>194.8</ele>
        <time>2023-09-24T08:42:14Z</time>
      </trkpt>
      <trkpt lat="45.26192" lon="0.95836">
        <ele>195.2</ele>
        <time>2023-09-24T08:42:17Z</time>
      </trkpt>
      <trkpt lat="45.2617" lon="0.9584">
        <ele>195.8</ele>
        <time>2023-09-24T08:42:22Z</time>
      </trkpt>
      <trkpt lat="45.26152" lon="0.95845">
        <ele>196.2</ele>
        <time>2023-09-24T08:42:27Z</time>
      </trkpt>
      <trkpt lat="45.2614" lon="0.95848">
        <ele>196.1</ele>
        <time>2023-09-24T08:42:30Z</time>
      </trkpt>
      <trkpt lat="45.2613" lon="0.95848">
        <ele>195.9</ele>
        <time>2023-09-24T08:42:32Z</time>
      </trkpt>
      <trkpt lat="45.26113" lon="0.9585">
        <ele>195.7</ele>
        <time>2023-09-24T08:42:36Z</time>
      </trkpt>
      <trkpt lat="45.26103" lon="0.95847">
        <ele>195.7</ele>
        <time>2023-09-24T08:42:38Z</time>
      </trkpt>
      <trkpt lat="45.26092" lon="0.95837">
        <ele>195.9</ele>
        <time>2023-09-24T08:42:41Z</time>
      </trkpt>
      <trkpt lat="45.26084" lon="0.95829">
        <ele>196.1</ele>
        <time>2023-09-24T08:42:43Z</time>
      </trkpt>
      <trkpt lat="45.26077" lon="0.9582">
        <ele>196.3</ele>
        <time>2023-09-24T08:42:45Z</time>
      </trkpt>
      <trkpt lat="45.26061" lon="0.95799">
        <ele>196.6</ele>
        <time>2023-09-24T08:42:50Z</time>
      </trkpt>
      <trkpt lat="45.26035" lon="0.95772">
        <ele>196.6</ele>
        <time>2023-09-24T08:42:57Z</time>
      </trkpt>
      <trkpt lat="45.26001" lon="0.95735">
        <ele>196</ele>
        <time>2023-09-24T08:43:06Z</time>
      </trkpt>
      <trkpt lat="45.25974" lon="0.95718">
        <ele>195.8</ele>
        <time>2023-09-24T08:43:12Z</time>
      </trkpt>
      <trkpt lat="45.25948" lon="0.95701">
        <ele>196.2</ele>
        <time>2023-09-24T08:43:18Z</time>
      </trkpt>
      <trkpt lat="45.25927" lon="0.95687">
        <ele>197.2</ele>
        <time>2023-09-24T08:43:23Z</time>
      </trkpt>
      <trkpt lat="45.25912" lon="0.95674">
        <ele>198.5</ele>
        <time>2023-09-24T08:43:28Z</time>
      </trkpt>
      <trkpt lat="45.25909" lon="0.95671">
        <ele>198.8</ele>
        <time>2023-09-24T08:43:29Z</time>
      </trkpt>
      <trkpt lat="45.259" lon="0.95656">
        <ele>200.2</ele>
        <time>2023-09-24T08:43:34Z</time>
      </trkpt>
      <trkpt lat="45.2589" lon="0.95636">
        <ele>202.1</ele>
        <time>2023-09-24T08:43:41Z</time>
      </trkpt>
      <trkpt lat="45.25886" lon="0.95625">
        <ele>203.1</ele>
        <time>2023-09-24T08:43:46Z</time>
      </trkpt>
      <trkpt lat="45.2588" lon="0.9561">
        <ele>204.5</ele>
        <time>2023-09-24T08:43:52Z</time>
      </trkpt>
      <trkpt lat="45.25879" lon="0.95608">
        <ele>204.8</ele>
        <time>2023-09-24T08:43:53Z</time>
      </trkpt>
      <trkpt lat="45.25871" lon="0.95595">
        <ele>206.4</ele>
        <time>2023-09-24T08:43:59Z</time>
      </trkpt>
      <trkpt lat="45.25867" lon="0.9559">
        <ele>207.2</ele>
        <time>2023-09-24T08:44:02Z</time>
      </trkpt>
      <trkpt lat="45.25865" lon="0.95587">
        <ele>207.6</ele>
        <time>2023-09-24T08:44:04Z</time>
      </trkpt>
      <trkpt lat="45.25864" lon="0.95586">
        <ele>207.9</ele>
        <time>2023-09-24T08:44:05Z</time>
      </trkpt>
      <trkpt lat="45.2586" lon="0.95582">
        <ele>208.7</ele>
        <time>2023-09-24T08:44:08Z</time>
      </trkpt>
      <trkpt lat="45.25857" lon="0.95579">
        <ele>209.2</ele>
        <time>2023-09-24T08:44:10Z</time>
      </trkpt>
      <trkpt lat="45.25855" lon="0.95576">
        <ele>209.6</ele>
        <time>2023-09-24T08:44:12Z</time>
      </trkpt>
      <trkpt lat="45.2585" lon="0.95571">
        <ele>210.5</ele>
        <time>2023-09-24T08:44:16Z</time>
      </trkpt>
      <trkpt lat="45.25845" lon="0.95565">
        <ele>211.3</ele>
        <time>2023-09-24T08:44:21Z</time>
      </trkpt>
      <trkpt lat="45.25833" lon="0.95553">
        <ele>212.9</ele>
        <time>2023-09-24T08:44:28Z</time>
      </trkpt>
      <trkpt lat="45.25824" lon="0.95541">
        <ele>214.2</ele>
        <time>2023-09-24T08:44:35Z</time>
      </trkpt>
      <trkpt lat="45.25813" lon="0.95527">
        <ele>215.1</ele>
        <time>2023-09-24T08:44:42Z</time>
      </trkpt>
      <trkpt lat="45.25801" lon="0.9551">
        <ele>216.3</ele>
        <time>2023-09-24T08:44:50Z</time>
      </trkpt>
      <trkpt lat="45.25787" lon="0.95487">
        <ele>217.5</ele>
        <time>2023-09-24T08:44:59Z</time>
      </trkpt>
      <trkpt lat="45.25776" lon="0.95464">
        <ele>218</ele>
        <time>2023-09-24T08:45:06Z</time>
      </trkpt>
      <trkpt lat="45.25763" lon="0.95439">
        <ele>218.5</ele>
        <time>2023-09-24T08:45:13Z</time>
      </trkpt>
      <trkpt lat="45.25751" lon="0.95409">
        <ele>218.6</ele>
        <time>2023-09-24T08:45:20Z</time>
      </trkpt>
      <trkpt lat="45.25745" lon="0.9539">
        <ele>218.7</ele>
        <time>2023-09-24T08:45:24Z</time>
      </trkpt>
      <trkpt lat="45.25744" lon="0.95385">
        <ele>218.3</ele>
        <time>2023-09-24T08:45:25Z</time>
      </trkpt>
      <trkpt lat="45.25745" lon="0.95379">
        <ele>218</ele>
        <time>2023-09-24T08:45:26Z</time>
      </trkpt>
      <trkpt lat="45.25748" lon="0.95366">
        <ele>217.2</ele>
        <time>2023-09-24T08:45:28Z</time>
      </trkpt>
      <trkpt lat="45.25747" lon="0.95351">
        <ele>217.4</ele>
        <time>2023-09-24T08:45:30Z</time>
      </trkpt>
      <trkpt lat="45.25738" lon="0.95341">
        <ele>218.2</ele>
        <time>2023-09-24T08:45:33Z</time>
      </trkpt>
      <trkpt lat="45.25737" lon="0.95338">
        <ele>218.4</ele>
        <time>2023-09-24T08:45:34Z</time>
      </trkpt>
      <trkpt lat="45.25731" lon="0.9533">
        <ele>218.9</ele>
        <time>2023-09-24T08:45:37Z</time>
      </trkpt>
      <trkpt lat="45.25717" lon="0.95322">
        <ele>219.9</ele>
        <time>2023-09-24T08:45:42Z</time>
      </trkpt>
      <trkpt lat="45.25714" lon="0.95321">
        <ele>220.1</ele>
        <time>2023-09-24T08:45:43Z</time>
      </trkpt>
      <trkpt lat="45.257" lon="0.95317">
        <ele>221.1</ele>
        <time>2023-09-24T08:45:48Z</time>
      </trkpt>
      <trkpt lat="45.25695" lon="0.95315">
        <ele>221.4</ele>
        <time>2023-09-24T08:45:50Z</time>
      </trkpt>
      <trkpt lat="45.25682" lon="0.95301">
        <ele>222.3</ele>
        <time>2023-09-24T08:45:56Z</time>
      </trkpt>
      <trkpt lat="45.25667" lon="0.95279">
        <ele>222.7</ele>
        <time>2023-09-24T08:46:02Z</time>
      </trkpt>
      <trkpt lat="45.25647" lon="0.95254">
        <ele>222.6</ele>
        <time>2023-09-24T08:46:07Z</time>
      </trkpt>
      <trkpt lat="45.25639" lon="0.95244">
        <ele>222.5</ele>
        <time>2023-09-24T08:46:09Z</time>
      </trkpt>
      <trkpt lat="45.25632" lon="0.9523">
        <ele>221.8</ele>
        <time>2023-09-24T08:46:11Z</time>
      </trkpt>
      <trkpt lat="45.25624" lon="0.95216">
        <ele>220.4</ele>
        <time>2023-09-24T08:46:13Z</time>
      </trkpt>
      <trkpt lat="45.25614" lon="0.95204">
        <ele>219.8</ele>
        <time>2023-09-24T08:46:15Z</time>
      </trkpt>
      <trkpt lat="45.2561" lon="0.952">
        <ele>219.5</ele>
        <time>2023-09-24T08:46:16Z</time>
      </trkpt>
      <trkpt lat="45.25604" lon="0.95195">
        <ele>219.2</ele>
        <time>2023-09-24T08:46:18Z</time>
      </trkpt>
      <trkpt lat="45.25603" lon="0.95185">
        <ele>218.2</ele>
        <time>2023-09-24T08:46:21Z</time>
      </trkpt>
      <trkpt lat="45.25605" lon="0.95181">
        <ele>217.8</ele>
        <time>2023-09-24T08:46:22Z</time>
      </trkpt>
      <trkpt lat="45.25609" lon="0.95175">
        <ele>217.4</ele>
        <time>2023-09-24T08:46:24Z</time>
      </trkpt>
      <trkpt lat="45.25609" lon="0.95172">
        <ele>216.9</ele>
        <time>2023-09-24T08:46:25Z</time>
      </trkpt>
      <trkpt lat="45.25609" lon="0.95166">
        <ele>216.4</ele>
        <time>2023-09-24T08:46:26Z</time>
      </trkpt>
      <trkpt lat="45.25608" lon="0.95149">
        <ele>214.9</ele>
        <time>2023-09-24T08:46:29Z</time>
      </trkpt>
      <trkpt lat="45.25601" lon="0.95137">
        <ele>213.5</ele>
        <time>2023-09-24T08:46:31Z</time>
      </trkpt>
      <trkpt lat="45.25596" lon="0.95125">
        <ele>212</ele>
        <time>2023-09-24T08:46:33Z</time>
      </trkpt>
      <trkpt lat="45.25594" lon="0.95117">
        <ele>210.8</ele>
        <time>2023-09-24T08:46:34Z</time>
      </trkpt>
      <trkpt lat="45.25592" lon="0.95103">
        <ele>209.3</ele>
        <time>2023-09-24T08:46:36Z</time>
      </trkpt>
      <trkpt lat="45.25593" lon="0.95085">
        <ele>207.3</ele>
        <time>2023-09-24T08:46:38Z</time>
      </trkpt>
      <trkpt lat="45.25595" lon="0.95052">
        <ele>204.3</ele>
        <time>2023-09-24T08:46:42Z</time>
      </trkpt>
      <trkpt lat="45.25605" lon="0.95028">
        <ele>203.1</ele>
        <time>2023-09-24T08:46:46Z</time>
      </trkpt>
      <trkpt lat="45.25612" lon="0.94996">
        <ele>201.6</ele>
        <time>2023-09-24T08:46:51Z</time>
      </trkpt>
      <trkpt lat="45.25612" lon="0.94981">
        <ele>201.4</ele>
        <time>2023-09-24T08:46:53Z</time>
      </trkpt>
      <trkpt lat="45.25614" lon="0.94974">
        <ele>201.5</ele>
        <time>2023-09-24T08:46:54Z</time>
      </trkpt>
      <trkpt lat="45.25616" lon="0.94966">
        <ele>201.4</ele>
        <time>2023-09-24T08:46:55Z</time>
      </trkpt>
      <trkpt lat="45.25618" lon="0.94949">
        <ele>201.3</ele>
        <time>2023-09-24T08:46:57Z</time>
      </trkpt>
      <trkpt lat="45.25619" lon="0.94941">
        <ele>201</ele>
        <time>2023-09-24T08:46:58Z</time>
      </trkpt>
      <trkpt lat="45.25621" lon="0.94933">
        <ele>200.9</ele>
        <time>2023-09-24T08:46:59Z</time>
      </trkpt>
      <trkpt lat="45.25625" lon="0.94915">
        <ele>200.1</ele>
        <time>2023-09-24T08:47:01Z</time>
      </trkpt>
      <trkpt lat="45.25629" lon="0.94895">
        <ele>199.1</ele>
        <time>2023-09-24T08:47:03Z</time>
      </trkpt>
      <trkpt lat="45.25631" lon="0.94887">
        <ele>198.6</ele>
        <time>2023-09-24T08:47:04Z</time>
      </trkpt>
      <trkpt lat="45.25633" lon="0.94881">
        <ele>198.1</ele>
        <time>2023-09-24T08:47:05Z</time>
      </trkpt>
      <trkpt lat="45.25638" lon="0.9487">
        <ele>197.6</ele>
        <time>2023-09-24T08:47:07Z</time>
      </trkpt>
      <trkpt lat="45.25643" lon="0.94857">
        <ele>196.9</ele>
        <time>2023-09-24T08:47:09Z</time>
      </trkpt>
      <trkpt lat="45.25648" lon="0.94835">
        <ele>195.7</ele>
        <time>2023-09-24T08:47:12Z</time>
      </trkpt>
      <trkpt lat="45.25656" lon="0.948">
        <ele>193.8</ele>
        <time>2023-09-24T08:47:16Z</time>
      </trkpt>
      <trkpt lat="45.2566" lon="0.94785">
        <ele>193</ele>
        <time>2023-09-24T08:47:18Z</time>
      </trkpt>
      <trkpt lat="45.25663" lon="0.94778">
        <ele>192.6</ele>
        <time>2023-09-24T08:47:19Z</time>
      </trkpt>
      <trkpt lat="45.25662" lon="0.94764">
        <ele>191.8</ele>
        <time>2023-09-24T08:47:21Z</time>
      </trkpt>
      <trkpt lat="45.25659" lon="0.9475">
        <ele>191.1</ele>
        <time>2023-09-24T08:47:23Z</time>
      </trkpt>
      <trkpt lat="45.25659" lon="0.94743">
        <ele>190.6</ele>
        <time>2023-09-24T08:47:24Z</time>
      </trkpt>
      <trkpt lat="45.25665" lon="0.9472">
        <ele>189.5</ele>
        <time>2023-09-24T08:47:28Z</time>
      </trkpt>
      <trkpt lat="45.25671" lon="0.9471">
        <ele>189.1</ele>
        <time>2023-09-24T08:47:30Z</time>
      </trkpt>
      <trkpt lat="45.25674" lon="0.94707">
        <ele>188.9</ele>
        <time>2023-09-24T08:47:31Z</time>
      </trkpt>
      <trkpt lat="45.25679" lon="0.94702">
        <ele>188.7</ele>
        <time>2023-09-24T08:47:33Z</time>
      </trkpt>
      <trkpt lat="45.25682" lon="0.94695">
        <ele>188.4</ele>
        <time>2023-09-24T08:47:35Z</time>
      </trkpt>
      <trkpt lat="45.25683" lon="0.94691">
        <ele>188.2</ele>
        <time>2023-09-24T08:47:36Z</time>
      </trkpt>
      <trkpt lat="45.25679" lon="0.94677">
        <ele>187.1</ele>
        <time>2023-09-24T08:47:38Z</time>
      </trkpt>
      <trkpt lat="45.25675" lon="0.94657">
        <ele>185.4</ele>
        <time>2023-09-24T08:47:41Z</time>
      </trkpt>
      <trkpt lat="45.25673" lon="0.9465">
        <ele>184.8</ele>
        <time>2023-09-24T08:47:42Z</time>
      </trkpt>
      <trkpt lat="45.25671" lon="0.94627">
        <ele>183.5</ele>
        <time>2023-09-24T08:47:45Z</time>
      </trkpt>
      <trkpt lat="45.25676" lon="0.9462">
        <ele>183.3</ele>
        <time>2023-09-24T08:47:46Z</time>
      </trkpt>
      <trkpt lat="45.2569" lon="0.94601">
        <ele>182.3</ele>
        <time>2023-09-24T08:47:49Z</time>
      </trkpt>
      <trkpt lat="45.25694" lon="0.94595">
        <ele>182.1</ele>
        <time>2023-09-24T08:47:50Z</time>
      </trkpt>
      <trkpt lat="45.25702" lon="0.94586">
        <ele>182</ele>
        <time>2023-09-24T08:47:52Z</time>
      </trkpt>
      <trkpt lat="45.25706" lon="0.9458">
        <ele>181.5</ele>
        <time>2023-09-24T08:47:53Z</time>
      </trkpt>
      <trkpt lat="45.25719" lon="0.94563">
        <ele>182.1</ele>
        <time>2023-09-24T08:47:56Z</time>
      </trkpt>
      <trkpt lat="45.25724" lon="0.94561">
        <ele>182.6</ele>
        <time>2023-09-24T08:47:57Z</time>
      </trkpt>
      <trkpt lat="45.25729" lon="0.94554">
        <ele>183.2</ele>
        <time>2023-09-24T08:47:58Z</time>
      </trkpt>
      <trkpt lat="45.25732" lon="0.94537">
        <ele>182.6</ele>
        <time>2023-09-24T08:48:00Z</time>
      </trkpt>
      <trkpt lat="45.25741" lon="0.94521">
        <ele>182.9</ele>
        <time>2023-09-24T08:48:02Z</time>
      </trkpt>
      <trkpt lat="45.25744" lon="0.94513">
        <ele>183.1</ele>
        <time>2023-09-24T08:48:03Z</time>
      </trkpt>
      <trkpt lat="45.25748" lon="0.94504">
        <ele>183</ele>
        <time>2023-09-24T08:48:04Z</time>
      </trkpt>
      <trkpt lat="45.25756" lon="0.94488">
        <ele>183.1</ele>
        <time>2023-09-24T08:48:06Z</time>
      </trkpt>
      <trkpt lat="45.2576" lon="0.94483">
        <ele>183.1</ele>
        <time>2023-09-24T08:48:07Z</time>
      </trkpt>
      <trkpt lat="45.25763" lon="0.94476">
        <ele>182.5</ele>
        <time>2023-09-24T08:48:08Z</time>
      </trkpt>
      <trkpt lat="45.25766" lon="0.94463">
        <ele>181.8</ele>
        <time>2023-09-24T08:48:10Z</time>
      </trkpt>
      <trkpt lat="45.25765" lon="0.94457">
        <ele>181</ele>
        <time>2023-09-24T08:48:11Z</time>
      </trkpt>
      <trkpt lat="45.2577" lon="0.94446">
        <ele>180.8</ele>
        <time>2023-09-24T08:48:13Z</time>
      </trkpt>
      <trkpt lat="45.25775" lon="0.94436">
        <ele>181.4</ele>
        <time>2023-09-24T08:48:16Z</time>
      </trkpt>
      <trkpt lat="45.25776" lon="0.94429">
        <ele>181.5</ele>
        <time>2023-09-24T08:48:17Z</time>
      </trkpt>
      <trkpt lat="45.25775" lon="0.94408">
        <ele>179.5</ele>
        <time>2023-09-24T08:48:20Z</time>
      </trkpt>
      <trkpt lat="45.25775" lon="0.94403">
        <ele>179.2</ele>
        <time>2023-09-24T08:48:21Z</time>
      </trkpt>
      <trkpt lat="45.25775" lon="0.94387">
        <ele>178.4</ele>
        <time>2023-09-24T08:48:23Z</time>
      </trkpt>
      <trkpt lat="45.25773" lon="0.94361">
        <ele>176.9</ele>
        <time>2023-09-24T08:48:26Z</time>
      </trkpt>
      <trkpt lat="45.25773" lon="0.94353">
        <ele>176.6</ele>
        <time>2023-09-24T08:48:27Z</time>
      </trkpt>
      <trkpt lat="45.25772" lon="0.94336">
        <ele>176</ele>
        <time>2023-09-24T08:48:29Z</time>
      </trkpt>
      <trkpt lat="45.25768" lon="0.94315">
        <ele>174.9</ele>
        <time>2023-09-24T08:48:31Z</time>
      </trkpt>
      <trkpt lat="45.25764" lon="0.94294">
        <ele>173.3</ele>
        <time>2023-09-24T08:48:33Z</time>
      </trkpt>
      <trkpt lat="45.25761" lon="0.94285">
        <ele>172.7</ele>
        <time>2023-09-24T08:48:34Z</time>
      </trkpt>
      <trkpt lat="45.25757" lon="0.94277">
        <ele>172.2</ele>
        <time>2023-09-24T08:48:35Z</time>
      </trkpt>
      <trkpt lat="45.25747" lon="0.94249">
        <ele>171.1</ele>
        <time>2023-09-24T08:48:38Z</time>
      </trkpt>
      <trkpt lat="45.25744" lon="0.94239">
        <ele>170.6</ele>
        <time>2023-09-24T08:48:39Z</time>
      </trkpt>
      <trkpt lat="45.25738" lon="0.94221">
        <ele>170</ele>
        <time>2023-09-24T08:48:41Z</time>
      </trkpt>
      <trkpt lat="45.25732" lon="0.94205">
        <ele>169.6</ele>
        <time>2023-09-24T08:48:43Z</time>
      </trkpt>
      <trkpt lat="45.25732" lon="0.94196">
        <ele>169.5</ele>
        <time>2023-09-24T08:48:44Z</time>
      </trkpt>
      <trkpt lat="45.25725" lon="0.94172">
        <ele>168.7</ele>
        <time>2023-09-24T08:48:48Z</time>
      </trkpt>
      <trkpt lat="45.25725" lon="0.94148">
        <ele>168.2</ele>
        <time>2023-09-24T08:48:51Z</time>
      </trkpt>
      <trkpt lat="45.25724" lon="0.94141">
        <ele>167.6</ele>
        <time>2023-09-24T08:48:52Z</time>
      </trkpt>
      <trkpt lat="45.25721" lon="0.94121">
        <ele>166.7</ele>
        <time>2023-09-24T08:48:55Z</time>
      </trkpt>
      <trkpt lat="45.25719" lon="0.94108">
        <ele>166.3</ele>
        <time>2023-09-24T08:48:57Z</time>
      </trkpt>
      <trkpt lat="45.25717" lon="0.94099">
        <ele>165.8</ele>
        <time>2023-09-24T08:48:59Z</time>
      </trkpt>
      <trkpt lat="45.25715" lon="0.94086">
        <ele>165.1</ele>
        <time>2023-09-24T08:49:05Z</time>
      </trkpt>
      <trkpt lat="45.25715" lon="0.94082">
        <ele>164.8</ele>
        <time>2023-09-24T08:49:06Z</time>
      </trkpt>
      <trkpt lat="45.25707" lon="0.94061">
        <ele>163.6</ele>
        <time>2023-09-24T08:49:23Z</time>
      </trkpt>
      <trkpt lat="45.25704" lon="0.94058">
        <ele>163.2</ele>
        <time>2023-09-24T08:49:24Z</time>
      </trkpt>
      <trkpt lat="45.25702" lon="0.94055">
        <ele>163.1</ele>
        <time>2023-09-24T08:49:25Z</time>
      </trkpt>
      <trkpt lat="45.25696" lon="0.94042">
        <ele>162.6</ele>
        <time>2023-09-24T08:49:30Z</time>
      </trkpt>
      <trkpt lat="45.25689" lon="0.94022">
        <ele>162.2</ele>
        <time>2023-09-24T08:49:35Z</time>
      </trkpt>
      <trkpt lat="45.25685" lon="0.9401">
        <ele>162</ele>
        <time>2023-09-24T08:49:38Z</time>
      </trkpt>
      <trkpt lat="45.25684" lon="0.94003">
        <ele>161.8</ele>
        <time>2023-09-24T08:49:40Z</time>
      </trkpt>
      <trkpt lat="45.25686" lon="0.93998">
        <ele>161.7</ele>
        <time>2023-09-24T08:49:43Z</time>
      </trkpt>
      <trkpt lat="45.25692" lon="0.93977">
        <ele>161.2</ele>
        <time>2023-09-24T08:49:47Z</time>
      </trkpt>
      <trkpt lat="45.25692" lon="0.93957">
        <ele>161.1</ele>
        <time>2023-09-24T08:49:50Z</time>
      </trkpt>
      <trkpt lat="45.25691" lon="0.93951">
        <ele>161.1</ele>
        <time>2023-09-24T08:49:51Z</time>
      </trkpt>
      <trkpt lat="45.25692" lon="0.93935">
        <ele>161.2</ele>
        <time>2023-09-24T08:49:54Z</time>
      </trkpt>
      <trkpt lat="45.25695" lon="0.93932">
        <ele>161.2</ele>
        <time>2023-09-24T08:49:56Z</time>
      </trkpt>
      <trkpt lat="45.25697" lon="0.93931">
        <ele>161.2</ele>
        <time>2023-09-24T08:49:57Z</time>
      </trkpt>
      <trkpt lat="45.25702" lon="0.93927">
        <ele>161.3</ele>
        <time>2023-09-24T08:50:00Z</time>
      </trkpt>
      <trkpt lat="45.25705" lon="0.93922">
        <ele>161.4</ele>
        <time>2023-09-24T08:50:02Z</time>
      </trkpt>
      <trkpt lat="45.2571" lon="0.93916">
        <ele>161.4</ele>
        <time>2023-09-24T08:50:05Z</time>
      </trkpt>
      <trkpt lat="45.25732" lon="0.93923">
        <ele>161.7</ele>
        <time>2023-09-24T08:50:35Z</time>
      </trkpt>
      <trkpt lat="45.25733" lon="0.93926">
        <ele>161.7</ele>
        <time>2023-09-24T08:50:36Z</time>
      </trkpt>
      <trkpt lat="45.2574" lon="0.93936">
        <ele>162</ele>
        <time>2023-09-24T08:50:40Z</time>
      </trkpt>
      <trkpt lat="45.25746" lon="0.93938">
        <ele>162.2</ele>
        <time>2023-09-24T08:50:42Z</time>
      </trkpt>
      <trkpt lat="45.25751" lon="0.93938">
        <ele>162.3</ele>
        <time>2023-09-24T08:50:44Z</time>
      </trkpt>
      <trkpt lat="45.25756" lon="0.93937">
        <ele>162.4</ele>
        <time>2023-09-24T08:50:47Z</time>
      </trkpt>
      <trkpt lat="45.25761" lon="0.93938">
        <ele>162.5</ele>
        <time>2023-09-24T08:50:49Z</time>
      </trkpt>
      <trkpt lat="45.25773" lon="0.93942">
        <ele>162.8</ele>
        <time>2023-09-24T08:50:54Z</time>
      </trkpt>
      <trkpt lat="45.25786" lon="0.93949">
        <ele>163.2</ele>
        <time>2023-09-24T08:50:59Z</time>
      </trkpt>
      <trkpt lat="45.25795" lon="0.93955">
        <ele>163.5</ele>
        <time>2023-09-24T08:51:03Z</time>
      </trkpt>
      <trkpt lat="45.25804" lon="0.93962">
        <ele>163.8</ele>
        <time>2023-09-24T08:51:06Z</time>
      </trkpt>
      <trkpt lat="45.25809" lon="0.93965">
        <ele>163.9</ele>
        <time>2023-09-24T08:51:08Z</time>
      </trkpt>
      <trkpt lat="45.25812" lon="0.93967">
        <ele>164</ele>
        <time>2023-09-24T08:51:09Z</time>
      </trkpt>
      <trkpt lat="45.25827" lon="0.93976">
        <ele>164.6</ele>
        <time>2023-09-24T08:51:14Z</time>
      </trkpt>
      <trkpt lat="45.25834" lon="0.9398">
        <ele>165.1</ele>
        <time>2023-09-24T08:51:17Z</time>
      </trkpt>
      <trkpt lat="45.25843" lon="0.93984">
        <ele>165.7</ele>
        <time>2023-09-24T08:51:20Z</time>
      </trkpt>
      <trkpt lat="45.25848" lon="0.93986">
        <ele>165.9</ele>
        <time>2023-09-24T08:51:22Z</time>
      </trkpt>
      <trkpt lat="45.25858" lon="0.93985">
        <ele>166.6</ele>
        <time>2023-09-24T08:51:26Z</time>
      </trkpt>
      <trkpt lat="45.25866" lon="0.93983">
        <ele>167</ele>
        <time>2023-09-24T08:51:28Z</time>
      </trkpt>
      <trkpt lat="45.25869" lon="0.93982">
        <ele>167.3</ele>
        <time>2023-09-24T08:51:29Z</time>
      </trkpt>
      <trkpt lat="45.25873" lon="0.93982">
        <ele>167.6</ele>
        <time>2023-09-24T08:51:30Z</time>
      </trkpt>
      <trkpt lat="45.25886" lon="0.9398">
        <ele>168.6</ele>
        <time>2023-09-24T08:51:34Z</time>
      </trkpt>
      <trkpt lat="45.25892" lon="0.93975">
        <ele>169.2</ele>
        <time>2023-09-24T08:51:37Z</time>
      </trkpt>
      <trkpt lat="45.25895" lon="0.93975">
        <ele>169.4</ele>
        <time>2023-09-24T08:51:38Z</time>
      </trkpt>
      <trkpt lat="45.259" lon="0.93972">
        <ele>169.8</ele>
        <time>2023-09-24T08:51:40Z</time>
      </trkpt>
      <trkpt lat="45.25905" lon="0.93969">
        <ele>170.2</ele>
        <time>2023-09-24T08:51:43Z</time>
      </trkpt>
      <trkpt lat="45.25907" lon="0.93969">
        <ele>170.4</ele>
        <time>2023-09-24T08:51:44Z</time>
      </trkpt>
      <trkpt lat="45.25915" lon="0.93965">
        <ele>171.2</ele>
        <time>2023-09-24T08:51:48Z</time>
      </trkpt>
      <trkpt lat="45.25923" lon="0.9396">
        <ele>172</ele>
        <time>2023-09-24T08:51:52Z</time>
      </trkpt>
      <trkpt lat="45.25927" lon="0.93957">
        <ele>172.3</ele>
        <time>2023-09-24T08:51:54Z</time>
      </trkpt>
      <trkpt lat="45.25929" lon="0.93953">
        <ele>172.7</ele>
        <time>2023-09-24T08:51:56Z</time>
      </trkpt>
      <trkpt lat="45.25934" lon="0.93947">
        <ele>173.3</ele>
        <time>2023-09-24T08:51:59Z</time>
      </trkpt>
      <trkpt lat="45.25937" lon="0.93945">
        <ele>173.5</ele>
        <time>2023-09-24T08:52:01Z</time>
      </trkpt>
      <trkpt lat="45.25941" lon="0.93942">
        <ele>173.9</ele>
        <time>2023-09-24T08:52:04Z</time>
      </trkpt>
      <trkpt lat="45.25943" lon="0.93941">
        <ele>174.1</ele>
        <time>2023-09-24T08:52:05Z</time>
      </trkpt>
      <trkpt lat="45.25944" lon="0.9394">
        <ele>174.2</ele>
        <time>2023-09-24T08:52:06Z</time>
      </trkpt>
      <trkpt lat="45.25947" lon="0.93936">
        <ele>174.6</ele>
        <time>2023-09-24T08:52:08Z</time>
      </trkpt>
      <trkpt lat="45.25948" lon="0.93934">
        <ele>174.8</ele>
        <time>2023-09-24T08:52:09Z</time>
      </trkpt>
      <trkpt lat="45.25949" lon="0.93932">
        <ele>174.9</ele>
        <time>2023-09-24T08:52:10Z</time>
      </trkpt>
      <trkpt lat="45.2595" lon="0.93931">
        <ele>175.1</ele>
        <time>2023-09-24T08:52:11Z</time>
      </trkpt>
      <trkpt lat="45.25953" lon="0.93929">
        <ele>175.4</ele>
        <time>2023-09-24T08:52:13Z</time>
      </trkpt>
      <trkpt lat="45.25954" lon="0.93927">
        <ele>175.6</ele>
        <time>2023-09-24T08:52:14Z</time>
      </trkpt>
      <trkpt lat="45.25957" lon="0.93924">
        <ele>175.9</ele>
        <time>2023-09-24T08:52:16Z</time>
      </trkpt>
      <trkpt lat="45.25958" lon="0.93923">
        <ele>176</ele>
        <time>2023-09-24T08:52:17Z</time>
      </trkpt>
      <trkpt lat="45.2596" lon="0.93922">
        <ele>176.2</ele>
        <time>2023-09-24T08:52:18Z</time>
      </trkpt>
      <trkpt lat="45.25961" lon="0.93922">
        <ele>176.3</ele>
        <time>2023-09-24T08:52:19Z</time>
      </trkpt>
      <trkpt lat="45.25963" lon="0.93921">
        <ele>176.4</ele>
        <time>2023-09-24T08:52:20Z</time>
      </trkpt>
      <trkpt lat="45.25966" lon="0.93919">
        <ele>176.8</ele>
        <time>2023-09-24T08:52:22Z</time>
      </trkpt>
      <trkpt lat="45.25969" lon="0.93915">
        <ele>177.2</ele>
        <time>2023-09-24T08:52:25Z</time>
      </trkpt>
      <trkpt lat="45.25973" lon="0.9391">
        <ele>177.7</ele>
        <time>2023-09-24T08:52:29Z</time>
      </trkpt>
      <trkpt lat="45.25975" lon="0.93908">
        <ele>177.8</ele>
        <time>2023-09-24T08:52:30Z</time>
      </trkpt>
      <trkpt lat="45.25976" lon="0.93907">
        <ele>178</ele>
        <time>2023-09-24T08:52:31Z</time>
      </trkpt>
      <trkpt lat="45.25979" lon="0.93899">
        <ele>178.6</ele>
        <time>2023-09-24T08:52:35Z</time>
      </trkpt>
      <trkpt lat="45.25982" lon="0.93894">
        <ele>179</ele>
        <time>2023-09-24T08:52:38Z</time>
      </trkpt>
      <trkpt lat="45.25985" lon="0.9389">
        <ele>179.4</ele>
        <time>2023-09-24T08:52:41Z</time>
      </trkpt>
      <trkpt lat="45.25988" lon="0.93878">
        <ele>180.3</ele>
        <time>2023-09-24T08:52:46Z</time>
      </trkpt>
      <trkpt lat="45.25995" lon="0.93871">
        <ele>181.2</ele>
        <time>2023-09-24T08:52:52Z</time>
      </trkpt>
      <trkpt lat="45.26001" lon="0.93857">
        <ele>182.3</ele>
        <time>2023-09-24T08:52:59Z</time>
      </trkpt>
      <trkpt lat="45.26001" lon="0.93854">
        <ele>182.5</ele>
        <time>2023-09-24T08:53:00Z</time>
      </trkpt>
      <trkpt lat="45.26005" lon="0.93849">
        <ele>183.2</ele>
        <time>2023-09-24T08:53:04Z</time>
      </trkpt>
      <trkpt lat="45.26008" lon="0.93847">
        <ele>183.5</ele>
        <time>2023-09-24T08:53:06Z</time>
      </trkpt>
      <trkpt lat="45.26012" lon="0.93847">
        <ele>183.9</ele>
        <time>2023-09-24T08:53:09Z</time>
      </trkpt>
      <trkpt lat="45.26017" lon="0.93841">
        <ele>184.3</ele>
        <time>2023-09-24T08:53:13Z</time>
      </trkpt>
      <trkpt lat="45.26022" lon="0.93832">
        <ele>185.2</ele>
        <time>2023-09-24T08:53:18Z</time>
      </trkpt>
      <trkpt lat="45.26029" lon="0.93823">
        <ele>186.1</ele>
        <time>2023-09-24T08:53:23Z</time>
      </trkpt>
      <trkpt lat="45.26037" lon="0.9381">
        <ele>187.2</ele>
        <time>2023-09-24T08:53:30Z</time>
      </trkpt>
      <trkpt lat="45.2604" lon="0.93794">
        <ele>188.3</ele>
        <time>2023-09-24T08:53:36Z</time>
      </trkpt>
      <trkpt lat="45.26045" lon="0.93783">
        <ele>189.2</ele>
        <time>2023-09-24T08:53:41Z</time>
      </trkpt>
      <trkpt lat="45.26046" lon="0.93781">
        <ele>189.4</ele>
        <time>2023-09-24T08:53:42Z</time>
      </trkpt>
      <trkpt lat="45.26055" lon="0.93772">
        <ele>190.3</ele>
        <time>2023-09-24T08:53:47Z</time>
      </trkpt>
      <trkpt lat="45.26066" lon="0.93762">
        <ele>191.3</ele>
        <time>2023-09-24T08:53:54Z</time>
      </trkpt>
      <trkpt lat="45.26078" lon="0.93749">
        <ele>192.1</ele>
        <time>2023-09-24T08:54:01Z</time>
      </trkpt>
      <trkpt lat="45.26085" lon="0.9374">
        <ele>192.7</ele>
        <time>2023-09-24T08:54:06Z</time>
      </trkpt>
      <trkpt lat="45.26086" lon="0.93738">
        <ele>192.8</ele>
        <time>2023-09-24T08:54:07Z</time>
      </trkpt>
      <trkpt lat="45.26093" lon="0.93732">
        <ele>193.1</ele>
        <time>2023-09-24T08:54:10Z</time>
      </trkpt>
      <trkpt lat="45.26095" lon="0.9373">
        <ele>193.3</ele>
        <time>2023-09-24T08:54:12Z</time>
      </trkpt>
      <trkpt lat="45.26098" lon="0.93728">
        <ele>193.4</ele>
        <time>2023-09-24T08:54:14Z</time>
      </trkpt>
      <trkpt lat="45.261" lon="0.93728">
        <ele>193.4</ele>
        <time>2023-09-24T08:54:15Z</time>
      </trkpt>
      <trkpt lat="45.26105" lon="0.93725">
        <ele>193.6</ele>
        <time>2023-09-24T08:54:18Z</time>
      </trkpt>
      <trkpt lat="45.26112" lon="0.93715">
        <ele>193.9</ele>
        <time>2023-09-24T08:54:23Z</time>
      </trkpt>
      <trkpt lat="45.26118" lon="0.93705">
        <ele>194.3</ele>
        <time>2023-09-24T08:54:28Z</time>
      </trkpt>
      <trkpt lat="45.26123" lon="0.93706">
        <ele>194.3</ele>
        <time>2023-09-24T08:54:31Z</time>
      </trkpt>
      <trkpt lat="45.26125" lon="0.93711">
        <ele>194.4</ele>
        <time>2023-09-24T08:54:36Z</time>
      </trkpt>
      <trkpt lat="45.26123" lon="0.93727">
        <ele>194.6</ele>
        <time>2023-09-24T08:54:41Z</time>
      </trkpt>
      <trkpt lat="45.26123" lon="0.93735">
        <ele>194.7</ele>
        <time>2023-09-24T08:54:44Z</time>
      </trkpt>
      <trkpt lat="45.26122" lon="0.9374">
        <ele>194.8</ele>
        <time>2023-09-24T08:54:46Z</time>
      </trkpt>
      <trkpt lat="45.26122" lon="0.93752">
        <ele>195</ele>
        <time>2023-09-24T08:54:50Z</time>
      </trkpt>
      <trkpt lat="45.26122" lon="0.93772">
        <ele>195.3</ele>
        <time>2023-09-24T08:54:56Z</time>
      </trkpt>
      <trkpt lat="45.2612" lon="0.93793">
        <ele>195.7</ele>
        <time>2023-09-24T08:55:02Z</time>
      </trkpt>
      <trkpt lat="45.26124" lon="0.93805">
        <ele>196</ele>
        <time>2023-09-24T08:55:06Z</time>
      </trkpt>
      <trkpt lat="45.26134" lon="0.93824">
        <ele>196.5</ele>
        <time>2023-09-24T08:55:12Z</time>
      </trkpt>
      <trkpt lat="45.26143" lon="0.9384">
        <ele>196.9</ele>
        <time>2023-09-24T08:55:17Z</time>
      </trkpt>
      <trkpt lat="45.2615" lon="0.93851">
        <ele>197.1</ele>
        <time>2023-09-24T08:55:21Z</time>
      </trkpt>
      <trkpt lat="45.26157" lon="0.93868">
        <ele>197.5</ele>
        <time>2023-09-24T08:55:26Z</time>
      </trkpt>
      <trkpt lat="45.26165" lon="0.9388">
        <ele>197.8</ele>
        <time>2023-09-24T08:55:30Z</time>
      </trkpt>
      <trkpt lat="45.26175" lon="0.93896">
        <ele>198.4</ele>
        <time>2023-09-24T08:55:35Z</time>
      </trkpt>
      <trkpt lat="45.26181" lon="0.93906">
        <ele>198.7</ele>
        <time>2023-09-24T08:55:38Z</time>
      </trkpt>
      <trkpt lat="45.26184" lon="0.93912">
        <ele>198.8</ele>
        <time>2023-09-24T08:55:40Z</time>
      </trkpt>
      <trkpt lat="45.26198" lon="0.93923">
        <ele>199.3</ele>
        <time>2023-09-24T08:55:46Z</time>
      </trkpt>
      <trkpt lat="45.26199" lon="0.93923">
        <ele>199.4</ele>
        <time>2023-09-24T08:55:47Z</time>
      </trkpt>
      <trkpt lat="45.26207" lon="0.93924">
        <ele>199.5</ele>
        <time>2023-09-24T08:55:50Z</time>
      </trkpt>
      <trkpt lat="45.26222" lon="0.93929">
        <ele>199.9</ele>
        <time>2023-09-24T08:55:55Z</time>
      </trkpt>
      <trkpt lat="45.26237" lon="0.93942">
        <ele>199.9</ele>
        <time>2023-09-24T08:56:00Z</time>
      </trkpt>
      <trkpt lat="45.26247" lon="0.93952">
        <ele>199.6</ele>
        <time>2023-09-24T08:56:04Z</time>
      </trkpt>
      <trkpt lat="45.26249" lon="0.93953">
        <ele>199.4</ele>
        <time>2023-09-24T08:56:05Z</time>
      </trkpt>
      <trkpt lat="45.26256" lon="0.9396">
        <ele>199</ele>
        <time>2023-09-24T08:56:08Z</time>
      </trkpt>
      <trkpt lat="45.26258" lon="0.93963">
        <ele>198.8</ele>
        <time>2023-09-24T08:56:09Z</time>
      </trkpt>
      <trkpt lat="45.26272" lon="0.93982">
        <ele>197.7</ele>
        <time>2023-09-24T08:56:14Z</time>
      </trkpt>
      <trkpt lat="45.26281" lon="0.94002">
        <ele>197.2</ele>
        <time>2023-09-24T08:56:18Z</time>
      </trkpt>
      <trkpt lat="45.26288" lon="0.94019">
        <ele>196.4</ele>
        <time>2023-09-24T08:56:21Z</time>
      </trkpt>
      <trkpt lat="45.2629" lon="0.9403">
        <ele>196.1</ele>
        <time>2023-09-24T08:56:23Z</time>
      </trkpt>
      <trkpt lat="45.26293" lon="0.94066">
        <ele>195.3</ele>
        <time>2023-09-24T08:56:28Z</time>
      </trkpt>
      <trkpt lat="45.2629" lon="0.94096">
        <ele>193.9</ele>
        <time>2023-09-24T08:56:32Z</time>
      </trkpt>
      <trkpt lat="45.2629" lon="0.94104">
        <ele>193.6</ele>
        <time>2023-09-24T08:56:33Z</time>
      </trkpt>
      <trkpt lat="45.26286" lon="0.94138">
        <ele>192</ele>
        <time>2023-09-24T08:56:37Z</time>
      </trkpt>
      <trkpt lat="45.26285" lon="0.94148">
        <ele>191.4</ele>
        <time>2023-09-24T08:56:38Z</time>
      </trkpt>
      <trkpt lat="45.26281" lon="0.94181">
        <ele>190</ele>
        <time>2023-09-24T08:56:42Z</time>
      </trkpt>
      <trkpt lat="45.26279" lon="0.94203">
        <ele>189</ele>
        <time>2023-09-24T08:56:45Z</time>
      </trkpt>
      <trkpt lat="45.26277" lon="0.94222">
        <ele>188.8</ele>
        <time>2023-09-24T08:56:48Z</time>
      </trkpt>
      <trkpt lat="45.26275" lon="0.94239">
        <ele>188.7</ele>
        <time>2023-09-24T08:56:51Z</time>
      </trkpt>
      <trkpt lat="45.26274" lon="0.94243">
        <ele>188.7</ele>
        <time>2023-09-24T08:56:52Z</time>
      </trkpt>
      <trkpt lat="45.26271" lon="0.94257">
        <ele>188.6</ele>
        <time>2023-09-24T08:56:55Z</time>
      </trkpt>
      <trkpt lat="45.2627" lon="0.9426">
        <ele>188.6</ele>
        <time>2023-09-24T08:56:56Z</time>
      </trkpt>
      <trkpt lat="45.26267" lon="0.94283">
        <ele>188.3</ele>
        <time>2023-09-24T08:57:01Z</time>
      </trkpt>
      <trkpt lat="45.26265" lon="0.94311">
        <ele>188.1</ele>
        <time>2023-09-24T08:57:06Z</time>
      </trkpt>
      <trkpt lat="45.26265" lon="0.94321">
        <ele>188.1</ele>
        <time>2023-09-24T08:57:08Z</time>
      </trkpt>
      <trkpt lat="45.26263" lon="0.94331">
        <ele>188.2</ele>
        <time>2023-09-24T08:57:10Z</time>
      </trkpt>
      <trkpt lat="45.2626" lon="0.94352">
        <ele>188.6</ele>
        <time>2023-09-24T08:57:14Z</time>
      </trkpt>
      <trkpt lat="45.26259" lon="0.94362">
        <ele>188.8</ele>
        <time>2023-09-24T08:57:16Z</time>
      </trkpt>
      <trkpt lat="45.26257" lon="0.94375">
        <ele>189</ele>
        <time>2023-09-24T08:57:19Z</time>
      </trkpt>
      <trkpt lat="45.26256" lon="0.94378">
        <ele>189.1</ele>
        <time>2023-09-24T08:57:20Z</time>
      </trkpt>
      <trkpt lat="45.26254" lon="0.94383">
        <ele>189.3</ele>
        <time>2023-09-24T08:57:21Z</time>
      </trkpt>
      <trkpt lat="45.26252" lon="0.94391">
        <ele>189.6</ele>
        <time>2023-09-24T08:57:23Z</time>
      </trkpt>
      <trkpt lat="45.2625" lon="0.94397">
        <ele>190</ele>
        <time>2023-09-24T08:57:24Z</time>
      </trkpt>
      <trkpt lat="45.26248" lon="0.94412">
        <ele>190.9</ele>
        <time>2023-09-24T08:57:27Z</time>
      </trkpt>
      <trkpt lat="45.26246" lon="0.94419">
        <ele>191.3</ele>
        <time>2023-09-24T08:57:29Z</time>
      </trkpt>
      <trkpt lat="45.26243" lon="0.94429">
        <ele>191.7</ele>
        <time>2023-09-24T08:57:32Z</time>
      </trkpt>
      <trkpt lat="45.26242" lon="0.94432">
        <ele>191.9</ele>
        <time>2023-09-24T08:57:34Z</time>
      </trkpt>
      <trkpt lat="45.26245" lon="0.94436">
        <ele>192.2</ele>
        <time>2023-09-24T08:57:42Z</time>
      </trkpt>
      <trkpt lat="45.26245" lon="0.94434">
        <ele>192</ele>
        <time>2023-09-24T08:57:43Z</time>
      </trkpt>
      <trkpt lat="45.26247" lon="0.94428">
        <ele>191.8</ele>
        <time>2023-09-24T08:57:46Z</time>
      </trkpt>
      <trkpt lat="45.26248" lon="0.94427">
        <ele>191.9</ele>
        <time>2023-09-24T08:57:47Z</time>
      </trkpt>
      <trkpt lat="45.26248" lon="0.94427">
        <ele>191.9</ele>
        <time>2023-09-24T08:57:48Z</time>
      </trkpt>
      <trkpt lat="45.26245" lon="0.94437">
        <ele>192.2</ele>
        <time>2023-09-24T08:58:16Z</time>
      </trkpt>
      <trkpt lat="45.26244" lon="0.9444">
        <ele>192.3</ele>
        <time>2023-09-24T08:58:17Z</time>
      </trkpt>
      <trkpt lat="45.26243" lon="0.94443">
        <ele>192.3</ele>
        <time>2023-09-24T08:58:18Z</time>
      </trkpt>
      <trkpt lat="45.26242" lon="0.94446">
        <ele>192.5</ele>
        <time>2023-09-24T08:58:19Z</time>
      </trkpt>
      <trkpt lat="45.26238" lon="0.94453">
        <ele>192.6</ele>
        <time>2023-09-24T08:58:22Z</time>
      </trkpt>
      <trkpt lat="45.26233" lon="0.94461">
        <ele>192.8</ele>
        <time>2023-09-24T08:58:26Z</time>
      </trkpt>
      <trkpt lat="45.26232" lon="0.94464">
        <ele>192.7</ele>
        <time>2023-09-24T08:58:27Z</time>
      </trkpt>
      <trkpt lat="45.26224" lon="0.94481">
        <ele>193</ele>
        <time>2023-09-24T08:58:32Z</time>
      </trkpt>
      <trkpt lat="45.26223" lon="0.94484">
        <ele>193</ele>
        <time>2023-09-24T08:58:33Z</time>
      </trkpt>
      <trkpt lat="45.26219" lon="0.94491">
        <ele>193.1</ele>
        <time>2023-09-24T08:58:36Z</time>
      </trkpt>
      <trkpt lat="45.26218" lon="0.94493">
        <ele>193.1</ele>
        <time>2023-09-24T08:58:37Z</time>
      </trkpt>
      <trkpt lat="45.26219" lon="0.945">
        <ele>193.4</ele>
        <time>2023-09-24T08:58:40Z</time>
      </trkpt>
      <trkpt lat="45.26221" lon="0.94506">
        <ele>193.7</ele>
        <time>2023-09-24T08:58:43Z</time>
      </trkpt>
      <trkpt lat="45.26222" lon="0.94508">
        <ele>193.7</ele>
        <time>2023-09-24T08:58:44Z</time>
      </trkpt>
      <trkpt lat="45.26229" lon="0.94517">
        <ele>194.3</ele>
        <time>2023-09-24T08:58:48Z</time>
      </trkpt>
      <trkpt lat="45.26231" lon="0.94519">
        <ele>194.4</ele>
        <time>2023-09-24T08:58:49Z</time>
      </trkpt>
      <trkpt lat="45.26233" lon="0.94521">
        <ele>194.6</ele>
        <time>2023-09-24T08:58:50Z</time>
      </trkpt>
      <trkpt lat="45.26238" lon="0.94527">
        <ele>194.8</ele>
        <time>2023-09-24T08:58:53Z</time>
      </trkpt>
      <trkpt lat="45.26242" lon="0.94531">
        <ele>195</ele>
        <time>2023-09-24T08:58:55Z</time>
      </trkpt>
      <trkpt lat="45.26245" lon="0.94535">
        <ele>195.2</ele>
        <time>2023-09-24T08:58:57Z</time>
      </trkpt>
      <trkpt lat="45.26255" lon="0.94546">
        <ele>195.5</ele>
        <time>2023-09-24T08:59:02Z</time>
      </trkpt>
      <trkpt lat="45.2626" lon="0.94554">
        <ele>195.8</ele>
        <time>2023-09-24T08:59:06Z</time>
      </trkpt>
      <trkpt lat="45.26262" lon="0.94556">
        <ele>195.9</ele>
        <time>2023-09-24T08:59:07Z</time>
      </trkpt>
      <trkpt lat="45.26264" lon="0.94558">
        <ele>195.9</ele>
        <time>2023-09-24T08:59:08Z</time>
      </trkpt>
      <trkpt lat="45.26273" lon="0.94567">
        <ele>196.2</ele>
        <time>2023-09-24T08:59:12Z</time>
      </trkpt>
      <trkpt lat="45.26274" lon="0.94569">
        <ele>196.3</ele>
        <time>2023-09-24T08:59:13Z</time>
      </trkpt>
      <trkpt lat="45.26281" lon="0.94578">
        <ele>196.6</ele>
        <time>2023-09-24T08:59:17Z</time>
      </trkpt>
      <trkpt lat="45.26289" lon="0.94588">
        <ele>196.8</ele>
        <time>2023-09-24T08:59:21Z</time>
      </trkpt>
      <trkpt lat="45.26291" lon="0.9459">
        <ele>196.9</ele>
        <time>2023-09-24T08:59:22Z</time>
      </trkpt>
      <trkpt lat="45.26302" lon="0.94607">
        <ele>197.1</ele>
        <time>2023-09-24T08:59:28Z</time>
      </trkpt>
      <trkpt lat="45.26311" lon="0.94623">
        <ele>197.1</ele>
        <time>2023-09-24T08:59:33Z</time>
      </trkpt>
      <trkpt lat="45.26318" lon="0.94641">
        <ele>196.9</ele>
        <time>2023-09-24T08:59:38Z</time>
      </trkpt>
      <trkpt lat="45.26326" lon="0.94663">
        <ele>196.3</ele>
        <time>2023-09-24T08:59:44Z</time>
      </trkpt>
      <trkpt lat="45.26336" lon="0.94684">
        <ele>195.5</ele>
        <time>2023-09-24T08:59:49Z</time>
      </trkpt>
      <trkpt lat="45.26347" lon="0.94705">
        <ele>195.1</ele>
        <time>2023-09-24T08:59:54Z</time>
      </trkpt>
      <trkpt lat="45.26357" lon="0.94722">
        <ele>194.3</ele>
        <time>2023-09-24T08:59:59Z</time>
      </trkpt>
      <trkpt lat="45.26374" lon="0.94727">
        <ele>193</ele>
        <time>2023-09-24T09:00:03Z</time>
      </trkpt>
      <trkpt lat="45.2638" lon="0.94727">
        <ele>192.8</ele>
        <time>2023-09-24T09:00:04Z</time>
      </trkpt>
      <trkpt lat="45.26385" lon="0.94728">
        <ele>192.5</ele>
        <time>2023-09-24T09:00:05Z</time>
      </trkpt>
      <trkpt lat="45.26391" lon="0.94729">
        <ele>192.1</ele>
        <time>2023-09-24T09:00:06Z</time>
      </trkpt>
      <trkpt lat="45.26396" lon="0.94732">
        <ele>191.8</ele>
        <time>2023-09-24T09:00:07Z</time>
      </trkpt>
      <trkpt lat="45.26402" lon="0.94735">
        <ele>191.4</ele>
        <time>2023-09-24T09:00:08Z</time>
      </trkpt>
      <trkpt lat="45.26426" lon="0.94757">
        <ele>189.9</ele>
        <time>2023-09-24T09:00:12Z</time>
      </trkpt>
      <trkpt lat="45.26459" lon="0.94789">
        <ele>188.4</ele>
        <time>2023-09-24T09:00:16Z</time>
      </trkpt>
      <trkpt lat="45.26494" lon="0.94817">
        <ele>185</ele>
        <time>2023-09-24T09:00:21Z</time>
      </trkpt>
      <trkpt lat="45.2651" lon="0.94832">
        <ele>184</ele>
        <time>2023-09-24T09:00:25Z</time>
      </trkpt>
      <trkpt lat="45.26527" lon="0.94846">
        <ele>182.8</ele>
        <time>2023-09-24T09:00:30Z</time>
      </trkpt>
      <trkpt lat="45.26541" lon="0.94855">
        <ele>182.3</ele>
        <time>2023-09-24T09:00:34Z</time>
      </trkpt>
      <trkpt lat="45.26548" lon="0.9486">
        <ele>182.2</ele>
        <time>2023-09-24T09:00:36Z</time>
      </trkpt>
      <trkpt lat="45.26565" lon="0.94876">
        <ele>182.6</ele>
        <time>2023-09-24T09:00:42Z</time>
      </trkpt>
      <trkpt lat="45.26573" lon="0.94884">
        <ele>183</ele>
        <time>2023-09-24T09:00:46Z</time>
      </trkpt>
      <trkpt lat="45.26577" lon="0.94888">
        <ele>183.3</ele>
        <time>2023-09-24T09:00:48Z</time>
      </trkpt>
      <trkpt lat="45.26583" lon="0.94897">
        <ele>183.9</ele>
        <time>2023-09-24T09:00:52Z</time>
      </trkpt>
      <trkpt lat="45.26586" lon="0.94902">
        <ele>184.1</ele>
        <time>2023-09-24T09:00:54Z</time>
      </trkpt>
      <trkpt lat="45.26592" lon="0.94911">
        <ele>184.6</ele>
        <time>2023-09-24T09:00:58Z</time>
      </trkpt>
      <trkpt lat="45.26595" lon="0.94916">
        <ele>184.7</ele>
        <time>2023-09-24T09:01:00Z</time>
      </trkpt>
      <trkpt lat="45.26599" lon="0.94918">
        <ele>184.9</ele>
        <time>2023-09-24T09:01:02Z</time>
      </trkpt>
      <trkpt lat="45.26601" lon="0.94918">
        <ele>184.9</ele>
        <time>2023-09-24T09:01:04Z</time>
      </trkpt>
      <trkpt lat="45.26604" lon="0.94918">
        <ele>184.9</ele>
        <time>2023-09-24T09:01:08Z</time>
      </trkpt>
      <trkpt lat="45.26608" lon="0.9492">
        <ele>184.9</ele>
        <time>2023-09-24T09:11:54Z</time>
      </trkpt>
      <trkpt lat="45.2661" lon="0.94919">
        <ele>184.9</ele>
        <time>2023-09-24T09:11:55Z</time>
      </trkpt>
      <trkpt lat="45.26612" lon="0.94919">
        <ele>184.9</ele>
        <time>2023-09-24T09:11:56Z</time>
      </trkpt>
      <trkpt lat="45.26617" lon="0.94923">
        <ele>185</ele>
        <time>2023-09-24T09:11:58Z</time>
      </trkpt>
      <trkpt lat="45.2662" lon="0.94928">
        <ele>185</ele>
        <time>2023-09-24T09:12:00Z</time>
      </trkpt>
      <trkpt lat="45.26624" lon="0.94931">
        <ele>184.9</ele>
        <time>2023-09-24T09:12:02Z</time>
      </trkpt>
      <trkpt lat="45.26634" lon="0.9494">
        <ele>184.5</ele>
        <time>2023-09-24T09:12:06Z</time>
      </trkpt>
      <trkpt lat="45.26636" lon="0.94943">
        <ele>184.4</ele>
        <time>2023-09-24T09:12:07Z</time>
      </trkpt>
      <trkpt lat="45.2664" lon="0.94948">
        <ele>184</ele>
        <time>2023-09-24T09:12:09Z</time>
      </trkpt>
      <trkpt lat="45.26647" lon="0.94953">
        <ele>183.5</ele>
        <time>2023-09-24T09:12:11Z</time>
      </trkpt>
      <trkpt lat="45.26654" lon="0.94955">
        <ele>183</ele>
        <time>2023-09-24T09:12:13Z</time>
      </trkpt>
      <trkpt lat="45.26661" lon="0.94958">
        <ele>182.8</ele>
        <time>2023-09-24T09:12:15Z</time>
      </trkpt>
      <trkpt lat="45.26665" lon="0.9496">
        <ele>182.2</ele>
        <time>2023-09-24T09:12:16Z</time>
      </trkpt>
      <trkpt lat="45.26673" lon="0.94959">
        <ele>181.9</ele>
        <time>2023-09-24T09:12:18Z</time>
      </trkpt>
      <trkpt lat="45.26688" lon="0.94963">
        <ele>180.8</ele>
        <time>2023-09-24T09:12:22Z</time>
      </trkpt>
      <trkpt lat="45.26696" lon="0.94964">
        <ele>180.1</ele>
        <time>2023-09-24T09:12:24Z</time>
      </trkpt>
      <trkpt lat="45.26699" lon="0.94965">
        <ele>179.9</ele>
        <time>2023-09-24T09:12:25Z</time>
      </trkpt>
      <trkpt lat="45.26713" lon="0.94977">
        <ele>177.6</ele>
        <time>2023-09-24T09:12:31Z</time>
      </trkpt>
      <trkpt lat="45.26719" lon="0.94985">
        <ele>176</ele>
        <time>2023-09-24T09:12:34Z</time>
      </trkpt>
      <trkpt lat="45.26721" lon="0.94988">
        <ele>176</ele>
        <time>2023-09-24T09:12:35Z</time>
      </trkpt>
      <trkpt lat="45.26724" lon="0.94993">
        <ele>175.2</ele>
        <time>2023-09-24T09:12:36Z</time>
      </trkpt>
      <trkpt lat="45.26727" lon="0.95002">
        <ele>173.9</ele>
        <time>2023-09-24T09:12:38Z</time>
      </trkpt>
      <trkpt lat="45.26733" lon="0.95015">
        <ele>171.5</ele>
        <time>2023-09-24T09:12:40Z</time>
      </trkpt>
      <trkpt lat="45.26736" lon="0.95024">
        <ele>170.3</ele>
        <time>2023-09-24T09:12:41Z</time>
      </trkpt>
      <trkpt lat="45.26745" lon="0.95053">
        <ele>166.4</ele>
        <time>2023-09-24T09:12:44Z</time>
      </trkpt>
      <trkpt lat="45.2675" lon="0.95072">
        <ele>163.6</ele>
        <time>2023-09-24T09:12:46Z</time>
      </trkpt>
      <trkpt lat="45.26758" lon="0.95095">
        <ele>161.4</ele>
        <time>2023-09-24T09:12:49Z</time>
      </trkpt>
      <trkpt lat="45.2676" lon="0.95096">
        <ele>161</ele>
        <time>2023-09-24T09:12:50Z</time>
      </trkpt>
      <trkpt lat="45.26765" lon="0.95093">
        <ele>161.5</ele>
        <time>2023-09-24T09:12:53Z</time>
      </trkpt>
      <trkpt lat="45.26768" lon="0.9509">
        <ele>162</ele>
        <time>2023-09-24T09:12:56Z</time>
      </trkpt>
      <trkpt lat="45.2677" lon="0.95089">
        <ele>162</ele>
        <time>2023-09-24T09:12:57Z</time>
      </trkpt>
      <trkpt lat="45.26782" lon="0.95088">
        <ele>162.8</ele>
        <time>2023-09-24T09:13:03Z</time>
      </trkpt>
      <trkpt lat="45.26793" lon="0.95086">
        <ele>163.7</ele>
        <time>2023-09-24T09:13:08Z</time>
      </trkpt>
      <trkpt lat="45.26804" lon="0.95087">
        <ele>164.4</ele>
        <time>2023-09-24T09:13:13Z</time>
      </trkpt>
      <trkpt lat="45.26806" lon="0.95087">
        <ele>164.4</ele>
        <time>2023-09-24T09:13:14Z</time>
      </trkpt>
      <trkpt lat="45.2681" lon="0.95088">
        <ele>164.5</ele>
        <time>2023-09-24T09:13:16Z</time>
      </trkpt>
      <trkpt lat="45.26815" lon="0.95089">
        <ele>165</ele>
        <time>2023-09-24T09:13:18Z</time>
      </trkpt>
      <trkpt lat="45.26817" lon="0.9509">
        <ele>165</ele>
        <time>2023-09-24T09:13:19Z</time>
      </trkpt>
      <trkpt lat="45.26822" lon="0.95091">
        <ele>165.4</ele>
        <time>2023-09-24T09:13:21Z</time>
      </trkpt>
      <trkpt lat="45.2683" lon="0.95091">
        <ele>166.1</ele>
        <time>2023-09-24T09:13:25Z</time>
      </trkpt>
      <trkpt lat="45.26833" lon="0.9509">
        <ele>166.1</ele>
        <time>2023-09-24T09:13:26Z</time>
      </trkpt>
      <trkpt lat="45.26842" lon="0.95084">
        <ele>167</ele>
        <time>2023-09-24T09:13:31Z</time>
      </trkpt>
      <trkpt lat="45.26854" lon="0.95079">
        <ele>167.9</ele>
        <time>2023-09-24T09:13:37Z</time>
      </trkpt>
      <trkpt lat="45.26864" lon="0.95073">
        <ele>168.1</ele>
        <time>2023-09-24T09:13:43Z</time>
      </trkpt>
      <trkpt lat="45.26874" lon="0.95069">
        <ele>168.3</ele>
        <time>2023-09-24T09:13:49Z</time>
      </trkpt>
      <trkpt lat="45.26879" lon="0.95063">
        <ele>168.5</ele>
        <time>2023-09-24T09:13:53Z</time>
      </trkpt>
      <trkpt lat="45.26883" lon="0.95059">
        <ele>168.7</ele>
        <time>2023-09-24T09:13:55Z</time>
      </trkpt>
      <trkpt lat="45.26884" lon="0.95054">
        <ele>169</ele>
        <time>2023-09-24T09:13:58Z</time>
      </trkpt>
      <trkpt lat="45.26889" lon="0.95049">
        <ele>169.4</ele>
        <time>2023-09-24T09:14:02Z</time>
      </trkpt>
      <trkpt lat="45.26891" lon="0.95049">
        <ele>169.4</ele>
        <time>2023-09-24T09:14:03Z</time>
      </trkpt>
      <trkpt lat="45.26892" lon="0.9505">
        <ele>169.1</ele>
        <time>2023-09-24T09:14:04Z</time>
      </trkpt>
      <trkpt lat="45.26894" lon="0.95054">
        <ele>168.8</ele>
        <time>2023-09-24T09:14:06Z</time>
      </trkpt>
      <trkpt lat="45.26894" lon="0.95056">
        <ele>168.8</ele>
        <time>2023-09-24T09:14:07Z</time>
      </trkpt>
      <trkpt lat="45.26898" lon="0.95057">
        <ele>168.8</ele>
        <time>2023-09-24T09:14:09Z</time>
      </trkpt>
      <trkpt lat="45.26907" lon="0.9506">
        <ele>168.3</ele>
        <time>2023-09-24T09:14:13Z</time>
      </trkpt>
      <trkpt lat="45.26913" lon="0.95054">
        <ele>168.3</ele>
        <time>2023-09-24T09:14:16Z</time>
      </trkpt>
      <trkpt lat="45.26915" lon="0.95052">
        <ele>168.4</ele>
        <time>2023-09-24T09:14:17Z</time>
      </trkpt>
      <trkpt lat="45.26916" lon="0.95049">
        <ele>168.6</ele>
        <time>2023-09-24T09:14:18Z</time>
      </trkpt>
      <trkpt lat="45.2692" lon="0.95039">
        <ele>169.1</ele>
        <time>2023-09-24T09:14:21Z</time>
      </trkpt>
      <trkpt lat="45.26921" lon="0.95037">
        <ele>168.9</ele>
        <time>2023-09-24T09:14:22Z</time>
      </trkpt>
      <trkpt lat="45.26926" lon="0.95028">
        <ele>169.4</ele>
        <time>2023-09-24T09:14:25Z</time>
      </trkpt>
      <trkpt lat="45.26928" lon="0.95021">
        <ele>170</ele>
        <time>2023-09-24T09:14:27Z</time>
      </trkpt>
      <trkpt lat="45.26934" lon="0.95009">
        <ele>170.6</ele>
        <time>2023-09-24T09:14:32Z</time>
      </trkpt>
      <trkpt lat="45.26942" lon="0.95008">
        <ele>170</ele>
        <time>2023-09-24T09:14:36Z</time>
      </trkpt>
      <trkpt lat="45.26944" lon="0.95009">
        <ele>170</ele>
        <time>2023-09-24T09:14:37Z</time>
      </trkpt>
      <trkpt lat="45.26954" lon="0.95016">
        <ele>168.1</ele>
        <time>2023-09-24T09:14:40Z</time>
      </trkpt>
      <trkpt lat="45.26956" lon="0.95019">
        <ele>168.1</ele>
        <time>2023-09-24T09:14:41Z</time>
      </trkpt>
      <trkpt lat="45.26967" lon="0.95026">
        <ele>166.1</ele>
        <time>2023-09-24T09:14:45Z</time>
      </trkpt>
      <trkpt lat="45.26969" lon="0.95028">
        <ele>165.6</ele>
        <time>2023-09-24T09:14:46Z</time>
      </trkpt>
      <trkpt lat="45.26969" lon="0.95028">
        <ele>165.3</ele>
        <time>2023-09-24T09:14:49Z</time>
      </trkpt>
      <trkpt lat="45.26972" lon="0.9503">
        <ele>165.3</ele>
        <time>2023-09-24T09:17:50Z</time>
      </trkpt>
      <trkpt lat="45.26975" lon="0.95031">
        <ele>164.9</ele>
        <time>2023-09-24T09:17:51Z</time>
      </trkpt>
      <trkpt lat="45.26978" lon="0.95033">
        <ele>164</ele>
        <time>2023-09-24T09:17:52Z</time>
      </trkpt>
      <trkpt lat="45.26981" lon="0.95035">
        <ele>163.7</ele>
        <time>2023-09-24T09:17:53Z</time>
      </trkpt>
      <trkpt lat="45.26988" lon="0.95042">
        <ele>161.3</ele>
        <time>2023-09-24T09:17:55Z</time>
      </trkpt>
      <trkpt lat="45.26991" lon="0.95043">
        <ele>160.9</ele>
        <time>2023-09-24T09:17:56Z</time>
      </trkpt>
      <trkpt lat="45.27" lon="0.95041">
        <ele>159.6</ele>
        <time>2023-09-24T09:17:59Z</time>
      </trkpt>
      <trkpt lat="45.27007" lon="0.95045">
        <ele>158.8</ele>
        <time>2023-09-24T09:18:01Z</time>
      </trkpt>
      <trkpt lat="45.27011" lon="0.95048">
        <ele>157.7</ele>
        <time>2023-09-24T09:18:02Z</time>
      </trkpt>
      <trkpt lat="45.27021" lon="0.95061">
        <ele>154.5</ele>
        <time>2023-09-24T09:18:05Z</time>
      </trkpt>
      <trkpt lat="45.27024" lon="0.95065">
        <ele>153.5</ele>
        <time>2023-09-24T09:18:06Z</time>
      </trkpt>
      <trkpt lat="45.27027" lon="0.95067">
        <ele>152.4</ele>
        <time>2023-09-24T09:18:07Z</time>
      </trkpt>
      <trkpt lat="45.27035" lon="0.95066">
        <ele>152.2</ele>
        <time>2023-09-24T09:18:09Z</time>
      </trkpt>
      <trkpt lat="45.27041" lon="0.95064">
        <ele>151.4</ele>
        <time>2023-09-24T09:18:10Z</time>
      </trkpt>
      <trkpt lat="45.27051" lon="0.9506">
        <ele>150.3</ele>
        <time>2023-09-24T09:18:12Z</time>
      </trkpt>
      <trkpt lat="45.27057" lon="0.9506">
        <ele>149.2</ele>
        <time>2023-09-24T09:18:14Z</time>
      </trkpt>
      <trkpt lat="45.27059" lon="0.95062">
        <ele>148.7</ele>
        <time>2023-09-24T09:18:15Z</time>
      </trkpt>
      <trkpt lat="45.27064" lon="0.95068">
        <ele>147.2</ele>
        <time>2023-09-24T09:18:17Z</time>
      </trkpt>
      <trkpt lat="45.27067" lon="0.95069">
        <ele>146.7</ele>
        <time>2023-09-24T09:18:18Z</time>
      </trkpt>
      <trkpt lat="45.27076" lon="0.95072">
        <ele>144.7</ele>
        <time>2023-09-24T09:18:21Z</time>
      </trkpt>
      <trkpt lat="45.27078" lon="0.95071">
        <ele>144.7</ele>
        <time>2023-09-24T09:18:22Z</time>
      </trkpt>
      <trkpt lat="45.27079" lon="0.95069">
        <ele>144.6</ele>
        <time>2023-09-24T09:18:23Z</time>
      </trkpt>
      <trkpt lat="45.27084" lon="0.95061">
        <ele>145</ele>
        <time>2023-09-24T09:18:26Z</time>
      </trkpt>
      <trkpt lat="45.27092" lon="0.95049">
        <ele>144.2</ele>
        <time>2023-09-24T09:18:30Z</time>
      </trkpt>
      <trkpt lat="45.27092" lon="0.95046">
        <ele>144.7</ele>
        <time>2023-09-24T09:18:31Z</time>
      </trkpt>
      <trkpt lat="45.27093" lon="0.95041">
        <ele>145.2</ele>
        <time>2023-09-24T09:18:33Z</time>
      </trkpt>
      <trkpt lat="45.27095" lon="0.95036">
        <ele>145.6</ele>
        <time>2023-09-24T09:18:35Z</time>
      </trkpt>
      <trkpt lat="45.27098" lon="0.95031">
        <ele>145.6</ele>
        <time>2023-09-24T09:18:37Z</time>
      </trkpt>
      <trkpt lat="45.27101" lon="0.95028">
        <ele>145.1</ele>
        <time>2023-09-24T09:18:39Z</time>
      </trkpt>
      <trkpt lat="45.27103" lon="0.95023">
        <ele>145.5</ele>
        <time>2023-09-24T09:18:41Z</time>
      </trkpt>
      <trkpt lat="45.27105" lon="0.95019">
        <ele>145.5</ele>
        <time>2023-09-24T09:18:43Z</time>
      </trkpt>
      <trkpt lat="45.2711" lon="0.95012">
        <ele>145.6</ele>
        <time>2023-09-24T09:18:46Z</time>
      </trkpt>
      <trkpt lat="45.27113" lon="0.9501">
        <ele>145.6</ele>
        <time>2023-09-24T09:18:47Z</time>
      </trkpt>
      <trkpt lat="45.27125" lon="0.94997">
        <ele>145.8</ele>
        <time>2023-09-24T09:18:52Z</time>
      </trkpt>
      <trkpt lat="45.27131" lon="0.94991">
        <ele>145.7</ele>
        <time>2023-09-24T09:18:56Z</time>
      </trkpt>
      <trkpt lat="45.27133" lon="0.94988">
        <ele>145.9</ele>
        <time>2023-09-24T09:18:58Z</time>
      </trkpt>
      <trkpt lat="45.27142" lon="0.94981">
        <ele>145.3</ele>
        <time>2023-09-24T09:19:04Z</time>
      </trkpt>
      <trkpt lat="45.27148" lon="0.94975">
        <ele>145.8</ele>
        <time>2023-09-24T09:19:09Z</time>
      </trkpt>
      <trkpt lat="45.27156" lon="0.94972">
        <ele>145.3</ele>
        <time>2023-09-24T09:19:14Z</time>
      </trkpt>
      <trkpt lat="45.27161" lon="0.94972">
        <ele>144.8</ele>
        <time>2023-09-24T09:19:18Z</time>
      </trkpt>
      <trkpt lat="45.27164" lon="0.94974">
        <ele>144.5</ele>
        <time>2023-09-24T09:19:20Z</time>
      </trkpt>
      <trkpt lat="45.27171" lon="0.94983">
        <ele>142.9</ele>
        <time>2023-09-24T09:19:24Z</time>
      </trkpt>
      <trkpt lat="45.27172" lon="0.94988">
        <ele>142.1</ele>
        <time>2023-09-24T09:19:26Z</time>
      </trkpt>
      <trkpt lat="45.27173" lon="0.94993">
        <ele>141.6</ele>
        <time>2023-09-24T09:19:27Z</time>
      </trkpt>
      <trkpt lat="45.27175" lon="0.95007">
        <ele>139.6</ele>
        <time>2023-09-24T09:19:30Z</time>
      </trkpt>
      <trkpt lat="45.27178" lon="0.95009">
        <ele>139.4</ele>
        <time>2023-09-24T09:19:31Z</time>
      </trkpt>
      <trkpt lat="45.27182" lon="0.95009">
        <ele>139.2</ele>
        <time>2023-09-24T09:19:33Z</time>
      </trkpt>
      <trkpt lat="45.2719" lon="0.95005">
        <ele>139.1</ele>
        <time>2023-09-24T09:19:37Z</time>
      </trkpt>
      <trkpt lat="45.27192" lon="0.95005">
        <ele>139.1</ele>
        <time>2023-09-24T09:19:38Z</time>
      </trkpt>
      <trkpt lat="45.27196" lon="0.95006">
        <ele>138.8</ele>
        <time>2023-09-24T09:19:40Z</time>
      </trkpt>
      <trkpt lat="45.27198" lon="0.95003">
        <ele>138.6</ele>
        <time>2023-09-24T09:19:42Z</time>
      </trkpt>
      <trkpt lat="45.27205" lon="0.94999">
        <ele>138.4</ele>
        <time>2023-09-24T09:19:45Z</time>
      </trkpt>
      <trkpt lat="45.27219" lon="0.95002">
        <ele>137.7</ele>
        <time>2023-09-24T09:19:49Z</time>
      </trkpt>
      <trkpt lat="45.2723" lon="0.94996">
        <ele>137.3</ele>
        <time>2023-09-24T09:19:52Z</time>
      </trkpt>
      <trkpt lat="45.2724" lon="0.94992">
        <ele>137</ele>
        <time>2023-09-24T09:19:55Z</time>
      </trkpt>
      <trkpt lat="45.27246" lon="0.94988">
        <ele>136.8</ele>
        <time>2023-09-24T09:19:57Z</time>
      </trkpt>
      <trkpt lat="45.27248" lon="0.94986">
        <ele>136.5</ele>
        <time>2023-09-24T09:19:58Z</time>
      </trkpt>
      <trkpt lat="45.2725" lon="0.94982">
        <ele>136.5</ele>
        <time>2023-09-24T09:20:00Z</time>
      </trkpt>
      <trkpt lat="45.27254" lon="0.94976">
        <ele>136.5</ele>
        <time>2023-09-24T09:20:02Z</time>
      </trkpt>
      <trkpt lat="45.27256" lon="0.94975">
        <ele>137</ele>
        <time>2023-09-24T09:20:03Z</time>
      </trkpt>
      <trkpt lat="45.27261" lon="0.94971">
        <ele>136.6</ele>
        <time>2023-09-24T09:20:05Z</time>
      </trkpt>
      <trkpt lat="45.27264" lon="0.94966">
        <ele>136.6</ele>
        <time>2023-09-24T09:20:07Z</time>
      </trkpt>
      <trkpt lat="45.27265" lon="0.94963">
        <ele>136.7</ele>
        <time>2023-09-24T09:20:08Z</time>
      </trkpt>
      <trkpt lat="45.27267" lon="0.94959">
        <ele>136.7</ele>
        <time>2023-09-24T09:20:09Z</time>
      </trkpt>
      <trkpt lat="45.27267" lon="0.94958">
        <ele>137.3</ele>
        <time>2023-09-24T09:20:11Z</time>
      </trkpt>
      <trkpt lat="45.27272" lon="0.9494">
        <ele>139.5</ele>
        <time>2023-09-24T09:20:25Z</time>
      </trkpt>
      <trkpt lat="45.27272" lon="0.94937">
        <ele>139.5</ele>
        <time>2023-09-24T09:20:26Z</time>
      </trkpt>
      <trkpt lat="45.27274" lon="0.94929">
        <ele>141.7</ele>
        <time>2023-09-24T09:20:29Z</time>
      </trkpt>
      <trkpt lat="45.27274" lon="0.94926">
        <ele>141.7</ele>
        <time>2023-09-24T09:20:30Z</time>
      </trkpt>
      <trkpt lat="45.27275" lon="0.94924">
        <ele>141.9</ele>
        <time>2023-09-24T09:20:31Z</time>
      </trkpt>
      <trkpt lat="45.27276" lon="0.94919">
        <ele>142.6</ele>
        <time>2023-09-24T09:20:33Z</time>
      </trkpt>
      <trkpt lat="45.27275" lon="0.94915">
        <ele>143.3</ele>
        <time>2023-09-24T09:20:35Z</time>
      </trkpt>
      <trkpt lat="45.27272" lon="0.94909">
        <ele>144.4</ele>
        <time>2023-09-24T09:20:39Z</time>
      </trkpt>
      <trkpt lat="45.27272" lon="0.94906">
        <ele>145</ele>
        <time>2023-09-24T09:20:40Z</time>
      </trkpt>
      <trkpt lat="45.27269" lon="0.94893">
        <ele>147.2</ele>
        <time>2023-09-24T09:20:46Z</time>
      </trkpt>
      <trkpt lat="45.27269" lon="0.94891">
        <ele>147.2</ele>
        <time>2023-09-24T09:20:47Z</time>
      </trkpt>
      <trkpt lat="45.27269" lon="0.94888">
        <ele>147.8</ele>
        <time>2023-09-24T09:20:48Z</time>
      </trkpt>
      <trkpt lat="45.27271" lon="0.94882">
        <ele>148.3</ele>
        <time>2023-09-24T09:20:51Z</time>
      </trkpt>
      <trkpt lat="45.27273" lon="0.94881">
        <ele>148.5</ele>
        <time>2023-09-24T09:20:52Z</time>
      </trkpt>
      <trkpt lat="45.27279" lon="0.94878">
        <ele>147.8</ele>
        <time>2023-09-24T09:20:54Z</time>
      </trkpt>
      <trkpt lat="45.27287" lon="0.94866">
        <ele>148</ele>
        <time>2023-09-24T09:20:57Z</time>
      </trkpt>
      <trkpt lat="45.27291" lon="0.94863">
        <ele>148.1</ele>
        <time>2023-09-24T09:20:58Z</time>
      </trkpt>
      <trkpt lat="45.27296" lon="0.94851">
        <ele>148.6</ele>
        <time>2023-09-24T09:21:00Z</time>
      </trkpt>
      <trkpt lat="45.27298" lon="0.94845">
        <ele>148.9</ele>
        <time>2023-09-24T09:21:01Z</time>
      </trkpt>
      <trkpt lat="45.27302" lon="0.94841">
        <ele>148.6</ele>
        <time>2023-09-24T09:21:02Z</time>
      </trkpt>
      <trkpt lat="45.27311" lon="0.94835">
        <ele>148.1</ele>
        <time>2023-09-24T09:21:04Z</time>
      </trkpt>
      <trkpt lat="45.27314" lon="0.94835">
        <ele>147.8</ele>
        <time>2023-09-24T09:21:05Z</time>
      </trkpt>
      <trkpt lat="45.27318" lon="0.94836">
        <ele>147.6</ele>
        <time>2023-09-24T09:21:06Z</time>
      </trkpt>
      <trkpt lat="45.27321" lon="0.94839">
        <ele>147</ele>
        <time>2023-09-24T09:21:07Z</time>
      </trkpt>
      <trkpt lat="45.27324" lon="0.94841">
        <ele>146.8</ele>
        <time>2023-09-24T09:21:08Z</time>
      </trkpt>
      <trkpt lat="45.27331" lon="0.94848">
        <ele>145.6</ele>
        <time>2023-09-24T09:21:11Z</time>
      </trkpt>
      <trkpt lat="45.27341" lon="0.94855">
        <ele>144.3</ele>
        <time>2023-09-24T09:21:14Z</time>
      </trkpt>
      <trkpt lat="45.27343" lon="0.94858">
        <ele>144</ele>
        <time>2023-09-24T09:21:15Z</time>
      </trkpt>
      <trkpt lat="45.27348" lon="0.94863">
        <ele>143.3</ele>
        <time>2023-09-24T09:21:18Z</time>
      </trkpt>
      <trkpt lat="45.27349" lon="0.94864">
        <ele>143.3</ele>
        <time>2023-09-24T09:21:19Z</time>
      </trkpt>
      <trkpt lat="45.27356" lon="0.94874">
        <ele>141.6</ele>
        <time>2023-09-24T09:21:31Z</time>
      </trkpt>
      <trkpt lat="45.27359" lon="0.94876">
        <ele>141.4</ele>
        <time>2023-09-24T09:21:33Z</time>
      </trkpt>
      <trkpt lat="45.27363" lon="0.94888">
        <ele>139.7</ele>
        <time>2023-09-24T09:21:37Z</time>
      </trkpt>
      <trkpt lat="45.27362" lon="0.94892">
        <ele>139.1</ele>
        <time>2023-09-24T09:21:38Z</time>
      </trkpt>
      <trkpt lat="45.27362" lon="0.949">
        <ele>137.8</ele>
        <time>2023-09-24T09:21:40Z</time>
      </trkpt>
      <trkpt lat="45.27364" lon="0.94909">
        <ele>136.5</ele>
        <time>2023-09-24T09:21:42Z</time>
      </trkpt>
      <trkpt lat="45.27363" lon="0.94921">
        <ele>134.8</ele>
        <time>2023-09-24T09:21:45Z</time>
      </trkpt>
      <trkpt lat="45.27364" lon="0.94932">
        <ele>133.9</ele>
        <time>2023-09-24T09:21:47Z</time>
      </trkpt>
      <trkpt lat="45.27361" lon="0.94944">
        <ele>132.8</ele>
        <time>2023-09-24T09:21:49Z</time>
      </trkpt>
      <trkpt lat="45.27364" lon="0.94969">
        <ele>132.2</ele>
        <time>2023-09-24T09:21:53Z</time>
      </trkpt>
      <trkpt lat="45.2737" lon="0.94981">
        <ele>132.1</ele>
        <time>2023-09-24T09:21:55Z</time>
      </trkpt>
      <trkpt lat="45.27374" lon="0.94991">
        <ele>131.9</ele>
        <time>2023-09-24T09:21:57Z</time>
      </trkpt>
      <trkpt lat="45.27379" lon="0.94996">
        <ele>131.9</ele>
        <time>2023-09-24T09:22:00Z</time>
      </trkpt>
      <trkpt lat="45.27381" lon="0.94995">
        <ele>131.9</ele>
        <time>2023-09-24T09:22:01Z</time>
      </trkpt>
      <trkpt lat="45.27391" lon="0.94986">
        <ele>131.7</ele>
        <time>2023-09-24T09:22:05Z</time>
      </trkpt>
      <trkpt lat="45.27414" lon="0.9496">
        <ele>131.1</ele>
        <time>2023-09-24T09:22:12Z</time>
      </trkpt>
      <trkpt lat="45.27441" lon="0.94934">
        <ele>130.1</ele>
        <time>2023-09-24T09:22:19Z</time>
      </trkpt>
      <trkpt lat="45.27443" lon="0.9493">
        <ele>129.9</ele>
        <time>2023-09-24T09:22:20Z</time>
      </trkpt>
      <trkpt lat="45.27444" lon="0.94925">
        <ele>129.7</ele>
        <time>2023-09-24T09:22:21Z</time>
      </trkpt>
      <trkpt lat="45.2744" lon="0.94914">
        <ele>129.5</ele>
        <time>2023-09-24T09:22:23Z</time>
      </trkpt>
      <trkpt lat="45.27435" lon="0.94904">
        <ele>129.4</ele>
        <time>2023-09-24T09:22:25Z</time>
      </trkpt>
      <trkpt lat="45.27434" lon="0.94892">
        <ele>129.6</ele>
        <time>2023-09-24T09:22:27Z</time>
      </trkpt>
      <trkpt lat="45.27439" lon="0.94883">
        <ele>129.8</ele>
        <time>2023-09-24T09:22:29Z</time>
      </trkpt>
      <trkpt lat="45.27445" lon="0.94877">
        <ele>130</ele>
        <time>2023-09-24T09:22:31Z</time>
      </trkpt>
      <trkpt lat="45.27448" lon="0.94873">
        <ele>130.1</ele>
        <time>2023-09-24T09:22:32Z</time>
      </trkpt>
      <trkpt lat="45.2745" lon="0.9487">
        <ele>130.2</ele>
        <time>2023-09-24T09:22:33Z</time>
      </trkpt>
      <trkpt lat="45.27463" lon="0.94855">
        <ele>130.7</ele>
        <time>2023-09-24T09:22:38Z</time>
      </trkpt>
      <trkpt lat="45.27477" lon="0.94839">
        <ele>131.1</ele>
        <time>2023-09-24T09:22:44Z</time>
      </trkpt>
      <trkpt lat="45.27491" lon="0.94823">
        <ele>131.4</ele>
        <time>2023-09-24T09:22:50Z</time>
      </trkpt>
      <trkpt lat="45.27497" lon="0.94814">
        <ele>131.5</ele>
        <time>2023-09-24T09:22:53Z</time>
      </trkpt>
      <trkpt lat="45.27506" lon="0.94797">
        <ele>131.7</ele>
        <time>2023-09-24T09:22:58Z</time>
      </trkpt>
      <trkpt lat="45.27516" lon="0.94766">
        <ele>132.2</ele>
        <time>2023-09-24T09:23:06Z</time>
      </trkpt>
      <trkpt lat="45.27517" lon="0.94762">
        <ele>132.2</ele>
        <time>2023-09-24T09:23:07Z</time>
      </trkpt>
      <trkpt lat="45.2752" lon="0.94741">
        <ele>132.3</ele>
        <time>2023-09-24T09:23:12Z</time>
      </trkpt>
      <trkpt lat="45.2752" lon="0.94723">
        <ele>132.3</ele>
        <time>2023-09-24T09:23:16Z</time>
      </trkpt>
      <trkpt lat="45.27517" lon="0.94711">
        <ele>132.2</ele>
        <time>2023-09-24T09:23:19Z</time>
      </trkpt>
      <trkpt lat="45.27511" lon="0.94709">
        <ele>135.1</ele>
        <time>2023-09-24T09:23:22Z</time>
      </trkpt>
      <trkpt lat="45.27508" lon="0.94709">
        <ele>136.3</ele>
        <time>2023-09-24T09:23:23Z</time>
      </trkpt>
      <trkpt lat="45.27506" lon="0.94709">
        <ele>137.4</ele>
        <time>2023-09-24T09:23:24Z</time>
      </trkpt>
      <trkpt lat="45.27504" lon="0.94709">
        <ele>138.7</ele>
        <time>2023-09-24T09:23:25Z</time>
      </trkpt>
      <trkpt lat="45.27502" lon="0.94709">
        <ele>139.9</ele>
        <time>2023-09-24T09:23:26Z</time>
      </trkpt>
      <trkpt lat="45.275" lon="0.9471">
        <ele>140.6</ele>
        <time>2023-09-24T09:23:27Z</time>
      </trkpt>
      <trkpt lat="45.27492" lon="0.94708">
        <ele>141</ele>
        <time>2023-09-24T09:23:30Z</time>
      </trkpt>
      <trkpt lat="45.27484" lon="0.94694">
        <ele>141.6</ele>
        <time>2023-09-24T09:23:36Z</time>
      </trkpt>
      <trkpt lat="45.27481" lon="0.94688">
        <ele>141.8</ele>
        <time>2023-09-24T09:23:38Z</time>
      </trkpt>
      <trkpt lat="45.27472" lon="0.94671">
        <ele>142.7</ele>
        <time>2023-09-24T09:23:45Z</time>
      </trkpt>
      <trkpt lat="45.2746" lon="0.94657">
        <ele>143.4</ele>
        <time>2023-09-24T09:23:52Z</time>
      </trkpt>
      <trkpt lat="45.27449" lon="0.94646">
        <ele>143.8</ele>
        <time>2023-09-24T09:23:59Z</time>
      </trkpt>
      <trkpt lat="45.27442" lon="0.9464">
        <ele>144.1</ele>
        <time>2023-09-24T09:24:03Z</time>
      </trkpt>
      <trkpt lat="45.27437" lon="0.94635">
        <ele>144.3</ele>
        <time>2023-09-24T09:24:06Z</time>
      </trkpt>
      <trkpt lat="45.27427" lon="0.94628">
        <ele>144.6</ele>
        <time>2023-09-24T09:24:12Z</time>
      </trkpt>
      <trkpt lat="45.27415" lon="0.9462">
        <ele>145</ele>
        <time>2023-09-24T09:24:20Z</time>
      </trkpt>
      <trkpt lat="45.27413" lon="0.94618">
        <ele>145.1</ele>
        <time>2023-09-24T09:24:22Z</time>
      </trkpt>
      <trkpt lat="45.27407" lon="0.94613">
        <ele>145.3</ele>
        <time>2023-09-24T09:24:26Z</time>
      </trkpt>
      <trkpt lat="45.274" lon="0.94607">
        <ele>145.5</ele>
        <time>2023-09-24T09:24:31Z</time>
      </trkpt>
      <trkpt lat="45.27396" lon="0.94605">
        <ele>145.7</ele>
        <time>2023-09-24T09:24:34Z</time>
      </trkpt>
      <trkpt lat="45.27395" lon="0.94604">
        <ele>145.7</ele>
        <time>2023-09-24T09:24:35Z</time>
      </trkpt>
      <trkpt lat="45.27392" lon="0.94602">
        <ele>145.8</ele>
        <time>2023-09-24T09:24:37Z</time>
      </trkpt>
      <trkpt lat="45.2739" lon="0.94601">
        <ele>145.9</ele>
        <time>2023-09-24T09:24:38Z</time>
      </trkpt>
      <trkpt lat="45.27381" lon="0.94595">
        <ele>146.2</ele>
        <time>2023-09-24T09:24:44Z</time>
      </trkpt>
      <trkpt lat="45.27377" lon="0.94593">
        <ele>146.3</ele>
        <time>2023-09-24T09:24:47Z</time>
      </trkpt>
      <trkpt lat="45.27375" lon="0.94591">
        <ele>146.4</ele>
        <time>2023-09-24T09:24:49Z</time>
      </trkpt>
      <trkpt lat="45.27372" lon="0.94589">
        <ele>146.5</ele>
        <time>2023-09-24T09:24:51Z</time>
      </trkpt>
      <trkpt lat="45.27369" lon="0.94586">
        <ele>146.6</ele>
        <time>2023-09-24T09:24:53Z</time>
      </trkpt>
      <trkpt lat="45.27364" lon="0.94581">
        <ele>146.8</ele>
        <time>2023-09-24T09:24:56Z</time>
      </trkpt>
      <trkpt lat="45.27359" lon="0.94579">
        <ele>147</ele>
        <time>2023-09-24T09:24:59Z</time>
      </trkpt>
      <trkpt lat="45.27355" lon="0.94576">
        <ele>147.1</ele>
        <time>2023-09-24T09:25:02Z</time>
      </trkpt>
      <trkpt lat="45.27353" lon="0.94575">
        <ele>147.2</ele>
        <time>2023-09-24T09:25:03Z</time>
      </trkpt>
      <trkpt lat="45.27343" lon="0.94567">
        <ele>147.5</ele>
        <time>2023-09-24T09:25:10Z</time>
      </trkpt>
      <trkpt lat="45.2733" lon="0.94557">
        <ele>148</ele>
        <time>2023-09-24T09:25:18Z</time>
      </trkpt>
      <trkpt lat="45.27323" lon="0.94552">
        <ele>148.3</ele>
        <time>2023-09-24T09:25:23Z</time>
      </trkpt>
      <trkpt lat="45.27319" lon="0.94549">
        <ele>148.4</ele>
        <time>2023-09-24T09:25:25Z</time>
      </trkpt>
      <trkpt lat="45.27307" lon="0.94541">
        <ele>148.8</ele>
        <time>2023-09-24T09:25:32Z</time>
      </trkpt>
      <trkpt lat="45.27299" lon="0.94535">
        <ele>149.1</ele>
        <time>2023-09-24T09:25:37Z</time>
      </trkpt>
      <trkpt lat="45.27289" lon="0.94527">
        <ele>149.4</ele>
        <time>2023-09-24T09:25:43Z</time>
      </trkpt>
      <trkpt lat="45.27281" lon="0.94514">
        <ele>149.8</ele>
        <time>2023-09-24T09:25:49Z</time>
      </trkpt>
      <trkpt lat="45.27272" lon="0.94495">
        <ele>150.3</ele>
        <time>2023-09-24T09:25:56Z</time>
      </trkpt>
      <trkpt lat="45.27263" lon="0.94469">
        <ele>150.9</ele>
        <time>2023-09-24T09:26:03Z</time>
      </trkpt>
      <trkpt lat="45.2726" lon="0.94452">
        <ele>151.3</ele>
        <time>2023-09-24T09:26:06Z</time>
      </trkpt>
      <trkpt lat="45.27253" lon="0.94441">
        <ele>151.6</ele>
        <time>2023-09-24T09:26:08Z</time>
      </trkpt>
      <trkpt lat="45.27244" lon="0.94433">
        <ele>152</ele>
        <time>2023-09-24T09:26:10Z</time>
      </trkpt>
      <trkpt lat="45.27235" lon="0.9443">
        <ele>152.3</ele>
        <time>2023-09-24T09:26:12Z</time>
      </trkpt>
      <trkpt lat="45.27222" lon="0.94426">
        <ele>152.7</ele>
        <time>2023-09-24T09:26:15Z</time>
      </trkpt>
      <trkpt lat="45.27214" lon="0.94422">
        <ele>152.9</ele>
        <time>2023-09-24T09:26:17Z</time>
      </trkpt>
      <trkpt lat="45.2721" lon="0.94418">
        <ele>153.1</ele>
        <time>2023-09-24T09:26:18Z</time>
      </trkpt>
      <trkpt lat="45.27207" lon="0.94413">
        <ele>153.2</ele>
        <time>2023-09-24T09:26:19Z</time>
      </trkpt>
      <trkpt lat="45.27194" lon="0.94393">
        <ele>153.8</ele>
        <time>2023-09-24T09:26:22Z</time>
      </trkpt>
      <trkpt lat="45.2719" lon="0.94385">
        <ele>154</ele>
        <time>2023-09-24T09:26:23Z</time>
      </trkpt>
      <trkpt lat="45.27183" lon="0.94372">
        <ele>154.4</ele>
        <time>2023-09-24T09:26:25Z</time>
      </trkpt>
      <trkpt lat="45.27176" lon="0.94364">
        <ele>154.6</ele>
        <time>2023-09-24T09:26:28Z</time>
      </trkpt>
      <trkpt lat="45.27157" lon="0.94367">
        <ele>154.9</ele>
        <time>2023-09-24T09:26:32Z</time>
      </trkpt>
      <trkpt lat="45.27152" lon="0.94367">
        <ele>155</ele>
        <time>2023-09-24T09:26:33Z</time>
      </trkpt>
      <trkpt lat="45.27133" lon="0.94366">
        <ele>155.4</ele>
        <time>2023-09-24T09:26:38Z</time>
      </trkpt>
      <trkpt lat="45.27121" lon="0.9436">
        <ele>155.7</ele>
        <time>2023-09-24T09:26:43Z</time>
      </trkpt>
      <trkpt lat="45.27118" lon="0.94358">
        <ele>155.7</ele>
        <time>2023-09-24T09:26:44Z</time>
      </trkpt>
      <trkpt lat="45.27105" lon="0.94352">
        <ele>156</ele>
        <time>2023-09-24T09:26:49Z</time>
      </trkpt>
      <trkpt lat="45.27091" lon="0.94347">
        <ele>156.3</ele>
        <time>2023-09-24T09:26:55Z</time>
      </trkpt>
      <trkpt lat="45.27089" lon="0.94346">
        <ele>155.9</ele>
        <time>2023-09-24T09:26:56Z</time>
      </trkpt>
      <trkpt lat="45.27088" lon="0.9434">
        <ele>154.1</ele>
        <time>2023-09-24T09:26:58Z</time>
      </trkpt>
      <trkpt lat="45.27086" lon="0.94325">
        <ele>151.8</ele>
        <time>2023-09-24T09:27:01Z</time>
      </trkpt>
      <trkpt lat="45.27085" lon="0.94318">
        <ele>149.9</ele>
        <time>2023-09-24T09:27:02Z</time>
      </trkpt>
      <trkpt lat="45.27085" lon="0.94314">
        <ele>148.7</ele>
        <time>2023-09-24T09:27:03Z</time>
      </trkpt>
      <trkpt lat="45.2709" lon="0.94306">
        <ele>146.8</ele>
        <time>2023-09-24T09:27:05Z</time>
      </trkpt>
      <trkpt lat="45.27102" lon="0.94295">
        <ele>144.4</ele>
        <time>2023-09-24T09:27:08Z</time>
      </trkpt>
      <trkpt lat="45.27106" lon="0.94291">
        <ele>143.1</ele>
        <time>2023-09-24T09:27:09Z</time>
      </trkpt>
      <trkpt lat="45.27108" lon="0.94288">
        <ele>142</ele>
        <time>2023-09-24T09:27:10Z</time>
      </trkpt>
      <trkpt lat="45.27108" lon="0.94285">
        <ele>140.9</ele>
        <time>2023-09-24T09:27:11Z</time>
      </trkpt>
      <trkpt lat="45.27108" lon="0.9428">
        <ele>139.8</ele>
        <time>2023-09-24T09:27:12Z</time>
      </trkpt>
      <trkpt lat="45.27111" lon="0.94269">
        <ele>138</ele>
        <time>2023-09-24T09:27:14Z</time>
      </trkpt>
      <trkpt lat="45.27114" lon="0.9425">
        <ele>135</ele>
        <time>2023-09-24T09:27:18Z</time>
      </trkpt>
      <trkpt lat="45.27114" lon="0.94246">
        <ele>134</ele>
        <time>2023-09-24T09:27:19Z</time>
      </trkpt>
      <trkpt lat="45.27116" lon="0.94238">
        <ele>132.1</ele>
        <time>2023-09-24T09:27:22Z</time>
      </trkpt>
      <trkpt lat="45.27117" lon="0.94235">
        <ele>131.6</ele>
        <time>2023-09-24T09:27:23Z</time>
      </trkpt>
      <trkpt lat="45.27116" lon="0.9423">
        <ele>130.5</ele>
        <time>2023-09-24T09:27:25Z</time>
      </trkpt>
      <trkpt lat="45.27115" lon="0.94228">
        <ele>129.4</ele>
        <time>2023-09-24T09:27:26Z</time>
      </trkpt>
      <trkpt lat="45.27111" lon="0.94222">
        <ele>128.7</ele>
        <time>2023-09-24T09:27:30Z</time>
      </trkpt>
      <trkpt lat="45.27114" lon="0.94214">
        <ele>126.8</ele>
        <time>2023-09-24T09:27:33Z</time>
      </trkpt>
      <trkpt lat="45.27115" lon="0.94212">
        <ele>125.5</ele>
        <time>2023-09-24T09:27:34Z</time>
      </trkpt>
      <trkpt lat="45.27116" lon="0.94211">
        <ele>125</ele>
        <time>2023-09-24T09:27:36Z</time>
      </trkpt>
      <trkpt lat="45.27116" lon="0.94201">
        <ele>123.4</ele>
        <time>2023-09-24T09:27:41Z</time>
      </trkpt>
      <trkpt lat="45.27116" lon="0.94196">
        <ele>122.3</ele>
        <time>2023-09-24T09:27:43Z</time>
      </trkpt>
      <trkpt lat="45.27115" lon="0.94184">
        <ele>120.2</ele>
        <time>2023-09-24T09:27:47Z</time>
      </trkpt>
      <trkpt lat="45.27114" lon="0.94179">
        <ele>119.4</ele>
        <time>2023-09-24T09:27:48Z</time>
      </trkpt>
      <trkpt lat="45.27114" lon="0.94167">
        <ele>117.7</ele>
        <time>2023-09-24T09:27:50Z</time>
      </trkpt>
      <trkpt lat="45.27117" lon="0.94151">
        <ele>115.4</ele>
        <time>2023-09-24T09:27:52Z</time>
      </trkpt>
      <trkpt lat="45.27118" lon="0.9414">
        <ele>116.1</ele>
        <time>2023-09-24T09:27:55Z</time>
      </trkpt>
      <trkpt lat="45.27118" lon="0.9414">
        <ele>116.1</ele>
        <time>2023-09-24T09:27:58Z</time>
      </trkpt>
      <trkpt lat="45.27151" lon="0.94167">
        <ele>122.5</ele>
        <time>2023-09-24T09:28:56Z</time>
      </trkpt>
      <trkpt lat="45.27152" lon="0.94168">
        <ele>122.8</ele>
        <time>2023-09-24T09:28:57Z</time>
      </trkpt>
      <trkpt lat="45.27154" lon="0.9417">
        <ele>123.2</ele>
        <time>2023-09-24T09:28:59Z</time>
      </trkpt>
      <trkpt lat="45.27156" lon="0.94171">
        <ele>123.5</ele>
        <time>2023-09-24T09:29:02Z</time>
      </trkpt>
      <trkpt lat="45.27161" lon="0.94175">
        <ele>124.4</ele>
        <time>2023-09-24T09:29:06Z</time>
      </trkpt>
      <trkpt lat="45.27169" lon="0.94178">
        <ele>125.4</ele>
        <time>2023-09-24T09:29:12Z</time>
      </trkpt>
      <trkpt lat="45.27178" lon="0.94182">
        <ele>126.1</ele>
        <time>2023-09-24T09:29:19Z</time>
      </trkpt>
      <trkpt lat="45.27186" lon="0.94185">
        <ele>126.4</ele>
        <time>2023-09-24T09:29:24Z</time>
      </trkpt>
      <trkpt lat="45.27189" lon="0.94186">
        <ele>126.3</ele>
        <time>2023-09-24T09:29:26Z</time>
      </trkpt>
      <trkpt lat="45.27191" lon="0.94188">
        <ele>126.2</ele>
        <time>2023-09-24T09:29:27Z</time>
      </trkpt>
      <trkpt lat="45.27199" lon="0.94194">
        <ele>125.8</ele>
        <time>2023-09-24T09:29:32Z</time>
      </trkpt>
      <trkpt lat="45.27207" lon="0.94201">
        <ele>125.4</ele>
        <time>2023-09-24T09:29:36Z</time>
      </trkpt>
      <trkpt lat="45.27214" lon="0.94208">
        <ele>125.6</ele>
        <time>2023-09-24T09:29:38Z</time>
      </trkpt>
      <trkpt lat="45.27219" lon="0.9421">
        <ele>125.9</ele>
        <time>2023-09-24T09:29:39Z</time>
      </trkpt>
      <trkpt lat="45.27231" lon="0.94212">
        <ele>127.1</ele>
        <time>2023-09-24T09:29:42Z</time>
      </trkpt>
      <trkpt lat="45.27238" lon="0.94214">
        <ele>127.9</ele>
        <time>2023-09-24T09:29:45Z</time>
      </trkpt>
      <trkpt lat="45.27243" lon="0.94215">
        <ele>128.4</ele>
        <time>2023-09-24T09:29:47Z</time>
      </trkpt>
      <trkpt lat="45.27252" lon="0.94218">
        <ele>128.8</ele>
        <time>2023-09-24T09:29:52Z</time>
      </trkpt>
      <trkpt lat="45.27262" lon="0.9422">
        <ele>128.4</ele>
        <time>2023-09-24T09:29:56Z</time>
      </trkpt>
      <trkpt lat="45.27267" lon="0.94222">
        <ele>127.9</ele>
        <time>2023-09-24T09:29:58Z</time>
      </trkpt>
      <trkpt lat="45.27275" lon="0.94222">
        <ele>126.9</ele>
        <time>2023-09-24T09:30:00Z</time>
      </trkpt>
      <trkpt lat="45.27285" lon="0.94221">
        <ele>125.3</ele>
        <time>2023-09-24T09:30:02Z</time>
      </trkpt>
      <trkpt lat="45.27289" lon="0.94221">
        <ele>124.6</ele>
        <time>2023-09-24T09:30:03Z</time>
      </trkpt>
      <trkpt lat="45.27298" lon="0.9422">
        <ele>123</ele>
        <time>2023-09-24T09:30:07Z</time>
      </trkpt>
      <trkpt lat="45.27313" lon="0.94217">
        <ele>119.7</ele>
        <time>2023-09-24T09:30:11Z</time>
      </trkpt>
      <trkpt lat="45.27318" lon="0.94216">
        <ele>118.4</ele>
        <time>2023-09-24T09:30:13Z</time>
      </trkpt>
      <trkpt lat="45.27323" lon="0.94218">
        <ele>117.3</ele>
        <time>2023-09-24T09:30:15Z</time>
      </trkpt>
      <trkpt lat="45.27326" lon="0.94219">
        <ele>116.6</ele>
        <time>2023-09-24T09:30:16Z</time>
      </trkpt>
      <trkpt lat="45.27332" lon="0.94213">
        <ele>114.7</ele>
        <time>2023-09-24T09:30:18Z</time>
      </trkpt>
      <trkpt lat="45.27335" lon="0.94208">
        <ele>113.6</ele>
        <time>2023-09-24T09:30:19Z</time>
      </trkpt>
      <trkpt lat="45.2734" lon="0.94205">
        <ele>112.4</ele>
        <time>2023-09-24T09:30:20Z</time>
      </trkpt>
      <trkpt lat="45.27344" lon="0.94205">
        <ele>111.2</ele>
        <time>2023-09-24T09:30:21Z</time>
      </trkpt>
      <trkpt lat="45.27371" lon="0.94211">
        <ele>109.9</ele>
        <time>2023-09-24T09:30:29Z</time>
      </trkpt>
      <trkpt lat="45.27386" lon="0.94222">
        <ele>110.2</ele>
        <time>2023-09-24T09:30:35Z</time>
      </trkpt>
      <trkpt lat="45.27392" lon="0.94225">
        <ele>110.5</ele>
        <time>2023-09-24T09:30:38Z</time>
      </trkpt>
      <trkpt lat="45.27403" lon="0.94228">
        <ele>111.1</ele>
        <time>2023-09-24T09:30:42Z</time>
      </trkpt>
      <trkpt lat="45.27406" lon="0.94228">
        <ele>111.3</ele>
        <time>2023-09-24T09:30:43Z</time>
      </trkpt>
      <trkpt lat="45.27418" lon="0.94228">
        <ele>112.1</ele>
        <time>2023-09-24T09:30:48Z</time>
      </trkpt>
      <trkpt lat="45.27428" lon="0.9423">
        <ele>112.8</ele>
        <time>2023-09-24T09:30:52Z</time>
      </trkpt>
      <trkpt lat="45.27443" lon="0.94234">
        <ele>113.6</ele>
        <time>2023-09-24T09:30:57Z</time>
      </trkpt>
      <trkpt lat="45.27461" lon="0.94241">
        <ele>114.4</ele>
        <time>2023-09-24T09:31:02Z</time>
      </trkpt>
      <trkpt lat="45.27485" lon="0.94253">
        <ele>115.1</ele>
        <time>2023-09-24T09:31:08Z</time>
      </trkpt>
      <trkpt lat="45.27498" lon="0.94259">
        <ele>115.4</ele>
        <time>2023-09-24T09:31:11Z</time>
      </trkpt>
      <trkpt lat="45.27514" lon="0.94266">
        <ele>115.8</ele>
        <time>2023-09-24T09:31:16Z</time>
      </trkpt>
      <trkpt lat="45.27529" lon="0.94264">
        <ele>116</ele>
        <time>2023-09-24T09:31:20Z</time>
      </trkpt>
      <trkpt lat="45.27531" lon="0.94252">
        <ele>115.4</ele>
        <time>2023-09-24T09:31:22Z</time>
      </trkpt>
      <trkpt lat="45.27536" lon="0.94246">
        <ele>115.2</ele>
        <time>2023-09-24T09:31:23Z</time>
      </trkpt>
      <trkpt lat="45.27543" lon="0.94194">
        <ele>113.6</ele>
        <time>2023-09-24T09:31:29Z</time>
      </trkpt>
      <trkpt lat="45.27544" lon="0.9417">
        <ele>112.8</ele>
        <time>2023-09-24T09:31:32Z</time>
      </trkpt>
      <trkpt lat="45.27544" lon="0.94144">
        <ele>112.1</ele>
        <time>2023-09-24T09:31:35Z</time>
      </trkpt>
      <trkpt lat="45.27547" lon="0.94112">
        <ele>111.7</ele>
        <time>2023-09-24T09:31:39Z</time>
      </trkpt>
      <trkpt lat="45.27547" lon="0.94094">
        <ele>112</ele>
        <time>2023-09-24T09:31:41Z</time>
      </trkpt>
      <trkpt lat="45.27547" lon="0.94079">
        <ele>112.3</ele>
        <time>2023-09-24T09:31:43Z</time>
      </trkpt>
      <trkpt lat="45.27547" lon="0.94065">
        <ele>112.7</ele>
        <time>2023-09-24T09:31:45Z</time>
      </trkpt>
      <trkpt lat="45.27548" lon="0.94048">
        <ele>113</ele>
        <time>2023-09-24T09:31:48Z</time>
      </trkpt>
      <trkpt lat="45.27551" lon="0.94043">
        <ele>113.4</ele>
        <time>2023-09-24T09:31:49Z</time>
      </trkpt>
      <trkpt lat="45.27554" lon="0.94041">
        <ele>113.9</ele>
        <time>2023-09-24T09:31:50Z</time>
      </trkpt>
      <trkpt lat="45.27565" lon="0.94034">
        <ele>114.3</ele>
        <time>2023-09-24T09:31:53Z</time>
      </trkpt>
      <trkpt lat="45.27569" lon="0.94032">
        <ele>114.8</ele>
        <time>2023-09-24T09:31:54Z</time>
      </trkpt>
      <trkpt lat="45.27583" lon="0.94026">
        <ele>115.2</ele>
        <time>2023-09-24T09:31:58Z</time>
      </trkpt>
      <trkpt lat="45.27583" lon="0.94014">
        <ele>115.2</ele>
        <time>2023-09-24T09:32:01Z</time>
      </trkpt>
      <trkpt lat="45.27573" lon="0.93987">
        <ele>115.5</ele>
        <time>2023-09-24T09:32:07Z</time>
      </trkpt>
      <trkpt lat="45.27561" lon="0.93964">
        <ele>115.8</ele>
        <time>2023-09-24T09:32:12Z</time>
      </trkpt>
      <trkpt lat="45.27548" lon="0.93938">
        <ele>116</ele>
        <time>2023-09-24T09:32:18Z</time>
      </trkpt>
      <trkpt lat="45.27528" lon="0.93899">
        <ele>116</ele>
        <time>2023-09-24T09:32:26Z</time>
      </trkpt>
      <trkpt lat="45.27521" lon="0.93881">
        <ele>115.7</ele>
        <time>2023-09-24T09:32:29Z</time>
      </trkpt>
      <trkpt lat="45.27516" lon="0.93868">
        <ele>115.5</ele>
        <time>2023-09-24T09:32:31Z</time>
      </trkpt>
      <trkpt lat="45.27512" lon="0.93855">
        <ele>115.3</ele>
        <time>2023-09-24T09:32:33Z</time>
      </trkpt>
      <trkpt lat="45.27506" lon="0.93829">
        <ele>115.1</ele>
        <time>2023-09-24T09:32:37Z</time>
      </trkpt>
      <trkpt lat="45.27503" lon="0.93791">
        <ele>115</ele>
        <time>2023-09-24T09:32:42Z</time>
      </trkpt>
      <trkpt lat="45.27502" lon="0.9377">
        <ele>115.1</ele>
        <time>2023-09-24T09:32:45Z</time>
      </trkpt>
      <trkpt lat="45.27502" lon="0.93742">
        <ele>115.4</ele>
        <time>2023-09-24T09:32:49Z</time>
      </trkpt>
      <trkpt lat="45.27502" lon="0.93723">
        <ele>115.6</ele>
        <time>2023-09-24T09:32:52Z</time>
      </trkpt>
      <trkpt lat="45.27502" lon="0.93717">
        <ele>115.8</ele>
        <time>2023-09-24T09:32:53Z</time>
      </trkpt>
      <trkpt lat="45.27502" lon="0.93687">
        <ele>116.3</ele>
        <time>2023-09-24T09:32:59Z</time>
      </trkpt>
      <trkpt lat="45.27502" lon="0.93679">
        <ele>116.5</ele>
        <time>2023-09-24T09:33:01Z</time>
      </trkpt>
      <trkpt lat="45.27505" lon="0.93667">
        <ele>116.9</ele>
        <time>2023-09-24T09:33:04Z</time>
      </trkpt>
      <trkpt lat="45.27508" lon="0.93664">
        <ele>117</ele>
        <time>2023-09-24T09:33:05Z</time>
      </trkpt>
      <trkpt lat="45.27525" lon="0.93662">
        <ele>116.9</ele>
        <time>2023-09-24T09:33:10Z</time>
      </trkpt>
      <trkpt lat="45.2755" lon="0.93657">
        <ele>116.9</ele>
        <time>2023-09-24T09:33:16Z</time>
      </trkpt>
      <trkpt lat="45.27587" lon="0.93637">
        <ele>117.2</ele>
        <time>2023-09-24T09:33:25Z</time>
      </trkpt>
      <trkpt lat="45.27591" lon="0.93635">
        <ele>117.3</ele>
        <time>2023-09-24T09:33:26Z</time>
      </trkpt>
      <trkpt lat="45.27599" lon="0.9363">
        <ele>117.5</ele>
        <time>2023-09-24T09:33:28Z</time>
      </trkpt>
      <trkpt lat="45.27607" lon="0.93625">
        <ele>117.7</ele>
        <time>2023-09-24T09:33:30Z</time>
      </trkpt>
      <trkpt lat="45.27626" lon="0.93608">
        <ele>118.7</ele>
        <time>2023-09-24T09:33:36Z</time>
      </trkpt>
      <trkpt lat="45.27649" lon="0.93592">
        <ele>120.1</ele>
        <time>2023-09-24T09:33:44Z</time>
      </trkpt>
      <trkpt lat="45.27664" lon="0.93584">
        <ele>120.8</ele>
        <time>2023-09-24T09:33:49Z</time>
      </trkpt>
      <trkpt lat="45.27672" lon="0.93579">
        <ele>121.2</ele>
        <time>2023-09-24T09:33:52Z</time>
      </trkpt>
      <trkpt lat="45.27682" lon="0.93573">
        <ele>121.4</ele>
        <time>2023-09-24T09:33:55Z</time>
      </trkpt>
      <trkpt lat="45.27699" lon="0.9356">
        <ele>121.6</ele>
        <time>2023-09-24T09:34:01Z</time>
      </trkpt>
      <trkpt lat="45.27701" lon="0.93545">
        <ele>121.7</ele>
        <time>2023-09-24T09:34:04Z</time>
      </trkpt>
      <trkpt lat="45.27702" lon="0.93527">
        <ele>121.9</ele>
        <time>2023-09-24T09:34:07Z</time>
      </trkpt>
      <trkpt lat="45.27704" lon="0.93504">
        <ele>122</ele>
        <time>2023-09-24T09:34:11Z</time>
      </trkpt>
      <trkpt lat="45.277" lon="0.93462">
        <ele>122.3</ele>
        <time>2023-09-24T09:34:18Z</time>
      </trkpt>
      <trkpt lat="45.27697" lon="0.93439">
        <ele>122.4</ele>
        <time>2023-09-24T09:34:22Z</time>
      </trkpt>
      <trkpt lat="45.27696" lon="0.93422">
        <ele>122.5</ele>
        <time>2023-09-24T09:34:25Z</time>
      </trkpt>
      <trkpt lat="45.27697" lon="0.93392">
        <ele>122.5</ele>
        <time>2023-09-24T09:34:30Z</time>
      </trkpt>
      <trkpt lat="45.27704" lon="0.93357">
        <ele>122.4</ele>
        <time>2023-09-24T09:34:36Z</time>
      </trkpt>
      <trkpt lat="45.27714" lon="0.9332">
        <ele>122.5</ele>
        <time>2023-09-24T09:34:42Z</time>
      </trkpt>
      <trkpt lat="45.27718" lon="0.9331">
        <ele>122.5</ele>
        <time>2023-09-24T09:34:44Z</time>
      </trkpt>
      <trkpt lat="45.27736" lon="0.93265">
        <ele>122.7</ele>
        <time>2023-09-24T09:34:52Z</time>
      </trkpt>
      <trkpt lat="45.27749" lon="0.93221">
        <ele>123.1</ele>
        <time>2023-09-24T09:35:00Z</time>
      </trkpt>
      <trkpt lat="45.27755" lon="0.93181">
        <ele>123.7</ele>
        <time>2023-09-24T09:35:07Z</time>
      </trkpt>
      <trkpt lat="45.27762" lon="0.93143">
        <ele>124.3</ele>
        <time>2023-09-24T09:35:14Z</time>
      </trkpt>
      <trkpt lat="45.27771" lon="0.93113">
        <ele>124.7</ele>
        <time>2023-09-24T09:35:20Z</time>
      </trkpt>
      <trkpt lat="45.27786" lon="0.93075">
        <ele>124.9</ele>
        <time>2023-09-24T09:35:28Z</time>
      </trkpt>
      <trkpt lat="45.27796" lon="0.9305">
        <ele>124.7</ele>
        <time>2023-09-24T09:35:33Z</time>
      </trkpt>
      <trkpt lat="45.27799" lon="0.93044">
        <ele>124.6</ele>
        <time>2023-09-24T09:35:34Z</time>
      </trkpt>
      <trkpt lat="45.27825" lon="0.93005">
        <ele>124.2</ele>
        <time>2023-09-24T09:35:42Z</time>
      </trkpt>
      <trkpt lat="45.27851" lon="0.92965">
        <ele>124.4</ele>
        <time>2023-09-24T09:35:50Z</time>
      </trkpt>
      <trkpt lat="45.27863" lon="0.9294">
        <ele>124.9</ele>
        <time>2023-09-24T09:35:55Z</time>
      </trkpt>
      <trkpt lat="45.27866" lon="0.92931">
        <ele>125.1</ele>
        <time>2023-09-24T09:35:57Z</time>
      </trkpt>
      <trkpt lat="45.27875" lon="0.92903">
        <ele>125.8</ele>
        <time>2023-09-24T09:36:03Z</time>
      </trkpt>
      <trkpt lat="45.27886" lon="0.92884">
        <ele>126.1</ele>
        <time>2023-09-24T09:36:08Z</time>
      </trkpt>
      <trkpt lat="45.27903" lon="0.92879">
        <ele>126.7</ele>
        <time>2023-09-24T09:36:13Z</time>
      </trkpt>
      <trkpt lat="45.2792" lon="0.92873">
        <ele>127.3</ele>
        <time>2023-09-24T09:36:18Z</time>
      </trkpt>
      <trkpt lat="45.27939" lon="0.92867">
        <ele>127.7</ele>
        <time>2023-09-24T09:36:24Z</time>
      </trkpt>
      <trkpt lat="45.2796" lon="0.92861">
        <ele>127.8</ele>
        <time>2023-09-24T09:36:30Z</time>
      </trkpt>
      <trkpt lat="45.27976" lon="0.92858">
        <ele>127.9</ele>
        <time>2023-09-24T09:36:35Z</time>
      </trkpt>
      <trkpt lat="45.27998" lon="0.92858">
        <ele>128.1</ele>
        <time>2023-09-24T09:36:42Z</time>
      </trkpt>
      <trkpt lat="45.28016" lon="0.92856">
        <ele>128.7</ele>
        <time>2023-09-24T09:36:48Z</time>
      </trkpt>
      <trkpt lat="45.28025" lon="0.92858">
        <ele>129.2</ele>
        <time>2023-09-24T09:36:53Z</time>
      </trkpt>
      <trkpt lat="45.28025" lon="0.92858">
        <ele>129.2</ele>
        <time>2023-09-24T09:36:55Z</time>
      </trkpt>
      <trkpt lat="45.28027" lon="0.92858">
        <ele>129.3</ele>
        <time>2023-09-24T09:37:02Z</time>
      </trkpt>
      <trkpt lat="45.28029" lon="0.92858">
        <ele>129.4</ele>
        <time>2023-09-24T09:37:03Z</time>
      </trkpt>
      <trkpt lat="45.28031" lon="0.92858">
        <ele>129.5</ele>
        <time>2023-09-24T09:37:04Z</time>
      </trkpt>
      <trkpt lat="45.28036" lon="0.9286">
        <ele>129.6</ele>
        <time>2023-09-24T09:37:07Z</time>
      </trkpt>
      <trkpt lat="45.28038" lon="0.9286">
        <ele>129.6</ele>
        <time>2023-09-24T09:37:08Z</time>
      </trkpt>
      <trkpt lat="45.28048" lon="0.92861">
        <ele>129.6</ele>
        <time>2023-09-24T09:37:11Z</time>
      </trkpt>
      <trkpt lat="45.28057" lon="0.92863">
        <ele>129.4</ele>
        <time>2023-09-24T09:37:13Z</time>
      </trkpt>
      <trkpt lat="45.28073" lon="0.92861">
        <ele>129.1</ele>
        <time>2023-09-24T09:37:17Z</time>
      </trkpt>
      <trkpt lat="45.28088" lon="0.92855">
        <ele>128.7</ele>
        <time>2023-09-24T09:37:20Z</time>
      </trkpt>
      <trkpt lat="45.28094" lon="0.92852">
        <ele>128.5</ele>
        <time>2023-09-24T09:37:21Z</time>
      </trkpt>
      <trkpt lat="45.28106" lon="0.92846">
        <ele>128.5</ele>
        <time>2023-09-24T09:37:23Z</time>
      </trkpt>
      <trkpt lat="45.28117" lon="0.92835">
        <ele>128.9</ele>
        <time>2023-09-24T09:37:25Z</time>
      </trkpt>
      <trkpt lat="45.28121" lon="0.9282">
        <ele>129.6</ele>
        <time>2023-09-24T09:37:27Z</time>
      </trkpt>
      <trkpt lat="45.28121" lon="0.92814">
        <ele>130.1</ele>
        <time>2023-09-24T09:37:28Z</time>
      </trkpt>
      <trkpt lat="45.28117" lon="0.92802">
        <ele>131.2</ele>
        <time>2023-09-24T09:37:31Z</time>
      </trkpt>
      <trkpt lat="45.28117" lon="0.92799">
        <ele>131.5</ele>
        <time>2023-09-24T09:37:32Z</time>
      </trkpt>
      <trkpt lat="45.28118" lon="0.92794">
        <ele>132</ele>
        <time>2023-09-24T09:37:34Z</time>
      </trkpt>
      <trkpt lat="45.28118" lon="0.92792">
        <ele>134.9</ele>
        <time>2023-09-24T09:37:35Z</time>
      </trkpt>
      <trkpt lat="45.2812" lon="0.9279">
        <ele>135</ele>
        <time>2023-09-24T09:37:36Z</time>
      </trkpt>
      <trkpt lat="45.28125" lon="0.92788">
        <ele>135.3</ele>
        <time>2023-09-24T09:37:40Z</time>
      </trkpt>
      <trkpt lat="45.28138" lon="0.92785">
        <ele>135.7</ele>
        <time>2023-09-24T09:37:48Z</time>
      </trkpt>
      <trkpt lat="45.28139" lon="0.92784">
        <ele>135.8</ele>
        <time>2023-09-24T09:37:49Z</time>
      </trkpt>
      <trkpt lat="45.28145" lon="0.92783">
        <ele>135.9</ele>
        <time>2023-09-24T09:37:52Z</time>
      </trkpt>
      <trkpt lat="45.28148" lon="0.92782">
        <ele>136</ele>
        <time>2023-09-24T09:37:54Z</time>
      </trkpt>
      <trkpt lat="45.28153" lon="0.92781">
        <ele>136.2</ele>
        <time>2023-09-24T09:37:57Z</time>
      </trkpt>
      <trkpt lat="45.28158" lon="0.9278">
        <ele>136.3</ele>
        <time>2023-09-24T09:38:00Z</time>
      </trkpt>
      <trkpt lat="45.2817" lon="0.92779">
        <ele>136.5</ele>
        <time>2023-09-24T09:38:06Z</time>
      </trkpt>
      <trkpt lat="45.28184" lon="0.92775">
        <ele>136.2</ele>
        <time>2023-09-24T09:38:12Z</time>
      </trkpt>
      <trkpt lat="45.28193" lon="0.92766">
        <ele>136.1</ele>
        <time>2023-09-24T09:38:17Z</time>
      </trkpt>
      <trkpt lat="45.28197" lon="0.9276">
        <ele>136.2</ele>
        <time>2023-09-24T09:38:21Z</time>
      </trkpt>
      <trkpt lat="45.28202" lon="0.92752">
        <ele>136.4</ele>
        <time>2023-09-24T09:38:26Z</time>
      </trkpt>
      <trkpt lat="45.28204" lon="0.92749">
        <ele>136.4</ele>
        <time>2023-09-24T09:38:28Z</time>
      </trkpt>
      <trkpt lat="45.28207" lon="0.92742">
        <ele>137.2</ele>
        <time>2023-09-24T09:38:33Z</time>
      </trkpt>
      <trkpt lat="45.28211" lon="0.92737">
        <ele>137.4</ele>
        <time>2023-09-24T09:38:38Z</time>
      </trkpt>
      <trkpt lat="45.28216" lon="0.9273">
        <ele>138.2</ele>
        <time>2023-09-24T09:38:42Z</time>
      </trkpt>
      <trkpt lat="45.28218" lon="0.92727">
        <ele>138.6</ele>
        <time>2023-09-24T09:38:43Z</time>
      </trkpt>
      <trkpt lat="45.28224" lon="0.92721">
        <ele>138.9</ele>
        <time>2023-09-24T09:38:46Z</time>
      </trkpt>
      <trkpt lat="45.28231" lon="0.92712">
        <ele>139.7</ele>
        <time>2023-09-24T09:38:51Z</time>
      </trkpt>
      <trkpt lat="45.28239" lon="0.92705">
        <ele>140.4</ele>
        <time>2023-09-24T09:38:56Z</time>
      </trkpt>
      <trkpt lat="45.28247" lon="0.92699">
        <ele>140.6</ele>
        <time>2023-09-24T09:39:02Z</time>
      </trkpt>
      <trkpt lat="45.28254" lon="0.92692">
        <ele>141.4</ele>
        <time>2023-09-24T09:39:07Z</time>
      </trkpt>
      <trkpt lat="45.28261" lon="0.92684">
        <ele>142.4</ele>
        <time>2023-09-24T09:39:12Z</time>
      </trkpt>
      <trkpt lat="45.28269" lon="0.92673">
        <ele>143.5</ele>
        <time>2023-09-24T09:39:19Z</time>
      </trkpt>
      <trkpt lat="45.28274" lon="0.92667">
        <ele>144.8</ele>
        <time>2023-09-24T09:39:23Z</time>
      </trkpt>
      <trkpt lat="45.28275" lon="0.92665">
        <ele>144.8</ele>
        <time>2023-09-24T09:39:24Z</time>
      </trkpt>
      <trkpt lat="45.28278" lon="0.92658">
        <ele>146.2</ele>
        <time>2023-09-24T09:39:28Z</time>
      </trkpt>
      <trkpt lat="45.28284" lon="0.92643">
        <ele>148.1</ele>
        <time>2023-09-24T09:39:34Z</time>
      </trkpt>
      <trkpt lat="45.2829" lon="0.92623">
        <ele>150.7</ele>
        <time>2023-09-24T09:39:39Z</time>
      </trkpt>
      <trkpt lat="45.28298" lon="0.92605">
        <ele>152.4</ele>
        <time>2023-09-24T09:39:44Z</time>
      </trkpt>
      <trkpt lat="45.28304" lon="0.92592">
        <ele>153.5</ele>
        <time>2023-09-24T09:39:49Z</time>
      </trkpt>
      <trkpt lat="45.28305" lon="0.92588">
        <ele>153.8</ele>
        <time>2023-09-24T09:39:51Z</time>
      </trkpt>
      <trkpt lat="45.28306" lon="0.9258">
        <ele>154.4</ele>
        <time>2023-09-24T09:39:55Z</time>
      </trkpt>
      <trkpt lat="45.28304" lon="0.92564">
        <ele>155.7</ele>
        <time>2023-09-24T09:40:03Z</time>
      </trkpt>
      <trkpt lat="45.28301" lon="0.92549">
        <ele>156.4</ele>
        <time>2023-09-24T09:40:10Z</time>
      </trkpt>
      <trkpt lat="45.28303" lon="0.92543">
        <ele>157</ele>
        <time>2023-09-24T09:40:12Z</time>
      </trkpt>
      <trkpt lat="45.28301" lon="0.92535">
        <ele>157.2</ele>
        <time>2023-09-24T09:40:16Z</time>
      </trkpt>
      <trkpt lat="45.28295" lon="0.92525">
        <ele>157.5</ele>
        <time>2023-09-24T09:40:24Z</time>
      </trkpt>
      <trkpt lat="45.28292" lon="0.92517">
        <ele>157.6</ele>
        <time>2023-09-24T09:40:29Z</time>
      </trkpt>
      <trkpt lat="45.28291" lon="0.92515">
        <ele>157.8</ele>
        <time>2023-09-24T09:40:30Z</time>
      </trkpt>
      <trkpt lat="45.2829" lon="0.92503">
        <ele>158</ele>
        <time>2023-09-24T09:40:38Z</time>
      </trkpt>
      <trkpt lat="45.2829" lon="0.92501">
        <ele>158</ele>
        <time>2023-09-24T09:40:39Z</time>
      </trkpt>
      <trkpt lat="45.28288" lon="0.92496">
        <ele>158</ele>
        <time>2023-09-24T09:40:43Z</time>
      </trkpt>
      <trkpt lat="45.28288" lon="0.92496">
        <ele>158</ele>
        <time>2023-09-24T09:40:45Z</time>
      </trkpt>
      <trkpt lat="45.28277" lon="0.92458">
        <ele>157.2</ele>
        <time>2023-09-24T09:41:22Z</time>
      </trkpt>
      <trkpt lat="45.28277" lon="0.92456">
        <ele>157</ele>
        <time>2023-09-24T09:41:23Z</time>
      </trkpt>
      <trkpt lat="45.28273" lon="0.92447">
        <ele>156.7</ele>
        <time>2023-09-24T09:41:28Z</time>
      </trkpt>
      <trkpt lat="45.28272" lon="0.92447">
        <ele>156.7</ele>
        <time>2023-09-24T09:41:29Z</time>
      </trkpt>
      <trkpt lat="45.28264" lon="0.92451">
        <ele>156.6</ele>
        <time>2023-09-24T09:41:36Z</time>
      </trkpt>
      <trkpt lat="45.28255" lon="0.92452">
        <ele>156.6</ele>
        <time>2023-09-24T09:41:41Z</time>
      </trkpt>
      <trkpt lat="45.28253" lon="0.92452">
        <ele>156.6</ele>
        <time>2023-09-24T09:41:42Z</time>
      </trkpt>
      <trkpt lat="45.28249" lon="0.92451">
        <ele>156.6</ele>
        <time>2023-09-24T09:41:44Z</time>
      </trkpt>
      <trkpt lat="45.28241" lon="0.92446">
        <ele>156.6</ele>
        <time>2023-09-24T09:41:48Z</time>
      </trkpt>
      <trkpt lat="45.28237" lon="0.9244">
        <ele>156.7</ele>
        <time>2023-09-24T09:41:51Z</time>
      </trkpt>
      <trkpt lat="45.28232" lon="0.92434">
        <ele>156.7</ele>
        <time>2023-09-24T09:41:54Z</time>
      </trkpt>
      <trkpt lat="45.2822" lon="0.9242">
        <ele>156.6</ele>
        <time>2023-09-24T09:42:00Z</time>
      </trkpt>
      <trkpt lat="45.28214" lon="0.92413">
        <ele>156.4</ele>
        <time>2023-09-24T09:42:03Z</time>
      </trkpt>
      <trkpt lat="45.28204" lon="0.92407">
        <ele>156.2</ele>
        <time>2023-09-24T09:42:07Z</time>
      </trkpt>
      <trkpt lat="45.282" lon="0.92406">
        <ele>156.1</ele>
        <time>2023-09-24T09:42:08Z</time>
      </trkpt>
      <trkpt lat="45.28197" lon="0.92405">
        <ele>156</ele>
        <time>2023-09-24T09:42:09Z</time>
      </trkpt>
      <trkpt lat="45.28187" lon="0.92401">
        <ele>155.6</ele>
        <time>2023-09-24T09:42:13Z</time>
      </trkpt>
      <trkpt lat="45.28183" lon="0.92397">
        <ele>155.3</ele>
        <time>2023-09-24T09:42:15Z</time>
      </trkpt>
      <trkpt lat="45.2818" lon="0.92392">
        <ele>154</ele>
        <time>2023-09-24T09:42:17Z</time>
      </trkpt>
      <trkpt lat="45.28176" lon="0.92387">
        <ele>153.3</ele>
        <time>2023-09-24T09:42:20Z</time>
      </trkpt>
      <trkpt lat="45.28175" lon="0.92384">
        <ele>153.1</ele>
        <time>2023-09-24T09:43:53Z</time>
      </trkpt>
      <trkpt lat="45.28176" lon="0.92381">
        <ele>152.8</ele>
        <time>2023-09-24T09:43:54Z</time>
      </trkpt>
      <trkpt lat="45.28174" lon="0.92365">
        <ele>151.2</ele>
        <time>2023-09-24T09:43:58Z</time>
      </trkpt>
      <trkpt lat="45.28173" lon="0.92358">
        <ele>150.5</ele>
        <time>2023-09-24T09:43:59Z</time>
      </trkpt>
      <trkpt lat="45.28171" lon="0.92341">
        <ele>148.6</ele>
        <time>2023-09-24T09:44:01Z</time>
      </trkpt>
      <trkpt lat="45.28167" lon="0.92309">
        <ele>145.2</ele>
        <time>2023-09-24T09:44:04Z</time>
      </trkpt>
      <trkpt lat="45.28164" lon="0.92289">
        <ele>143.2</ele>
        <time>2023-09-24T09:44:06Z</time>
      </trkpt>
      <trkpt lat="45.28158" lon="0.92276">
        <ele>142</ele>
        <time>2023-09-24T09:44:08Z</time>
      </trkpt>
      <trkpt lat="45.28153" lon="0.92272">
        <ele>141.5</ele>
        <time>2023-09-24T09:44:09Z</time>
      </trkpt>
      <trkpt lat="45.28148" lon="0.92268">
        <ele>141.1</ele>
        <time>2023-09-24T09:44:10Z</time>
      </trkpt>
      <trkpt lat="45.2813" lon="0.92263">
        <ele>139.9</ele>
        <time>2023-09-24T09:44:13Z</time>
      </trkpt>
      <trkpt lat="45.28112" lon="0.92261">
        <ele>139</ele>
        <time>2023-09-24T09:44:16Z</time>
      </trkpt>
      <trkpt lat="45.28101" lon="0.92264">
        <ele>138.5</ele>
        <time>2023-09-24T09:44:18Z</time>
      </trkpt>
      <trkpt lat="45.28091" lon="0.92273">
        <ele>138.1</ele>
        <time>2023-09-24T09:44:20Z</time>
      </trkpt>
      <trkpt lat="45.28082" lon="0.92282">
        <ele>137.7</ele>
        <time>2023-09-24T09:44:22Z</time>
      </trkpt>
      <trkpt lat="45.28067" lon="0.92299">
        <ele>136.4</ele>
        <time>2023-09-24T09:44:26Z</time>
      </trkpt>
      <trkpt lat="45.28056" lon="0.92305">
        <ele>135.2</ele>
        <time>2023-09-24T09:44:28Z</time>
      </trkpt>
      <trkpt lat="45.28051" lon="0.92305">
        <ele>134.5</ele>
        <time>2023-09-24T09:44:29Z</time>
      </trkpt>
      <trkpt lat="45.28045" lon="0.92301">
        <ele>133.8</ele>
        <time>2023-09-24T09:44:30Z</time>
      </trkpt>
      <trkpt lat="45.28034" lon="0.9229">
        <ele>132.2</ele>
        <time>2023-09-24T09:44:32Z</time>
      </trkpt>
      <trkpt lat="45.2801" lon="0.92265">
        <ele>129.4</ele>
        <time>2023-09-24T09:44:37Z</time>
      </trkpt>
      <trkpt lat="45.28008" lon="0.92261">
        <ele>128.5</ele>
        <time>2023-09-24T09:44:38Z</time>
      </trkpt>
      <trkpt lat="45.2801" lon="0.92253">
        <ele>128.2</ele>
        <time>2023-09-24T09:44:40Z</time>
      </trkpt>
      <trkpt lat="45.28013" lon="0.92241">
        <ele>127.6</ele>
        <time>2023-09-24T09:44:42Z</time>
      </trkpt>
      <trkpt lat="45.28014" lon="0.92225">
        <ele>126.9</ele>
        <time>2023-09-24T09:44:44Z</time>
      </trkpt>
      <trkpt lat="45.28012" lon="0.922">
        <ele>126.4</ele>
        <time>2023-09-24T09:44:47Z</time>
      </trkpt>
      <trkpt lat="45.28013" lon="0.92192">
        <ele>126.4</ele>
        <time>2023-09-24T09:44:48Z</time>
      </trkpt>
      <trkpt lat="45.28016" lon="0.92185">
        <ele>126.5</ele>
        <time>2023-09-24T09:44:49Z</time>
      </trkpt>
      <trkpt lat="45.28024" lon="0.92174">
        <ele>126.8</ele>
        <time>2023-09-24T09:44:51Z</time>
      </trkpt>
      <trkpt lat="45.28045" lon="0.92147">
        <ele>127.6</ele>
        <time>2023-09-24T09:44:57Z</time>
      </trkpt>
      <trkpt lat="45.28069" lon="0.9212">
        <ele>128.7</ele>
        <time>2023-09-24T09:45:04Z</time>
      </trkpt>
      <trkpt lat="45.28092" lon="0.92103">
        <ele>130</ele>
        <time>2023-09-24T09:45:10Z</time>
      </trkpt>
      <trkpt lat="45.28115" lon="0.92101">
        <ele>131.2</ele>
        <time>2023-09-24T09:45:16Z</time>
      </trkpt>
      <trkpt lat="45.2813" lon="0.92108">
        <ele>132</ele>
        <time>2023-09-24T09:45:20Z</time>
      </trkpt>
      <trkpt lat="45.28133" lon="0.9211">
        <ele>132.2</ele>
        <time>2023-09-24T09:45:21Z</time>
      </trkpt>
      <trkpt lat="45.28136" lon="0.92112">
        <ele>132.4</ele>
        <time>2023-09-24T09:45:22Z</time>
      </trkpt>
      <trkpt lat="45.28144" lon="0.92115">
        <ele>132.8</ele>
        <time>2023-09-24T09:45:24Z</time>
      </trkpt>
      <trkpt lat="45.28147" lon="0.92116">
        <ele>133</ele>
        <time>2023-09-24T09:45:25Z</time>
      </trkpt>
      <trkpt lat="45.2816" lon="0.92127">
        <ele>133.8</ele>
        <time>2023-09-24T09:45:29Z</time>
      </trkpt>
      <trkpt lat="45.2818" lon="0.92141">
        <ele>135</ele>
        <time>2023-09-24T09:45:35Z</time>
      </trkpt>
      <trkpt lat="45.28196" lon="0.92147">
        <ele>135.6</ele>
        <time>2023-09-24T09:45:40Z</time>
      </trkpt>
      <trkpt lat="45.28215" lon="0.92148">
        <ele>136.4</ele>
        <time>2023-09-24T09:45:45Z</time>
      </trkpt>
      <trkpt lat="45.28234" lon="0.92153">
        <ele>137.4</ele>
        <time>2023-09-24T09:45:50Z</time>
      </trkpt>
      <trkpt lat="45.28246" lon="0.9216">
        <ele>138.5</ele>
        <time>2023-09-24T09:45:54Z</time>
      </trkpt>
      <trkpt lat="45.28258" lon="0.9217">
        <ele>139.4</ele>
        <time>2023-09-24T09:45:59Z</time>
      </trkpt>
      <trkpt lat="45.28269" lon="0.92172">
        <ele>139.9</ele>
        <time>2023-09-24T09:46:03Z</time>
      </trkpt>
      <trkpt lat="45.28291" lon="0.92174">
        <ele>140.9</ele>
        <time>2023-09-24T09:46:10Z</time>
      </trkpt>
      <trkpt lat="45.28295" lon="0.92174">
        <ele>141</ele>
        <time>2023-09-24T09:46:11Z</time>
      </trkpt>
      <trkpt lat="45.28307" lon="0.92175">
        <ele>141.2</ele>
        <time>2023-09-24T09:46:15Z</time>
      </trkpt>
      <trkpt lat="45.28328" lon="0.92177">
        <ele>141.7</ele>
        <time>2023-09-24T09:46:21Z</time>
      </trkpt>
      <trkpt lat="45.28349" lon="0.9218">
        <ele>142.4</ele>
        <time>2023-09-24T09:46:27Z</time>
      </trkpt>
      <trkpt lat="45.28361" lon="0.92173">
        <ele>143.2</ele>
        <time>2023-09-24T09:46:32Z</time>
      </trkpt>
      <trkpt lat="45.2837" lon="0.92165">
        <ele>143.9</ele>
        <time>2023-09-24T09:46:36Z</time>
      </trkpt>
      <trkpt lat="45.28379" lon="0.92154">
        <ele>144.6</ele>
        <time>2023-09-24T09:46:42Z</time>
      </trkpt>
      <trkpt lat="45.28388" lon="0.92145">
        <ele>145.1</ele>
        <time>2023-09-24T09:46:47Z</time>
      </trkpt>
      <trkpt lat="45.28391" lon="0.92142">
        <ele>145.3</ele>
        <time>2023-09-24T09:46:49Z</time>
      </trkpt>
      <trkpt lat="45.28395" lon="0.92139">
        <ele>145.5</ele>
        <time>2023-09-24T09:46:51Z</time>
      </trkpt>
      <trkpt lat="45.28396" lon="0.92138">
        <ele>145.5</ele>
        <time>2023-09-24T09:46:52Z</time>
      </trkpt>
      <trkpt lat="45.28397" lon="0.92136">
        <ele>145.6</ele>
        <time>2023-09-24T09:46:53Z</time>
      </trkpt>
      <trkpt lat="45.28405" lon="0.92135">
        <ele>145.7</ele>
        <time>2023-09-24T09:46:56Z</time>
      </trkpt>
      <trkpt lat="45.28417" lon="0.92126">
        <ele>145.6</ele>
        <time>2023-09-24T09:47:02Z</time>
      </trkpt>
      <trkpt lat="45.28433" lon="0.92118">
        <ele>145.3</ele>
        <time>2023-09-24T09:47:08Z</time>
      </trkpt>
      <trkpt lat="45.28446" lon="0.92111">
        <ele>145</ele>
        <time>2023-09-24T09:47:12Z</time>
      </trkpt>
      <trkpt lat="45.28459" lon="0.92101">
        <ele>144.9</ele>
        <time>2023-09-24T09:47:16Z</time>
      </trkpt>
      <trkpt lat="45.28474" lon="0.92087">
        <ele>144.8</ele>
        <time>2023-09-24T09:47:20Z</time>
      </trkpt>
      <trkpt lat="45.28486" lon="0.92062">
        <ele>145</ele>
        <time>2023-09-24T09:47:25Z</time>
      </trkpt>
      <trkpt lat="45.2849" lon="0.92021">
        <ele>145.4</ele>
        <time>2023-09-24T09:47:33Z</time>
      </trkpt>
      <trkpt lat="45.28493" lon="0.9198">
        <ele>145.6</ele>
        <time>2023-09-24T09:47:41Z</time>
      </trkpt>
      <trkpt lat="45.2849" lon="0.91935">
        <ele>146.1</ele>
        <time>2023-09-24T09:47:50Z</time>
      </trkpt>
      <trkpt lat="45.28487" lon="0.91892">
        <ele>146.6</ele>
        <time>2023-09-24T09:47:59Z</time>
      </trkpt>
      <trkpt lat="45.28486" lon="0.91848">
        <ele>147.1</ele>
        <time>2023-09-24T09:48:08Z</time>
      </trkpt>
      <trkpt lat="45.28486" lon="0.91815">
        <ele>147.2</ele>
        <time>2023-09-24T09:48:15Z</time>
      </trkpt>
      <trkpt lat="45.28487" lon="0.91791">
        <ele>147.4</ele>
        <time>2023-09-24T09:48:20Z</time>
      </trkpt>
      <trkpt lat="45.28487" lon="0.9176">
        <ele>147.7</ele>
        <time>2023-09-24T09:48:26Z</time>
      </trkpt>
      <trkpt lat="45.2849" lon="0.91743">
        <ele>147.9</ele>
        <time>2023-09-24T09:48:31Z</time>
      </trkpt>
      <trkpt lat="45.28497" lon="0.91717">
        <ele>148.3</ele>
        <time>2023-09-24T09:48:37Z</time>
      </trkpt>
      <trkpt lat="45.28507" lon="0.91681">
        <ele>148.7</ele>
        <time>2023-09-24T09:48:45Z</time>
      </trkpt>
      <trkpt lat="45.28514" lon="0.91659">
        <ele>149.1</ele>
        <time>2023-09-24T09:48:51Z</time>
      </trkpt>
      <trkpt lat="45.28526" lon="0.91643">
        <ele>149.6</ele>
        <time>2023-09-24T09:48:57Z</time>
      </trkpt>
      <trkpt lat="45.28546" lon="0.91629">
        <ele>150.4</ele>
        <time>2023-09-24T09:49:05Z</time>
      </trkpt>
      <trkpt lat="45.28549" lon="0.91623">
        <ele>150.6</ele>
        <time>2023-09-24T09:49:07Z</time>
      </trkpt>
      <trkpt lat="45.2855" lon="0.91615">
        <ele>150.7</ele>
        <time>2023-09-24T09:49:09Z</time>
      </trkpt>
      <trkpt lat="45.2855" lon="0.91598">
        <ele>150.7</ele>
        <time>2023-09-24T09:49:14Z</time>
      </trkpt>
      <trkpt lat="45.2855" lon="0.91573">
        <ele>150.9</ele>
        <time>2023-09-24T09:49:19Z</time>
      </trkpt>
      <trkpt lat="45.28549" lon="0.91552">
        <ele>151.3</ele>
        <time>2023-09-24T09:49:24Z</time>
      </trkpt>
      <trkpt lat="45.28553" lon="0.91534">
        <ele>151.7</ele>
        <time>2023-09-24T09:49:29Z</time>
      </trkpt>
      <trkpt lat="45.28558" lon="0.91513">
        <ele>152.3</ele>
        <time>2023-09-24T09:49:35Z</time>
      </trkpt>
      <trkpt lat="45.28563" lon="0.91495">
        <ele>152.8</ele>
        <time>2023-09-24T09:49:41Z</time>
      </trkpt>
      <trkpt lat="45.28567" lon="0.91479">
        <ele>153.3</ele>
        <time>2023-09-24T09:49:46Z</time>
      </trkpt>
      <trkpt lat="45.28573" lon="0.91462">
        <ele>153.9</ele>
        <time>2023-09-24T09:49:52Z</time>
      </trkpt>
      <trkpt lat="45.28583" lon="0.91444">
        <ele>154.7</ele>
        <time>2023-09-24T09:49:59Z</time>
      </trkpt>
      <trkpt lat="45.28592" lon="0.91426">
        <ele>155.3</ele>
        <time>2023-09-24T09:50:06Z</time>
      </trkpt>
      <trkpt lat="45.286" lon="0.91411">
        <ele>155.9</ele>
        <time>2023-09-24T09:50:12Z</time>
      </trkpt>
      <trkpt lat="45.2861" lon="0.91392">
        <ele>156.5</ele>
        <time>2023-09-24T09:50:19Z</time>
      </trkpt>
      <trkpt lat="45.28616" lon="0.9138">
        <ele>156.9</ele>
        <time>2023-09-24T09:50:24Z</time>
      </trkpt>
      <trkpt lat="45.28624" lon="0.91365">
        <ele>157.4</ele>
        <time>2023-09-24T09:50:30Z</time>
      </trkpt>
      <trkpt lat="45.28631" lon="0.91349">
        <ele>157.9</ele>
        <time>2023-09-24T09:50:36Z</time>
      </trkpt>
      <trkpt lat="45.28634" lon="0.91332">
        <ele>158.3</ele>
        <time>2023-09-24T09:50:42Z</time>
      </trkpt>
      <trkpt lat="45.28635" lon="0.91321">
        <ele>158.6</ele>
        <time>2023-09-24T09:50:46Z</time>
      </trkpt>
      <trkpt lat="45.28636" lon="0.91318">
        <ele>158.7</ele>
        <time>2023-09-24T09:50:47Z</time>
      </trkpt>
      <trkpt lat="45.28636" lon="0.91308">
        <ele>158.9</ele>
        <time>2023-09-24T09:50:51Z</time>
      </trkpt>
      <trkpt lat="45.28636" lon="0.91305">
        <ele>159</ele>
        <time>2023-09-24T09:50:52Z</time>
      </trkpt>
      <trkpt lat="45.28636" lon="0.91285">
        <ele>159.5</ele>
        <time>2023-09-24T09:50:58Z</time>
      </trkpt>
      <trkpt lat="45.28635" lon="0.91264">
        <ele>160.1</ele>
        <time>2023-09-24T09:51:05Z</time>
      </trkpt>
      <trkpt lat="45.28635" lon="0.91252">
        <ele>160.4</ele>
        <time>2023-09-24T09:51:09Z</time>
      </trkpt>
      <trkpt lat="45.28637" lon="0.9123">
        <ele>161</ele>
        <time>2023-09-24T09:51:15Z</time>
      </trkpt>
      <trkpt lat="45.28637" lon="0.91224">
        <ele>161.1</ele>
        <time>2023-09-24T09:51:17Z</time>
      </trkpt>
      <trkpt lat="45.28638" lon="0.91217">
        <ele>161.3</ele>
        <time>2023-09-24T09:51:19Z</time>
      </trkpt>
      <trkpt lat="45.28637" lon="0.91201">
        <ele>161.8</ele>
        <time>2023-09-24T09:51:24Z</time>
      </trkpt>
      <trkpt lat="45.28636" lon="0.91196">
        <ele>161.9</ele>
        <time>2023-09-24T09:51:26Z</time>
      </trkpt>
      <trkpt lat="45.28635" lon="0.91185">
        <ele>162.2</ele>
        <time>2023-09-24T09:51:29Z</time>
      </trkpt>
      <trkpt lat="45.28631" lon="0.91161">
        <ele>162.8</ele>
        <time>2023-09-24T09:51:36Z</time>
      </trkpt>
      <trkpt lat="45.2863" lon="0.91137">
        <ele>163.6</ele>
        <time>2023-09-24T09:51:43Z</time>
      </trkpt>
      <trkpt lat="45.28634" lon="0.91108">
        <ele>164.6</ele>
        <time>2023-09-24T09:51:52Z</time>
      </trkpt>
      <trkpt lat="45.28639" lon="0.91077">
        <ele>165.8</ele>
        <time>2023-09-24T09:52:00Z</time>
      </trkpt>
      <trkpt lat="45.28636" lon="0.91057">
        <ele>166.6</ele>
        <time>2023-09-24T09:52:06Z</time>
      </trkpt>
      <trkpt lat="45.28634" lon="0.91045">
        <ele>166.7</ele>
        <time>2023-09-24T09:52:10Z</time>
      </trkpt>
      <trkpt lat="45.28635" lon="0.91043">
        <ele>166.7</ele>
        <time>2023-09-24T09:52:11Z</time>
      </trkpt>
      <trkpt lat="45.28646" lon="0.91041">
        <ele>166.6</ele>
        <time>2023-09-24T09:52:15Z</time>
      </trkpt>
      <trkpt lat="45.28663" lon="0.91044">
        <ele>166.3</ele>
        <time>2023-09-24T09:52:21Z</time>
      </trkpt>
      <trkpt lat="45.28682" lon="0.91049">
        <ele>165.9</ele>
        <time>2023-09-24T09:52:28Z</time>
      </trkpt>
      <trkpt lat="45.28701" lon="0.91051">
        <ele>165.5</ele>
        <time>2023-09-24T09:52:34Z</time>
      </trkpt>
      <trkpt lat="45.28716" lon="0.91046">
        <ele>165.2</ele>
        <time>2023-09-24T09:52:39Z</time>
      </trkpt>
      <trkpt lat="45.28727" lon="0.91037">
        <ele>165.1</ele>
        <time>2023-09-24T09:52:43Z</time>
      </trkpt>
      <trkpt lat="45.2874" lon="0.91018">
        <ele>165.2</ele>
        <time>2023-09-24T09:52:49Z</time>
      </trkpt>
      <trkpt lat="45.28747" lon="0.91012">
        <ele>164.9</ele>
        <time>2023-09-24T09:52:52Z</time>
      </trkpt>
      <trkpt lat="45.28751" lon="0.91011">
        <ele>164.7</ele>
        <time>2023-09-24T09:52:53Z</time>
      </trkpt>
      <trkpt lat="45.28761" lon="0.91009">
        <ele>164.2</ele>
        <time>2023-09-24T09:52:56Z</time>
      </trkpt>
      <trkpt lat="45.28767" lon="0.9101">
        <ele>164</ele>
        <time>2023-09-24T09:52:58Z</time>
      </trkpt>
      <trkpt lat="45.28773" lon="0.9101">
        <ele>163.8</ele>
        <time>2023-09-24T09:53:00Z</time>
      </trkpt>
      <trkpt lat="45.28792" lon="0.91016">
        <ele>163.2</ele>
        <time>2023-09-24T09:53:06Z</time>
      </trkpt>
      <trkpt lat="45.28817" lon="0.91021">
        <ele>163.3</ele>
        <time>2023-09-24T09:53:14Z</time>
      </trkpt>
      <trkpt lat="45.28844" lon="0.91028">
        <ele>163.9</ele>
        <time>2023-09-24T09:53:23Z</time>
      </trkpt>
      <trkpt lat="45.28854" lon="0.91033">
        <ele>164.4</ele>
        <time>2023-09-24T09:53:28Z</time>
      </trkpt>
      <trkpt lat="45.28863" lon="0.91034">
        <ele>164.9</ele>
        <time>2023-09-24T09:53:32Z</time>
      </trkpt>
      <trkpt lat="45.28864" lon="0.91035">
        <ele>165</ele>
        <time>2023-09-24T09:53:33Z</time>
      </trkpt>
      <trkpt lat="45.28869" lon="0.91038">
        <ele>165.5</ele>
        <time>2023-09-24T09:53:37Z</time>
      </trkpt>
      <trkpt lat="45.28878" lon="0.91042">
        <ele>166.2</ele>
        <time>2023-09-24T09:53:42Z</time>
      </trkpt>
      <trkpt lat="45.2888" lon="0.91042">
        <ele>166.4</ele>
        <time>2023-09-24T09:53:43Z</time>
      </trkpt>
      <trkpt lat="45.28881" lon="0.91042">
        <ele>166.5</ele>
        <time>2023-09-24T09:53:44Z</time>
      </trkpt>
      <trkpt lat="45.28895" lon="0.91045">
        <ele>167.8</ele>
        <time>2023-09-24T09:53:52Z</time>
      </trkpt>
      <trkpt lat="45.28907" lon="0.91047">
        <ele>169.1</ele>
        <time>2023-09-24T09:54:00Z</time>
      </trkpt>
      <trkpt lat="45.2891" lon="0.91048">
        <ele>169.5</ele>
        <time>2023-09-24T09:54:02Z</time>
      </trkpt>
      <trkpt lat="45.28913" lon="0.91048">
        <ele>169.8</ele>
        <time>2023-09-24T09:54:04Z</time>
      </trkpt>
      <trkpt lat="45.28918" lon="0.91047">
        <ele>170.5</ele>
        <time>2023-09-24T09:54:07Z</time>
      </trkpt>
      <trkpt lat="45.2893" lon="0.91046">
        <ele>171.9</ele>
        <time>2023-09-24T09:54:14Z</time>
      </trkpt>
      <trkpt lat="45.28939" lon="0.91047">
        <ele>172.9</ele>
        <time>2023-09-24T09:54:21Z</time>
      </trkpt>
      <trkpt lat="45.28945" lon="0.91049">
        <ele>173.7</ele>
        <time>2023-09-24T09:54:27Z</time>
      </trkpt>
      <trkpt lat="45.28946" lon="0.9105">
        <ele>173.8</ele>
        <time>2023-09-24T09:54:28Z</time>
      </trkpt>
      <trkpt lat="45.28953" lon="0.91051">
        <ele>174.5</ele>
        <time>2023-09-24T09:54:33Z</time>
      </trkpt>
      <trkpt lat="45.28962" lon="0.91051">
        <ele>175.3</ele>
        <time>2023-09-24T09:54:40Z</time>
      </trkpt>
      <trkpt lat="45.2897" lon="0.91052">
        <ele>176.2</ele>
        <time>2023-09-24T09:54:46Z</time>
      </trkpt>
      <trkpt lat="45.28979" lon="0.91057">
        <ele>178.5</ele>
        <time>2023-09-24T09:54:54Z</time>
      </trkpt>
      <trkpt lat="45.28981" lon="0.91061">
        <ele>178.5</ele>
        <time>2023-09-24T09:54:56Z</time>
      </trkpt>
      <trkpt lat="45.28983" lon="0.91065">
        <ele>178.5</ele>
        <time>2023-09-24T09:54:59Z</time>
      </trkpt>
      <trkpt lat="45.28975" lon="0.91071">
        <ele>178.5</ele>
        <time>2023-09-24T09:55:04Z</time>
      </trkpt>
      <trkpt lat="45.2896" lon="0.91087">
        <ele>175.5</ele>
        <time>2023-09-24T09:55:09Z</time>
      </trkpt>
      <trkpt lat="45.28946" lon="0.91115">
        <ele>173.7</ele>
        <time>2023-09-24T09:55:14Z</time>
      </trkpt>
      <trkpt lat="45.28924" lon="0.91163">
        <ele>170.7</ele>
        <time>2023-09-24T09:55:21Z</time>
      </trkpt>
      <trkpt lat="45.28907" lon="0.912">
        <ele>168.9</ele>
        <time>2023-09-24T09:55:26Z</time>
      </trkpt>
      <trkpt lat="45.28894" lon="0.91225">
        <ele>168.4</ele>
        <time>2023-09-24T09:55:30Z</time>
      </trkpt>
      <trkpt lat="45.28892" lon="0.9123">
        <ele>168.5</ele>
        <time>2023-09-24T09:55:31Z</time>
      </trkpt>
      <trkpt lat="45.2889" lon="0.91232">
        <ele>168.6</ele>
        <time>2023-09-24T09:55:32Z</time>
      </trkpt>
      <trkpt lat="45.28884" lon="0.91232">
        <ele>168.8</ele>
        <time>2023-09-24T09:55:35Z</time>
      </trkpt>
      <trkpt lat="45.28879" lon="0.91234">
        <ele>168.9</ele>
        <time>2023-09-24T09:55:37Z</time>
      </trkpt>
      <trkpt lat="45.28878" lon="0.91237">
        <ele>169</ele>
        <time>2023-09-24T09:55:39Z</time>
      </trkpt>
      <trkpt lat="45.28885" lon="0.9123">
        <ele>169.2</ele>
        <time>2023-09-24T09:55:41Z</time>
      </trkpt>
      <trkpt lat="45.28888" lon="0.91229">
        <ele>169.3</ele>
        <time>2023-09-24T09:55:42Z</time>
      </trkpt>
      <trkpt lat="45.28886" lon="0.91252">
        <ele>171.6</ele>
        <time>2023-09-24T09:55:46Z</time>
      </trkpt>
      <trkpt lat="45.28886" lon="0.91275">
        <ele>171.8</ele>
        <time>2023-09-24T09:55:51Z</time>
      </trkpt>
      <trkpt lat="45.28889" lon="0.91296">
        <ele>171.7</ele>
        <time>2023-09-24T09:55:56Z</time>
      </trkpt>
      <trkpt lat="45.28893" lon="0.91307">
        <ele>171.8</ele>
        <time>2023-09-24T09:55:59Z</time>
      </trkpt>
      <trkpt lat="45.28894" lon="0.91315">
        <ele>171.9</ele>
        <time>2023-09-24T09:56:01Z</time>
      </trkpt>
      <trkpt lat="45.28898" lon="0.91329">
        <ele>172</ele>
        <time>2023-09-24T09:56:05Z</time>
      </trkpt>
      <trkpt lat="45.289" lon="0.91343">
        <ele>172.1</ele>
        <time>2023-09-24T09:56:08Z</time>
      </trkpt>
      <trkpt lat="45.28902" lon="0.91352">
        <ele>172.1</ele>
        <time>2023-09-24T09:56:10Z</time>
      </trkpt>
      <trkpt lat="45.28905" lon="0.91374">
        <ele>172.2</ele>
        <time>2023-09-24T09:56:15Z</time>
      </trkpt>
      <trkpt lat="45.28909" lon="0.91402">
        <ele>172.2</ele>
        <time>2023-09-24T09:56:22Z</time>
      </trkpt>
      <trkpt lat="45.28909" lon="0.91406">
        <ele>172.2</ele>
        <time>2023-09-24T09:56:23Z</time>
      </trkpt>
      <trkpt lat="45.2891" lon="0.91413">
        <ele>172.1</ele>
        <time>2023-09-24T09:56:25Z</time>
      </trkpt>
      <trkpt lat="45.28912" lon="0.91423">
        <ele>172</ele>
        <time>2023-09-24T09:56:28Z</time>
      </trkpt>
      <trkpt lat="45.28913" lon="0.91426">
        <ele>172</ele>
        <time>2023-09-24T09:56:29Z</time>
      </trkpt>
      <trkpt lat="45.28917" lon="0.91434">
        <ele>171.9</ele>
        <time>2023-09-24T09:56:32Z</time>
      </trkpt>
      <trkpt lat="45.28918" lon="0.91441">
        <ele>171.9</ele>
        <time>2023-09-24T09:56:34Z</time>
      </trkpt>
      <trkpt lat="45.28921" lon="0.91446">
        <ele>172.1</ele>
        <time>2023-09-24T09:56:36Z</time>
      </trkpt>
      <trkpt lat="45.28921" lon="0.9145">
        <ele>172.1</ele>
        <time>2023-09-24T09:56:37Z</time>
      </trkpt>
      <trkpt lat="45.28921" lon="0.91458">
        <ele>172</ele>
        <time>2023-09-24T09:56:39Z</time>
      </trkpt>
      <trkpt lat="45.28921" lon="0.91465">
        <ele>172</ele>
        <time>2023-09-24T09:56:41Z</time>
      </trkpt>
      <trkpt lat="45.28923" lon="0.91468">
        <ele>172</ele>
        <time>2023-09-24T09:56:42Z</time>
      </trkpt>
      <trkpt lat="45.28924" lon="0.91473">
        <ele>172.2</ele>
        <time>2023-09-24T09:56:44Z</time>
      </trkpt>
      <trkpt lat="45.28923" lon="0.91482">
        <ele>172</ele>
        <time>2023-09-24T09:56:46Z</time>
      </trkpt>
      <trkpt lat="45.28919" lon="0.91508">
        <ele>171.9</ele>
        <time>2023-09-24T09:56:51Z</time>
      </trkpt>
      <trkpt lat="45.28918" lon="0.91514">
        <ele>171.9</ele>
        <time>2023-09-24T09:56:53Z</time>
      </trkpt>
      <trkpt lat="45.28917" lon="0.9152">
        <ele>172</ele>
        <time>2023-09-24T09:56:55Z</time>
      </trkpt>
      <trkpt lat="45.28918" lon="0.91523">
        <ele>172</ele>
        <time>2023-09-24T09:56:56Z</time>
      </trkpt>
      <trkpt lat="45.28923" lon="0.91536">
        <ele>172.2</ele>
        <time>2023-09-24T09:57:01Z</time>
      </trkpt>
      <trkpt lat="45.28927" lon="0.91543">
        <ele>172.4</ele>
        <time>2023-09-24T09:57:04Z</time>
      </trkpt>
      <trkpt lat="45.28928" lon="0.91546">
        <ele>172.4</ele>
        <time>2023-09-24T09:57:06Z</time>
      </trkpt>
      <trkpt lat="45.28927" lon="0.91557">
        <ele>172.3</ele>
        <time>2023-09-24T09:57:11Z</time>
      </trkpt>
      <trkpt lat="45.28926" lon="0.91567">
        <ele>172.2</ele>
        <time>2023-09-24T09:57:17Z</time>
      </trkpt>
      <trkpt lat="45.28926" lon="0.91568">
        <ele>172.3</ele>
        <time>2023-09-24T09:57:19Z</time>
      </trkpt>
    </trkseg>
  </trk>
</gpx>